<?xml version="1.0" encoding="UTF-8" standalone="no" ?>
<gpx xmlns="http://www.topografix.com/GPX/1/1" xmlns:xsi="http://www.w3.org/2001/XMLSchema-instance" xsi:schemaLocation="http://www.topografix.com/GPX/1/1 http://www.topografix.com/GPX/1/1/gpx.xsd" version="1.1" creator="VisuGPX - https://www.visugpx.com">
  <metadata>
    <name>Île-de-Molène (Finistère 29)</name>
    <desc><![CDATA[LeConquet-2]]></desc>
  </metadata>
  <trk>
    <name><![CDATA[LeConquet-2]]></name>
    <trkseg>
      <trkpt lat="48.35324" lon="-4.77665">
        <ele>7.1</ele>
        <time>2013-08-14T09:05:27.000+01:00</time>
      </trkpt>
      <trkpt lat="48.35334" lon="-4.77684">
        <ele>11.6</ele>
        <time>2013-08-14T09:05:29.000+01:00</time>
      </trkpt>
      <trkpt lat="48.35335" lon="-4.77693">
        <ele>24.7</ele>
        <time>2013-08-14T09:05:33.000+01:00</time>
      </trkpt>
      <trkpt lat="48.35337" lon="-4.77707">
        <ele>30.7</ele>
        <time>2013-08-14T09:05:37.000+01:00</time>
      </trkpt>
      <trkpt lat="48.35343" lon="-4.77719">
        <ele>42.9</ele>
        <time>2013-08-14T09:05:40.000+01:00</time>
      </trkpt>
      <trkpt lat="48.35334" lon="-4.77716">
        <ele>43</ele>
        <time>2013-08-14T09:05:42.000+01:00</time>
      </trkpt>
      <trkpt lat="48.35343" lon="-4.77721">
        <ele>46.1</ele>
        <time>2013-08-14T09:05:46.000+01:00</time>
      </trkpt>
      <trkpt lat="48.35354" lon="-4.77728">
        <ele>45.8</ele>
        <time>2013-08-14T09:05:48.000+01:00</time>
      </trkpt>
      <trkpt lat="48.35351" lon="-4.77719">
        <ele>38.2</ele>
        <time>2013-08-14T09:05:50.000+01:00</time>
      </trkpt>
      <trkpt lat="48.35347" lon="-4.77712">
        <ele>32.7</ele>
        <time>2013-08-14T09:05:56.000+01:00</time>
      </trkpt>
      <trkpt lat="48.35349" lon="-4.77706">
        <ele>24.9</ele>
        <time>2013-08-14T09:06:06.000+01:00</time>
      </trkpt>
      <trkpt lat="48.35347" lon="-4.77703">
        <ele>25</ele>
        <time>2013-08-14T09:06:14.000+01:00</time>
      </trkpt>
      <trkpt lat="48.35345" lon="-4.77713">
        <ele>36.7</ele>
        <time>2013-08-14T09:06:24.000+01:00</time>
      </trkpt>
      <trkpt lat="48.35345" lon="-4.77711">
        <ele>36.7</ele>
        <time>2013-08-14T09:06:51.000+01:00</time>
      </trkpt>
      <trkpt lat="48.35349" lon="-4.77719">
        <ele>37.4</ele>
        <time>2013-08-14T09:07:02.000+01:00</time>
      </trkpt>
      <trkpt lat="48.35353" lon="-4.7773">
        <ele>36.8</ele>
        <time>2013-08-14T09:07:23.000+01:00</time>
      </trkpt>
      <trkpt lat="48.35352" lon="-4.77742">
        <ele>36.9</ele>
        <time>2013-08-14T09:07:36.000+01:00</time>
      </trkpt>
      <trkpt lat="48.35345" lon="-4.77752">
        <ele>36.3</ele>
        <time>2013-08-14T09:07:45.000+01:00</time>
      </trkpt>
      <trkpt lat="48.35337" lon="-4.77757">
        <ele>35</ele>
        <time>2013-08-14T09:07:52.000+01:00</time>
      </trkpt>
      <trkpt lat="48.35327" lon="-4.77762">
        <ele>35.2</ele>
        <time>2013-08-14T09:08:00.000+01:00</time>
      </trkpt>
      <trkpt lat="48.35317" lon="-4.77764">
        <ele>34.8</ele>
        <time>2013-08-14T09:08:08.000+01:00</time>
      </trkpt>
      <trkpt lat="48.35307" lon="-4.77762">
        <ele>35.1</ele>
        <time>2013-08-14T09:08:16.000+01:00</time>
      </trkpt>
      <trkpt lat="48.35298" lon="-4.77759">
        <ele>34</ele>
        <time>2013-08-14T09:08:24.000+01:00</time>
      </trkpt>
      <trkpt lat="48.35289" lon="-4.77761">
        <ele>33.1</ele>
        <time>2013-08-14T09:08:32.000+01:00</time>
      </trkpt>
      <trkpt lat="48.35284" lon="-4.77773">
        <ele>32.2</ele>
        <time>2013-08-14T09:08:40.000+01:00</time>
      </trkpt>
      <trkpt lat="48.35287" lon="-4.77785">
        <ele>31.4</ele>
        <time>2013-08-14T09:08:49.000+01:00</time>
      </trkpt>
      <trkpt lat="48.35294" lon="-4.77794">
        <ele>30.6</ele>
        <time>2013-08-14T09:09:00.000+01:00</time>
      </trkpt>
      <trkpt lat="48.35301" lon="-4.77804">
        <ele>29.9</ele>
        <time>2013-08-14T09:09:08.000+01:00</time>
      </trkpt>
      <trkpt lat="48.35307" lon="-4.77814">
        <ele>29.9</ele>
        <time>2013-08-14T09:09:16.000+01:00</time>
      </trkpt>
      <trkpt lat="48.35314" lon="-4.77823">
        <ele>28.8</ele>
        <time>2013-08-14T09:09:24.000+01:00</time>
      </trkpt>
      <trkpt lat="48.35321" lon="-4.77831">
        <ele>28</ele>
        <time>2013-08-14T09:09:32.000+01:00</time>
      </trkpt>
      <trkpt lat="48.35328" lon="-4.77841">
        <ele>28</ele>
        <time>2013-08-14T09:09:41.000+01:00</time>
      </trkpt>
      <trkpt lat="48.35334" lon="-4.7785">
        <ele>27.7</ele>
        <time>2013-08-14T09:09:48.000+01:00</time>
      </trkpt>
      <trkpt lat="48.35339" lon="-4.77863">
        <ele>27.3</ele>
        <time>2013-08-14T09:09:56.000+01:00</time>
      </trkpt>
      <trkpt lat="48.35343" lon="-4.77877">
        <ele>27</ele>
        <time>2013-08-14T09:10:04.000+01:00</time>
      </trkpt>
      <trkpt lat="48.35346" lon="-4.77892">
        <ele>27.2</ele>
        <time>2013-08-14T09:10:12.000+01:00</time>
      </trkpt>
      <trkpt lat="48.35349" lon="-4.77906">
        <ele>27.4</ele>
        <time>2013-08-14T09:10:20.000+01:00</time>
      </trkpt>
      <trkpt lat="48.35352" lon="-4.7792">
        <ele>27.8</ele>
        <time>2013-08-14T09:10:28.000+01:00</time>
      </trkpt>
      <trkpt lat="48.35357" lon="-4.77934">
        <ele>28.2</ele>
        <time>2013-08-14T09:10:36.000+01:00</time>
      </trkpt>
      <trkpt lat="48.35362" lon="-4.77945">
        <ele>28.3</ele>
        <time>2013-08-14T09:10:44.000+01:00</time>
      </trkpt>
      <trkpt lat="48.35368" lon="-4.77956">
        <ele>28</ele>
        <time>2013-08-14T09:10:56.000+01:00</time>
      </trkpt>
      <trkpt lat="48.35376" lon="-4.77966">
        <ele>27.7</ele>
        <time>2013-08-14T09:11:04.000+01:00</time>
      </trkpt>
      <trkpt lat="48.35384" lon="-4.77973">
        <ele>27.9</ele>
        <time>2013-08-14T09:11:12.000+01:00</time>
      </trkpt>
      <trkpt lat="48.35393" lon="-4.77975">
        <ele>29.3</ele>
        <time>2013-08-14T09:11:20.000+01:00</time>
      </trkpt>
      <trkpt lat="48.35403" lon="-4.77975">
        <ele>29.8</ele>
        <time>2013-08-14T09:11:28.000+01:00</time>
      </trkpt>
      <trkpt lat="48.35412" lon="-4.77978">
        <ele>31.1</ele>
        <time>2013-08-14T09:11:43.000+01:00</time>
      </trkpt>
      <trkpt lat="48.35421" lon="-4.77983">
        <ele>32</ele>
        <time>2013-08-14T09:11:54.000+01:00</time>
      </trkpt>
      <trkpt lat="48.35426" lon="-4.77994">
        <ele>31.5</ele>
        <time>2013-08-14T09:12:04.000+01:00</time>
      </trkpt>
      <trkpt lat="48.35427" lon="-4.77988">
        <ele>31.7</ele>
        <time>2013-08-14T09:12:33.000+01:00</time>
      </trkpt>
      <trkpt lat="48.35421" lon="-4.77988">
        <ele>33.5</ele>
        <time>2013-08-14T09:13:16.000+01:00</time>
      </trkpt>
      <trkpt lat="48.35414" lon="-4.77978">
        <ele>33.2</ele>
        <time>2013-08-14T09:13:22.000+01:00</time>
      </trkpt>
      <trkpt lat="48.35404" lon="-4.77975">
        <ele>32.8</ele>
        <time>2013-08-14T09:13:28.000+01:00</time>
      </trkpt>
      <trkpt lat="48.35395" lon="-4.77976">
        <ele>32.9</ele>
        <time>2013-08-14T09:13:34.000+01:00</time>
      </trkpt>
      <trkpt lat="48.35386" lon="-4.77974">
        <ele>33</ele>
        <time>2013-08-14T09:13:40.000+01:00</time>
      </trkpt>
      <trkpt lat="48.35376" lon="-4.77969">
        <ele>31.7</ele>
        <time>2013-08-14T09:13:46.000+01:00</time>
      </trkpt>
      <trkpt lat="48.35368" lon="-4.77958">
        <ele>31.9</ele>
        <time>2013-08-14T09:13:52.000+01:00</time>
      </trkpt>
      <trkpt lat="48.35362" lon="-4.77946">
        <ele>31</ele>
        <time>2013-08-14T09:13:58.000+01:00</time>
      </trkpt>
      <trkpt lat="48.35356" lon="-4.77935">
        <ele>29.6</ele>
        <time>2013-08-14T09:14:04.000+01:00</time>
      </trkpt>
      <trkpt lat="48.35352" lon="-4.77921">
        <ele>28.6</ele>
        <time>2013-08-14T09:14:10.000+01:00</time>
      </trkpt>
      <trkpt lat="48.35348" lon="-4.77907">
        <ele>27.9</ele>
        <time>2013-08-14T09:14:16.000+01:00</time>
      </trkpt>
      <trkpt lat="48.35345" lon="-4.77892">
        <ele>27.1</ele>
        <time>2013-08-14T09:14:22.000+01:00</time>
      </trkpt>
      <trkpt lat="48.35342" lon="-4.77878">
        <ele>26.7</ele>
        <time>2013-08-14T09:14:28.000+01:00</time>
      </trkpt>
      <trkpt lat="48.35338" lon="-4.77864">
        <ele>26.7</ele>
        <time>2013-08-14T09:14:34.000+01:00</time>
      </trkpt>
      <trkpt lat="48.35333" lon="-4.7785">
        <ele>26.9</ele>
        <time>2013-08-14T09:14:40.000+01:00</time>
      </trkpt>
      <trkpt lat="48.35327" lon="-4.77839">
        <ele>27.2</ele>
        <time>2013-08-14T09:14:46.000+01:00</time>
      </trkpt>
      <trkpt lat="48.35319" lon="-4.77829">
        <ele>27.4</ele>
        <time>2013-08-14T09:14:52.000+01:00</time>
      </trkpt>
      <trkpt lat="48.35312" lon="-4.7782">
        <ele>27.9</ele>
        <time>2013-08-14T09:14:58.000+01:00</time>
      </trkpt>
      <trkpt lat="48.35305" lon="-4.77811">
        <ele>28.9</ele>
        <time>2013-08-14T09:15:04.000+01:00</time>
      </trkpt>
      <trkpt lat="48.35297" lon="-4.77802">
        <ele>30</ele>
        <time>2013-08-14T09:15:10.000+01:00</time>
      </trkpt>
      <trkpt lat="48.35289" lon="-4.77791">
        <ele>30</ele>
        <time>2013-08-14T09:15:17.000+01:00</time>
      </trkpt>
      <trkpt lat="48.35282" lon="-4.77782">
        <ele>30</ele>
        <time>2013-08-14T09:15:23.000+01:00</time>
      </trkpt>
      <trkpt lat="48.35285" lon="-4.77769">
        <ele>31.8</ele>
        <time>2013-08-14T09:15:30.000+01:00</time>
      </trkpt>
      <trkpt lat="48.3529" lon="-4.77758">
        <ele>32.8</ele>
        <time>2013-08-14T09:15:36.000+01:00</time>
      </trkpt>
      <trkpt lat="48.35298" lon="-4.77751">
        <ele>32.8</ele>
        <time>2013-08-14T09:15:42.000+01:00</time>
      </trkpt>
      <trkpt lat="48.35308" lon="-4.77752">
        <ele>32.7</ele>
        <time>2013-08-14T09:15:48.000+01:00</time>
      </trkpt>
      <trkpt lat="48.35318" lon="-4.77753">
        <ele>33</ele>
        <time>2013-08-14T09:15:54.000+01:00</time>
      </trkpt>
      <trkpt lat="48.35327" lon="-4.7775">
        <ele>33.5</ele>
        <time>2013-08-14T09:16:00.000+01:00</time>
      </trkpt>
      <trkpt lat="48.35336" lon="-4.77747">
        <ele>33.9</ele>
        <time>2013-08-14T09:16:06.000+01:00</time>
      </trkpt>
      <trkpt lat="48.35344" lon="-4.77742">
        <ele>34.3</ele>
        <time>2013-08-14T09:16:12.000+01:00</time>
      </trkpt>
      <trkpt lat="48.3535" lon="-4.77732">
        <ele>34.5</ele>
        <time>2013-08-14T09:16:18.000+01:00</time>
      </trkpt>
      <trkpt lat="48.35347" lon="-4.77721">
        <ele>34.5</ele>
        <time>2013-08-14T09:16:24.000+01:00</time>
      </trkpt>
      <trkpt lat="48.35343" lon="-4.77712">
        <ele>35.6</ele>
        <time>2013-08-14T09:16:35.000+01:00</time>
      </trkpt>
      <trkpt lat="48.35342" lon="-4.77713">
        <ele>32.8</ele>
        <time>2013-08-14T09:18:26.000+01:00</time>
      </trkpt>
      <trkpt lat="48.35345" lon="-4.77712">
        <ele>37.7</ele>
        <time>2013-08-14T09:19:00.000+01:00</time>
      </trkpt>
      <trkpt lat="48.35345" lon="-4.77717">
        <ele>35.7</ele>
        <time>2013-08-14T09:19:15.000+01:00</time>
      </trkpt>
      <trkpt lat="48.3535" lon="-4.77727">
        <ele>35.4</ele>
        <time>2013-08-14T09:19:23.000+01:00</time>
      </trkpt>
      <trkpt lat="48.35349" lon="-4.77739">
        <ele>34.1</ele>
        <time>2013-08-14T09:19:33.000+01:00</time>
      </trkpt>
      <trkpt lat="48.35342" lon="-4.77751">
        <ele>34.6</ele>
        <time>2013-08-14T09:19:40.000+01:00</time>
      </trkpt>
      <trkpt lat="48.35333" lon="-4.77757">
        <ele>34.4</ele>
        <time>2013-08-14T09:19:46.000+01:00</time>
      </trkpt>
      <trkpt lat="48.35324" lon="-4.7776">
        <ele>33.7</ele>
        <time>2013-08-14T09:19:52.000+01:00</time>
      </trkpt>
      <trkpt lat="48.35314" lon="-4.77761">
        <ele>33.4</ele>
        <time>2013-08-14T09:19:58.000+01:00</time>
      </trkpt>
      <trkpt lat="48.35304" lon="-4.77761">
        <ele>32.5</ele>
        <time>2013-08-14T09:20:04.000+01:00</time>
      </trkpt>
      <trkpt lat="48.35294" lon="-4.77758">
        <ele>32.4</ele>
        <time>2013-08-14T09:20:10.000+01:00</time>
      </trkpt>
      <trkpt lat="48.35287" lon="-4.77766">
        <ele>31.2</ele>
        <time>2013-08-14T09:20:16.000+01:00</time>
      </trkpt>
      <trkpt lat="48.35281" lon="-4.77778">
        <ele>29.3</ele>
        <time>2013-08-14T09:20:22.000+01:00</time>
      </trkpt>
      <trkpt lat="48.35289" lon="-4.77788">
        <ele>29</ele>
        <time>2013-08-14T09:20:29.000+01:00</time>
      </trkpt>
      <trkpt lat="48.35296" lon="-4.77798">
        <ele>28.7</ele>
        <time>2013-08-14T09:20:35.000+01:00</time>
      </trkpt>
      <trkpt lat="48.35304" lon="-4.77809">
        <ele>30.6</ele>
        <time>2013-08-14T09:20:42.000+01:00</time>
      </trkpt>
      <trkpt lat="48.35311" lon="-4.77819">
        <ele>31.2</ele>
        <time>2013-08-14T09:20:49.000+01:00</time>
      </trkpt>
      <trkpt lat="48.35319" lon="-4.77829">
        <ele>30.7</ele>
        <time>2013-08-14T09:20:55.000+01:00</time>
      </trkpt>
      <trkpt lat="48.35326" lon="-4.77839">
        <ele>30</ele>
        <time>2013-08-14T09:21:01.000+01:00</time>
      </trkpt>
      <trkpt lat="48.35333" lon="-4.77848">
        <ele>29.1</ele>
        <time>2013-08-14T09:21:07.000+01:00</time>
      </trkpt>
      <trkpt lat="48.35339" lon="-4.7786">
        <ele>27.7</ele>
        <time>2013-08-14T09:21:13.000+01:00</time>
      </trkpt>
      <trkpt lat="48.35343" lon="-4.77874">
        <ele>26.5</ele>
        <time>2013-08-14T09:21:19.000+01:00</time>
      </trkpt>
      <trkpt lat="48.35346" lon="-4.77888">
        <ele>26.6</ele>
        <time>2013-08-14T09:21:25.000+01:00</time>
      </trkpt>
      <trkpt lat="48.35349" lon="-4.77902">
        <ele>26.7</ele>
        <time>2013-08-14T09:21:31.000+01:00</time>
      </trkpt>
      <trkpt lat="48.35352" lon="-4.77916">
        <ele>27</ele>
        <time>2013-08-14T09:21:37.000+01:00</time>
      </trkpt>
      <trkpt lat="48.35356" lon="-4.77929">
        <ele>27.1</ele>
        <time>2013-08-14T09:21:43.000+01:00</time>
      </trkpt>
      <trkpt lat="48.35361" lon="-4.77941">
        <ele>27.7</ele>
        <time>2013-08-14T09:21:49.000+01:00</time>
      </trkpt>
      <trkpt lat="48.35368" lon="-4.77951">
        <ele>26.9</ele>
        <time>2013-08-14T09:21:55.000+01:00</time>
      </trkpt>
      <trkpt lat="48.35374" lon="-4.77962">
        <ele>26.3</ele>
        <time>2013-08-14T09:22:01.000+01:00</time>
      </trkpt>
      <trkpt lat="48.35382" lon="-4.77971">
        <ele>26.4</ele>
        <time>2013-08-14T09:22:07.000+01:00</time>
      </trkpt>
      <trkpt lat="48.35391" lon="-4.77974">
        <ele>28.8</ele>
        <time>2013-08-14T09:22:18.000+01:00</time>
      </trkpt>
      <trkpt lat="48.35401" lon="-4.77975">
        <ele>30.3</ele>
        <time>2013-08-14T09:22:26.000+01:00</time>
      </trkpt>
      <trkpt lat="48.3541" lon="-4.77976">
        <ele>32.3</ele>
        <time>2013-08-14T09:22:33.000+01:00</time>
      </trkpt>
      <trkpt lat="48.35419" lon="-4.7798">
        <ele>34.7</ele>
        <time>2013-08-14T09:22:41.000+01:00</time>
      </trkpt>
      <trkpt lat="48.35428" lon="-4.77977">
        <ele>34.6</ele>
        <time>2013-08-14T09:22:50.000+01:00</time>
      </trkpt>
      <trkpt lat="48.35437" lon="-4.77971">
        <ele>33.5</ele>
        <time>2013-08-14T09:22:58.000+01:00</time>
      </trkpt>
      <trkpt lat="48.35442" lon="-4.77961">
        <ele>33.8</ele>
        <time>2013-08-14T09:23:06.000+01:00</time>
      </trkpt>
      <trkpt lat="48.35451" lon="-4.77955">
        <ele>33.2</ele>
        <time>2013-08-14T09:23:13.000+01:00</time>
      </trkpt>
      <trkpt lat="48.35459" lon="-4.77947">
        <ele>31.8</ele>
        <time>2013-08-14T09:23:21.000+01:00</time>
      </trkpt>
      <trkpt lat="48.35466" lon="-4.77939">
        <ele>31.1</ele>
        <time>2013-08-14T09:23:29.000+01:00</time>
      </trkpt>
      <trkpt lat="48.35471" lon="-4.7793">
        <ele>28.2</ele>
        <time>2013-08-14T09:23:43.000+01:00</time>
      </trkpt>
      <trkpt lat="48.35478" lon="-4.77923">
        <ele>28.4</ele>
        <time>2013-08-14T09:23:53.000+01:00</time>
      </trkpt>
      <trkpt lat="48.35486" lon="-4.77918">
        <ele>26.3</ele>
        <time>2013-08-14T09:24:12.000+01:00</time>
      </trkpt>
      <trkpt lat="48.35495" lon="-4.7791">
        <ele>25.4</ele>
        <time>2013-08-14T09:24:20.000+01:00</time>
      </trkpt>
      <trkpt lat="48.35504" lon="-4.77901">
        <ele>24</ele>
        <time>2013-08-14T09:24:28.000+01:00</time>
      </trkpt>
      <trkpt lat="48.35511" lon="-4.77893">
        <ele>23.1</ele>
        <time>2013-08-14T09:24:37.000+01:00</time>
      </trkpt>
      <trkpt lat="48.35518" lon="-4.77884">
        <ele>22.3</ele>
        <time>2013-08-14T09:24:46.000+01:00</time>
      </trkpt>
      <trkpt lat="48.35525" lon="-4.77875">
        <ele>20.7</ele>
        <time>2013-08-14T09:24:58.000+01:00</time>
      </trkpt>
      <trkpt lat="48.35533" lon="-4.77867">
        <ele>19.7</ele>
        <time>2013-08-14T09:25:05.000+01:00</time>
      </trkpt>
      <trkpt lat="48.35542" lon="-4.77861">
        <ele>19.1</ele>
        <time>2013-08-14T09:25:12.000+01:00</time>
      </trkpt>
      <trkpt lat="48.3555" lon="-4.77854">
        <ele>18.4</ele>
        <time>2013-08-14T09:25:19.000+01:00</time>
      </trkpt>
      <trkpt lat="48.35559" lon="-4.77847">
        <ele>17.4</ele>
        <time>2013-08-14T09:25:26.000+01:00</time>
      </trkpt>
      <trkpt lat="48.35568" lon="-4.77841">
        <ele>16.3</ele>
        <time>2013-08-14T09:25:34.000+01:00</time>
      </trkpt>
      <trkpt lat="48.35576" lon="-4.77837">
        <ele>14.8</ele>
        <time>2013-08-14T09:25:42.000+01:00</time>
      </trkpt>
      <trkpt lat="48.35585" lon="-4.77832">
        <ele>14.5</ele>
        <time>2013-08-14T09:25:50.000+01:00</time>
      </trkpt>
      <trkpt lat="48.35593" lon="-4.77825">
        <ele>14.5</ele>
        <time>2013-08-14T09:25:58.000+01:00</time>
      </trkpt>
      <trkpt lat="48.356" lon="-4.77816">
        <ele>14</ele>
        <time>2013-08-14T09:26:05.000+01:00</time>
      </trkpt>
      <trkpt lat="48.35609" lon="-4.77811">
        <ele>14.2</ele>
        <time>2013-08-14T09:26:12.000+01:00</time>
      </trkpt>
      <trkpt lat="48.35619" lon="-4.77806">
        <ele>13.9</ele>
        <time>2013-08-14T09:26:20.000+01:00</time>
      </trkpt>
      <trkpt lat="48.35629" lon="-4.77802">
        <ele>13.2</ele>
        <time>2013-08-14T09:26:28.000+01:00</time>
      </trkpt>
      <trkpt lat="48.35637" lon="-4.77799">
        <ele>13.1</ele>
        <time>2013-08-14T09:26:35.000+01:00</time>
      </trkpt>
      <trkpt lat="48.35647" lon="-4.77795">
        <ele>12.4</ele>
        <time>2013-08-14T09:26:42.000+01:00</time>
      </trkpt>
      <trkpt lat="48.35656" lon="-4.7779">
        <ele>11.9</ele>
        <time>2013-08-14T09:26:49.000+01:00</time>
      </trkpt>
      <trkpt lat="48.35663" lon="-4.7778">
        <ele>11.4</ele>
        <time>2013-08-14T09:26:56.000+01:00</time>
      </trkpt>
      <trkpt lat="48.35668" lon="-4.77769">
        <ele>11.5</ele>
        <time>2013-08-14T09:27:03.000+01:00</time>
      </trkpt>
      <trkpt lat="48.35672" lon="-4.77755">
        <ele>11.7</ele>
        <time>2013-08-14T09:27:10.000+01:00</time>
      </trkpt>
      <trkpt lat="48.35677" lon="-4.77743">
        <ele>12</ele>
        <time>2013-08-14T09:27:17.000+01:00</time>
      </trkpt>
      <trkpt lat="48.35684" lon="-4.77749">
        <ele>13.2</ele>
        <time>2013-08-14T09:27:25.000+01:00</time>
      </trkpt>
      <trkpt lat="48.35683" lon="-4.77764">
        <ele>14.8</ele>
        <time>2013-08-14T09:27:34.000+01:00</time>
      </trkpt>
      <trkpt lat="48.35684" lon="-4.7778">
        <ele>14.1</ele>
        <time>2013-08-14T09:27:41.000+01:00</time>
      </trkpt>
      <trkpt lat="48.35688" lon="-4.77792">
        <ele>12.5</ele>
        <time>2013-08-14T09:27:48.000+01:00</time>
      </trkpt>
      <trkpt lat="48.35694" lon="-4.77804">
        <ele>14.6</ele>
        <time>2013-08-14T09:27:57.000+01:00</time>
      </trkpt>
      <trkpt lat="48.35702" lon="-4.77813">
        <ele>15.4</ele>
        <time>2013-08-14T09:28:05.000+01:00</time>
      </trkpt>
      <trkpt lat="48.35707" lon="-4.77825">
        <ele>17.1</ele>
        <time>2013-08-14T09:28:14.000+01:00</time>
      </trkpt>
      <trkpt lat="48.35713" lon="-4.77835">
        <ele>19.4</ele>
        <time>2013-08-14T09:28:21.000+01:00</time>
      </trkpt>
      <trkpt lat="48.35719" lon="-4.77844">
        <ele>19.1</ele>
        <time>2013-08-14T09:28:28.000+01:00</time>
      </trkpt>
      <trkpt lat="48.35728" lon="-4.77851">
        <ele>16.2</ele>
        <time>2013-08-14T09:28:35.000+01:00</time>
      </trkpt>
      <trkpt lat="48.35734" lon="-4.77862">
        <ele>15.6</ele>
        <time>2013-08-14T09:28:42.000+01:00</time>
      </trkpt>
      <trkpt lat="48.35741" lon="-4.77872">
        <ele>14.9</ele>
        <time>2013-08-14T09:28:51.000+01:00</time>
      </trkpt>
      <trkpt lat="48.35747" lon="-4.77883">
        <ele>15.7</ele>
        <time>2013-08-14T09:28:58.000+01:00</time>
      </trkpt>
      <trkpt lat="48.35753" lon="-4.77895">
        <ele>17.1</ele>
        <time>2013-08-14T09:29:05.000+01:00</time>
      </trkpt>
      <trkpt lat="48.35761" lon="-4.77902">
        <ele>16.1</ele>
        <time>2013-08-14T09:29:12.000+01:00</time>
      </trkpt>
      <trkpt lat="48.35769" lon="-4.7791">
        <ele>15.1</ele>
        <time>2013-08-14T09:29:19.000+01:00</time>
      </trkpt>
      <trkpt lat="48.35775" lon="-4.77922">
        <ele>14.6</ele>
        <time>2013-08-14T09:29:27.000+01:00</time>
      </trkpt>
      <trkpt lat="48.35782" lon="-4.7793">
        <ele>16</ele>
        <time>2013-08-14T09:29:35.000+01:00</time>
      </trkpt>
      <trkpt lat="48.35791" lon="-4.77938">
        <ele>17.3</ele>
        <time>2013-08-14T09:29:46.000+01:00</time>
      </trkpt>
      <trkpt lat="48.358" lon="-4.77945">
        <ele>19.4</ele>
        <time>2013-08-14T09:29:54.000+01:00</time>
      </trkpt>
      <trkpt lat="48.35809" lon="-4.7795">
        <ele>19.7</ele>
        <time>2013-08-14T09:30:01.000+01:00</time>
      </trkpt>
      <trkpt lat="48.35817" lon="-4.77957">
        <ele>21.3</ele>
        <time>2013-08-14T09:30:09.000+01:00</time>
      </trkpt>
      <trkpt lat="48.35827" lon="-4.77958">
        <ele>19.4</ele>
        <time>2013-08-14T09:30:19.000+01:00</time>
      </trkpt>
      <trkpt lat="48.35835" lon="-4.77964">
        <ele>19.4</ele>
        <time>2013-08-14T09:30:26.000+01:00</time>
      </trkpt>
      <trkpt lat="48.35843" lon="-4.77971">
        <ele>21.1</ele>
        <time>2013-08-14T09:30:34.000+01:00</time>
      </trkpt>
      <trkpt lat="48.35853" lon="-4.77975">
        <ele>21.8</ele>
        <time>2013-08-14T09:30:42.000+01:00</time>
      </trkpt>
      <trkpt lat="48.35861" lon="-4.7798">
        <ele>24.9</ele>
        <time>2013-08-14T09:30:50.000+01:00</time>
      </trkpt>
      <trkpt lat="48.3587" lon="-4.77986">
        <ele>26.5</ele>
        <time>2013-08-14T09:30:58.000+01:00</time>
      </trkpt>
      <trkpt lat="48.35878" lon="-4.77982">
        <ele>24</ele>
        <time>2013-08-14T09:31:04.000+01:00</time>
      </trkpt>
      <trkpt lat="48.35886" lon="-4.77973">
        <ele>23.4</ele>
        <time>2013-08-14T09:31:11.000+01:00</time>
      </trkpt>
      <trkpt lat="48.35892" lon="-4.77962">
        <ele>22</ele>
        <time>2013-08-14T09:31:19.000+01:00</time>
      </trkpt>
      <trkpt lat="48.35897" lon="-4.7795">
        <ele>22</ele>
        <time>2013-08-14T09:31:28.000+01:00</time>
      </trkpt>
      <trkpt lat="48.359" lon="-4.77936">
        <ele>23.1</ele>
        <time>2013-08-14T09:31:36.000+01:00</time>
      </trkpt>
      <trkpt lat="48.35907" lon="-4.77931">
        <ele>23.6</ele>
        <time>2013-08-14T09:31:46.000+01:00</time>
      </trkpt>
      <trkpt lat="48.35909" lon="-4.77924">
        <ele>21.7</ele>
        <time>2013-08-14T09:32:01.000+01:00</time>
      </trkpt>
      <trkpt lat="48.35917" lon="-4.77932">
        <ele>22.6</ele>
        <time>2013-08-14T09:32:16.000+01:00</time>
      </trkpt>
      <trkpt lat="48.35916" lon="-4.77944">
        <ele>18.6</ele>
        <time>2013-08-14T09:32:24.000+01:00</time>
      </trkpt>
      <trkpt lat="48.35914" lon="-4.77958">
        <ele>15.7</ele>
        <time>2013-08-14T09:32:32.000+01:00</time>
      </trkpt>
      <trkpt lat="48.35922" lon="-4.77957">
        <ele>14.5</ele>
        <time>2013-08-14T09:32:43.000+01:00</time>
      </trkpt>
      <trkpt lat="48.35923" lon="-4.77954">
        <ele>13.1</ele>
        <time>2013-08-14T09:32:54.000+01:00</time>
      </trkpt>
      <trkpt lat="48.35918" lon="-4.77967">
        <ele>13.3</ele>
        <time>2013-08-14T09:33:03.000+01:00</time>
      </trkpt>
      <trkpt lat="48.35918" lon="-4.77972">
        <ele>10.4</ele>
        <time>2013-08-14T09:33:20.000+01:00</time>
      </trkpt>
      <trkpt lat="48.35925" lon="-4.77965">
        <ele>10.5</ele>
        <time>2013-08-14T09:33:32.000+01:00</time>
      </trkpt>
      <trkpt lat="48.3593" lon="-4.77954">
        <ele>9.6</ele>
        <time>2013-08-14T09:33:42.000+01:00</time>
      </trkpt>
      <trkpt lat="48.35931" lon="-4.77949">
        <ele>6.9</ele>
        <time>2013-08-14T09:33:56.000+01:00</time>
      </trkpt>
      <trkpt lat="48.35935" lon="-4.77953">
        <ele>6.1</ele>
        <time>2013-08-14T09:34:06.000+01:00</time>
      </trkpt>
      <trkpt lat="48.35928" lon="-4.77951">
        <ele>-0.4</ele>
        <time>2013-08-14T09:34:18.000+01:00</time>
      </trkpt>
      <trkpt lat="48.3593" lon="-4.77954">
        <ele>-5.6</ele>
        <time>2013-08-14T09:34:35.000+01:00</time>
      </trkpt>
      <trkpt lat="48.35936" lon="-4.77959">
        <ele>-4.3</ele>
        <time>2013-08-14T09:34:48.000+01:00</time>
      </trkpt>
      <trkpt lat="48.35934" lon="-4.77964">
        <ele>10</ele>
        <time>2013-08-14T09:35:05.000+01:00</time>
      </trkpt>
      <trkpt lat="48.35932" lon="-4.77973">
        <ele>27.1</ele>
        <time>2013-08-14T09:35:19.000+01:00</time>
      </trkpt>
      <trkpt lat="48.35933" lon="-4.77979">
        <ele>25.8</ele>
        <time>2013-08-14T09:35:35.000+01:00</time>
      </trkpt>
      <trkpt lat="48.35932" lon="-4.77969">
        <ele>24.4</ele>
        <time>2013-08-14T09:35:54.000+01:00</time>
      </trkpt>
      <trkpt lat="48.3594" lon="-4.77969">
        <ele>24.5</ele>
        <time>2013-08-14T09:36:05.000+01:00</time>
      </trkpt>
      <trkpt lat="48.35938" lon="-4.77967">
        <ele>24.3</ele>
        <time>2013-08-14T09:36:20.000+01:00</time>
      </trkpt>
      <trkpt lat="48.35944" lon="-4.77976">
        <ele>30.3</ele>
        <time>2013-08-14T09:36:27.000+01:00</time>
      </trkpt>
      <trkpt lat="48.35944" lon="-4.77982">
        <ele>32.1</ele>
        <time>2013-08-14T09:36:41.000+01:00</time>
      </trkpt>
      <trkpt lat="48.35946" lon="-4.77986">
        <ele>28.9</ele>
        <time>2013-08-14T09:36:50.000+01:00</time>
      </trkpt>
      <trkpt lat="48.35951" lon="-4.77982">
        <ele>30</ele>
        <time>2013-08-14T09:36:57.000+01:00</time>
      </trkpt>
      <trkpt lat="48.35957" lon="-4.7798">
        <ele>25.4</ele>
        <time>2013-08-14T09:37:04.000+01:00</time>
      </trkpt>
      <trkpt lat="48.35951" lon="-4.77975">
        <ele>14.2</ele>
        <time>2013-08-14T09:37:13.000+01:00</time>
      </trkpt>
      <trkpt lat="48.35945" lon="-4.77968">
        <ele>7.3</ele>
        <time>2013-08-14T09:37:22.000+01:00</time>
      </trkpt>
      <trkpt lat="48.35941" lon="-4.7796">
        <ele>9</ele>
        <time>2013-08-14T09:37:30.000+01:00</time>
      </trkpt>
      <trkpt lat="48.35958" lon="-4.78291">
        <ele>3.1</ele>
        <time>2013-08-14T10:18:03.000+01:00</time>
      </trkpt>
      <trkpt lat="48.35958" lon="-4.78289">
        <ele>7.1</ele>
        <time>2013-08-14T10:18:48.000+01:00</time>
      </trkpt>
      <trkpt lat="48.35954" lon="-4.78279">
        <ele>7.2</ele>
        <time>2013-08-14T10:19:19.000+01:00</time>
      </trkpt>
      <trkpt lat="48.35954" lon="-4.78273">
        <ele>7.6</ele>
        <time>2013-08-14T10:20:36.000+01:00</time>
      </trkpt>
      <trkpt lat="48.35947" lon="-4.78267">
        <ele>8.4</ele>
        <time>2013-08-14T10:21:13.000+01:00</time>
      </trkpt>
      <trkpt lat="48.35945" lon="-4.78266">
        <ele>7.8</ele>
        <time>2013-08-14T10:22:08.000+01:00</time>
      </trkpt>
      <trkpt lat="48.35945" lon="-4.78265">
        <ele>7.1</ele>
        <time>2013-08-14T10:23:09.000+01:00</time>
      </trkpt>
      <trkpt lat="48.35944" lon="-4.78264">
        <ele>5.9</ele>
        <time>2013-08-14T10:24:08.000+01:00</time>
      </trkpt>
      <trkpt lat="48.35944" lon="-4.78264">
        <ele>5.7</ele>
        <time>2013-08-14T10:24:55.000+01:00</time>
      </trkpt>
      <trkpt lat="48.35943" lon="-4.78265">
        <ele>7.3</ele>
        <time>2013-08-14T10:25:58.000+01:00</time>
      </trkpt>
      <trkpt lat="48.35945" lon="-4.78263">
        <ele>8.4</ele>
        <time>2013-08-14T10:26:41.000+01:00</time>
      </trkpt>
      <trkpt lat="48.35942" lon="-4.78263">
        <ele>8.8</ele>
        <time>2013-08-14T10:27:54.000+01:00</time>
      </trkpt>
      <trkpt lat="48.35943" lon="-4.78263">
        <ele>5.6</ele>
        <time>2013-08-14T10:28:49.000+01:00</time>
      </trkpt>
      <trkpt lat="48.35943" lon="-4.78264">
        <ele>5.7</ele>
        <time>2013-08-14T10:29:41.000+01:00</time>
      </trkpt>
      <trkpt lat="48.3594" lon="-4.78263">
        <ele>6.8</ele>
        <time>2013-08-14T10:30:36.000+01:00</time>
      </trkpt>
      <trkpt lat="48.35941" lon="-4.78263">
        <ele>7.3</ele>
        <time>2013-08-14T10:31:44.000+01:00</time>
      </trkpt>
      <trkpt lat="48.35941" lon="-4.78259">
        <ele>8.3</ele>
        <time>2013-08-14T10:32:35.000+01:00</time>
      </trkpt>
      <trkpt lat="48.35945" lon="-4.78262">
        <ele>-0.2</ele>
        <time>2013-08-14T10:32:55.000+01:00</time>
      </trkpt>
      <trkpt lat="48.35951" lon="-4.78263">
        <ele>1.6</ele>
        <time>2013-08-14T10:33:08.000+01:00</time>
      </trkpt>
      <trkpt lat="48.35954" lon="-4.78258">
        <ele>7</ele>
        <time>2013-08-14T10:33:34.000+01:00</time>
      </trkpt>
      <trkpt lat="48.35951" lon="-4.7825">
        <ele>9.5</ele>
        <time>2013-08-14T10:34:53.000+01:00</time>
      </trkpt>
      <trkpt lat="48.35951" lon="-4.78249">
        <ele>10.4</ele>
        <time>2013-08-14T10:35:31.000+01:00</time>
      </trkpt>
      <trkpt lat="48.35955" lon="-4.78252">
        <ele>10.2</ele>
        <time>2013-08-14T10:36:08.000+01:00</time>
      </trkpt>
      <trkpt lat="48.35964" lon="-4.78254">
        <ele>10</ele>
        <time>2013-08-14T10:36:28.000+01:00</time>
      </trkpt>
      <trkpt lat="48.35974" lon="-4.78257">
        <ele>9.2</ele>
        <time>2013-08-14T10:36:35.000+01:00</time>
      </trkpt>
      <trkpt lat="48.35983" lon="-4.7826">
        <ele>8.5</ele>
        <time>2013-08-14T10:36:40.000+01:00</time>
      </trkpt>
      <trkpt lat="48.35992" lon="-4.78261">
        <ele>8.2</ele>
        <time>2013-08-14T10:36:45.000+01:00</time>
      </trkpt>
      <trkpt lat="48.36003" lon="-4.78263">
        <ele>7.9</ele>
        <time>2013-08-14T10:36:51.000+01:00</time>
      </trkpt>
      <trkpt lat="48.36012" lon="-4.78265">
        <ele>7.6</ele>
        <time>2013-08-14T10:36:58.000+01:00</time>
      </trkpt>
      <trkpt lat="48.3602" lon="-4.78263">
        <ele>8</ele>
        <time>2013-08-14T10:37:13.000+01:00</time>
      </trkpt>
      <trkpt lat="48.3601" lon="-4.7827">
        <ele>7.7</ele>
        <time>2013-08-14T10:37:24.000+01:00</time>
      </trkpt>
      <trkpt lat="48.36006" lon="-4.78284">
        <ele>7.9</ele>
        <time>2013-08-14T10:37:30.000+01:00</time>
      </trkpt>
      <trkpt lat="48.36002" lon="-4.783">
        <ele>8.3</ele>
        <time>2013-08-14T10:37:35.000+01:00</time>
      </trkpt>
      <trkpt lat="48.35997" lon="-4.78315">
        <ele>8.1</ele>
        <time>2013-08-14T10:37:38.000+01:00</time>
      </trkpt>
      <trkpt lat="48.35991" lon="-4.78327">
        <ele>7.9</ele>
        <time>2013-08-14T10:37:40.000+01:00</time>
      </trkpt>
      <trkpt lat="48.35984" lon="-4.78341">
        <ele>8.3</ele>
        <time>2013-08-14T10:37:42.000+01:00</time>
      </trkpt>
      <trkpt lat="48.35976" lon="-4.78358">
        <ele>8.2</ele>
        <time>2013-08-14T10:37:44.000+01:00</time>
      </trkpt>
      <trkpt lat="48.35948" lon="-4.78411">
        <ele>8.1</ele>
        <time>2013-08-14T10:37:50.000+01:00</time>
      </trkpt>
      <trkpt lat="48.35939" lon="-4.78429">
        <ele>8</ele>
        <time>2013-08-14T10:37:52.000+01:00</time>
      </trkpt>
      <trkpt lat="48.35929" lon="-4.78448">
        <ele>7.7</ele>
        <time>2013-08-14T10:37:54.000+01:00</time>
      </trkpt>
      <trkpt lat="48.35919" lon="-4.78467">
        <ele>7.7</ele>
        <time>2013-08-14T10:37:56.000+01:00</time>
      </trkpt>
      <trkpt lat="48.35909" lon="-4.78485">
        <ele>7.3</ele>
        <time>2013-08-14T10:37:58.000+01:00</time>
      </trkpt>
      <trkpt lat="48.359" lon="-4.78505">
        <ele>7</ele>
        <time>2013-08-14T10:38:00.000+01:00</time>
      </trkpt>
      <trkpt lat="48.35892" lon="-4.78525">
        <ele>6.8</ele>
        <time>2013-08-14T10:38:02.000+01:00</time>
      </trkpt>
      <trkpt lat="48.35884" lon="-4.78545">
        <ele>6.8</ele>
        <time>2013-08-14T10:38:04.000+01:00</time>
      </trkpt>
      <trkpt lat="48.35877" lon="-4.78566">
        <ele>6.9</ele>
        <time>2013-08-14T10:38:06.000+01:00</time>
      </trkpt>
      <trkpt lat="48.3587" lon="-4.78587">
        <ele>7.3</ele>
        <time>2013-08-14T10:38:08.000+01:00</time>
      </trkpt>
      <trkpt lat="48.35863" lon="-4.78609">
        <ele>7.2</ele>
        <time>2013-08-14T10:38:10.000+01:00</time>
      </trkpt>
      <trkpt lat="48.35857" lon="-4.7863">
        <ele>7.8</ele>
        <time>2013-08-14T10:38:12.000+01:00</time>
      </trkpt>
      <trkpt lat="48.35851" lon="-4.78652">
        <ele>7.6</ele>
        <time>2013-08-14T10:38:14.000+01:00</time>
      </trkpt>
      <trkpt lat="48.35845" lon="-4.78674">
        <ele>7.4</ele>
        <time>2013-08-14T10:38:16.000+01:00</time>
      </trkpt>
      <trkpt lat="48.3584" lon="-4.78696">
        <ele>7.4</ele>
        <time>2013-08-14T10:38:18.000+01:00</time>
      </trkpt>
      <trkpt lat="48.35835" lon="-4.78719">
        <ele>7.4</ele>
        <time>2013-08-14T10:38:20.000+01:00</time>
      </trkpt>
      <trkpt lat="48.35832" lon="-4.78742">
        <ele>7.6</ele>
        <time>2013-08-14T10:38:22.000+01:00</time>
      </trkpt>
      <trkpt lat="48.35829" lon="-4.78765">
        <ele>8</ele>
        <time>2013-08-14T10:38:24.000+01:00</time>
      </trkpt>
      <trkpt lat="48.35827" lon="-4.78788">
        <ele>8</ele>
        <time>2013-08-14T10:38:26.000+01:00</time>
      </trkpt>
      <trkpt lat="48.35824" lon="-4.78811">
        <ele>8.3</ele>
        <time>2013-08-14T10:38:28.000+01:00</time>
      </trkpt>
      <trkpt lat="48.35822" lon="-4.78835">
        <ele>8.6</ele>
        <time>2013-08-14T10:38:30.000+01:00</time>
      </trkpt>
      <trkpt lat="48.35821" lon="-4.78858">
        <ele>8.7</ele>
        <time>2013-08-14T10:38:32.000+01:00</time>
      </trkpt>
      <trkpt lat="48.35819" lon="-4.78881">
        <ele>8.9</ele>
        <time>2013-08-14T10:38:34.000+01:00</time>
      </trkpt>
      <trkpt lat="48.35818" lon="-4.78905">
        <ele>8.7</ele>
        <time>2013-08-14T10:38:36.000+01:00</time>
      </trkpt>
      <trkpt lat="48.35817" lon="-4.78928">
        <ele>8.6</ele>
        <time>2013-08-14T10:38:38.000+01:00</time>
      </trkpt>
      <trkpt lat="48.35815" lon="-4.78951">
        <ele>8.9</ele>
        <time>2013-08-14T10:38:40.000+01:00</time>
      </trkpt>
      <trkpt lat="48.35813" lon="-4.78974">
        <ele>9.4</ele>
        <time>2013-08-14T10:38:42.000+01:00</time>
      </trkpt>
      <trkpt lat="48.35811" lon="-4.78997">
        <ele>9.5</ele>
        <time>2013-08-14T10:38:44.000+01:00</time>
      </trkpt>
      <trkpt lat="48.35811" lon="-4.79019">
        <ele>9.3</ele>
        <time>2013-08-14T10:38:46.000+01:00</time>
      </trkpt>
      <trkpt lat="48.3581" lon="-4.79042">
        <ele>9</ele>
        <time>2013-08-14T10:38:48.000+01:00</time>
      </trkpt>
      <trkpt lat="48.35811" lon="-4.79065">
        <ele>8.6</ele>
        <time>2013-08-14T10:38:50.000+01:00</time>
      </trkpt>
      <trkpt lat="48.35812" lon="-4.79087">
        <ele>8.6</ele>
        <time>2013-08-14T10:38:52.000+01:00</time>
      </trkpt>
      <trkpt lat="48.35813" lon="-4.79109">
        <ele>8.3</ele>
        <time>2013-08-14T10:38:54.000+01:00</time>
      </trkpt>
      <trkpt lat="48.35814" lon="-4.79132">
        <ele>7.8</ele>
        <time>2013-08-14T10:38:56.000+01:00</time>
      </trkpt>
      <trkpt lat="48.35816" lon="-4.79154">
        <ele>7.7</ele>
        <time>2013-08-14T10:38:58.000+01:00</time>
      </trkpt>
      <trkpt lat="48.35817" lon="-4.79177">
        <ele>7.7</ele>
        <time>2013-08-14T10:39:00.000+01:00</time>
      </trkpt>
      <trkpt lat="48.35819" lon="-4.79199">
        <ele>7.5</ele>
        <time>2013-08-14T10:39:02.000+01:00</time>
      </trkpt>
      <trkpt lat="48.35821" lon="-4.79222">
        <ele>6.9</ele>
        <time>2013-08-14T10:39:04.000+01:00</time>
      </trkpt>
      <trkpt lat="48.35824" lon="-4.79244">
        <ele>7</ele>
        <time>2013-08-14T10:39:06.000+01:00</time>
      </trkpt>
      <trkpt lat="48.35827" lon="-4.79266">
        <ele>6.6</ele>
        <time>2013-08-14T10:39:08.000+01:00</time>
      </trkpt>
      <trkpt lat="48.35831" lon="-4.79288">
        <ele>6.4</ele>
        <time>2013-08-14T10:39:10.000+01:00</time>
      </trkpt>
      <trkpt lat="48.35834" lon="-4.7931">
        <ele>6.4</ele>
        <time>2013-08-14T10:39:12.000+01:00</time>
      </trkpt>
      <trkpt lat="48.35838" lon="-4.79331">
        <ele>6.1</ele>
        <time>2013-08-14T10:39:14.000+01:00</time>
      </trkpt>
      <trkpt lat="48.35843" lon="-4.79352">
        <ele>6</ele>
        <time>2013-08-14T10:39:16.000+01:00</time>
      </trkpt>
      <trkpt lat="48.35849" lon="-4.79372">
        <ele>5.6</ele>
        <time>2013-08-14T10:39:18.000+01:00</time>
      </trkpt>
      <trkpt lat="48.35855" lon="-4.79392">
        <ele>5.2</ele>
        <time>2013-08-14T10:39:20.000+01:00</time>
      </trkpt>
      <trkpt lat="48.35862" lon="-4.79411">
        <ele>4.9</ele>
        <time>2013-08-14T10:39:22.000+01:00</time>
      </trkpt>
      <trkpt lat="48.35869" lon="-4.79429">
        <ele>4.9</ele>
        <time>2013-08-14T10:39:24.000+01:00</time>
      </trkpt>
      <trkpt lat="48.35876" lon="-4.79447">
        <ele>5.1</ele>
        <time>2013-08-14T10:39:26.000+01:00</time>
      </trkpt>
      <trkpt lat="48.35884" lon="-4.79465">
        <ele>4.9</ele>
        <time>2013-08-14T10:39:28.000+01:00</time>
      </trkpt>
      <trkpt lat="48.35891" lon="-4.79484">
        <ele>4.9</ele>
        <time>2013-08-14T10:39:30.000+01:00</time>
      </trkpt>
      <trkpt lat="48.359" lon="-4.79502">
        <ele>5.1</ele>
        <time>2013-08-14T10:39:32.000+01:00</time>
      </trkpt>
      <trkpt lat="48.35908" lon="-4.79518">
        <ele>5.2</ele>
        <time>2013-08-14T10:39:34.000+01:00</time>
      </trkpt>
      <trkpt lat="48.35916" lon="-4.79535">
        <ele>5.4</ele>
        <time>2013-08-14T10:39:36.000+01:00</time>
      </trkpt>
      <trkpt lat="48.35925" lon="-4.79551">
        <ele>5.1</ele>
        <time>2013-08-14T10:39:38.000+01:00</time>
      </trkpt>
      <trkpt lat="48.35934" lon="-4.79566">
        <ele>4.9</ele>
        <time>2013-08-14T10:39:40.000+01:00</time>
      </trkpt>
      <trkpt lat="48.35943" lon="-4.79582">
        <ele>4.6</ele>
        <time>2013-08-14T10:39:42.000+01:00</time>
      </trkpt>
      <trkpt lat="48.35953" lon="-4.79597">
        <ele>4.9</ele>
        <time>2013-08-14T10:39:44.000+01:00</time>
      </trkpt>
      <trkpt lat="48.35963" lon="-4.79612">
        <ele>5</ele>
        <time>2013-08-14T10:39:46.000+01:00</time>
      </trkpt>
      <trkpt lat="48.35972" lon="-4.79627">
        <ele>5.2</ele>
        <time>2013-08-14T10:39:48.000+01:00</time>
      </trkpt>
      <trkpt lat="48.35981" lon="-4.79642">
        <ele>5.3</ele>
        <time>2013-08-14T10:39:50.000+01:00</time>
      </trkpt>
      <trkpt lat="48.35991" lon="-4.79657">
        <ele>5.4</ele>
        <time>2013-08-14T10:39:52.000+01:00</time>
      </trkpt>
      <trkpt lat="48.36" lon="-4.79673">
        <ele>5.5</ele>
        <time>2013-08-14T10:39:54.000+01:00</time>
      </trkpt>
      <trkpt lat="48.3601" lon="-4.79688">
        <ele>6.1</ele>
        <time>2013-08-14T10:39:56.000+01:00</time>
      </trkpt>
      <trkpt lat="48.36018" lon="-4.79705">
        <ele>6.1</ele>
        <time>2013-08-14T10:39:58.000+01:00</time>
      </trkpt>
      <trkpt lat="48.36027" lon="-4.79721">
        <ele>6.3</ele>
        <time>2013-08-14T10:40:00.000+01:00</time>
      </trkpt>
      <trkpt lat="48.36036" lon="-4.79736">
        <ele>6.4</ele>
        <time>2013-08-14T10:40:02.000+01:00</time>
      </trkpt>
      <trkpt lat="48.36045" lon="-4.79751">
        <ele>6.4</ele>
        <time>2013-08-14T10:40:04.000+01:00</time>
      </trkpt>
      <trkpt lat="48.36055" lon="-4.79766">
        <ele>6.6</ele>
        <time>2013-08-14T10:40:06.000+01:00</time>
      </trkpt>
      <trkpt lat="48.36064" lon="-4.7978">
        <ele>6.2</ele>
        <time>2013-08-14T10:40:08.000+01:00</time>
      </trkpt>
      <trkpt lat="48.36073" lon="-4.79794">
        <ele>6.1</ele>
        <time>2013-08-14T10:40:10.000+01:00</time>
      </trkpt>
      <trkpt lat="48.36083" lon="-4.79809">
        <ele>5.9</ele>
        <time>2013-08-14T10:40:12.000+01:00</time>
      </trkpt>
      <trkpt lat="48.36093" lon="-4.79824">
        <ele>5.4</ele>
        <time>2013-08-14T10:40:14.000+01:00</time>
      </trkpt>
      <trkpt lat="48.36103" lon="-4.79837">
        <ele>5.1</ele>
        <time>2013-08-14T10:40:16.000+01:00</time>
      </trkpt>
      <trkpt lat="48.36113" lon="-4.79852">
        <ele>5.1</ele>
        <time>2013-08-14T10:40:18.000+01:00</time>
      </trkpt>
      <trkpt lat="48.36122" lon="-4.79866">
        <ele>4.7</ele>
        <time>2013-08-14T10:40:20.000+01:00</time>
      </trkpt>
      <trkpt lat="48.36132" lon="-4.7988">
        <ele>4</ele>
        <time>2013-08-14T10:40:22.000+01:00</time>
      </trkpt>
      <trkpt lat="48.36142" lon="-4.79895">
        <ele>4.2</ele>
        <time>2013-08-14T10:40:24.000+01:00</time>
      </trkpt>
      <trkpt lat="48.36152" lon="-4.79908">
        <ele>4.1</ele>
        <time>2013-08-14T10:40:26.000+01:00</time>
      </trkpt>
      <trkpt lat="48.36162" lon="-4.79922">
        <ele>3.6</ele>
        <time>2013-08-14T10:40:28.000+01:00</time>
      </trkpt>
      <trkpt lat="48.36172" lon="-4.79936">
        <ele>3.9</ele>
        <time>2013-08-14T10:40:30.000+01:00</time>
      </trkpt>
      <trkpt lat="48.36182" lon="-4.7995">
        <ele>4.2</ele>
        <time>2013-08-14T10:40:32.000+01:00</time>
      </trkpt>
      <trkpt lat="48.36192" lon="-4.79964">
        <ele>4.4</ele>
        <time>2013-08-14T10:40:34.000+01:00</time>
      </trkpt>
      <trkpt lat="48.36203" lon="-4.79979">
        <ele>4.8</ele>
        <time>2013-08-14T10:40:36.000+01:00</time>
      </trkpt>
      <trkpt lat="48.36212" lon="-4.79993">
        <ele>5</ele>
        <time>2013-08-14T10:40:38.000+01:00</time>
      </trkpt>
      <trkpt lat="48.36223" lon="-4.80008">
        <ele>5.3</ele>
        <time>2013-08-14T10:40:40.000+01:00</time>
      </trkpt>
      <trkpt lat="48.36233" lon="-4.80023">
        <ele>5.2</ele>
        <time>2013-08-14T10:40:42.000+01:00</time>
      </trkpt>
      <trkpt lat="48.36243" lon="-4.80039">
        <ele>5</ele>
        <time>2013-08-14T10:40:44.000+01:00</time>
      </trkpt>
      <trkpt lat="48.36252" lon="-4.80054">
        <ele>4.9</ele>
        <time>2013-08-14T10:40:46.000+01:00</time>
      </trkpt>
      <trkpt lat="48.36263" lon="-4.80069">
        <ele>4.7</ele>
        <time>2013-08-14T10:40:48.000+01:00</time>
      </trkpt>
      <trkpt lat="48.36272" lon="-4.80084">
        <ele>4.5</ele>
        <time>2013-08-14T10:40:50.000+01:00</time>
      </trkpt>
      <trkpt lat="48.36283" lon="-4.80098">
        <ele>4.6</ele>
        <time>2013-08-14T10:40:52.000+01:00</time>
      </trkpt>
      <trkpt lat="48.36294" lon="-4.80111">
        <ele>4.3</ele>
        <time>2013-08-14T10:40:54.000+01:00</time>
      </trkpt>
      <trkpt lat="48.36304" lon="-4.80124">
        <ele>4.3</ele>
        <time>2013-08-14T10:40:56.000+01:00</time>
      </trkpt>
      <trkpt lat="48.36315" lon="-4.80137">
        <ele>4.3</ele>
        <time>2013-08-14T10:40:58.000+01:00</time>
      </trkpt>
      <trkpt lat="48.36326" lon="-4.80149">
        <ele>4.6</ele>
        <time>2013-08-14T10:41:00.000+01:00</time>
      </trkpt>
      <trkpt lat="48.36337" lon="-4.80162">
        <ele>4.6</ele>
        <time>2013-08-14T10:41:02.000+01:00</time>
      </trkpt>
      <trkpt lat="48.36348" lon="-4.80174">
        <ele>4.6</ele>
        <time>2013-08-14T10:41:04.000+01:00</time>
      </trkpt>
      <trkpt lat="48.36359" lon="-4.80185">
        <ele>4.7</ele>
        <time>2013-08-14T10:41:06.000+01:00</time>
      </trkpt>
      <trkpt lat="48.36371" lon="-4.80197">
        <ele>4.7</ele>
        <time>2013-08-14T10:41:08.000+01:00</time>
      </trkpt>
      <trkpt lat="48.36382" lon="-4.80207">
        <ele>4.5</ele>
        <time>2013-08-14T10:41:10.000+01:00</time>
      </trkpt>
      <trkpt lat="48.36394" lon="-4.80217">
        <ele>4</ele>
        <time>2013-08-14T10:41:12.000+01:00</time>
      </trkpt>
      <trkpt lat="48.36406" lon="-4.80228">
        <ele>3.9</ele>
        <time>2013-08-14T10:41:14.000+01:00</time>
      </trkpt>
      <trkpt lat="48.36418" lon="-4.80238">
        <ele>4.2</ele>
        <time>2013-08-14T10:41:16.000+01:00</time>
      </trkpt>
      <trkpt lat="48.36429" lon="-4.80249">
        <ele>4.4</ele>
        <time>2013-08-14T10:41:18.000+01:00</time>
      </trkpt>
      <trkpt lat="48.36441" lon="-4.80261">
        <ele>4.8</ele>
        <time>2013-08-14T10:41:20.000+01:00</time>
      </trkpt>
      <trkpt lat="48.36453" lon="-4.80273">
        <ele>4.7</ele>
        <time>2013-08-14T10:41:22.000+01:00</time>
      </trkpt>
      <trkpt lat="48.36465" lon="-4.80286">
        <ele>4.8</ele>
        <time>2013-08-14T10:41:24.000+01:00</time>
      </trkpt>
      <trkpt lat="48.36476" lon="-4.80299">
        <ele>4.7</ele>
        <time>2013-08-14T10:41:26.000+01:00</time>
      </trkpt>
      <trkpt lat="48.36487" lon="-4.80312">
        <ele>4.8</ele>
        <time>2013-08-14T10:41:28.000+01:00</time>
      </trkpt>
      <trkpt lat="48.36498" lon="-4.80325">
        <ele>4.6</ele>
        <time>2013-08-14T10:41:30.000+01:00</time>
      </trkpt>
      <trkpt lat="48.36509" lon="-4.80339">
        <ele>4.6</ele>
        <time>2013-08-14T10:41:32.000+01:00</time>
      </trkpt>
      <trkpt lat="48.36521" lon="-4.80353">
        <ele>4.5</ele>
        <time>2013-08-14T10:41:34.000+01:00</time>
      </trkpt>
      <trkpt lat="48.36532" lon="-4.80367">
        <ele>5</ele>
        <time>2013-08-14T10:41:36.000+01:00</time>
      </trkpt>
      <trkpt lat="48.36543" lon="-4.80381">
        <ele>5.2</ele>
        <time>2013-08-14T10:41:38.000+01:00</time>
      </trkpt>
      <trkpt lat="48.36554" lon="-4.80394">
        <ele>5.4</ele>
        <time>2013-08-14T10:41:40.000+01:00</time>
      </trkpt>
      <trkpt lat="48.36565" lon="-4.80407">
        <ele>5.6</ele>
        <time>2013-08-14T10:41:42.000+01:00</time>
      </trkpt>
      <trkpt lat="48.36577" lon="-4.80419">
        <ele>5.6</ele>
        <time>2013-08-14T10:41:44.000+01:00</time>
      </trkpt>
      <trkpt lat="48.36589" lon="-4.8043">
        <ele>5.2</ele>
        <time>2013-08-14T10:41:46.000+01:00</time>
      </trkpt>
      <trkpt lat="48.36601" lon="-4.80441">
        <ele>5.3</ele>
        <time>2013-08-14T10:41:48.000+01:00</time>
      </trkpt>
      <trkpt lat="48.36613" lon="-4.80452">
        <ele>5.4</ele>
        <time>2013-08-14T10:41:50.000+01:00</time>
      </trkpt>
      <trkpt lat="48.36625" lon="-4.80463">
        <ele>5.9</ele>
        <time>2013-08-14T10:41:52.000+01:00</time>
      </trkpt>
      <trkpt lat="48.36637" lon="-4.80473">
        <ele>5.9</ele>
        <time>2013-08-14T10:41:54.000+01:00</time>
      </trkpt>
      <trkpt lat="48.3665" lon="-4.80485">
        <ele>5.7</ele>
        <time>2013-08-14T10:41:56.000+01:00</time>
      </trkpt>
      <trkpt lat="48.36662" lon="-4.80495">
        <ele>5.5</ele>
        <time>2013-08-14T10:41:58.000+01:00</time>
      </trkpt>
      <trkpt lat="48.36674" lon="-4.80507">
        <ele>5.3</ele>
        <time>2013-08-14T10:42:00.000+01:00</time>
      </trkpt>
      <trkpt lat="48.36686" lon="-4.80518">
        <ele>5.2</ele>
        <time>2013-08-14T10:42:02.000+01:00</time>
      </trkpt>
      <trkpt lat="48.36698" lon="-4.8053">
        <ele>5</ele>
        <time>2013-08-14T10:42:04.000+01:00</time>
      </trkpt>
      <trkpt lat="48.3671" lon="-4.80542">
        <ele>4.9</ele>
        <time>2013-08-14T10:42:06.000+01:00</time>
      </trkpt>
      <trkpt lat="48.36722" lon="-4.80553">
        <ele>4.7</ele>
        <time>2013-08-14T10:42:08.000+01:00</time>
      </trkpt>
      <trkpt lat="48.36735" lon="-4.80565">
        <ele>4.3</ele>
        <time>2013-08-14T10:42:10.000+01:00</time>
      </trkpt>
      <trkpt lat="48.36747" lon="-4.80577">
        <ele>3.9</ele>
        <time>2013-08-14T10:42:12.000+01:00</time>
      </trkpt>
      <trkpt lat="48.3676" lon="-4.80589">
        <ele>3.7</ele>
        <time>2013-08-14T10:42:14.000+01:00</time>
      </trkpt>
      <trkpt lat="48.36773" lon="-4.806">
        <ele>3.7</ele>
        <time>2013-08-14T10:42:16.000+01:00</time>
      </trkpt>
      <trkpt lat="48.36785" lon="-4.80612">
        <ele>3.6</ele>
        <time>2013-08-14T10:42:18.000+01:00</time>
      </trkpt>
      <trkpt lat="48.36797" lon="-4.80623">
        <ele>3.5</ele>
        <time>2013-08-14T10:42:20.000+01:00</time>
      </trkpt>
      <trkpt lat="48.3681" lon="-4.80634">
        <ele>3.9</ele>
        <time>2013-08-14T10:42:22.000+01:00</time>
      </trkpt>
      <trkpt lat="48.36822" lon="-4.80645">
        <ele>4</ele>
        <time>2013-08-14T10:42:24.000+01:00</time>
      </trkpt>
      <trkpt lat="48.36835" lon="-4.80656">
        <ele>4.4</ele>
        <time>2013-08-14T10:42:26.000+01:00</time>
      </trkpt>
      <trkpt lat="48.36847" lon="-4.80668">
        <ele>5.1</ele>
        <time>2013-08-14T10:42:28.000+01:00</time>
      </trkpt>
      <trkpt lat="48.3686" lon="-4.80679">
        <ele>5.4</ele>
        <time>2013-08-14T10:42:30.000+01:00</time>
      </trkpt>
      <trkpt lat="48.36873" lon="-4.8069">
        <ele>5.3</ele>
        <time>2013-08-14T10:42:32.000+01:00</time>
      </trkpt>
      <trkpt lat="48.36886" lon="-4.80702">
        <ele>5.5</ele>
        <time>2013-08-14T10:42:34.000+01:00</time>
      </trkpt>
      <trkpt lat="48.36898" lon="-4.80714">
        <ele>5.5</ele>
        <time>2013-08-14T10:42:36.000+01:00</time>
      </trkpt>
      <trkpt lat="48.36911" lon="-4.80726">
        <ele>4.8</ele>
        <time>2013-08-14T10:42:38.000+01:00</time>
      </trkpt>
      <trkpt lat="48.36923" lon="-4.80739">
        <ele>4.7</ele>
        <time>2013-08-14T10:42:40.000+01:00</time>
      </trkpt>
      <trkpt lat="48.36936" lon="-4.8075">
        <ele>5.4</ele>
        <time>2013-08-14T10:42:42.000+01:00</time>
      </trkpt>
      <trkpt lat="48.36949" lon="-4.80762">
        <ele>5.6</ele>
        <time>2013-08-14T10:42:44.000+01:00</time>
      </trkpt>
      <trkpt lat="48.36962" lon="-4.80774">
        <ele>5.8</ele>
        <time>2013-08-14T10:42:46.000+01:00</time>
      </trkpt>
      <trkpt lat="48.36975" lon="-4.80785">
        <ele>5.9</ele>
        <time>2013-08-14T10:42:48.000+01:00</time>
      </trkpt>
      <trkpt lat="48.36988" lon="-4.80796">
        <ele>6.5</ele>
        <time>2013-08-14T10:42:50.000+01:00</time>
      </trkpt>
      <trkpt lat="48.37001" lon="-4.80807">
        <ele>7</ele>
        <time>2013-08-14T10:42:52.000+01:00</time>
      </trkpt>
      <trkpt lat="48.37014" lon="-4.80818">
        <ele>7.3</ele>
        <time>2013-08-14T10:42:54.000+01:00</time>
      </trkpt>
      <trkpt lat="48.37027" lon="-4.80829">
        <ele>7.5</ele>
        <time>2013-08-14T10:42:56.000+01:00</time>
      </trkpt>
      <trkpt lat="48.3704" lon="-4.8084">
        <ele>7.2</ele>
        <time>2013-08-14T10:42:58.000+01:00</time>
      </trkpt>
      <trkpt lat="48.37052" lon="-4.80851">
        <ele>6.7</ele>
        <time>2013-08-14T10:43:00.000+01:00</time>
      </trkpt>
      <trkpt lat="48.37064" lon="-4.80862">
        <ele>6.5</ele>
        <time>2013-08-14T10:43:02.000+01:00</time>
      </trkpt>
      <trkpt lat="48.37076" lon="-4.80874">
        <ele>6.2</ele>
        <time>2013-08-14T10:43:04.000+01:00</time>
      </trkpt>
      <trkpt lat="48.37089" lon="-4.80886">
        <ele>5.8</ele>
        <time>2013-08-14T10:43:06.000+01:00</time>
      </trkpt>
      <trkpt lat="48.37101" lon="-4.80898">
        <ele>5.5</ele>
        <time>2013-08-14T10:43:08.000+01:00</time>
      </trkpt>
      <trkpt lat="48.37114" lon="-4.8091">
        <ele>5.5</ele>
        <time>2013-08-14T10:43:10.000+01:00</time>
      </trkpt>
      <trkpt lat="48.37126" lon="-4.80921">
        <ele>5.5</ele>
        <time>2013-08-14T10:43:12.000+01:00</time>
      </trkpt>
      <trkpt lat="48.37139" lon="-4.80933">
        <ele>5.6</ele>
        <time>2013-08-14T10:43:14.000+01:00</time>
      </trkpt>
      <trkpt lat="48.37152" lon="-4.80944">
        <ele>5.7</ele>
        <time>2013-08-14T10:43:16.000+01:00</time>
      </trkpt>
      <trkpt lat="48.37164" lon="-4.80955">
        <ele>5.8</ele>
        <time>2013-08-14T10:43:18.000+01:00</time>
      </trkpt>
      <trkpt lat="48.37177" lon="-4.80968">
        <ele>5.7</ele>
        <time>2013-08-14T10:43:20.000+01:00</time>
      </trkpt>
      <trkpt lat="48.3719" lon="-4.8098">
        <ele>5.6</ele>
        <time>2013-08-14T10:43:22.000+01:00</time>
      </trkpt>
      <trkpt lat="48.37202" lon="-4.80992">
        <ele>5.2</ele>
        <time>2013-08-14T10:43:24.000+01:00</time>
      </trkpt>
      <trkpt lat="48.37215" lon="-4.81005">
        <ele>5</ele>
        <time>2013-08-14T10:43:26.000+01:00</time>
      </trkpt>
      <trkpt lat="48.37228" lon="-4.81018">
        <ele>4.8</ele>
        <time>2013-08-14T10:43:28.000+01:00</time>
      </trkpt>
      <trkpt lat="48.3724" lon="-4.81031">
        <ele>4.1</ele>
        <time>2013-08-14T10:43:30.000+01:00</time>
      </trkpt>
      <trkpt lat="48.37253" lon="-4.81044">
        <ele>4.1</ele>
        <time>2013-08-14T10:43:32.000+01:00</time>
      </trkpt>
      <trkpt lat="48.37266" lon="-4.81057">
        <ele>4.6</ele>
        <time>2013-08-14T10:43:34.000+01:00</time>
      </trkpt>
      <trkpt lat="48.37279" lon="-4.81071">
        <ele>4.3</ele>
        <time>2013-08-14T10:43:36.000+01:00</time>
      </trkpt>
      <trkpt lat="48.37292" lon="-4.81083">
        <ele>4.4</ele>
        <time>2013-08-14T10:43:38.000+01:00</time>
      </trkpt>
      <trkpt lat="48.37305" lon="-4.81096">
        <ele>4.5</ele>
        <time>2013-08-14T10:43:40.000+01:00</time>
      </trkpt>
      <trkpt lat="48.37317" lon="-4.81108">
        <ele>4.4</ele>
        <time>2013-08-14T10:43:42.000+01:00</time>
      </trkpt>
      <trkpt lat="48.37329" lon="-4.81121">
        <ele>4.3</ele>
        <time>2013-08-14T10:43:44.000+01:00</time>
      </trkpt>
      <trkpt lat="48.37341" lon="-4.81133">
        <ele>3.9</ele>
        <time>2013-08-14T10:43:46.000+01:00</time>
      </trkpt>
      <trkpt lat="48.37353" lon="-4.81146">
        <ele>3.6</ele>
        <time>2013-08-14T10:43:48.000+01:00</time>
      </trkpt>
      <trkpt lat="48.37365" lon="-4.81159">
        <ele>3.4</ele>
        <time>2013-08-14T10:43:50.000+01:00</time>
      </trkpt>
      <trkpt lat="48.37378" lon="-4.81171">
        <ele>3.2</ele>
        <time>2013-08-14T10:43:52.000+01:00</time>
      </trkpt>
      <trkpt lat="48.37389" lon="-4.81184">
        <ele>3</ele>
        <time>2013-08-14T10:43:54.000+01:00</time>
      </trkpt>
      <trkpt lat="48.37402" lon="-4.81196">
        <ele>1.9</ele>
        <time>2013-08-14T10:43:56.000+01:00</time>
      </trkpt>
      <trkpt lat="48.37414" lon="-4.81208">
        <ele>2</ele>
        <time>2013-08-14T10:43:58.000+01:00</time>
      </trkpt>
      <trkpt lat="48.37426" lon="-4.81221">
        <ele>2.2</ele>
        <time>2013-08-14T10:44:00.000+01:00</time>
      </trkpt>
      <trkpt lat="48.37439" lon="-4.81233">
        <ele>2.5</ele>
        <time>2013-08-14T10:44:02.000+01:00</time>
      </trkpt>
      <trkpt lat="48.37452" lon="-4.81246">
        <ele>2.1</ele>
        <time>2013-08-14T10:44:04.000+01:00</time>
      </trkpt>
      <trkpt lat="48.37464" lon="-4.81259">
        <ele>2</ele>
        <time>2013-08-14T10:44:06.000+01:00</time>
      </trkpt>
      <trkpt lat="48.37476" lon="-4.81273">
        <ele>2</ele>
        <time>2013-08-14T10:44:08.000+01:00</time>
      </trkpt>
      <trkpt lat="48.37488" lon="-4.81288">
        <ele>2.1</ele>
        <time>2013-08-14T10:44:10.000+01:00</time>
      </trkpt>
      <trkpt lat="48.37501" lon="-4.81302">
        <ele>2.3</ele>
        <time>2013-08-14T10:44:12.000+01:00</time>
      </trkpt>
      <trkpt lat="48.37513" lon="-4.81316">
        <ele>2.2</ele>
        <time>2013-08-14T10:44:14.000+01:00</time>
      </trkpt>
      <trkpt lat="48.37526" lon="-4.81331">
        <ele>1.5</ele>
        <time>2013-08-14T10:44:16.000+01:00</time>
      </trkpt>
      <trkpt lat="48.37538" lon="-4.81346">
        <ele>0.9</ele>
        <time>2013-08-14T10:44:18.000+01:00</time>
      </trkpt>
      <trkpt lat="48.3755" lon="-4.8136">
        <ele>-0.2</ele>
        <time>2013-08-14T10:44:20.000+01:00</time>
      </trkpt>
      <trkpt lat="48.37562" lon="-4.81375">
        <ele>-1.7</ele>
        <time>2013-08-14T10:44:22.000+01:00</time>
      </trkpt>
      <trkpt lat="48.37573" lon="-4.81389">
        <ele>-2.5</ele>
        <time>2013-08-14T10:44:24.000+01:00</time>
      </trkpt>
      <trkpt lat="48.37584" lon="-4.81403">
        <ele>-3.5</ele>
        <time>2013-08-14T10:44:26.000+01:00</time>
      </trkpt>
      <trkpt lat="48.37596" lon="-4.81417">
        <ele>-3.4</ele>
        <time>2013-08-14T10:44:28.000+01:00</time>
      </trkpt>
      <trkpt lat="48.37607" lon="-4.81431">
        <ele>-2</ele>
        <time>2013-08-14T10:44:30.000+01:00</time>
      </trkpt>
      <trkpt lat="48.37619" lon="-4.81444">
        <ele>-2.1</ele>
        <time>2013-08-14T10:44:32.000+01:00</time>
      </trkpt>
      <trkpt lat="48.37631" lon="-4.81457">
        <ele>-2</ele>
        <time>2013-08-14T10:44:34.000+01:00</time>
      </trkpt>
      <trkpt lat="48.37643" lon="-4.8147">
        <ele>-1.8</ele>
        <time>2013-08-14T10:44:36.000+01:00</time>
      </trkpt>
      <trkpt lat="48.37656" lon="-4.81482">
        <ele>-1.1</ele>
        <time>2013-08-14T10:44:38.000+01:00</time>
      </trkpt>
      <trkpt lat="48.37667" lon="-4.81494">
        <ele>-0.5</ele>
        <time>2013-08-14T10:44:40.000+01:00</time>
      </trkpt>
      <trkpt lat="48.3768" lon="-4.81507">
        <ele>0.2</ele>
        <time>2013-08-14T10:44:42.000+01:00</time>
      </trkpt>
      <trkpt lat="48.37692" lon="-4.81519">
        <ele>0.4</ele>
        <time>2013-08-14T10:44:44.000+01:00</time>
      </trkpt>
      <trkpt lat="48.37705" lon="-4.81531">
        <ele>0.5</ele>
        <time>2013-08-14T10:44:46.000+01:00</time>
      </trkpt>
      <trkpt lat="48.37717" lon="-4.81543">
        <ele>1.1</ele>
        <time>2013-08-14T10:44:48.000+01:00</time>
      </trkpt>
      <trkpt lat="48.37729" lon="-4.81555">
        <ele>1.5</ele>
        <time>2013-08-14T10:44:50.000+01:00</time>
      </trkpt>
      <trkpt lat="48.37741" lon="-4.81568">
        <ele>1.7</ele>
        <time>2013-08-14T10:44:52.000+01:00</time>
      </trkpt>
      <trkpt lat="48.37754" lon="-4.8158">
        <ele>2</ele>
        <time>2013-08-14T10:44:54.000+01:00</time>
      </trkpt>
      <trkpt lat="48.37766" lon="-4.81593">
        <ele>2.2</ele>
        <time>2013-08-14T10:44:56.000+01:00</time>
      </trkpt>
      <trkpt lat="48.37778" lon="-4.81606">
        <ele>2.5</ele>
        <time>2013-08-14T10:44:58.000+01:00</time>
      </trkpt>
      <trkpt lat="48.3779" lon="-4.81618">
        <ele>2.6</ele>
        <time>2013-08-14T10:45:00.000+01:00</time>
      </trkpt>
      <trkpt lat="48.37803" lon="-4.8163">
        <ele>2.5</ele>
        <time>2013-08-14T10:45:02.000+01:00</time>
      </trkpt>
      <trkpt lat="48.37815" lon="-4.81643">
        <ele>2.6</ele>
        <time>2013-08-14T10:45:04.000+01:00</time>
      </trkpt>
      <trkpt lat="48.37827" lon="-4.81656">
        <ele>2.8</ele>
        <time>2013-08-14T10:45:06.000+01:00</time>
      </trkpt>
      <trkpt lat="48.37839" lon="-4.81668">
        <ele>3.2</ele>
        <time>2013-08-14T10:45:08.000+01:00</time>
      </trkpt>
      <trkpt lat="48.37851" lon="-4.81681">
        <ele>3.6</ele>
        <time>2013-08-14T10:45:10.000+01:00</time>
      </trkpt>
      <trkpt lat="48.37864" lon="-4.81694">
        <ele>4.3</ele>
        <time>2013-08-14T10:45:12.000+01:00</time>
      </trkpt>
      <trkpt lat="48.37876" lon="-4.81706">
        <ele>4.5</ele>
        <time>2013-08-14T10:45:14.000+01:00</time>
      </trkpt>
      <trkpt lat="48.37888" lon="-4.81719">
        <ele>4.8</ele>
        <time>2013-08-14T10:45:16.000+01:00</time>
      </trkpt>
      <trkpt lat="48.379" lon="-4.81731">
        <ele>5.1</ele>
        <time>2013-08-14T10:45:18.000+01:00</time>
      </trkpt>
      <trkpt lat="48.37913" lon="-4.81743">
        <ele>5.5</ele>
        <time>2013-08-14T10:45:20.000+01:00</time>
      </trkpt>
      <trkpt lat="48.37925" lon="-4.81756">
        <ele>5.8</ele>
        <time>2013-08-14T10:45:22.000+01:00</time>
      </trkpt>
      <trkpt lat="48.37937" lon="-4.81768">
        <ele>6</ele>
        <time>2013-08-14T10:45:24.000+01:00</time>
      </trkpt>
      <trkpt lat="48.37949" lon="-4.81781">
        <ele>5.6</ele>
        <time>2013-08-14T10:45:26.000+01:00</time>
      </trkpt>
      <trkpt lat="48.37961" lon="-4.81794">
        <ele>5.3</ele>
        <time>2013-08-14T10:45:28.000+01:00</time>
      </trkpt>
      <trkpt lat="48.37973" lon="-4.81806">
        <ele>5.1</ele>
        <time>2013-08-14T10:45:30.000+01:00</time>
      </trkpt>
      <trkpt lat="48.37986" lon="-4.81818">
        <ele>5</ele>
        <time>2013-08-14T10:45:32.000+01:00</time>
      </trkpt>
      <trkpt lat="48.37998" lon="-4.8183">
        <ele>4.8</ele>
        <time>2013-08-14T10:45:34.000+01:00</time>
      </trkpt>
      <trkpt lat="48.3801" lon="-4.81842">
        <ele>4.7</ele>
        <time>2013-08-14T10:45:36.000+01:00</time>
      </trkpt>
      <trkpt lat="48.38022" lon="-4.81854">
        <ele>4.6</ele>
        <time>2013-08-14T10:45:38.000+01:00</time>
      </trkpt>
      <trkpt lat="48.38034" lon="-4.81866">
        <ele>4.9</ele>
        <time>2013-08-14T10:45:40.000+01:00</time>
      </trkpt>
      <trkpt lat="48.38046" lon="-4.81877">
        <ele>5.3</ele>
        <time>2013-08-14T10:45:42.000+01:00</time>
      </trkpt>
      <trkpt lat="48.38058" lon="-4.81888">
        <ele>5.5</ele>
        <time>2013-08-14T10:45:44.000+01:00</time>
      </trkpt>
      <trkpt lat="48.3807" lon="-4.819">
        <ele>5.8</ele>
        <time>2013-08-14T10:45:46.000+01:00</time>
      </trkpt>
      <trkpt lat="48.38082" lon="-4.81912">
        <ele>5.8</ele>
        <time>2013-08-14T10:45:48.000+01:00</time>
      </trkpt>
      <trkpt lat="48.38094" lon="-4.81925">
        <ele>5.5</ele>
        <time>2013-08-14T10:45:50.000+01:00</time>
      </trkpt>
      <trkpt lat="48.38106" lon="-4.81937">
        <ele>5.8</ele>
        <time>2013-08-14T10:45:52.000+01:00</time>
      </trkpt>
      <trkpt lat="48.38118" lon="-4.81949">
        <ele>6</ele>
        <time>2013-08-14T10:45:54.000+01:00</time>
      </trkpt>
      <trkpt lat="48.3813" lon="-4.81961">
        <ele>6.4</ele>
        <time>2013-08-14T10:45:56.000+01:00</time>
      </trkpt>
      <trkpt lat="48.38142" lon="-4.81973">
        <ele>6.6</ele>
        <time>2013-08-14T10:45:58.000+01:00</time>
      </trkpt>
      <trkpt lat="48.38154" lon="-4.81985">
        <ele>6.8</ele>
        <time>2013-08-14T10:46:00.000+01:00</time>
      </trkpt>
      <trkpt lat="48.38166" lon="-4.81997">
        <ele>6.8</ele>
        <time>2013-08-14T10:46:02.000+01:00</time>
      </trkpt>
      <trkpt lat="48.38179" lon="-4.82009">
        <ele>6.9</ele>
        <time>2013-08-14T10:46:04.000+01:00</time>
      </trkpt>
      <trkpt lat="48.38191" lon="-4.82021">
        <ele>7</ele>
        <time>2013-08-14T10:46:06.000+01:00</time>
      </trkpt>
      <trkpt lat="48.38203" lon="-4.82033">
        <ele>7</ele>
        <time>2013-08-14T10:46:08.000+01:00</time>
      </trkpt>
      <trkpt lat="48.38216" lon="-4.82046">
        <ele>7.1</ele>
        <time>2013-08-14T10:46:10.000+01:00</time>
      </trkpt>
      <trkpt lat="48.38228" lon="-4.82058">
        <ele>7.5</ele>
        <time>2013-08-14T10:46:12.000+01:00</time>
      </trkpt>
      <trkpt lat="48.3824" lon="-4.82071">
        <ele>7.5</ele>
        <time>2013-08-14T10:46:14.000+01:00</time>
      </trkpt>
      <trkpt lat="48.38252" lon="-4.82085">
        <ele>6.3</ele>
        <time>2013-08-14T10:46:16.000+01:00</time>
      </trkpt>
      <trkpt lat="48.38264" lon="-4.82098">
        <ele>5.6</ele>
        <time>2013-08-14T10:46:18.000+01:00</time>
      </trkpt>
      <trkpt lat="48.38276" lon="-4.82111">
        <ele>6.2</ele>
        <time>2013-08-14T10:46:20.000+01:00</time>
      </trkpt>
      <trkpt lat="48.38289" lon="-4.82122">
        <ele>6</ele>
        <time>2013-08-14T10:46:22.000+01:00</time>
      </trkpt>
      <trkpt lat="48.383" lon="-4.82135">
        <ele>5.6</ele>
        <time>2013-08-14T10:46:24.000+01:00</time>
      </trkpt>
      <trkpt lat="48.38312" lon="-4.82147">
        <ele>5.5</ele>
        <time>2013-08-14T10:46:26.000+01:00</time>
      </trkpt>
      <trkpt lat="48.38325" lon="-4.82159">
        <ele>5.2</ele>
        <time>2013-08-14T10:46:28.000+01:00</time>
      </trkpt>
      <trkpt lat="48.38337" lon="-4.82171">
        <ele>4.9</ele>
        <time>2013-08-14T10:46:30.000+01:00</time>
      </trkpt>
      <trkpt lat="48.3835" lon="-4.82183">
        <ele>4.7</ele>
        <time>2013-08-14T10:46:32.000+01:00</time>
      </trkpt>
      <trkpt lat="48.38363" lon="-4.82194">
        <ele>4.8</ele>
        <time>2013-08-14T10:46:34.000+01:00</time>
      </trkpt>
      <trkpt lat="48.38375" lon="-4.82206">
        <ele>5.3</ele>
        <time>2013-08-14T10:46:36.000+01:00</time>
      </trkpt>
      <trkpt lat="48.38388" lon="-4.82218">
        <ele>5.7</ele>
        <time>2013-08-14T10:46:38.000+01:00</time>
      </trkpt>
      <trkpt lat="48.38401" lon="-4.82231">
        <ele>6.1</ele>
        <time>2013-08-14T10:46:40.000+01:00</time>
      </trkpt>
      <trkpt lat="48.38413" lon="-4.82243">
        <ele>6.1</ele>
        <time>2013-08-14T10:46:42.000+01:00</time>
      </trkpt>
      <trkpt lat="48.38425" lon="-4.82255">
        <ele>6.1</ele>
        <time>2013-08-14T10:46:44.000+01:00</time>
      </trkpt>
      <trkpt lat="48.38437" lon="-4.82268">
        <ele>5.8</ele>
        <time>2013-08-14T10:46:46.000+01:00</time>
      </trkpt>
      <trkpt lat="48.3845" lon="-4.8228">
        <ele>5.6</ele>
        <time>2013-08-14T10:46:48.000+01:00</time>
      </trkpt>
      <trkpt lat="48.38462" lon="-4.82293">
        <ele>5.8</ele>
        <time>2013-08-14T10:46:50.000+01:00</time>
      </trkpt>
      <trkpt lat="48.38474" lon="-4.82306">
        <ele>5.8</ele>
        <time>2013-08-14T10:46:52.000+01:00</time>
      </trkpt>
      <trkpt lat="48.38486" lon="-4.82319">
        <ele>5.9</ele>
        <time>2013-08-14T10:46:54.000+01:00</time>
      </trkpt>
      <trkpt lat="48.38498" lon="-4.82332">
        <ele>6</ele>
        <time>2013-08-14T10:46:56.000+01:00</time>
      </trkpt>
      <trkpt lat="48.38511" lon="-4.82345">
        <ele>6.5</ele>
        <time>2013-08-14T10:46:58.000+01:00</time>
      </trkpt>
      <trkpt lat="48.38523" lon="-4.82358">
        <ele>6.1</ele>
        <time>2013-08-14T10:47:00.000+01:00</time>
      </trkpt>
      <trkpt lat="48.38535" lon="-4.82372">
        <ele>5.9</ele>
        <time>2013-08-14T10:47:02.000+01:00</time>
      </trkpt>
      <trkpt lat="48.38547" lon="-4.82386">
        <ele>5.8</ele>
        <time>2013-08-14T10:47:04.000+01:00</time>
      </trkpt>
      <trkpt lat="48.38559" lon="-4.82401">
        <ele>5.3</ele>
        <time>2013-08-14T10:47:06.000+01:00</time>
      </trkpt>
      <trkpt lat="48.38571" lon="-4.82415">
        <ele>4.6</ele>
        <time>2013-08-14T10:47:08.000+01:00</time>
      </trkpt>
      <trkpt lat="48.38582" lon="-4.82428">
        <ele>5.2</ele>
        <time>2013-08-14T10:47:10.000+01:00</time>
      </trkpt>
      <trkpt lat="48.38594" lon="-4.82442">
        <ele>4.6</ele>
        <time>2013-08-14T10:47:12.000+01:00</time>
      </trkpt>
      <trkpt lat="48.38606" lon="-4.82457">
        <ele>5.4</ele>
        <time>2013-08-14T10:47:14.000+01:00</time>
      </trkpt>
      <trkpt lat="48.38618" lon="-4.8247">
        <ele>4.5</ele>
        <time>2013-08-14T10:47:16.000+01:00</time>
      </trkpt>
      <trkpt lat="48.3863" lon="-4.82485">
        <ele>4.5</ele>
        <time>2013-08-14T10:47:18.000+01:00</time>
      </trkpt>
      <trkpt lat="48.38642" lon="-4.82498">
        <ele>4.6</ele>
        <time>2013-08-14T10:47:20.000+01:00</time>
      </trkpt>
      <trkpt lat="48.38654" lon="-4.82512">
        <ele>4.6</ele>
        <time>2013-08-14T10:47:22.000+01:00</time>
      </trkpt>
      <trkpt lat="48.38665" lon="-4.82526">
        <ele>4.8</ele>
        <time>2013-08-14T10:47:24.000+01:00</time>
      </trkpt>
      <trkpt lat="48.38677" lon="-4.82541">
        <ele>4.9</ele>
        <time>2013-08-14T10:47:26.000+01:00</time>
      </trkpt>
      <trkpt lat="48.38689" lon="-4.82555">
        <ele>4.9</ele>
        <time>2013-08-14T10:47:28.000+01:00</time>
      </trkpt>
      <trkpt lat="48.387" lon="-4.82569">
        <ele>5</ele>
        <time>2013-08-14T10:47:30.000+01:00</time>
      </trkpt>
      <trkpt lat="48.38712" lon="-4.82583">
        <ele>4.9</ele>
        <time>2013-08-14T10:47:32.000+01:00</time>
      </trkpt>
      <trkpt lat="48.38724" lon="-4.82598">
        <ele>4.9</ele>
        <time>2013-08-14T10:47:34.000+01:00</time>
      </trkpt>
      <trkpt lat="48.38735" lon="-4.82612">
        <ele>4.9</ele>
        <time>2013-08-14T10:47:36.000+01:00</time>
      </trkpt>
      <trkpt lat="48.38748" lon="-4.82625">
        <ele>4.8</ele>
        <time>2013-08-14T10:47:38.000+01:00</time>
      </trkpt>
      <trkpt lat="48.3876" lon="-4.82639">
        <ele>4.9</ele>
        <time>2013-08-14T10:47:40.000+01:00</time>
      </trkpt>
      <trkpt lat="48.38772" lon="-4.82653">
        <ele>4.3</ele>
        <time>2013-08-14T10:47:42.000+01:00</time>
      </trkpt>
      <trkpt lat="48.38784" lon="-4.82666">
        <ele>4</ele>
        <time>2013-08-14T10:47:44.000+01:00</time>
      </trkpt>
      <trkpt lat="48.38796" lon="-4.8268">
        <ele>3.6</ele>
        <time>2013-08-14T10:47:46.000+01:00</time>
      </trkpt>
      <trkpt lat="48.38808" lon="-4.82693">
        <ele>3.3</ele>
        <time>2013-08-14T10:47:48.000+01:00</time>
      </trkpt>
      <trkpt lat="48.3882" lon="-4.82707">
        <ele>3.1</ele>
        <time>2013-08-14T10:47:50.000+01:00</time>
      </trkpt>
      <trkpt lat="48.38832" lon="-4.8272">
        <ele>3.3</ele>
        <time>2013-08-14T10:47:52.000+01:00</time>
      </trkpt>
      <trkpt lat="48.38844" lon="-4.82734">
        <ele>4.1</ele>
        <time>2013-08-14T10:47:54.000+01:00</time>
      </trkpt>
      <trkpt lat="48.38856" lon="-4.82747">
        <ele>4.6</ele>
        <time>2013-08-14T10:47:56.000+01:00</time>
      </trkpt>
      <trkpt lat="48.38868" lon="-4.82761">
        <ele>4.9</ele>
        <time>2013-08-14T10:47:58.000+01:00</time>
      </trkpt>
      <trkpt lat="48.3888" lon="-4.82775">
        <ele>5</ele>
        <time>2013-08-14T10:48:00.000+01:00</time>
      </trkpt>
      <trkpt lat="48.38892" lon="-4.82789">
        <ele>4.8</ele>
        <time>2013-08-14T10:48:02.000+01:00</time>
      </trkpt>
      <trkpt lat="48.38903" lon="-4.82803">
        <ele>4.5</ele>
        <time>2013-08-14T10:48:04.000+01:00</time>
      </trkpt>
      <trkpt lat="48.38915" lon="-4.82818">
        <ele>4.1</ele>
        <time>2013-08-14T10:48:06.000+01:00</time>
      </trkpt>
      <trkpt lat="48.38926" lon="-4.82833">
        <ele>3.6</ele>
        <time>2013-08-14T10:48:08.000+01:00</time>
      </trkpt>
      <trkpt lat="48.38938" lon="-4.82848">
        <ele>3</ele>
        <time>2013-08-14T10:48:10.000+01:00</time>
      </trkpt>
      <trkpt lat="48.38949" lon="-4.82864">
        <ele>2.9</ele>
        <time>2013-08-14T10:48:12.000+01:00</time>
      </trkpt>
      <trkpt lat="48.3896" lon="-4.8288">
        <ele>2.8</ele>
        <time>2013-08-14T10:48:14.000+01:00</time>
      </trkpt>
      <trkpt lat="48.38971" lon="-4.82896">
        <ele>2.9</ele>
        <time>2013-08-14T10:48:16.000+01:00</time>
      </trkpt>
      <trkpt lat="48.38982" lon="-4.82911">
        <ele>3.4</ele>
        <time>2013-08-14T10:48:18.000+01:00</time>
      </trkpt>
      <trkpt lat="48.38992" lon="-4.82927">
        <ele>3.1</ele>
        <time>2013-08-14T10:48:20.000+01:00</time>
      </trkpt>
      <trkpt lat="48.39003" lon="-4.82943">
        <ele>2.9</ele>
        <time>2013-08-14T10:48:22.000+01:00</time>
      </trkpt>
      <trkpt lat="48.39014" lon="-4.82958">
        <ele>2.6</ele>
        <time>2013-08-14T10:48:24.000+01:00</time>
      </trkpt>
      <trkpt lat="48.39025" lon="-4.82974">
        <ele>2.2</ele>
        <time>2013-08-14T10:48:26.000+01:00</time>
      </trkpt>
      <trkpt lat="48.39036" lon="-4.8299">
        <ele>2.6</ele>
        <time>2013-08-14T10:48:28.000+01:00</time>
      </trkpt>
      <trkpt lat="48.39047" lon="-4.83005">
        <ele>3.4</ele>
        <time>2013-08-14T10:48:30.000+01:00</time>
      </trkpt>
      <trkpt lat="48.39058" lon="-4.8302">
        <ele>4</ele>
        <time>2013-08-14T10:48:32.000+01:00</time>
      </trkpt>
      <trkpt lat="48.39069" lon="-4.83035">
        <ele>3.6</ele>
        <time>2013-08-14T10:48:34.000+01:00</time>
      </trkpt>
      <trkpt lat="48.3908" lon="-4.8305">
        <ele>3.5</ele>
        <time>2013-08-14T10:48:36.000+01:00</time>
      </trkpt>
      <trkpt lat="48.39091" lon="-4.83065">
        <ele>3.2</ele>
        <time>2013-08-14T10:48:38.000+01:00</time>
      </trkpt>
      <trkpt lat="48.39103" lon="-4.83079">
        <ele>2</ele>
        <time>2013-08-14T10:48:40.000+01:00</time>
      </trkpt>
      <trkpt lat="48.39115" lon="-4.83094">
        <ele>1.2</ele>
        <time>2013-08-14T10:48:42.000+01:00</time>
      </trkpt>
      <trkpt lat="48.39126" lon="-4.83109">
        <ele>0.7</ele>
        <time>2013-08-14T10:48:44.000+01:00</time>
      </trkpt>
      <trkpt lat="48.39137" lon="-4.83124">
        <ele>0.4</ele>
        <time>2013-08-14T10:48:46.000+01:00</time>
      </trkpt>
      <trkpt lat="48.39149" lon="-4.83139">
        <time>2013-08-14T10:48:48.000+01:00</time>
      </trkpt>
      <trkpt lat="48.3916" lon="-4.83154">
        <time>2013-08-14T10:48:50.000+01:00</time>
      </trkpt>
      <trkpt lat="48.39171" lon="-4.83169">
        <ele>0.3</ele>
        <time>2013-08-14T10:48:52.000+01:00</time>
      </trkpt>
      <trkpt lat="48.39182" lon="-4.83185">
        <ele>0.6</ele>
        <time>2013-08-14T10:48:54.000+01:00</time>
      </trkpt>
      <trkpt lat="48.39193" lon="-4.83201">
        <ele>1</ele>
        <time>2013-08-14T10:48:56.000+01:00</time>
      </trkpt>
      <trkpt lat="48.39203" lon="-4.83217">
        <ele>1.4</ele>
        <time>2013-08-14T10:48:58.000+01:00</time>
      </trkpt>
      <trkpt lat="48.39215" lon="-4.83233">
        <ele>1.6</ele>
        <time>2013-08-14T10:49:00.000+01:00</time>
      </trkpt>
      <trkpt lat="48.39226" lon="-4.83249">
        <ele>2.1</ele>
        <time>2013-08-14T10:49:02.000+01:00</time>
      </trkpt>
      <trkpt lat="48.39237" lon="-4.83265">
        <ele>3.1</ele>
        <time>2013-08-14T10:49:04.000+01:00</time>
      </trkpt>
      <trkpt lat="48.39248" lon="-4.83281">
        <ele>3.7</ele>
        <time>2013-08-14T10:49:06.000+01:00</time>
      </trkpt>
      <trkpt lat="48.39259" lon="-4.83296">
        <ele>4.2</ele>
        <time>2013-08-14T10:49:08.000+01:00</time>
      </trkpt>
      <trkpt lat="48.3927" lon="-4.83312">
        <ele>4.5</ele>
        <time>2013-08-14T10:49:10.000+01:00</time>
      </trkpt>
      <trkpt lat="48.39282" lon="-4.83328">
        <ele>4.4</ele>
        <time>2013-08-14T10:49:12.000+01:00</time>
      </trkpt>
      <trkpt lat="48.39293" lon="-4.83344">
        <ele>4.3</ele>
        <time>2013-08-14T10:49:14.000+01:00</time>
      </trkpt>
      <trkpt lat="48.39304" lon="-4.8336">
        <ele>4.4</ele>
        <time>2013-08-14T10:49:16.000+01:00</time>
      </trkpt>
      <trkpt lat="48.39315" lon="-4.83376">
        <ele>4.7</ele>
        <time>2013-08-14T10:49:18.000+01:00</time>
      </trkpt>
      <trkpt lat="48.39326" lon="-4.83392">
        <ele>5.1</ele>
        <time>2013-08-14T10:49:20.000+01:00</time>
      </trkpt>
      <trkpt lat="48.39337" lon="-4.83408">
        <ele>5.4</ele>
        <time>2013-08-14T10:49:22.000+01:00</time>
      </trkpt>
      <trkpt lat="48.39348" lon="-4.83424">
        <ele>5.8</ele>
        <time>2013-08-14T10:49:24.000+01:00</time>
      </trkpt>
      <trkpt lat="48.39358" lon="-4.8344">
        <ele>6.2</ele>
        <time>2013-08-14T10:49:26.000+01:00</time>
      </trkpt>
      <trkpt lat="48.39369" lon="-4.83456">
        <ele>7</ele>
        <time>2013-08-14T10:49:28.000+01:00</time>
      </trkpt>
      <trkpt lat="48.3938" lon="-4.83472">
        <ele>6.5</ele>
        <time>2013-08-14T10:49:30.000+01:00</time>
      </trkpt>
      <trkpt lat="48.3939" lon="-4.83487">
        <ele>6.7</ele>
        <time>2013-08-14T10:49:32.000+01:00</time>
      </trkpt>
      <trkpt lat="48.39402" lon="-4.83503">
        <ele>7</ele>
        <time>2013-08-14T10:49:34.000+01:00</time>
      </trkpt>
      <trkpt lat="48.39412" lon="-4.83519">
        <ele>5.8</ele>
        <time>2013-08-14T10:49:36.000+01:00</time>
      </trkpt>
      <trkpt lat="48.39424" lon="-4.83535">
        <ele>5.4</ele>
        <time>2013-08-14T10:49:38.000+01:00</time>
      </trkpt>
      <trkpt lat="48.39434" lon="-4.8355">
        <ele>6.4</ele>
        <time>2013-08-14T10:49:40.000+01:00</time>
      </trkpt>
      <trkpt lat="48.39445" lon="-4.83566">
        <ele>7</ele>
        <time>2013-08-14T10:49:42.000+01:00</time>
      </trkpt>
      <trkpt lat="48.39456" lon="-4.83581">
        <ele>7.3</ele>
        <time>2013-08-14T10:49:44.000+01:00</time>
      </trkpt>
      <trkpt lat="48.39467" lon="-4.83598">
        <ele>7</ele>
        <time>2013-08-14T10:49:46.000+01:00</time>
      </trkpt>
      <trkpt lat="48.39478" lon="-4.83614">
        <ele>6.6</ele>
        <time>2013-08-14T10:49:48.000+01:00</time>
      </trkpt>
      <trkpt lat="48.39489" lon="-4.83631">
        <ele>5.6</ele>
        <time>2013-08-14T10:49:50.000+01:00</time>
      </trkpt>
      <trkpt lat="48.395" lon="-4.83647">
        <ele>6.7</ele>
        <time>2013-08-14T10:49:52.000+01:00</time>
      </trkpt>
      <trkpt lat="48.3951" lon="-4.83664">
        <ele>6.7</ele>
        <time>2013-08-14T10:49:54.000+01:00</time>
      </trkpt>
      <trkpt lat="48.39521" lon="-4.8368">
        <ele>7.4</ele>
        <time>2013-08-14T10:49:56.000+01:00</time>
      </trkpt>
      <trkpt lat="48.39532" lon="-4.83695">
        <ele>7.8</ele>
        <time>2013-08-14T10:49:58.000+01:00</time>
      </trkpt>
      <trkpt lat="48.39543" lon="-4.83712">
        <ele>7.7</ele>
        <time>2013-08-14T10:50:00.000+01:00</time>
      </trkpt>
      <trkpt lat="48.39554" lon="-4.83728">
        <ele>6.8</ele>
        <time>2013-08-14T10:50:02.000+01:00</time>
      </trkpt>
      <trkpt lat="48.39565" lon="-4.83745">
        <ele>6.3</ele>
        <time>2013-08-14T10:50:04.000+01:00</time>
      </trkpt>
      <trkpt lat="48.39576" lon="-4.83762">
        <ele>5.9</ele>
        <time>2013-08-14T10:50:06.000+01:00</time>
      </trkpt>
      <trkpt lat="48.39588" lon="-4.83778">
        <ele>5.7</ele>
        <time>2013-08-14T10:50:08.000+01:00</time>
      </trkpt>
      <trkpt lat="48.39599" lon="-4.83794">
        <ele>5.5</ele>
        <time>2013-08-14T10:50:10.000+01:00</time>
      </trkpt>
      <trkpt lat="48.3961" lon="-4.8381">
        <ele>5.2</ele>
        <time>2013-08-14T10:50:12.000+01:00</time>
      </trkpt>
      <trkpt lat="48.39621" lon="-4.83826">
        <ele>5</ele>
        <time>2013-08-14T10:50:14.000+01:00</time>
      </trkpt>
      <trkpt lat="48.39632" lon="-4.83842">
        <ele>4.8</ele>
        <time>2013-08-14T10:50:16.000+01:00</time>
      </trkpt>
      <trkpt lat="48.39644" lon="-4.83858">
        <ele>4.7</ele>
        <time>2013-08-14T10:50:18.000+01:00</time>
      </trkpt>
      <trkpt lat="48.39655" lon="-4.83874">
        <ele>4.6</ele>
        <time>2013-08-14T10:50:20.000+01:00</time>
      </trkpt>
      <trkpt lat="48.39666" lon="-4.83889">
        <ele>4.5</ele>
        <time>2013-08-14T10:50:22.000+01:00</time>
      </trkpt>
      <trkpt lat="48.39678" lon="-4.83905">
        <ele>4.4</ele>
        <time>2013-08-14T10:50:24.000+01:00</time>
      </trkpt>
      <trkpt lat="48.39689" lon="-4.83921">
        <ele>4.4</ele>
        <time>2013-08-14T10:50:26.000+01:00</time>
      </trkpt>
      <trkpt lat="48.397" lon="-4.83937">
        <ele>4.4</ele>
        <time>2013-08-14T10:50:28.000+01:00</time>
      </trkpt>
      <trkpt lat="48.39711" lon="-4.83952">
        <ele>4.7</ele>
        <time>2013-08-14T10:50:30.000+01:00</time>
      </trkpt>
      <trkpt lat="48.39722" lon="-4.83969">
        <ele>5.3</ele>
        <time>2013-08-14T10:50:32.000+01:00</time>
      </trkpt>
      <trkpt lat="48.39734" lon="-4.83985">
        <ele>5.3</ele>
        <time>2013-08-14T10:50:34.000+01:00</time>
      </trkpt>
      <trkpt lat="48.39745" lon="-4.84001">
        <ele>5.4</ele>
        <time>2013-08-14T10:50:36.000+01:00</time>
      </trkpt>
      <trkpt lat="48.39755" lon="-4.84018">
        <ele>5.4</ele>
        <time>2013-08-14T10:50:38.000+01:00</time>
      </trkpt>
      <trkpt lat="48.39767" lon="-4.84034">
        <ele>5.2</ele>
        <time>2013-08-14T10:50:40.000+01:00</time>
      </trkpt>
      <trkpt lat="48.39777" lon="-4.8405">
        <ele>5.1</ele>
        <time>2013-08-14T10:50:42.000+01:00</time>
      </trkpt>
      <trkpt lat="48.39788" lon="-4.84066">
        <ele>5.2</ele>
        <time>2013-08-14T10:50:44.000+01:00</time>
      </trkpt>
      <trkpt lat="48.39799" lon="-4.84082">
        <ele>4.8</ele>
        <time>2013-08-14T10:50:46.000+01:00</time>
      </trkpt>
      <trkpt lat="48.3981" lon="-4.84098">
        <ele>4.5</ele>
        <time>2013-08-14T10:50:48.000+01:00</time>
      </trkpt>
      <trkpt lat="48.39821" lon="-4.84114">
        <ele>4.2</ele>
        <time>2013-08-14T10:50:50.000+01:00</time>
      </trkpt>
      <trkpt lat="48.39832" lon="-4.84131">
        <ele>4.3</ele>
        <time>2013-08-14T10:50:52.000+01:00</time>
      </trkpt>
      <trkpt lat="48.39843" lon="-4.84147">
        <ele>4.7</ele>
        <time>2013-08-14T10:50:54.000+01:00</time>
      </trkpt>
      <trkpt lat="48.39854" lon="-4.84163">
        <ele>4.8</ele>
        <time>2013-08-14T10:50:56.000+01:00</time>
      </trkpt>
      <trkpt lat="48.39864" lon="-4.8418">
        <ele>4.5</ele>
        <time>2013-08-14T10:50:58.000+01:00</time>
      </trkpt>
      <trkpt lat="48.39874" lon="-4.84197">
        <ele>3.8</ele>
        <time>2013-08-14T10:51:00.000+01:00</time>
      </trkpt>
      <trkpt lat="48.39884" lon="-4.84214">
        <ele>3</ele>
        <time>2013-08-14T10:51:02.000+01:00</time>
      </trkpt>
      <trkpt lat="48.39893" lon="-4.84231">
        <ele>2.7</ele>
        <time>2013-08-14T10:51:04.000+01:00</time>
      </trkpt>
      <trkpt lat="48.39903" lon="-4.84249">
        <ele>1</ele>
        <time>2013-08-14T10:51:06.000+01:00</time>
      </trkpt>
      <trkpt lat="48.39912" lon="-4.84267">
        <ele>0.6</ele>
        <time>2013-08-14T10:51:08.000+01:00</time>
      </trkpt>
      <trkpt lat="48.39922" lon="-4.84284">
        <ele>0.9</ele>
        <time>2013-08-14T10:51:10.000+01:00</time>
      </trkpt>
      <trkpt lat="48.39933" lon="-4.84301">
        <ele>1.6</ele>
        <time>2013-08-14T10:51:12.000+01:00</time>
      </trkpt>
      <trkpt lat="48.39945" lon="-4.84317">
        <ele>2.7</ele>
        <time>2013-08-14T10:51:14.000+01:00</time>
      </trkpt>
      <trkpt lat="48.39956" lon="-4.84334">
        <ele>3.1</ele>
        <time>2013-08-14T10:51:16.000+01:00</time>
      </trkpt>
      <trkpt lat="48.39966" lon="-4.84352">
        <ele>2.9</ele>
        <time>2013-08-14T10:51:18.000+01:00</time>
      </trkpt>
      <trkpt lat="48.39977" lon="-4.84368">
        <ele>3.1</ele>
        <time>2013-08-14T10:51:20.000+01:00</time>
      </trkpt>
      <trkpt lat="48.39987" lon="-4.84386">
        <ele>3.2</ele>
        <time>2013-08-14T10:51:22.000+01:00</time>
      </trkpt>
      <trkpt lat="48.39998" lon="-4.84403">
        <ele>3.2</ele>
        <time>2013-08-14T10:51:24.000+01:00</time>
      </trkpt>
      <trkpt lat="48.40008" lon="-4.84421">
        <ele>3.4</ele>
        <time>2013-08-14T10:51:26.000+01:00</time>
      </trkpt>
      <trkpt lat="48.40019" lon="-4.84438">
        <ele>3.6</ele>
        <time>2013-08-14T10:51:28.000+01:00</time>
      </trkpt>
      <trkpt lat="48.4003" lon="-4.84455">
        <ele>3.6</ele>
        <time>2013-08-14T10:51:30.000+01:00</time>
      </trkpt>
      <trkpt lat="48.40041" lon="-4.84471">
        <ele>3.9</ele>
        <time>2013-08-14T10:51:32.000+01:00</time>
      </trkpt>
      <trkpt lat="48.40053" lon="-4.84488">
        <ele>4.3</ele>
        <time>2013-08-14T10:51:34.000+01:00</time>
      </trkpt>
      <trkpt lat="48.40064" lon="-4.84504">
        <ele>4.6</ele>
        <time>2013-08-14T10:51:36.000+01:00</time>
      </trkpt>
      <trkpt lat="48.40075" lon="-4.84521">
        <ele>4.5</ele>
        <time>2013-08-14T10:51:38.000+01:00</time>
      </trkpt>
      <trkpt lat="48.40085" lon="-4.84537">
        <ele>4.4</ele>
        <time>2013-08-14T10:51:40.000+01:00</time>
      </trkpt>
      <trkpt lat="48.40096" lon="-4.84555">
        <ele>4.5</ele>
        <time>2013-08-14T10:51:42.000+01:00</time>
      </trkpt>
      <trkpt lat="48.40107" lon="-4.84572">
        <ele>4.9</ele>
        <time>2013-08-14T10:51:44.000+01:00</time>
      </trkpt>
      <trkpt lat="48.40117" lon="-4.84589">
        <ele>5.2</ele>
        <time>2013-08-14T10:51:46.000+01:00</time>
      </trkpt>
      <trkpt lat="48.40128" lon="-4.84606">
        <ele>5.6</ele>
        <time>2013-08-14T10:51:48.000+01:00</time>
      </trkpt>
      <trkpt lat="48.40139" lon="-4.84623">
        <ele>6</ele>
        <time>2013-08-14T10:51:50.000+01:00</time>
      </trkpt>
      <trkpt lat="48.40149" lon="-4.8464">
        <ele>6.5</ele>
        <time>2013-08-14T10:51:52.000+01:00</time>
      </trkpt>
      <trkpt lat="48.4016" lon="-4.84657">
        <ele>6.7</ele>
        <time>2013-08-14T10:51:54.000+01:00</time>
      </trkpt>
      <trkpt lat="48.4017" lon="-4.84673">
        <ele>6.2</ele>
        <time>2013-08-14T10:51:56.000+01:00</time>
      </trkpt>
      <trkpt lat="48.4018" lon="-4.84691">
        <ele>6</ele>
        <time>2013-08-14T10:51:58.000+01:00</time>
      </trkpt>
      <trkpt lat="48.4019" lon="-4.84708">
        <ele>4.6</ele>
        <time>2013-08-14T10:52:00.000+01:00</time>
      </trkpt>
      <trkpt lat="48.402" lon="-4.84726">
        <ele>4.5</ele>
        <time>2013-08-14T10:52:02.000+01:00</time>
      </trkpt>
      <trkpt lat="48.40211" lon="-4.84742">
        <ele>5.1</ele>
        <time>2013-08-14T10:52:04.000+01:00</time>
      </trkpt>
      <trkpt lat="48.40221" lon="-4.84759">
        <ele>5.3</ele>
        <time>2013-08-14T10:52:06.000+01:00</time>
      </trkpt>
      <trkpt lat="48.40231" lon="-4.84776">
        <ele>4.6</ele>
        <time>2013-08-14T10:52:08.000+01:00</time>
      </trkpt>
      <trkpt lat="48.40241" lon="-4.84794">
        <ele>3.9</ele>
        <time>2013-08-14T10:52:10.000+01:00</time>
      </trkpt>
      <trkpt lat="48.4025" lon="-4.84812">
        <ele>3.2</ele>
        <time>2013-08-14T10:52:12.000+01:00</time>
      </trkpt>
      <trkpt lat="48.40261" lon="-4.8483">
        <ele>3.4</ele>
        <time>2013-08-14T10:52:14.000+01:00</time>
      </trkpt>
      <trkpt lat="48.40271" lon="-4.84846">
        <ele>3.6</ele>
        <time>2013-08-14T10:52:16.000+01:00</time>
      </trkpt>
      <trkpt lat="48.40282" lon="-4.84863">
        <ele>3.4</ele>
        <time>2013-08-14T10:52:18.000+01:00</time>
      </trkpt>
      <trkpt lat="48.40291" lon="-4.84881">
        <ele>3</ele>
        <time>2013-08-14T10:52:20.000+01:00</time>
      </trkpt>
      <trkpt lat="48.40301" lon="-4.84898">
        <ele>2.8</ele>
        <time>2013-08-14T10:52:22.000+01:00</time>
      </trkpt>
      <trkpt lat="48.40311" lon="-4.84915">
        <ele>2.6</ele>
        <time>2013-08-14T10:52:24.000+01:00</time>
      </trkpt>
      <trkpt lat="48.40321" lon="-4.84933">
        <ele>2.1</ele>
        <time>2013-08-14T10:52:26.000+01:00</time>
      </trkpt>
      <trkpt lat="48.40331" lon="-4.8495">
        <ele>2.1</ele>
        <time>2013-08-14T10:52:28.000+01:00</time>
      </trkpt>
      <trkpt lat="48.40341" lon="-4.84967">
        <ele>2.1</ele>
        <time>2013-08-14T10:52:30.000+01:00</time>
      </trkpt>
      <trkpt lat="48.40351" lon="-4.84984">
        <ele>2.7</ele>
        <time>2013-08-14T10:52:32.000+01:00</time>
      </trkpt>
      <trkpt lat="48.40362" lon="-4.85001">
        <ele>3.1</ele>
        <time>2013-08-14T10:52:34.000+01:00</time>
      </trkpt>
      <trkpt lat="48.40373" lon="-4.85018">
        <ele>2.9</ele>
        <time>2013-08-14T10:52:36.000+01:00</time>
      </trkpt>
      <trkpt lat="48.40383" lon="-4.85035">
        <ele>2.9</ele>
        <time>2013-08-14T10:52:38.000+01:00</time>
      </trkpt>
      <trkpt lat="48.40393" lon="-4.85052">
        <ele>2.9</ele>
        <time>2013-08-14T10:52:40.000+01:00</time>
      </trkpt>
      <trkpt lat="48.40403" lon="-4.8507">
        <ele>3.1</ele>
        <time>2013-08-14T10:52:42.000+01:00</time>
      </trkpt>
      <trkpt lat="48.40412" lon="-4.85088">
        <ele>3.1</ele>
        <time>2013-08-14T10:52:44.000+01:00</time>
      </trkpt>
      <trkpt lat="48.4042" lon="-4.85108">
        <ele>3.7</ele>
        <time>2013-08-14T10:52:46.000+01:00</time>
      </trkpt>
      <trkpt lat="48.40428" lon="-4.85128">
        <ele>3.3</ele>
        <time>2013-08-14T10:52:48.000+01:00</time>
      </trkpt>
      <trkpt lat="48.40435" lon="-4.85149">
        <ele>3.6</ele>
        <time>2013-08-14T10:52:50.000+01:00</time>
      </trkpt>
      <trkpt lat="48.40443" lon="-4.85169">
        <ele>4.5</ele>
        <time>2013-08-14T10:52:52.000+01:00</time>
      </trkpt>
      <trkpt lat="48.4045" lon="-4.8519">
        <ele>5.2</ele>
        <time>2013-08-14T10:52:54.000+01:00</time>
      </trkpt>
      <trkpt lat="48.40458" lon="-4.8521">
        <ele>6.4</ele>
        <time>2013-08-14T10:52:56.000+01:00</time>
      </trkpt>
      <trkpt lat="48.40465" lon="-4.85231">
        <ele>7.7</ele>
        <time>2013-08-14T10:52:58.000+01:00</time>
      </trkpt>
      <trkpt lat="48.40473" lon="-4.85252">
        <ele>8.5</ele>
        <time>2013-08-14T10:53:00.000+01:00</time>
      </trkpt>
      <trkpt lat="48.40481" lon="-4.85272">
        <ele>9.1</ele>
        <time>2013-08-14T10:53:02.000+01:00</time>
      </trkpt>
      <trkpt lat="48.40487" lon="-4.85293">
        <ele>8.2</ele>
        <time>2013-08-14T10:53:04.000+01:00</time>
      </trkpt>
      <trkpt lat="48.40493" lon="-4.85314">
        <ele>7.6</ele>
        <time>2013-08-14T10:53:06.000+01:00</time>
      </trkpt>
      <trkpt lat="48.40497" lon="-4.85337">
        <ele>6.8</ele>
        <time>2013-08-14T10:53:08.000+01:00</time>
      </trkpt>
      <trkpt lat="48.40501" lon="-4.85359">
        <ele>6.5</ele>
        <time>2013-08-14T10:53:10.000+01:00</time>
      </trkpt>
      <trkpt lat="48.40504" lon="-4.85382">
        <ele>6.5</ele>
        <time>2013-08-14T10:53:12.000+01:00</time>
      </trkpt>
      <trkpt lat="48.40507" lon="-4.85405">
        <ele>7.1</ele>
        <time>2013-08-14T10:53:14.000+01:00</time>
      </trkpt>
      <trkpt lat="48.40509" lon="-4.85427">
        <ele>8.1</ele>
        <time>2013-08-14T10:53:16.000+01:00</time>
      </trkpt>
      <trkpt lat="48.40511" lon="-4.8545">
        <ele>8.8</ele>
        <time>2013-08-14T10:53:18.000+01:00</time>
      </trkpt>
      <trkpt lat="48.40513" lon="-4.85473">
        <ele>8.5</ele>
        <time>2013-08-14T10:53:20.000+01:00</time>
      </trkpt>
      <trkpt lat="48.40515" lon="-4.85496">
        <ele>7.5</ele>
        <time>2013-08-14T10:53:22.000+01:00</time>
      </trkpt>
      <trkpt lat="48.40516" lon="-4.8552">
        <ele>6</ele>
        <time>2013-08-14T10:53:24.000+01:00</time>
      </trkpt>
      <trkpt lat="48.40518" lon="-4.85543">
        <ele>5.3</ele>
        <time>2013-08-14T10:53:26.000+01:00</time>
      </trkpt>
      <trkpt lat="48.4052" lon="-4.85566">
        <ele>5</ele>
        <time>2013-08-14T10:53:28.000+01:00</time>
      </trkpt>
      <trkpt lat="48.40521" lon="-4.8559">
        <ele>3.9</ele>
        <time>2013-08-14T10:53:30.000+01:00</time>
      </trkpt>
      <trkpt lat="48.40522" lon="-4.85614">
        <ele>3.9</ele>
        <time>2013-08-14T10:53:32.000+01:00</time>
      </trkpt>
      <trkpt lat="48.40523" lon="-4.85638">
        <ele>3.1</ele>
        <time>2013-08-14T10:53:34.000+01:00</time>
      </trkpt>
      <trkpt lat="48.40522" lon="-4.85663">
        <ele>2.8</ele>
        <time>2013-08-14T10:53:36.000+01:00</time>
      </trkpt>
      <trkpt lat="48.40521" lon="-4.85686">
        <ele>2.7</ele>
        <time>2013-08-14T10:53:38.000+01:00</time>
      </trkpt>
      <trkpt lat="48.4052" lon="-4.8571">
        <ele>2.8</ele>
        <time>2013-08-14T10:53:40.000+01:00</time>
      </trkpt>
      <trkpt lat="48.40519" lon="-4.85733">
        <ele>3.4</ele>
        <time>2013-08-14T10:53:42.000+01:00</time>
      </trkpt>
      <trkpt lat="48.40519" lon="-4.85757">
        <ele>3.3</ele>
        <time>2013-08-14T10:53:44.000+01:00</time>
      </trkpt>
      <trkpt lat="48.40518" lon="-4.85781">
        <ele>2.8</ele>
        <time>2013-08-14T10:53:46.000+01:00</time>
      </trkpt>
      <trkpt lat="48.40518" lon="-4.85805">
        <ele>2.2</ele>
        <time>2013-08-14T10:53:48.000+01:00</time>
      </trkpt>
      <trkpt lat="48.40517" lon="-4.85829">
        <ele>2.7</ele>
        <time>2013-08-14T10:53:50.000+01:00</time>
      </trkpt>
      <trkpt lat="48.40517" lon="-4.85854">
        <ele>2.7</ele>
        <time>2013-08-14T10:53:52.000+01:00</time>
      </trkpt>
      <trkpt lat="48.40517" lon="-4.85878">
        <ele>1.7</ele>
        <time>2013-08-14T10:53:54.000+01:00</time>
      </trkpt>
      <trkpt lat="48.40516" lon="-4.85902">
        <ele>0.1</ele>
        <time>2013-08-14T10:53:56.000+01:00</time>
      </trkpt>
      <trkpt lat="48.40515" lon="-4.85926">
        <ele>1.5</ele>
        <time>2013-08-14T10:53:58.000+01:00</time>
      </trkpt>
      <trkpt lat="48.40514" lon="-4.85951">
        <ele>1.5</ele>
        <time>2013-08-14T10:54:00.000+01:00</time>
      </trkpt>
      <trkpt lat="48.40513" lon="-4.85974">
        <ele>1.8</ele>
        <time>2013-08-14T10:54:02.000+01:00</time>
      </trkpt>
      <trkpt lat="48.40512" lon="-4.85997">
        <ele>1.5</ele>
        <time>2013-08-14T10:54:04.000+01:00</time>
      </trkpt>
      <trkpt lat="48.40512" lon="-4.86021">
        <ele>1.6</ele>
        <time>2013-08-14T10:54:06.000+01:00</time>
      </trkpt>
      <trkpt lat="48.40512" lon="-4.86045">
        <ele>1.9</ele>
        <time>2013-08-14T10:54:08.000+01:00</time>
      </trkpt>
      <trkpt lat="48.40513" lon="-4.8607">
        <ele>0.7</ele>
        <time>2013-08-14T10:54:10.000+01:00</time>
      </trkpt>
      <trkpt lat="48.40511" lon="-4.86092">
        <ele>1.3</ele>
        <time>2013-08-14T10:54:12.000+01:00</time>
      </trkpt>
      <trkpt lat="48.4051" lon="-4.86115">
        <ele>-0.7</ele>
        <time>2013-08-14T10:54:14.000+01:00</time>
      </trkpt>
      <trkpt lat="48.40508" lon="-4.86138">
        <ele>-0.1</ele>
        <time>2013-08-14T10:54:16.000+01:00</time>
      </trkpt>
      <trkpt lat="48.40507" lon="-4.86162">
        <ele>0.2</ele>
        <time>2013-08-14T10:54:18.000+01:00</time>
      </trkpt>
      <trkpt lat="48.40506" lon="-4.86187">
        <ele>-0.8</ele>
        <time>2013-08-14T10:54:20.000+01:00</time>
      </trkpt>
      <trkpt lat="48.40505" lon="-4.86212">
        <ele>-0.4</ele>
        <time>2013-08-14T10:54:22.000+01:00</time>
      </trkpt>
      <trkpt lat="48.40504" lon="-4.86235">
        <ele>-0.6</ele>
        <time>2013-08-14T10:54:24.000+01:00</time>
      </trkpt>
      <trkpt lat="48.40503" lon="-4.8626">
        <ele>-0.7</ele>
        <time>2013-08-14T10:54:26.000+01:00</time>
      </trkpt>
      <trkpt lat="48.40503" lon="-4.86285">
        <ele>-0.6</ele>
        <time>2013-08-14T10:54:28.000+01:00</time>
      </trkpt>
      <trkpt lat="48.40502" lon="-4.86309">
        <ele>-0.1</ele>
        <time>2013-08-14T10:54:30.000+01:00</time>
      </trkpt>
      <trkpt lat="48.40501" lon="-4.86333">
        <ele>1.4</ele>
        <time>2013-08-14T10:54:32.000+01:00</time>
      </trkpt>
      <trkpt lat="48.405" lon="-4.86356">
        <ele>2.5</ele>
        <time>2013-08-14T10:54:34.000+01:00</time>
      </trkpt>
      <trkpt lat="48.40499" lon="-4.8638">
        <ele>2.9</ele>
        <time>2013-08-14T10:54:36.000+01:00</time>
      </trkpt>
      <trkpt lat="48.40497" lon="-4.86404">
        <ele>3.7</ele>
        <time>2013-08-14T10:54:38.000+01:00</time>
      </trkpt>
      <trkpt lat="48.40496" lon="-4.86427">
        <ele>4.4</ele>
        <time>2013-08-14T10:54:40.000+01:00</time>
      </trkpt>
      <trkpt lat="48.40494" lon="-4.86451">
        <ele>4.6</ele>
        <time>2013-08-14T10:54:42.000+01:00</time>
      </trkpt>
      <trkpt lat="48.40492" lon="-4.86474">
        <ele>5.5</ele>
        <time>2013-08-14T10:54:44.000+01:00</time>
      </trkpt>
      <trkpt lat="48.40491" lon="-4.86499">
        <ele>6.2</ele>
        <time>2013-08-14T10:54:46.000+01:00</time>
      </trkpt>
      <trkpt lat="48.4049" lon="-4.86523">
        <ele>6.9</ele>
        <time>2013-08-14T10:54:48.000+01:00</time>
      </trkpt>
      <trkpt lat="48.40488" lon="-4.86547">
        <ele>8</ele>
        <time>2013-08-14T10:54:50.000+01:00</time>
      </trkpt>
      <trkpt lat="48.40487" lon="-4.86571">
        <ele>8.1</ele>
        <time>2013-08-14T10:54:52.000+01:00</time>
      </trkpt>
      <trkpt lat="48.40486" lon="-4.86595">
        <ele>8</ele>
        <time>2013-08-14T10:54:54.000+01:00</time>
      </trkpt>
      <trkpt lat="48.40485" lon="-4.86619">
        <ele>8.4</ele>
        <time>2013-08-14T10:54:56.000+01:00</time>
      </trkpt>
      <trkpt lat="48.40483" lon="-4.86642">
        <ele>6.3</ele>
        <time>2013-08-14T10:54:58.000+01:00</time>
      </trkpt>
      <trkpt lat="48.40483" lon="-4.86668">
        <ele>5.6</ele>
        <time>2013-08-14T10:55:00.000+01:00</time>
      </trkpt>
      <trkpt lat="48.40482" lon="-4.86693">
        <ele>4.7</ele>
        <time>2013-08-14T10:55:02.000+01:00</time>
      </trkpt>
      <trkpt lat="48.40481" lon="-4.86718">
        <ele>2</ele>
        <time>2013-08-14T10:55:04.000+01:00</time>
      </trkpt>
      <trkpt lat="48.40479" lon="-4.86741">
        <ele>1.1</ele>
        <time>2013-08-14T10:55:06.000+01:00</time>
      </trkpt>
      <trkpt lat="48.40478" lon="-4.86764">
        <ele>0.2</ele>
        <time>2013-08-14T10:55:08.000+01:00</time>
      </trkpt>
      <trkpt lat="48.40476" lon="-4.86789">
        <ele>0.4</ele>
        <time>2013-08-14T10:55:10.000+01:00</time>
      </trkpt>
      <trkpt lat="48.40475" lon="-4.86813">
        <ele>1.2</ele>
        <time>2013-08-14T10:55:12.000+01:00</time>
      </trkpt>
      <trkpt lat="48.40473" lon="-4.86837">
        <ele>1.2</ele>
        <time>2013-08-14T10:55:14.000+01:00</time>
      </trkpt>
      <trkpt lat="48.40472" lon="-4.86861">
        <ele>1.9</ele>
        <time>2013-08-14T10:55:16.000+01:00</time>
      </trkpt>
      <trkpt lat="48.4047" lon="-4.86885">
        <ele>3.1</ele>
        <time>2013-08-14T10:55:18.000+01:00</time>
      </trkpt>
      <trkpt lat="48.40468" lon="-4.86909">
        <ele>3.7</ele>
        <time>2013-08-14T10:55:20.000+01:00</time>
      </trkpt>
      <trkpt lat="48.40467" lon="-4.86932">
        <ele>4.7</ele>
        <time>2013-08-14T10:55:22.000+01:00</time>
      </trkpt>
      <trkpt lat="48.40465" lon="-4.86956">
        <ele>5.2</ele>
        <time>2013-08-14T10:55:24.000+01:00</time>
      </trkpt>
      <trkpt lat="48.40464" lon="-4.86981">
        <ele>4.7</ele>
        <time>2013-08-14T10:55:26.000+01:00</time>
      </trkpt>
      <trkpt lat="48.40463" lon="-4.87006">
        <ele>4.5</ele>
        <time>2013-08-14T10:55:28.000+01:00</time>
      </trkpt>
      <trkpt lat="48.40462" lon="-4.8703">
        <ele>4.7</ele>
        <time>2013-08-14T10:55:30.000+01:00</time>
      </trkpt>
      <trkpt lat="48.40461" lon="-4.87055">
        <ele>4</ele>
        <time>2013-08-14T10:55:32.000+01:00</time>
      </trkpt>
      <trkpt lat="48.4046" lon="-4.8708">
        <ele>4.3</ele>
        <time>2013-08-14T10:55:34.000+01:00</time>
      </trkpt>
      <trkpt lat="48.40459" lon="-4.87104">
        <ele>3.8</ele>
        <time>2013-08-14T10:55:36.000+01:00</time>
      </trkpt>
      <trkpt lat="48.40457" lon="-4.87128">
        <ele>4.3</ele>
        <time>2013-08-14T10:55:38.000+01:00</time>
      </trkpt>
      <trkpt lat="48.40456" lon="-4.87152">
        <ele>4.9</ele>
        <time>2013-08-14T10:55:40.000+01:00</time>
      </trkpt>
      <trkpt lat="48.40454" lon="-4.87176">
        <ele>4.8</ele>
        <time>2013-08-14T10:55:42.000+01:00</time>
      </trkpt>
      <trkpt lat="48.40452" lon="-4.872">
        <ele>4.3</ele>
        <time>2013-08-14T10:55:44.000+01:00</time>
      </trkpt>
      <trkpt lat="48.40451" lon="-4.87225">
        <ele>3.9</ele>
        <time>2013-08-14T10:55:46.000+01:00</time>
      </trkpt>
      <trkpt lat="48.4045" lon="-4.87249">
        <ele>2.6</ele>
        <time>2013-08-14T10:55:48.000+01:00</time>
      </trkpt>
      <trkpt lat="48.40449" lon="-4.87273">
        <ele>1.7</ele>
        <time>2013-08-14T10:55:50.000+01:00</time>
      </trkpt>
      <trkpt lat="48.40447" lon="-4.87298">
        <ele>0.8</ele>
        <time>2013-08-14T10:55:52.000+01:00</time>
      </trkpt>
      <trkpt lat="48.40446" lon="-4.87323">
        <ele>0.8</ele>
        <time>2013-08-14T10:55:54.000+01:00</time>
      </trkpt>
      <trkpt lat="48.40444" lon="-4.87348">
        <ele>0.1</ele>
        <time>2013-08-14T10:55:56.000+01:00</time>
      </trkpt>
      <trkpt lat="48.40443" lon="-4.87372">
        <ele>-0.4</ele>
        <time>2013-08-14T10:55:58.000+01:00</time>
      </trkpt>
      <trkpt lat="48.40441" lon="-4.87397">
        <ele>-0.8</ele>
        <time>2013-08-14T10:56:00.000+01:00</time>
      </trkpt>
      <trkpt lat="48.40439" lon="-4.8742">
        <ele>-0.2</ele>
        <time>2013-08-14T10:56:02.000+01:00</time>
      </trkpt>
      <trkpt lat="48.40437" lon="-4.87444">
        <ele>0.3</ele>
        <time>2013-08-14T10:56:04.000+01:00</time>
      </trkpt>
      <trkpt lat="48.40435" lon="-4.87468">
        <ele>0.7</ele>
        <time>2013-08-14T10:56:06.000+01:00</time>
      </trkpt>
      <trkpt lat="48.40434" lon="-4.87492">
        <ele>0.7</ele>
        <time>2013-08-14T10:56:08.000+01:00</time>
      </trkpt>
      <trkpt lat="48.40432" lon="-4.87516">
        <ele>0.1</ele>
        <time>2013-08-14T10:56:10.000+01:00</time>
      </trkpt>
      <trkpt lat="48.4043" lon="-4.8754">
        <ele>-1.4</ele>
        <time>2013-08-14T10:56:12.000+01:00</time>
      </trkpt>
      <trkpt lat="48.40428" lon="-4.87563">
        <ele>-2.1</ele>
        <time>2013-08-14T10:56:14.000+01:00</time>
      </trkpt>
      <trkpt lat="48.40427" lon="-4.87587">
        <ele>-2.7</ele>
        <time>2013-08-14T10:56:16.000+01:00</time>
      </trkpt>
      <trkpt lat="48.40425" lon="-4.87611">
        <ele>-3.8</ele>
        <time>2013-08-14T10:56:18.000+01:00</time>
      </trkpt>
      <trkpt lat="48.40423" lon="-4.87636">
        <ele>-3.8</ele>
        <time>2013-08-14T10:56:20.000+01:00</time>
      </trkpt>
      <trkpt lat="48.40422" lon="-4.8766">
        <ele>-4</ele>
        <time>2013-08-14T10:56:22.000+01:00</time>
      </trkpt>
      <trkpt lat="48.40421" lon="-4.87683">
        <ele>-4.4</ele>
        <time>2013-08-14T10:56:24.000+01:00</time>
      </trkpt>
      <trkpt lat="48.4042" lon="-4.87707">
        <ele>-4.6</ele>
        <time>2013-08-14T10:56:26.000+01:00</time>
      </trkpt>
      <trkpt lat="48.40418" lon="-4.87732">
        <ele>-4</ele>
        <time>2013-08-14T10:56:28.000+01:00</time>
      </trkpt>
      <trkpt lat="48.40418" lon="-4.87756">
        <ele>-3.2</ele>
        <time>2013-08-14T10:56:30.000+01:00</time>
      </trkpt>
      <trkpt lat="48.40417" lon="-4.8778">
        <ele>-2.5</ele>
        <time>2013-08-14T10:56:32.000+01:00</time>
      </trkpt>
      <trkpt lat="48.40416" lon="-4.87804">
        <ele>-1.3</ele>
        <time>2013-08-14T10:56:34.000+01:00</time>
      </trkpt>
      <trkpt lat="48.40415" lon="-4.87829">
        <ele>-1.3</ele>
        <time>2013-08-14T10:56:36.000+01:00</time>
      </trkpt>
      <trkpt lat="48.40414" lon="-4.87854">
        <ele>-1.2</ele>
        <time>2013-08-14T10:56:38.000+01:00</time>
      </trkpt>
      <trkpt lat="48.40413" lon="-4.87878">
        <ele>-0.3</ele>
        <time>2013-08-14T10:56:40.000+01:00</time>
      </trkpt>
      <trkpt lat="48.40412" lon="-4.87902">
        <ele>1</ele>
        <time>2013-08-14T10:56:42.000+01:00</time>
      </trkpt>
      <trkpt lat="48.40411" lon="-4.87926">
        <ele>1.8</ele>
        <time>2013-08-14T10:56:44.000+01:00</time>
      </trkpt>
      <trkpt lat="48.40411" lon="-4.8795">
        <ele>1.5</ele>
        <time>2013-08-14T10:56:46.000+01:00</time>
      </trkpt>
      <trkpt lat="48.4041" lon="-4.87975">
        <ele>0.9</ele>
        <time>2013-08-14T10:56:48.000+01:00</time>
      </trkpt>
      <trkpt lat="48.40409" lon="-4.88">
        <ele>-0.3</ele>
        <time>2013-08-14T10:56:50.000+01:00</time>
      </trkpt>
      <trkpt lat="48.40408" lon="-4.88025">
        <ele>-1.7</ele>
        <time>2013-08-14T10:56:52.000+01:00</time>
      </trkpt>
      <trkpt lat="48.40407" lon="-4.88049">
        <ele>-2.6</ele>
        <time>2013-08-14T10:56:54.000+01:00</time>
      </trkpt>
      <trkpt lat="48.40406" lon="-4.88074">
        <ele>-4.1</ele>
        <time>2013-08-14T10:56:56.000+01:00</time>
      </trkpt>
      <trkpt lat="48.40405" lon="-4.88099">
        <ele>-5.6</ele>
        <time>2013-08-14T10:56:58.000+01:00</time>
      </trkpt>
      <trkpt lat="48.40404" lon="-4.88123">
        <ele>-5.9</ele>
        <time>2013-08-14T10:57:00.000+01:00</time>
      </trkpt>
      <trkpt lat="48.40402" lon="-4.88147">
        <ele>-6.1</ele>
        <time>2013-08-14T10:57:02.000+01:00</time>
      </trkpt>
      <trkpt lat="48.40401" lon="-4.88172">
        <ele>-6.1</ele>
        <time>2013-08-14T10:57:04.000+01:00</time>
      </trkpt>
      <trkpt lat="48.404" lon="-4.88196">
        <ele>-5.8</ele>
        <time>2013-08-14T10:57:06.000+01:00</time>
      </trkpt>
      <trkpt lat="48.404" lon="-4.8822">
        <ele>-5.3</ele>
        <time>2013-08-14T10:57:08.000+01:00</time>
      </trkpt>
      <trkpt lat="48.40399" lon="-4.88244">
        <ele>-4.5</ele>
        <time>2013-08-14T10:57:10.000+01:00</time>
      </trkpt>
      <trkpt lat="48.40398" lon="-4.88268">
        <ele>-4.1</ele>
        <time>2013-08-14T10:57:12.000+01:00</time>
      </trkpt>
      <trkpt lat="48.40398" lon="-4.88292">
        <ele>-3.8</ele>
        <time>2013-08-14T10:57:14.000+01:00</time>
      </trkpt>
      <trkpt lat="48.40397" lon="-4.88316">
        <ele>-3.6</ele>
        <time>2013-08-14T10:57:16.000+01:00</time>
      </trkpt>
      <trkpt lat="48.40397" lon="-4.88341">
        <ele>-3.7</ele>
        <time>2013-08-14T10:57:18.000+01:00</time>
      </trkpt>
      <trkpt lat="48.40396" lon="-4.88365">
        <ele>-3.8</ele>
        <time>2013-08-14T10:57:20.000+01:00</time>
      </trkpt>
      <trkpt lat="48.40396" lon="-4.88389">
        <ele>-5</ele>
        <time>2013-08-14T10:57:22.000+01:00</time>
      </trkpt>
      <trkpt lat="48.40396" lon="-4.88414">
        <ele>-6.2</ele>
        <time>2013-08-14T10:57:24.000+01:00</time>
      </trkpt>
      <trkpt lat="48.40395" lon="-4.88439">
        <ele>-6</ele>
        <time>2013-08-14T10:57:26.000+01:00</time>
      </trkpt>
      <trkpt lat="48.40396" lon="-4.88464">
        <ele>-4</ele>
        <time>2013-08-14T10:57:28.000+01:00</time>
      </trkpt>
      <trkpt lat="48.40396" lon="-4.88488">
        <ele>-2.8</ele>
        <time>2013-08-14T10:57:30.000+01:00</time>
      </trkpt>
      <trkpt lat="48.40395" lon="-4.88512">
        <ele>-2.7</ele>
        <time>2013-08-14T10:57:32.000+01:00</time>
      </trkpt>
      <trkpt lat="48.40395" lon="-4.88536">
        <ele>-2.6</ele>
        <time>2013-08-14T10:57:34.000+01:00</time>
      </trkpt>
      <trkpt lat="48.40394" lon="-4.88559">
        <ele>-2.6</ele>
        <time>2013-08-14T10:57:36.000+01:00</time>
      </trkpt>
      <trkpt lat="48.40393" lon="-4.88584">
        <ele>-2.7</ele>
        <time>2013-08-14T10:57:38.000+01:00</time>
      </trkpt>
      <trkpt lat="48.40392" lon="-4.88608">
        <ele>-3.4</ele>
        <time>2013-08-14T10:57:40.000+01:00</time>
      </trkpt>
      <trkpt lat="48.40392" lon="-4.88633">
        <ele>-4.5</ele>
        <time>2013-08-14T10:57:42.000+01:00</time>
      </trkpt>
      <trkpt lat="48.40391" lon="-4.88657">
        <ele>-4.7</ele>
        <time>2013-08-14T10:57:44.000+01:00</time>
      </trkpt>
      <trkpt lat="48.40391" lon="-4.8868">
        <ele>-1.8</ele>
        <time>2013-08-14T10:57:46.000+01:00</time>
      </trkpt>
      <trkpt lat="48.4039" lon="-4.88703">
        <ele>-2</ele>
        <time>2013-08-14T10:57:48.000+01:00</time>
      </trkpt>
      <trkpt lat="48.40389" lon="-4.88727">
        <ele>-2.2</ele>
        <time>2013-08-14T10:57:50.000+01:00</time>
      </trkpt>
      <trkpt lat="48.40388" lon="-4.88752">
        <ele>-2.9</ele>
        <time>2013-08-14T10:57:52.000+01:00</time>
      </trkpt>
      <trkpt lat="48.40387" lon="-4.88776">
        <ele>-3.5</ele>
        <time>2013-08-14T10:57:54.000+01:00</time>
      </trkpt>
      <trkpt lat="48.40387" lon="-4.888">
        <ele>-4</ele>
        <time>2013-08-14T10:57:56.000+01:00</time>
      </trkpt>
      <trkpt lat="48.40386" lon="-4.88823">
        <ele>-3.4</ele>
        <time>2013-08-14T10:57:58.000+01:00</time>
      </trkpt>
      <trkpt lat="48.40385" lon="-4.88847">
        <ele>-3.9</ele>
        <time>2013-08-14T10:58:00.000+01:00</time>
      </trkpt>
      <trkpt lat="48.40384" lon="-4.88872">
        <ele>-4.2</ele>
        <time>2013-08-14T10:58:02.000+01:00</time>
      </trkpt>
      <trkpt lat="48.40383" lon="-4.88896">
        <ele>-4.2</ele>
        <time>2013-08-14T10:58:04.000+01:00</time>
      </trkpt>
      <trkpt lat="48.40382" lon="-4.8892">
        <ele>-4.9</ele>
        <time>2013-08-14T10:58:06.000+01:00</time>
      </trkpt>
      <trkpt lat="48.40381" lon="-4.88944">
        <ele>-4.4</ele>
        <time>2013-08-14T10:58:08.000+01:00</time>
      </trkpt>
      <trkpt lat="48.4038" lon="-4.88968">
        <ele>-4.5</ele>
        <time>2013-08-14T10:58:10.000+01:00</time>
      </trkpt>
      <trkpt lat="48.40378" lon="-4.88992">
        <ele>-3.9</ele>
        <time>2013-08-14T10:58:12.000+01:00</time>
      </trkpt>
      <trkpt lat="48.40377" lon="-4.89016">
        <ele>-3.5</ele>
        <time>2013-08-14T10:58:14.000+01:00</time>
      </trkpt>
      <trkpt lat="48.40375" lon="-4.89039">
        <ele>-2.7</ele>
        <time>2013-08-14T10:58:16.000+01:00</time>
      </trkpt>
      <trkpt lat="48.40374" lon="-4.89063">
        <ele>-0.7</ele>
        <time>2013-08-14T10:58:18.000+01:00</time>
      </trkpt>
      <trkpt lat="48.40374" lon="-4.89087">
        <ele>0.5</ele>
        <time>2013-08-14T10:58:20.000+01:00</time>
      </trkpt>
      <trkpt lat="48.40373" lon="-4.89112">
        <ele>0.7</ele>
        <time>2013-08-14T10:58:22.000+01:00</time>
      </trkpt>
      <trkpt lat="48.40372" lon="-4.89135">
        <ele>1.4</ele>
        <time>2013-08-14T10:58:24.000+01:00</time>
      </trkpt>
      <trkpt lat="48.4037" lon="-4.89159">
        <ele>2.2</ele>
        <time>2013-08-14T10:58:26.000+01:00</time>
      </trkpt>
      <trkpt lat="48.40369" lon="-4.89183">
        <ele>2.1</ele>
        <time>2013-08-14T10:58:28.000+01:00</time>
      </trkpt>
      <trkpt lat="48.40368" lon="-4.89207">
        <ele>2.9</ele>
        <time>2013-08-14T10:58:30.000+01:00</time>
      </trkpt>
      <trkpt lat="48.40366" lon="-4.8923">
        <ele>3.7</ele>
        <time>2013-08-14T10:58:32.000+01:00</time>
      </trkpt>
      <trkpt lat="48.40364" lon="-4.89253">
        <ele>4.7</ele>
        <time>2013-08-14T10:58:34.000+01:00</time>
      </trkpt>
      <trkpt lat="48.40362" lon="-4.89276">
        <ele>4.3</ele>
        <time>2013-08-14T10:58:36.000+01:00</time>
      </trkpt>
      <trkpt lat="48.40361" lon="-4.89301">
        <ele>4</ele>
        <time>2013-08-14T10:58:38.000+01:00</time>
      </trkpt>
      <trkpt lat="48.40359" lon="-4.89325">
        <ele>3.6</ele>
        <time>2013-08-14T10:58:40.000+01:00</time>
      </trkpt>
      <trkpt lat="48.40358" lon="-4.89349">
        <ele>3.2</ele>
        <time>2013-08-14T10:58:42.000+01:00</time>
      </trkpt>
      <trkpt lat="48.40356" lon="-4.89372">
        <ele>3</ele>
        <time>2013-08-14T10:58:44.000+01:00</time>
      </trkpt>
      <trkpt lat="48.40355" lon="-4.89397">
        <ele>2.7</ele>
        <time>2013-08-14T10:58:46.000+01:00</time>
      </trkpt>
      <trkpt lat="48.40353" lon="-4.89421">
        <ele>2.3</ele>
        <time>2013-08-14T10:58:48.000+01:00</time>
      </trkpt>
      <trkpt lat="48.40352" lon="-4.89445">
        <ele>2.3</ele>
        <time>2013-08-14T10:58:50.000+01:00</time>
      </trkpt>
      <trkpt lat="48.4035" lon="-4.8947">
        <ele>2</ele>
        <time>2013-08-14T10:58:52.000+01:00</time>
      </trkpt>
      <trkpt lat="48.40349" lon="-4.89494">
        <ele>1.6</ele>
        <time>2013-08-14T10:58:54.000+01:00</time>
      </trkpt>
      <trkpt lat="48.40347" lon="-4.89518">
        <ele>1.4</ele>
        <time>2013-08-14T10:58:56.000+01:00</time>
      </trkpt>
      <trkpt lat="48.40346" lon="-4.89542">
        <ele>1</ele>
        <time>2013-08-14T10:58:58.000+01:00</time>
      </trkpt>
      <trkpt lat="48.40344" lon="-4.89566">
        <ele>0.5</ele>
        <time>2013-08-14T10:59:00.000+01:00</time>
      </trkpt>
      <trkpt lat="48.40343" lon="-4.89591">
        <ele>0.3</ele>
        <time>2013-08-14T10:59:02.000+01:00</time>
      </trkpt>
      <trkpt lat="48.40342" lon="-4.89616">
        <ele>-1.3</ele>
        <time>2013-08-14T10:59:04.000+01:00</time>
      </trkpt>
      <trkpt lat="48.40341" lon="-4.89642">
        <ele>-4.1</ele>
        <time>2013-08-14T10:59:06.000+01:00</time>
      </trkpt>
      <trkpt lat="48.4034" lon="-4.89668">
        <ele>-3.8</ele>
        <time>2013-08-14T10:59:08.000+01:00</time>
      </trkpt>
      <trkpt lat="48.40339" lon="-4.89691">
        <ele>-5.2</ele>
        <time>2013-08-14T10:59:10.000+01:00</time>
      </trkpt>
      <trkpt lat="48.40337" lon="-4.89716">
        <ele>-7</ele>
        <time>2013-08-14T10:59:12.000+01:00</time>
      </trkpt>
      <trkpt lat="48.40336" lon="-4.8974">
        <ele>-7.9</ele>
        <time>2013-08-14T10:59:14.000+01:00</time>
      </trkpt>
      <trkpt lat="48.40335" lon="-4.89764">
        <ele>-8.2</ele>
        <time>2013-08-14T10:59:16.000+01:00</time>
      </trkpt>
      <trkpt lat="48.40335" lon="-4.89789">
        <ele>-8.2</ele>
        <time>2013-08-14T10:59:18.000+01:00</time>
      </trkpt>
      <trkpt lat="48.40334" lon="-4.89813">
        <ele>-7.3</ele>
        <time>2013-08-14T10:59:20.000+01:00</time>
      </trkpt>
      <trkpt lat="48.40333" lon="-4.89837">
        <ele>-5.8</ele>
        <time>2013-08-14T10:59:22.000+01:00</time>
      </trkpt>
      <trkpt lat="48.40332" lon="-4.8986">
        <ele>-5.5</ele>
        <time>2013-08-14T10:59:24.000+01:00</time>
      </trkpt>
      <trkpt lat="48.4033" lon="-4.89884">
        <ele>-6.6</ele>
        <time>2013-08-14T10:59:26.000+01:00</time>
      </trkpt>
      <trkpt lat="48.40329" lon="-4.89908">
        <ele>-6.8</ele>
        <time>2013-08-14T10:59:28.000+01:00</time>
      </trkpt>
      <trkpt lat="48.40326" lon="-4.89931">
        <ele>-5</ele>
        <time>2013-08-14T10:59:30.000+01:00</time>
      </trkpt>
      <trkpt lat="48.40327" lon="-4.89956">
        <ele>-4.4</ele>
        <time>2013-08-14T10:59:32.000+01:00</time>
      </trkpt>
      <trkpt lat="48.40326" lon="-4.89979">
        <ele>-4.1</ele>
        <time>2013-08-14T10:59:34.000+01:00</time>
      </trkpt>
      <trkpt lat="48.40324" lon="-4.90002">
        <ele>-3.9</ele>
        <time>2013-08-14T10:59:36.000+01:00</time>
      </trkpt>
      <trkpt lat="48.40322" lon="-4.90026">
        <ele>-2.3</ele>
        <time>2013-08-14T10:59:38.000+01:00</time>
      </trkpt>
      <trkpt lat="48.40321" lon="-4.90049">
        <ele>-1.1</ele>
        <time>2013-08-14T10:59:40.000+01:00</time>
      </trkpt>
      <trkpt lat="48.4032" lon="-4.90072">
        <ele>1.2</ele>
        <time>2013-08-14T10:59:42.000+01:00</time>
      </trkpt>
      <trkpt lat="48.40319" lon="-4.90095">
        <ele>2.4</ele>
        <time>2013-08-14T10:59:44.000+01:00</time>
      </trkpt>
      <trkpt lat="48.40317" lon="-4.90119">
        <ele>2.2</ele>
        <time>2013-08-14T10:59:46.000+01:00</time>
      </trkpt>
      <trkpt lat="48.40316" lon="-4.90142">
        <ele>3.5</ele>
        <time>2013-08-14T10:59:48.000+01:00</time>
      </trkpt>
      <trkpt lat="48.40315" lon="-4.90166">
        <ele>4.6</ele>
        <time>2013-08-14T10:59:50.000+01:00</time>
      </trkpt>
      <trkpt lat="48.40313" lon="-4.90189">
        <ele>7.1</ele>
        <time>2013-08-14T10:59:52.000+01:00</time>
      </trkpt>
      <trkpt lat="48.40311" lon="-4.90213">
        <ele>7.7</ele>
        <time>2013-08-14T10:59:54.000+01:00</time>
      </trkpt>
      <trkpt lat="48.4031" lon="-4.90236">
        <ele>9.1</ele>
        <time>2013-08-14T10:59:56.000+01:00</time>
      </trkpt>
      <trkpt lat="48.40309" lon="-4.90261">
        <ele>8</ele>
        <time>2013-08-14T10:59:58.000+01:00</time>
      </trkpt>
      <trkpt lat="48.40307" lon="-4.90286">
        <ele>7.6</ele>
        <time>2013-08-14T11:00:00.000+01:00</time>
      </trkpt>
      <trkpt lat="48.40305" lon="-4.90309">
        <ele>6.7</ele>
        <time>2013-08-14T11:00:02.000+01:00</time>
      </trkpt>
      <trkpt lat="48.40304" lon="-4.90333">
        <ele>6.2</ele>
        <time>2013-08-14T11:00:04.000+01:00</time>
      </trkpt>
      <trkpt lat="48.40302" lon="-4.90357">
        <ele>4.1</ele>
        <time>2013-08-14T11:00:06.000+01:00</time>
      </trkpt>
      <trkpt lat="48.40301" lon="-4.90381">
        <ele>4.1</ele>
        <time>2013-08-14T11:00:08.000+01:00</time>
      </trkpt>
      <trkpt lat="48.40299" lon="-4.90404">
        <ele>3.3</ele>
        <time>2013-08-14T11:00:10.000+01:00</time>
      </trkpt>
      <trkpt lat="48.40298" lon="-4.90429">
        <ele>4.2</ele>
        <time>2013-08-14T11:00:12.000+01:00</time>
      </trkpt>
      <trkpt lat="48.40298" lon="-4.90454">
        <ele>4.6</ele>
        <time>2013-08-14T11:00:14.000+01:00</time>
      </trkpt>
      <trkpt lat="48.40297" lon="-4.90477">
        <ele>5.9</ele>
        <time>2013-08-14T11:00:16.000+01:00</time>
      </trkpt>
      <trkpt lat="48.40297" lon="-4.905">
        <ele>5.2</ele>
        <time>2013-08-14T11:00:18.000+01:00</time>
      </trkpt>
      <trkpt lat="48.40296" lon="-4.90524">
        <ele>4.1</ele>
        <time>2013-08-14T11:00:20.000+01:00</time>
      </trkpt>
      <trkpt lat="48.40294" lon="-4.90548">
        <ele>2.7</ele>
        <time>2013-08-14T11:00:22.000+01:00</time>
      </trkpt>
      <trkpt lat="48.40294" lon="-4.90573">
        <ele>2.5</ele>
        <time>2013-08-14T11:00:24.000+01:00</time>
      </trkpt>
      <trkpt lat="48.40293" lon="-4.90598">
        <ele>2.5</ele>
        <time>2013-08-14T11:00:26.000+01:00</time>
      </trkpt>
      <trkpt lat="48.40292" lon="-4.90622">
        <ele>2.5</ele>
        <time>2013-08-14T11:00:28.000+01:00</time>
      </trkpt>
      <trkpt lat="48.40291" lon="-4.90646">
        <ele>2</ele>
        <time>2013-08-14T11:00:30.000+01:00</time>
      </trkpt>
      <trkpt lat="48.4029" lon="-4.9067">
        <ele>0.9</ele>
        <time>2013-08-14T11:00:32.000+01:00</time>
      </trkpt>
      <trkpt lat="48.40288" lon="-4.90693">
        <ele>0.5</ele>
        <time>2013-08-14T11:00:34.000+01:00</time>
      </trkpt>
      <trkpt lat="48.40287" lon="-4.90718">
        <time>2013-08-14T11:00:36.000+01:00</time>
      </trkpt>
      <trkpt lat="48.40286" lon="-4.90743">
        <ele>0.2</ele>
        <time>2013-08-14T11:00:38.000+01:00</time>
      </trkpt>
      <trkpt lat="48.40285" lon="-4.90768">
        <ele>-0.1</ele>
        <time>2013-08-14T11:00:40.000+01:00</time>
      </trkpt>
      <trkpt lat="48.40284" lon="-4.90792">
        <ele>0.3</ele>
        <time>2013-08-14T11:00:42.000+01:00</time>
      </trkpt>
      <trkpt lat="48.40284" lon="-4.90817">
        <ele>0.9</ele>
        <time>2013-08-14T11:00:44.000+01:00</time>
      </trkpt>
      <trkpt lat="48.40284" lon="-4.90842">
        <ele>1.7</ele>
        <time>2013-08-14T11:00:46.000+01:00</time>
      </trkpt>
      <trkpt lat="48.40283" lon="-4.90864">
        <ele>2.6</ele>
        <time>2013-08-14T11:00:48.000+01:00</time>
      </trkpt>
      <trkpt lat="48.40282" lon="-4.90888">
        <ele>3.3</ele>
        <time>2013-08-14T11:00:50.000+01:00</time>
      </trkpt>
      <trkpt lat="48.40282" lon="-4.90912">
        <ele>3.8</ele>
        <time>2013-08-14T11:00:52.000+01:00</time>
      </trkpt>
      <trkpt lat="48.4028" lon="-4.90937">
        <ele>3.8</ele>
        <time>2013-08-14T11:00:54.000+01:00</time>
      </trkpt>
      <trkpt lat="48.40279" lon="-4.90962">
        <ele>3.5</ele>
        <time>2013-08-14T11:00:56.000+01:00</time>
      </trkpt>
      <trkpt lat="48.40278" lon="-4.90987">
        <ele>2.8</ele>
        <time>2013-08-14T11:00:58.000+01:00</time>
      </trkpt>
      <trkpt lat="48.40277" lon="-4.91011">
        <ele>2.3</ele>
        <time>2013-08-14T11:01:00.000+01:00</time>
      </trkpt>
      <trkpt lat="48.40275" lon="-4.91036">
        <ele>2.2</ele>
        <time>2013-08-14T11:01:02.000+01:00</time>
      </trkpt>
      <trkpt lat="48.40274" lon="-4.91059">
        <ele>2.6</ele>
        <time>2013-08-14T11:01:04.000+01:00</time>
      </trkpt>
      <trkpt lat="48.40273" lon="-4.91082">
        <ele>3.2</ele>
        <time>2013-08-14T11:01:06.000+01:00</time>
      </trkpt>
      <trkpt lat="48.40272" lon="-4.91105">
        <ele>4</ele>
        <time>2013-08-14T11:01:08.000+01:00</time>
      </trkpt>
      <trkpt lat="48.40272" lon="-4.91129">
        <ele>4.3</ele>
        <time>2013-08-14T11:01:10.000+01:00</time>
      </trkpt>
      <trkpt lat="48.40271" lon="-4.91153">
        <ele>4</ele>
        <time>2013-08-14T11:01:12.000+01:00</time>
      </trkpt>
      <trkpt lat="48.4027" lon="-4.91177">
        <ele>3.6</ele>
        <time>2013-08-14T11:01:14.000+01:00</time>
      </trkpt>
      <trkpt lat="48.40269" lon="-4.91201">
        <ele>4.3</ele>
        <time>2013-08-14T11:01:16.000+01:00</time>
      </trkpt>
      <trkpt lat="48.40268" lon="-4.91224">
        <ele>4.8</ele>
        <time>2013-08-14T11:01:18.000+01:00</time>
      </trkpt>
      <trkpt lat="48.40267" lon="-4.91247">
        <ele>4.3</ele>
        <time>2013-08-14T11:01:20.000+01:00</time>
      </trkpt>
      <trkpt lat="48.40266" lon="-4.91272">
        <ele>2.7</ele>
        <time>2013-08-14T11:01:22.000+01:00</time>
      </trkpt>
      <trkpt lat="48.40263" lon="-4.91295">
        <ele>1.2</ele>
        <time>2013-08-14T11:01:24.000+01:00</time>
      </trkpt>
      <trkpt lat="48.40261" lon="-4.91319">
        <ele>1.6</ele>
        <time>2013-08-14T11:01:26.000+01:00</time>
      </trkpt>
      <trkpt lat="48.4026" lon="-4.91342">
        <ele>2.5</ele>
        <time>2013-08-14T11:01:28.000+01:00</time>
      </trkpt>
      <trkpt lat="48.40259" lon="-4.91365">
        <ele>4.2</ele>
        <time>2013-08-14T11:01:30.000+01:00</time>
      </trkpt>
      <trkpt lat="48.40259" lon="-4.91389">
        <ele>2.5</ele>
        <time>2013-08-14T11:01:32.000+01:00</time>
      </trkpt>
      <trkpt lat="48.40257" lon="-4.91415">
        <ele>2.8</ele>
        <time>2013-08-14T11:01:34.000+01:00</time>
      </trkpt>
      <trkpt lat="48.40256" lon="-4.91439">
        <ele>2.8</ele>
        <time>2013-08-14T11:01:36.000+01:00</time>
      </trkpt>
      <trkpt lat="48.40254" lon="-4.91463">
        <ele>3</ele>
        <time>2013-08-14T11:01:38.000+01:00</time>
      </trkpt>
      <trkpt lat="48.40253" lon="-4.91487">
        <ele>3</ele>
        <time>2013-08-14T11:01:40.000+01:00</time>
      </trkpt>
      <trkpt lat="48.40251" lon="-4.91512">
        <ele>2.7</ele>
        <time>2013-08-14T11:01:42.000+01:00</time>
      </trkpt>
      <trkpt lat="48.4025" lon="-4.91535">
        <ele>3.4</ele>
        <time>2013-08-14T11:01:44.000+01:00</time>
      </trkpt>
      <trkpt lat="48.40248" lon="-4.9156">
        <ele>3.5</ele>
        <time>2013-08-14T11:01:46.000+01:00</time>
      </trkpt>
      <trkpt lat="48.40246" lon="-4.91583">
        <ele>4.7</ele>
        <time>2013-08-14T11:01:48.000+01:00</time>
      </trkpt>
      <trkpt lat="48.40244" lon="-4.91607">
        <ele>4.9</ele>
        <time>2013-08-14T11:01:50.000+01:00</time>
      </trkpt>
      <trkpt lat="48.40241" lon="-4.91631">
        <ele>4.6</ele>
        <time>2013-08-14T11:01:52.000+01:00</time>
      </trkpt>
      <trkpt lat="48.40239" lon="-4.91655">
        <ele>4.9</ele>
        <time>2013-08-14T11:01:54.000+01:00</time>
      </trkpt>
      <trkpt lat="48.40237" lon="-4.91679">
        <ele>5</ele>
        <time>2013-08-14T11:01:56.000+01:00</time>
      </trkpt>
      <trkpt lat="48.40237" lon="-4.91702">
        <ele>4.6</ele>
        <time>2013-08-14T11:01:58.000+01:00</time>
      </trkpt>
      <trkpt lat="48.40238" lon="-4.91725">
        <ele>5</ele>
        <time>2013-08-14T11:02:00.000+01:00</time>
      </trkpt>
      <trkpt lat="48.40241" lon="-4.91748">
        <ele>6.8</ele>
        <time>2013-08-14T11:02:02.000+01:00</time>
      </trkpt>
      <trkpt lat="48.40245" lon="-4.9177">
        <ele>8.9</ele>
        <time>2013-08-14T11:02:04.000+01:00</time>
      </trkpt>
      <trkpt lat="48.40249" lon="-4.91792">
        <ele>9.8</ele>
        <time>2013-08-14T11:02:06.000+01:00</time>
      </trkpt>
      <trkpt lat="48.40255" lon="-4.91814">
        <ele>10.1</ele>
        <time>2013-08-14T11:02:08.000+01:00</time>
      </trkpt>
      <trkpt lat="48.40263" lon="-4.91835">
        <ele>10.1</ele>
        <time>2013-08-14T11:02:10.000+01:00</time>
      </trkpt>
      <trkpt lat="48.40271" lon="-4.91855">
        <ele>8</ele>
        <time>2013-08-14T11:02:12.000+01:00</time>
      </trkpt>
      <trkpt lat="48.40279" lon="-4.91876">
        <ele>7.5</ele>
        <time>2013-08-14T11:02:14.000+01:00</time>
      </trkpt>
      <trkpt lat="48.40288" lon="-4.91896">
        <ele>6.5</ele>
        <time>2013-08-14T11:02:16.000+01:00</time>
      </trkpt>
      <trkpt lat="48.40297" lon="-4.91915">
        <ele>5.6</ele>
        <time>2013-08-14T11:02:18.000+01:00</time>
      </trkpt>
      <trkpt lat="48.40306" lon="-4.91934">
        <ele>4.7</ele>
        <time>2013-08-14T11:02:20.000+01:00</time>
      </trkpt>
      <trkpt lat="48.40316" lon="-4.91952">
        <ele>4.2</ele>
        <time>2013-08-14T11:02:22.000+01:00</time>
      </trkpt>
      <trkpt lat="48.40326" lon="-4.91971">
        <ele>2.6</ele>
        <time>2013-08-14T11:02:24.000+01:00</time>
      </trkpt>
      <trkpt lat="48.40335" lon="-4.91989">
        <ele>3.2</ele>
        <time>2013-08-14T11:02:26.000+01:00</time>
      </trkpt>
      <trkpt lat="48.40345" lon="-4.92008">
        <ele>2.7</ele>
        <time>2013-08-14T11:02:28.000+01:00</time>
      </trkpt>
      <trkpt lat="48.40355" lon="-4.92026">
        <ele>2.9</ele>
        <time>2013-08-14T11:02:30.000+01:00</time>
      </trkpt>
      <trkpt lat="48.40365" lon="-4.92045">
        <ele>1.9</ele>
        <time>2013-08-14T11:02:32.000+01:00</time>
      </trkpt>
      <trkpt lat="48.40375" lon="-4.92064">
        <ele>1.7</ele>
        <time>2013-08-14T11:02:34.000+01:00</time>
      </trkpt>
      <trkpt lat="48.40384" lon="-4.92082">
        <ele>1.2</ele>
        <time>2013-08-14T11:02:36.000+01:00</time>
      </trkpt>
      <trkpt lat="48.40394" lon="-4.92101">
        <ele>0.5</ele>
        <time>2013-08-14T11:02:38.000+01:00</time>
      </trkpt>
      <trkpt lat="48.40404" lon="-4.92119">
        <ele>-0.4</ele>
        <time>2013-08-14T11:02:40.000+01:00</time>
      </trkpt>
      <trkpt lat="48.40414" lon="-4.92138">
        <ele>-0.5</ele>
        <time>2013-08-14T11:02:42.000+01:00</time>
      </trkpt>
      <trkpt lat="48.40423" lon="-4.92156">
        <ele>-0.3</ele>
        <time>2013-08-14T11:02:44.000+01:00</time>
      </trkpt>
      <trkpt lat="48.40434" lon="-4.92174">
        <ele>-0.4</ele>
        <time>2013-08-14T11:02:46.000+01:00</time>
      </trkpt>
      <trkpt lat="48.40443" lon="-4.92192">
        <ele>-0.6</ele>
        <time>2013-08-14T11:02:48.000+01:00</time>
      </trkpt>
      <trkpt lat="48.40454" lon="-4.92211">
        <ele>-0.9</ele>
        <time>2013-08-14T11:02:50.000+01:00</time>
      </trkpt>
      <trkpt lat="48.40464" lon="-4.9223">
        <ele>-0.6</ele>
        <time>2013-08-14T11:02:52.000+01:00</time>
      </trkpt>
      <trkpt lat="48.40474" lon="-4.92248">
        <ele>-0.4</ele>
        <time>2013-08-14T11:02:54.000+01:00</time>
      </trkpt>
      <trkpt lat="48.40483" lon="-4.92267">
        <ele>-0.1</ele>
        <time>2013-08-14T11:02:56.000+01:00</time>
      </trkpt>
      <trkpt lat="48.40494" lon="-4.92285">
        <ele>0.1</ele>
        <time>2013-08-14T11:02:58.000+01:00</time>
      </trkpt>
      <trkpt lat="48.40503" lon="-4.92304">
        <ele>0.3</ele>
        <time>2013-08-14T11:03:00.000+01:00</time>
      </trkpt>
      <trkpt lat="48.40513" lon="-4.92323">
        <ele>0.6</ele>
        <time>2013-08-14T11:03:02.000+01:00</time>
      </trkpt>
      <trkpt lat="48.40523" lon="-4.92342">
        <ele>1.4</ele>
        <time>2013-08-14T11:03:04.000+01:00</time>
      </trkpt>
      <trkpt lat="48.40532" lon="-4.92359">
        <ele>2.1</ele>
        <time>2013-08-14T11:03:06.000+01:00</time>
      </trkpt>
      <trkpt lat="48.40541" lon="-4.92378">
        <ele>2.6</ele>
        <time>2013-08-14T11:03:08.000+01:00</time>
      </trkpt>
      <trkpt lat="48.40551" lon="-4.92397">
        <ele>2.6</ele>
        <time>2013-08-14T11:03:10.000+01:00</time>
      </trkpt>
      <trkpt lat="48.40561" lon="-4.92416">
        <ele>2.7</ele>
        <time>2013-08-14T11:03:12.000+01:00</time>
      </trkpt>
      <trkpt lat="48.4057" lon="-4.92434">
        <ele>2.5</ele>
        <time>2013-08-14T11:03:14.000+01:00</time>
      </trkpt>
      <trkpt lat="48.4058" lon="-4.92453">
        <ele>2.3</ele>
        <time>2013-08-14T11:03:16.000+01:00</time>
      </trkpt>
      <trkpt lat="48.4059" lon="-4.92472">
        <ele>2.2</ele>
        <time>2013-08-14T11:03:18.000+01:00</time>
      </trkpt>
      <trkpt lat="48.40599" lon="-4.92491">
        <ele>1.7</ele>
        <time>2013-08-14T11:03:20.000+01:00</time>
      </trkpt>
      <trkpt lat="48.40609" lon="-4.92509">
        <ele>1.8</ele>
        <time>2013-08-14T11:03:22.000+01:00</time>
      </trkpt>
      <trkpt lat="48.40619" lon="-4.92528">
        <ele>2.1</ele>
        <time>2013-08-14T11:03:24.000+01:00</time>
      </trkpt>
      <trkpt lat="48.40629" lon="-4.92546">
        <ele>1.5</ele>
        <time>2013-08-14T11:03:26.000+01:00</time>
      </trkpt>
      <trkpt lat="48.40639" lon="-4.92565">
        <ele>1.7</ele>
        <time>2013-08-14T11:03:28.000+01:00</time>
      </trkpt>
      <trkpt lat="48.40649" lon="-4.92584">
        <ele>1.6</ele>
        <time>2013-08-14T11:03:30.000+01:00</time>
      </trkpt>
      <trkpt lat="48.40659" lon="-4.92603">
        <ele>1.1</ele>
        <time>2013-08-14T11:03:32.000+01:00</time>
      </trkpt>
      <trkpt lat="48.40668" lon="-4.92622">
        <ele>1.5</ele>
        <time>2013-08-14T11:03:34.000+01:00</time>
      </trkpt>
      <trkpt lat="48.40678" lon="-4.92641">
        <ele>1.4</ele>
        <time>2013-08-14T11:03:36.000+01:00</time>
      </trkpt>
      <trkpt lat="48.40688" lon="-4.9266">
        <ele>1</ele>
        <time>2013-08-14T11:03:38.000+01:00</time>
      </trkpt>
      <trkpt lat="48.40698" lon="-4.92679">
        <ele>2</ele>
        <time>2013-08-14T11:03:40.000+01:00</time>
      </trkpt>
      <trkpt lat="48.40707" lon="-4.92698">
        <ele>3.1</ele>
        <time>2013-08-14T11:03:42.000+01:00</time>
      </trkpt>
      <trkpt lat="48.40717" lon="-4.92716">
        <ele>3.8</ele>
        <time>2013-08-14T11:03:44.000+01:00</time>
      </trkpt>
      <trkpt lat="48.40727" lon="-4.92735">
        <ele>4.5</ele>
        <time>2013-08-14T11:03:46.000+01:00</time>
      </trkpt>
      <trkpt lat="48.40736" lon="-4.92753">
        <ele>5.3</ele>
        <time>2013-08-14T11:03:48.000+01:00</time>
      </trkpt>
      <trkpt lat="48.40746" lon="-4.92772">
        <ele>5.4</ele>
        <time>2013-08-14T11:03:50.000+01:00</time>
      </trkpt>
      <trkpt lat="48.40756" lon="-4.92791">
        <ele>6</ele>
        <time>2013-08-14T11:03:52.000+01:00</time>
      </trkpt>
      <trkpt lat="48.40766" lon="-4.92809">
        <ele>6</ele>
        <time>2013-08-14T11:03:54.000+01:00</time>
      </trkpt>
      <trkpt lat="48.40777" lon="-4.92828">
        <ele>6.6</ele>
        <time>2013-08-14T11:03:56.000+01:00</time>
      </trkpt>
      <trkpt lat="48.40787" lon="-4.92846">
        <ele>7.2</ele>
        <time>2013-08-14T11:03:58.000+01:00</time>
      </trkpt>
      <trkpt lat="48.40797" lon="-4.92865">
        <ele>7.4</ele>
        <time>2013-08-14T11:04:00.000+01:00</time>
      </trkpt>
      <trkpt lat="48.40807" lon="-4.92883">
        <ele>7.1</ele>
        <time>2013-08-14T11:04:02.000+01:00</time>
      </trkpt>
      <trkpt lat="48.40817" lon="-4.92902">
        <ele>6.9</ele>
        <time>2013-08-14T11:04:04.000+01:00</time>
      </trkpt>
      <trkpt lat="48.40827" lon="-4.92921">
        <ele>6.8</ele>
        <time>2013-08-14T11:04:06.000+01:00</time>
      </trkpt>
      <trkpt lat="48.40836" lon="-4.9294">
        <ele>6.7</ele>
        <time>2013-08-14T11:04:08.000+01:00</time>
      </trkpt>
      <trkpt lat="48.40846" lon="-4.92959">
        <ele>6.3</ele>
        <time>2013-08-14T11:04:10.000+01:00</time>
      </trkpt>
      <trkpt lat="48.40855" lon="-4.92977">
        <ele>6.2</ele>
        <time>2013-08-14T11:04:12.000+01:00</time>
      </trkpt>
      <trkpt lat="48.40864" lon="-4.92996">
        <ele>6</ele>
        <time>2013-08-14T11:04:14.000+01:00</time>
      </trkpt>
      <trkpt lat="48.40874" lon="-4.93015">
        <ele>4.5</ele>
        <time>2013-08-14T11:04:16.000+01:00</time>
      </trkpt>
      <trkpt lat="48.40883" lon="-4.93034">
        <ele>3.3</ele>
        <time>2013-08-14T11:04:18.000+01:00</time>
      </trkpt>
      <trkpt lat="48.40892" lon="-4.93053">
        <ele>2.5</ele>
        <time>2013-08-14T11:04:20.000+01:00</time>
      </trkpt>
      <trkpt lat="48.40901" lon="-4.93072">
        <ele>1.7</ele>
        <time>2013-08-14T11:04:22.000+01:00</time>
      </trkpt>
      <trkpt lat="48.40911" lon="-4.93091">
        <ele>0.9</ele>
        <time>2013-08-14T11:04:24.000+01:00</time>
      </trkpt>
      <trkpt lat="48.40921" lon="-4.9311">
        <ele>1.1</ele>
        <time>2013-08-14T11:04:26.000+01:00</time>
      </trkpt>
      <trkpt lat="48.4093" lon="-4.93128">
        <ele>1.6</ele>
        <time>2013-08-14T11:04:28.000+01:00</time>
      </trkpt>
      <trkpt lat="48.4094" lon="-4.93147">
        <ele>1.5</ele>
        <time>2013-08-14T11:04:30.000+01:00</time>
      </trkpt>
      <trkpt lat="48.40949" lon="-4.93165">
        <ele>1.5</ele>
        <time>2013-08-14T11:04:32.000+01:00</time>
      </trkpt>
      <trkpt lat="48.4096" lon="-4.93184">
        <ele>1.4</ele>
        <time>2013-08-14T11:04:34.000+01:00</time>
      </trkpt>
      <trkpt lat="48.40969" lon="-4.93202">
        <ele>1</ele>
        <time>2013-08-14T11:04:36.000+01:00</time>
      </trkpt>
      <trkpt lat="48.40979" lon="-4.9322">
        <ele>1.5</ele>
        <time>2013-08-14T11:04:38.000+01:00</time>
      </trkpt>
      <trkpt lat="48.40989" lon="-4.93238">
        <ele>1.7</ele>
        <time>2013-08-14T11:04:40.000+01:00</time>
      </trkpt>
      <trkpt lat="48.40998" lon="-4.93256">
        <ele>1.3</ele>
        <time>2013-08-14T11:04:42.000+01:00</time>
      </trkpt>
      <trkpt lat="48.41008" lon="-4.93275">
        <ele>2.2</ele>
        <time>2013-08-14T11:04:44.000+01:00</time>
      </trkpt>
      <trkpt lat="48.41018" lon="-4.93293">
        <ele>2.2</ele>
        <time>2013-08-14T11:04:46.000+01:00</time>
      </trkpt>
      <trkpt lat="48.41028" lon="-4.93311">
        <ele>2.3</ele>
        <time>2013-08-14T11:04:48.000+01:00</time>
      </trkpt>
      <trkpt lat="48.41038" lon="-4.9333">
        <ele>2.6</ele>
        <time>2013-08-14T11:04:50.000+01:00</time>
      </trkpt>
      <trkpt lat="48.41047" lon="-4.93349">
        <ele>3.7</ele>
        <time>2013-08-14T11:04:52.000+01:00</time>
      </trkpt>
      <trkpt lat="48.41057" lon="-4.93368">
        <ele>4.7</ele>
        <time>2013-08-14T11:04:54.000+01:00</time>
      </trkpt>
      <trkpt lat="48.41067" lon="-4.93387">
        <ele>5.4</ele>
        <time>2013-08-14T11:04:56.000+01:00</time>
      </trkpt>
      <trkpt lat="48.41076" lon="-4.93406">
        <ele>5.2</ele>
        <time>2013-08-14T11:04:58.000+01:00</time>
      </trkpt>
      <trkpt lat="48.41085" lon="-4.93424">
        <ele>4.6</ele>
        <time>2013-08-14T11:05:00.000+01:00</time>
      </trkpt>
      <trkpt lat="48.41095" lon="-4.93443">
        <ele>4.8</ele>
        <time>2013-08-14T11:05:02.000+01:00</time>
      </trkpt>
      <trkpt lat="48.41105" lon="-4.93462">
        <ele>4.5</ele>
        <time>2013-08-14T11:05:04.000+01:00</time>
      </trkpt>
      <trkpt lat="48.41114" lon="-4.93481">
        <ele>5.1</ele>
        <time>2013-08-14T11:05:06.000+01:00</time>
      </trkpt>
      <trkpt lat="48.41123" lon="-4.93499">
        <ele>5.1</ele>
        <time>2013-08-14T11:05:08.000+01:00</time>
      </trkpt>
      <trkpt lat="48.41133" lon="-4.93518">
        <ele>5.6</ele>
        <time>2013-08-14T11:05:10.000+01:00</time>
      </trkpt>
      <trkpt lat="48.41143" lon="-4.93538">
        <ele>5.5</ele>
        <time>2013-08-14T11:05:12.000+01:00</time>
      </trkpt>
      <trkpt lat="48.41153" lon="-4.93557">
        <ele>5.7</ele>
        <time>2013-08-14T11:05:14.000+01:00</time>
      </trkpt>
      <trkpt lat="48.41162" lon="-4.93576">
        <ele>6.3</ele>
        <time>2013-08-14T11:05:16.000+01:00</time>
      </trkpt>
      <trkpt lat="48.41171" lon="-4.93595">
        <ele>5.5</ele>
        <time>2013-08-14T11:05:18.000+01:00</time>
      </trkpt>
      <trkpt lat="48.41179" lon="-4.93615">
        <ele>4.3</ele>
        <time>2013-08-14T11:05:20.000+01:00</time>
      </trkpt>
      <trkpt lat="48.41188" lon="-4.93635">
        <ele>3.9</ele>
        <time>2013-08-14T11:05:22.000+01:00</time>
      </trkpt>
      <trkpt lat="48.41197" lon="-4.93656">
        <ele>3.5</ele>
        <time>2013-08-14T11:05:24.000+01:00</time>
      </trkpt>
      <trkpt lat="48.41205" lon="-4.93676">
        <ele>3.4</ele>
        <time>2013-08-14T11:05:26.000+01:00</time>
      </trkpt>
      <trkpt lat="48.41214" lon="-4.93696">
        <ele>2.9</ele>
        <time>2013-08-14T11:05:28.000+01:00</time>
      </trkpt>
      <trkpt lat="48.41222" lon="-4.93717">
        <ele>2.9</ele>
        <time>2013-08-14T11:05:30.000+01:00</time>
      </trkpt>
      <trkpt lat="48.41231" lon="-4.93738">
        <ele>1.9</ele>
        <time>2013-08-14T11:05:32.000+01:00</time>
      </trkpt>
      <trkpt lat="48.41239" lon="-4.93759">
        <ele>1.1</ele>
        <time>2013-08-14T11:05:34.000+01:00</time>
      </trkpt>
      <trkpt lat="48.41247" lon="-4.93779">
        <ele>0.3</ele>
        <time>2013-08-14T11:05:36.000+01:00</time>
      </trkpt>
      <trkpt lat="48.41256" lon="-4.938">
        <ele>0.2</ele>
        <time>2013-08-14T11:05:38.000+01:00</time>
      </trkpt>
      <trkpt lat="48.41264" lon="-4.93821">
        <ele>0.1</ele>
        <time>2013-08-14T11:05:40.000+01:00</time>
      </trkpt>
      <trkpt lat="48.41273" lon="-4.93841">
        <ele>-0.4</ele>
        <time>2013-08-14T11:05:42.000+01:00</time>
      </trkpt>
      <trkpt lat="48.41281" lon="-4.93862">
        <ele>-0.7</ele>
        <time>2013-08-14T11:05:44.000+01:00</time>
      </trkpt>
      <trkpt lat="48.4129" lon="-4.93882">
        <ele>-1.8</ele>
        <time>2013-08-14T11:05:46.000+01:00</time>
      </trkpt>
      <trkpt lat="48.41298" lon="-4.93902">
        <ele>-1</ele>
        <time>2013-08-14T11:05:48.000+01:00</time>
      </trkpt>
      <trkpt lat="48.41307" lon="-4.93923">
        <ele>-0.8</ele>
        <time>2013-08-14T11:05:50.000+01:00</time>
      </trkpt>
      <trkpt lat="48.41315" lon="-4.93942">
        <ele>0.5</ele>
        <time>2013-08-14T11:05:52.000+01:00</time>
      </trkpt>
      <trkpt lat="48.41324" lon="-4.93962">
        <ele>0.6</ele>
        <time>2013-08-14T11:05:54.000+01:00</time>
      </trkpt>
      <trkpt lat="48.41333" lon="-4.93982">
        <ele>0.5</ele>
        <time>2013-08-14T11:05:56.000+01:00</time>
      </trkpt>
      <trkpt lat="48.41343" lon="-4.94003">
        <ele>-0.1</ele>
        <time>2013-08-14T11:05:58.000+01:00</time>
      </trkpt>
      <trkpt lat="48.41352" lon="-4.94022">
        <ele>0.4</ele>
        <time>2013-08-14T11:06:00.000+01:00</time>
      </trkpt>
      <trkpt lat="48.41361" lon="-4.94042">
        <ele>2.1</ele>
        <time>2013-08-14T11:06:02.000+01:00</time>
      </trkpt>
      <trkpt lat="48.41371" lon="-4.94062">
        <ele>4.5</ele>
        <time>2013-08-14T11:06:04.000+01:00</time>
      </trkpt>
      <trkpt lat="48.41379" lon="-4.94081">
        <ele>4.8</ele>
        <time>2013-08-14T11:06:06.000+01:00</time>
      </trkpt>
      <trkpt lat="48.41388" lon="-4.94102">
        <ele>5.2</ele>
        <time>2013-08-14T11:06:08.000+01:00</time>
      </trkpt>
      <trkpt lat="48.41395" lon="-4.94123">
        <ele>3.3</ele>
        <time>2013-08-14T11:06:10.000+01:00</time>
      </trkpt>
      <trkpt lat="48.41403" lon="-4.94143">
        <ele>2.5</ele>
        <time>2013-08-14T11:06:12.000+01:00</time>
      </trkpt>
      <trkpt lat="48.41412" lon="-4.94164">
        <ele>2.2</ele>
        <time>2013-08-14T11:06:14.000+01:00</time>
      </trkpt>
      <trkpt lat="48.4142" lon="-4.94184">
        <ele>2.2</ele>
        <time>2013-08-14T11:06:16.000+01:00</time>
      </trkpt>
      <trkpt lat="48.41427" lon="-4.94204">
        <ele>1.7</ele>
        <time>2013-08-14T11:06:18.000+01:00</time>
      </trkpt>
      <trkpt lat="48.41435" lon="-4.94226">
        <ele>1.4</ele>
        <time>2013-08-14T11:06:20.000+01:00</time>
      </trkpt>
      <trkpt lat="48.41441" lon="-4.94247">
        <ele>0.6</ele>
        <time>2013-08-14T11:06:22.000+01:00</time>
      </trkpt>
      <trkpt lat="48.41447" lon="-4.94269">
        <ele>-1</ele>
        <time>2013-08-14T11:06:24.000+01:00</time>
      </trkpt>
      <trkpt lat="48.41452" lon="-4.94292">
        <ele>-2.1</ele>
        <time>2013-08-14T11:06:26.000+01:00</time>
      </trkpt>
      <trkpt lat="48.41458" lon="-4.94314">
        <ele>-2.6</ele>
        <time>2013-08-14T11:06:28.000+01:00</time>
      </trkpt>
      <trkpt lat="48.41462" lon="-4.94337">
        <ele>-2.2</ele>
        <time>2013-08-14T11:06:30.000+01:00</time>
      </trkpt>
      <trkpt lat="48.41466" lon="-4.9436">
        <ele>-2</ele>
        <time>2013-08-14T11:06:32.000+01:00</time>
      </trkpt>
      <trkpt lat="48.41468" lon="-4.94384">
        <ele>-2.9</ele>
        <time>2013-08-14T11:06:34.000+01:00</time>
      </trkpt>
      <trkpt lat="48.41471" lon="-4.94407">
        <ele>-1.6</ele>
        <time>2013-08-14T11:06:36.000+01:00</time>
      </trkpt>
      <trkpt lat="48.41474" lon="-4.9443">
        <ele>-2.8</ele>
        <time>2013-08-14T11:06:38.000+01:00</time>
      </trkpt>
      <trkpt lat="48.41475" lon="-4.94454">
        <ele>-1.5</ele>
        <time>2013-08-14T11:06:40.000+01:00</time>
      </trkpt>
      <trkpt lat="48.41476" lon="-4.94478">
        <ele>-0.1</ele>
        <time>2013-08-14T11:06:42.000+01:00</time>
      </trkpt>
      <trkpt lat="48.41476" lon="-4.94502">
        <ele>0.3</ele>
        <time>2013-08-14T11:06:44.000+01:00</time>
      </trkpt>
      <trkpt lat="48.41475" lon="-4.94526">
        <ele>0.6</ele>
        <time>2013-08-14T11:06:46.000+01:00</time>
      </trkpt>
      <trkpt lat="48.41474" lon="-4.9455">
        <ele>1.2</ele>
        <time>2013-08-14T11:06:48.000+01:00</time>
      </trkpt>
      <trkpt lat="48.41471" lon="-4.94574">
        <ele>1.6</ele>
        <time>2013-08-14T11:06:50.000+01:00</time>
      </trkpt>
      <trkpt lat="48.41468" lon="-4.94597">
        <ele>1.9</ele>
        <time>2013-08-14T11:06:52.000+01:00</time>
      </trkpt>
      <trkpt lat="48.41463" lon="-4.94622">
        <ele>1.7</ele>
        <time>2013-08-14T11:06:54.000+01:00</time>
      </trkpt>
      <trkpt lat="48.41458" lon="-4.94647">
        <ele>-0.1</ele>
        <time>2013-08-14T11:06:56.000+01:00</time>
      </trkpt>
      <trkpt lat="48.41453" lon="-4.94671">
        <ele>-1</ele>
        <time>2013-08-14T11:06:58.000+01:00</time>
      </trkpt>
      <trkpt lat="48.41447" lon="-4.94694">
        <ele>-0.9</ele>
        <time>2013-08-14T11:07:00.000+01:00</time>
      </trkpt>
      <trkpt lat="48.4144" lon="-4.94717">
        <ele>0.1</ele>
        <time>2013-08-14T11:07:02.000+01:00</time>
      </trkpt>
      <trkpt lat="48.41434" lon="-4.9474">
        <ele>-0.2</ele>
        <time>2013-08-14T11:07:04.000+01:00</time>
      </trkpt>
      <trkpt lat="48.41427" lon="-4.94763">
        <ele>0.1</ele>
        <time>2013-08-14T11:07:06.000+01:00</time>
      </trkpt>
      <trkpt lat="48.4142" lon="-4.94785">
        <ele>0.3</ele>
        <time>2013-08-14T11:07:08.000+01:00</time>
      </trkpt>
      <trkpt lat="48.41411" lon="-4.94807">
        <ele>1.2</ele>
        <time>2013-08-14T11:07:10.000+01:00</time>
      </trkpt>
      <trkpt lat="48.41402" lon="-4.94827">
        <ele>0.4</ele>
        <time>2013-08-14T11:07:12.000+01:00</time>
      </trkpt>
      <trkpt lat="48.41392" lon="-4.94846">
        <ele>0.9</ele>
        <time>2013-08-14T11:07:14.000+01:00</time>
      </trkpt>
      <trkpt lat="48.4138" lon="-4.94864">
        <ele>3.1</ele>
        <time>2013-08-14T11:07:16.000+01:00</time>
      </trkpt>
      <trkpt lat="48.41368" lon="-4.94881">
        <ele>2.8</ele>
        <time>2013-08-14T11:07:18.000+01:00</time>
      </trkpt>
      <trkpt lat="48.41356" lon="-4.94899">
        <ele>1.4</ele>
        <time>2013-08-14T11:07:20.000+01:00</time>
      </trkpt>
      <trkpt lat="48.41343" lon="-4.94913">
        <ele>2.2</ele>
        <time>2013-08-14T11:07:22.000+01:00</time>
      </trkpt>
      <trkpt lat="48.4133" lon="-4.94927">
        <ele>2.3</ele>
        <time>2013-08-14T11:07:24.000+01:00</time>
      </trkpt>
      <trkpt lat="48.41316" lon="-4.9494">
        <ele>1.2</ele>
        <time>2013-08-14T11:07:26.000+01:00</time>
      </trkpt>
      <trkpt lat="48.41302" lon="-4.94953">
        <ele>1</ele>
        <time>2013-08-14T11:07:28.000+01:00</time>
      </trkpt>
      <trkpt lat="48.41287" lon="-4.94965">
        <ele>0.9</ele>
        <time>2013-08-14T11:07:30.000+01:00</time>
      </trkpt>
      <trkpt lat="48.41271" lon="-4.94974">
        <ele>1.2</ele>
        <time>2013-08-14T11:07:32.000+01:00</time>
      </trkpt>
      <trkpt lat="48.41256" lon="-4.94984">
        <ele>1.3</ele>
        <time>2013-08-14T11:07:34.000+01:00</time>
      </trkpt>
      <trkpt lat="48.4124" lon="-4.94992">
        <ele>1.3</ele>
        <time>2013-08-14T11:07:36.000+01:00</time>
      </trkpt>
      <trkpt lat="48.41224" lon="-4.95001">
        <ele>0.6</ele>
        <time>2013-08-14T11:07:38.000+01:00</time>
      </trkpt>
      <trkpt lat="48.41208" lon="-4.9501">
        <ele>0.6</ele>
        <time>2013-08-14T11:07:40.000+01:00</time>
      </trkpt>
      <trkpt lat="48.41193" lon="-4.95019">
        <ele>0.2</ele>
        <time>2013-08-14T11:07:42.000+01:00</time>
      </trkpt>
      <trkpt lat="48.41177" lon="-4.95028">
        <ele>0.8</ele>
        <time>2013-08-14T11:07:44.000+01:00</time>
      </trkpt>
      <trkpt lat="48.41161" lon="-4.95036">
        <ele>1</ele>
        <time>2013-08-14T11:07:46.000+01:00</time>
      </trkpt>
      <trkpt lat="48.41145" lon="-4.95044">
        <ele>0.5</ele>
        <time>2013-08-14T11:07:48.000+01:00</time>
      </trkpt>
      <trkpt lat="48.4113" lon="-4.95052">
        <ele>1</ele>
        <time>2013-08-14T11:07:50.000+01:00</time>
      </trkpt>
      <trkpt lat="48.41114" lon="-4.9506">
        <ele>2.3</ele>
        <time>2013-08-14T11:07:52.000+01:00</time>
      </trkpt>
      <trkpt lat="48.41098" lon="-4.95069">
        <ele>2.6</ele>
        <time>2013-08-14T11:07:54.000+01:00</time>
      </trkpt>
      <trkpt lat="48.41082" lon="-4.95079">
        <ele>2.5</ele>
        <time>2013-08-14T11:07:56.000+01:00</time>
      </trkpt>
      <trkpt lat="48.41066" lon="-4.95088">
        <ele>2.7</ele>
        <time>2013-08-14T11:07:58.000+01:00</time>
      </trkpt>
      <trkpt lat="48.4105" lon="-4.95098">
        <ele>3.1</ele>
        <time>2013-08-14T11:08:00.000+01:00</time>
      </trkpt>
      <trkpt lat="48.41034" lon="-4.95107">
        <ele>4.3</ele>
        <time>2013-08-14T11:08:02.000+01:00</time>
      </trkpt>
      <trkpt lat="48.41019" lon="-4.95116">
        <ele>4.6</ele>
        <time>2013-08-14T11:08:04.000+01:00</time>
      </trkpt>
      <trkpt lat="48.41004" lon="-4.95125">
        <ele>4.8</ele>
        <time>2013-08-14T11:08:06.000+01:00</time>
      </trkpt>
      <trkpt lat="48.40988" lon="-4.95134">
        <ele>5</ele>
        <time>2013-08-14T11:08:08.000+01:00</time>
      </trkpt>
      <trkpt lat="48.40973" lon="-4.95144">
        <ele>5.2</ele>
        <time>2013-08-14T11:08:10.000+01:00</time>
      </trkpt>
      <trkpt lat="48.40957" lon="-4.95153">
        <ele>5.6</ele>
        <time>2013-08-14T11:08:12.000+01:00</time>
      </trkpt>
      <trkpt lat="48.40942" lon="-4.95162">
        <ele>5.8</ele>
        <time>2013-08-14T11:08:14.000+01:00</time>
      </trkpt>
      <trkpt lat="48.40927" lon="-4.95172">
        <ele>5.6</ele>
        <time>2013-08-14T11:08:16.000+01:00</time>
      </trkpt>
      <trkpt lat="48.40912" lon="-4.95181">
        <ele>4.9</ele>
        <time>2013-08-14T11:08:18.000+01:00</time>
      </trkpt>
      <trkpt lat="48.40897" lon="-4.9519">
        <ele>4.4</ele>
        <time>2013-08-14T11:08:20.000+01:00</time>
      </trkpt>
      <trkpt lat="48.40881" lon="-4.95198">
        <ele>4.3</ele>
        <time>2013-08-14T11:08:22.000+01:00</time>
      </trkpt>
      <trkpt lat="48.40866" lon="-4.95207">
        <ele>4.2</ele>
        <time>2013-08-14T11:08:24.000+01:00</time>
      </trkpt>
      <trkpt lat="48.40852" lon="-4.95216">
        <ele>4.3</ele>
        <time>2013-08-14T11:08:26.000+01:00</time>
      </trkpt>
      <trkpt lat="48.40837" lon="-4.95225">
        <ele>4.1</ele>
        <time>2013-08-14T11:08:28.000+01:00</time>
      </trkpt>
      <trkpt lat="48.40823" lon="-4.95234">
        <ele>3.9</ele>
        <time>2013-08-14T11:08:30.000+01:00</time>
      </trkpt>
      <trkpt lat="48.4081" lon="-4.95242">
        <ele>4</ele>
        <time>2013-08-14T11:08:32.000+01:00</time>
      </trkpt>
      <trkpt lat="48.40797" lon="-4.95251">
        <ele>4.4</ele>
        <time>2013-08-14T11:08:34.000+01:00</time>
      </trkpt>
      <trkpt lat="48.40784" lon="-4.9526">
        <ele>4.7</ele>
        <time>2013-08-14T11:08:36.000+01:00</time>
      </trkpt>
      <trkpt lat="48.4077" lon="-4.95268">
        <ele>4.4</ele>
        <time>2013-08-14T11:08:38.000+01:00</time>
      </trkpt>
      <trkpt lat="48.40757" lon="-4.95277">
        <ele>4.6</ele>
        <time>2013-08-14T11:08:40.000+01:00</time>
      </trkpt>
      <trkpt lat="48.40744" lon="-4.95285">
        <ele>5.1</ele>
        <time>2013-08-14T11:08:42.000+01:00</time>
      </trkpt>
      <trkpt lat="48.40731" lon="-4.95294">
        <ele>5.3</ele>
        <time>2013-08-14T11:08:44.000+01:00</time>
      </trkpt>
      <trkpt lat="48.40719" lon="-4.95301">
        <ele>5.3</ele>
        <time>2013-08-14T11:08:46.000+01:00</time>
      </trkpt>
      <trkpt lat="48.40707" lon="-4.95309">
        <ele>5.4</ele>
        <time>2013-08-14T11:08:48.000+01:00</time>
      </trkpt>
      <trkpt lat="48.40696" lon="-4.95317">
        <ele>5.3</ele>
        <time>2013-08-14T11:08:50.000+01:00</time>
      </trkpt>
      <trkpt lat="48.40685" lon="-4.95324">
        <ele>5</ele>
        <time>2013-08-14T11:08:52.000+01:00</time>
      </trkpt>
      <trkpt lat="48.40675" lon="-4.95331">
        <ele>5.1</ele>
        <time>2013-08-14T11:08:54.000+01:00</time>
      </trkpt>
      <trkpt lat="48.40664" lon="-4.95337">
        <ele>4.6</ele>
        <time>2013-08-14T11:08:56.000+01:00</time>
      </trkpt>
      <trkpt lat="48.40653" lon="-4.95343">
        <ele>4.8</ele>
        <time>2013-08-14T11:08:58.000+01:00</time>
      </trkpt>
      <trkpt lat="48.40642" lon="-4.9535">
        <ele>5.1</ele>
        <time>2013-08-14T11:09:00.000+01:00</time>
      </trkpt>
      <trkpt lat="48.40632" lon="-4.95356">
        <ele>5.3</ele>
        <time>2013-08-14T11:09:02.000+01:00</time>
      </trkpt>
      <trkpt lat="48.40622" lon="-4.95362">
        <ele>5.4</ele>
        <time>2013-08-14T11:09:04.000+01:00</time>
      </trkpt>
      <trkpt lat="48.40612" lon="-4.95367">
        <ele>5.5</ele>
        <time>2013-08-14T11:09:06.000+01:00</time>
      </trkpt>
      <trkpt lat="48.40603" lon="-4.95373">
        <ele>6.2</ele>
        <time>2013-08-14T11:09:08.000+01:00</time>
      </trkpt>
      <trkpt lat="48.40591" lon="-4.95379">
        <ele>6.6</ele>
        <time>2013-08-14T11:09:11.000+01:00</time>
      </trkpt>
      <trkpt lat="48.40582" lon="-4.95384">
        <ele>6.5</ele>
        <time>2013-08-14T11:09:13.000+01:00</time>
      </trkpt>
      <trkpt lat="48.40573" lon="-4.95389">
        <ele>6.2</ele>
        <time>2013-08-14T11:09:15.000+01:00</time>
      </trkpt>
      <trkpt lat="48.40561" lon="-4.95395">
        <ele>5.7</ele>
        <time>2013-08-14T11:09:18.000+01:00</time>
      </trkpt>
      <trkpt lat="48.4055" lon="-4.95401">
        <ele>5.5</ele>
        <time>2013-08-14T11:09:21.000+01:00</time>
      </trkpt>
      <trkpt lat="48.40539" lon="-4.95408">
        <ele>5.5</ele>
        <time>2013-08-14T11:09:24.000+01:00</time>
      </trkpt>
      <trkpt lat="48.40527" lon="-4.95415">
        <ele>4.8</ele>
        <time>2013-08-14T11:09:27.000+01:00</time>
      </trkpt>
      <trkpt lat="48.40516" lon="-4.95422">
        <ele>4.8</ele>
        <time>2013-08-14T11:09:30.000+01:00</time>
      </trkpt>
      <trkpt lat="48.40507" lon="-4.95428">
        <ele>4.5</ele>
        <time>2013-08-14T11:09:33.000+01:00</time>
      </trkpt>
      <trkpt lat="48.40498" lon="-4.95434">
        <ele>4.1</ele>
        <time>2013-08-14T11:09:36.000+01:00</time>
      </trkpt>
      <trkpt lat="48.40487" lon="-4.9544">
        <ele>3.5</ele>
        <time>2013-08-14T11:09:40.000+01:00</time>
      </trkpt>
      <trkpt lat="48.40477" lon="-4.95447">
        <ele>3.1</ele>
        <time>2013-08-14T11:09:44.000+01:00</time>
      </trkpt>
      <trkpt lat="48.40467" lon="-4.95453">
        <ele>3</ele>
        <time>2013-08-14T11:09:48.000+01:00</time>
      </trkpt>
      <trkpt lat="48.40458" lon="-4.95459">
        <ele>2.9</ele>
        <time>2013-08-14T11:09:52.000+01:00</time>
      </trkpt>
      <trkpt lat="48.40447" lon="-4.95464">
        <ele>2.4</ele>
        <time>2013-08-14T11:09:56.000+01:00</time>
      </trkpt>
      <trkpt lat="48.40438" lon="-4.95469">
        <ele>2.8</ele>
        <time>2013-08-14T11:10:00.000+01:00</time>
      </trkpt>
      <trkpt lat="48.40427" lon="-4.95474">
        <ele>2.9</ele>
        <time>2013-08-14T11:10:04.000+01:00</time>
      </trkpt>
      <trkpt lat="48.40417" lon="-4.95479">
        <ele>2.6</ele>
        <time>2013-08-14T11:10:08.000+01:00</time>
      </trkpt>
      <trkpt lat="48.40409" lon="-4.95483">
        <ele>1.9</ele>
        <time>2013-08-14T11:10:11.000+01:00</time>
      </trkpt>
      <trkpt lat="48.404" lon="-4.95488">
        <ele>0.8</ele>
        <time>2013-08-14T11:10:14.000+01:00</time>
      </trkpt>
      <trkpt lat="48.4039" lon="-4.95493">
        <ele>0.3</ele>
        <time>2013-08-14T11:10:17.000+01:00</time>
      </trkpt>
      <trkpt lat="48.40381" lon="-4.95498">
        <ele>-0.4</ele>
        <time>2013-08-14T11:10:20.000+01:00</time>
      </trkpt>
      <trkpt lat="48.40372" lon="-4.95503">
        <ele>-0.9</ele>
        <time>2013-08-14T11:10:23.000+01:00</time>
      </trkpt>
      <trkpt lat="48.40363" lon="-4.95507">
        <ele>-1.5</ele>
        <time>2013-08-14T11:10:26.000+01:00</time>
      </trkpt>
      <trkpt lat="48.40354" lon="-4.95512">
        <ele>-1.7</ele>
        <time>2013-08-14T11:10:29.000+01:00</time>
      </trkpt>
      <trkpt lat="48.40345" lon="-4.95517">
        <ele>-1.5</ele>
        <time>2013-08-14T11:10:32.000+01:00</time>
      </trkpt>
      <trkpt lat="48.40336" lon="-4.95522">
        <ele>-1.9</ele>
        <time>2013-08-14T11:10:35.000+01:00</time>
      </trkpt>
      <trkpt lat="48.40326" lon="-4.95526">
        <ele>-1.5</ele>
        <time>2013-08-14T11:10:38.000+01:00</time>
      </trkpt>
      <trkpt lat="48.40315" lon="-4.95532">
        <ele>-0.8</ele>
        <time>2013-08-14T11:10:42.000+01:00</time>
      </trkpt>
      <trkpt lat="48.40305" lon="-4.95537">
        <ele>-0.3</ele>
        <time>2013-08-14T11:10:46.000+01:00</time>
      </trkpt>
      <trkpt lat="48.40296" lon="-4.95543">
        <ele>0.2</ele>
        <time>2013-08-14T11:10:50.000+01:00</time>
      </trkpt>
      <trkpt lat="48.40286" lon="-4.95548">
        <ele>0.5</ele>
        <time>2013-08-14T11:10:54.000+01:00</time>
      </trkpt>
      <trkpt lat="48.40277" lon="-4.95553">
        <ele>0.9</ele>
        <time>2013-08-14T11:10:58.000+01:00</time>
      </trkpt>
      <trkpt lat="48.40268" lon="-4.95557">
        <ele>1.2</ele>
        <time>2013-08-14T11:11:02.000+01:00</time>
      </trkpt>
      <trkpt lat="48.40259" lon="-4.95563">
        <ele>2.1</ele>
        <time>2013-08-14T11:11:07.000+01:00</time>
      </trkpt>
      <trkpt lat="48.40251" lon="-4.95572">
        <ele>3.5</ele>
        <time>2013-08-14T11:11:12.000+01:00</time>
      </trkpt>
      <trkpt lat="48.40245" lon="-4.95583">
        <ele>3.5</ele>
        <time>2013-08-14T11:11:17.000+01:00</time>
      </trkpt>
      <trkpt lat="48.40241" lon="-4.95597">
        <ele>3.5</ele>
        <time>2013-08-14T11:11:23.000+01:00</time>
      </trkpt>
      <trkpt lat="48.40238" lon="-4.95611">
        <ele>3.4</ele>
        <time>2013-08-14T11:11:31.000+01:00</time>
      </trkpt>
      <trkpt lat="48.40238" lon="-4.95623">
        <ele>4.2</ele>
        <time>2013-08-14T11:11:58.000+01:00</time>
      </trkpt>
      <trkpt lat="48.40237" lon="-4.95628">
        <ele>0.8</ele>
        <time>2013-08-14T11:12:31.000+01:00</time>
      </trkpt>
      <trkpt lat="48.40233" lon="-4.95634">
        <ele>3.1</ele>
        <time>2013-08-14T11:13:03.000+01:00</time>
      </trkpt>
      <trkpt lat="48.40234" lon="-4.95632">
        <ele>3.4</ele>
        <time>2013-08-14T11:13:56.000+01:00</time>
      </trkpt>
      <trkpt lat="48.40236" lon="-4.95634">
        <ele>8.1</ele>
        <time>2013-08-14T11:14:27.000+01:00</time>
      </trkpt>
      <trkpt lat="48.40235" lon="-4.95647">
        <ele>11.2</ele>
        <time>2013-08-14T11:14:40.000+01:00</time>
      </trkpt>
      <trkpt lat="48.40231" lon="-4.95658">
        <ele>9.4</ele>
        <time>2013-08-14T11:15:01.000+01:00</time>
      </trkpt>
      <trkpt lat="48.4023" lon="-4.95664">
        <ele>5.6</ele>
        <time>2013-08-14T11:15:54.000+01:00</time>
      </trkpt>
      <trkpt lat="48.40225" lon="-4.95664">
        <ele>5.7</ele>
        <time>2013-08-14T11:16:55.000+01:00</time>
      </trkpt>
      <trkpt lat="48.40229" lon="-4.95651">
        <ele>5</ele>
        <time>2013-08-14T11:17:11.000+01:00</time>
      </trkpt>
      <trkpt lat="48.40234" lon="-4.95647">
        <ele>4.2</ele>
        <time>2013-08-14T11:17:54.000+01:00</time>
      </trkpt>
      <trkpt lat="48.40235" lon="-4.95636">
        <ele>6.9</ele>
        <time>2013-08-14T11:18:24.000+01:00</time>
      </trkpt>
      <trkpt lat="48.40241" lon="-4.95628">
        <ele>10.1</ele>
        <time>2013-08-14T11:18:39.000+01:00</time>
      </trkpt>
      <trkpt lat="48.40245" lon="-4.95633">
        <ele>8.6</ele>
        <time>2013-08-14T11:19:01.000+01:00</time>
      </trkpt>
      <trkpt lat="48.40241" lon="-4.95643">
        <ele>4.7</ele>
        <time>2013-08-14T11:19:30.000+01:00</time>
      </trkpt>
      <trkpt lat="48.40237" lon="-4.95654">
        <ele>5.9</ele>
        <time>2013-08-14T11:19:42.000+01:00</time>
      </trkpt>
      <trkpt lat="48.40234" lon="-4.95657">
        <ele>3.7</ele>
        <time>2013-08-14T11:20:43.000+01:00</time>
      </trkpt>
      <trkpt lat="48.40228" lon="-4.95666">
        <ele>3.8</ele>
        <time>2013-08-14T11:21:04.000+01:00</time>
      </trkpt>
      <trkpt lat="48.40221" lon="-4.95674">
        <ele>5.1</ele>
        <time>2013-08-14T11:21:15.000+01:00</time>
      </trkpt>
      <trkpt lat="48.40215" lon="-4.95684">
        <ele>5.2</ele>
        <time>2013-08-14T11:21:23.000+01:00</time>
      </trkpt>
      <trkpt lat="48.4021" lon="-4.95696">
        <ele>5.4</ele>
        <time>2013-08-14T11:21:33.000+01:00</time>
      </trkpt>
      <trkpt lat="48.40208" lon="-4.957">
        <ele>5.9</ele>
        <time>2013-08-14T11:21:58.000+01:00</time>
      </trkpt>
      <trkpt lat="48.40203" lon="-4.95706">
        <ele>5.4</ele>
        <time>2013-08-14T11:22:18.000+01:00</time>
      </trkpt>
      <trkpt lat="48.40198" lon="-4.95718">
        <ele>5.4</ele>
        <time>2013-08-14T11:22:27.000+01:00</time>
      </trkpt>
      <trkpt lat="48.40192" lon="-4.95728">
        <ele>5.3</ele>
        <time>2013-08-14T11:22:35.000+01:00</time>
      </trkpt>
      <trkpt lat="48.40188" lon="-4.95739">
        <ele>5.2</ele>
        <time>2013-08-14T11:22:44.000+01:00</time>
      </trkpt>
      <trkpt lat="48.40181" lon="-4.95748">
        <ele>5.2</ele>
        <time>2013-08-14T11:22:53.000+01:00</time>
      </trkpt>
      <trkpt lat="48.40175" lon="-4.95753">
        <ele>6</ele>
        <time>2013-08-14T11:23:23.000+01:00</time>
      </trkpt>
      <trkpt lat="48.40169" lon="-4.95765">
        <ele>5.7</ele>
        <time>2013-08-14T11:23:32.000+01:00</time>
      </trkpt>
      <trkpt lat="48.40163" lon="-4.95777">
        <ele>5.6</ele>
        <time>2013-08-14T11:23:41.000+01:00</time>
      </trkpt>
      <trkpt lat="48.40158" lon="-4.95789">
        <ele>5.5</ele>
        <time>2013-08-14T11:23:50.000+01:00</time>
      </trkpt>
      <trkpt lat="48.40153" lon="-4.95799">
        <ele>5.7</ele>
        <time>2013-08-14T11:24:02.000+01:00</time>
      </trkpt>
      <trkpt lat="48.4015" lon="-4.95806">
        <ele>5.3</ele>
        <time>2013-08-14T11:24:26.000+01:00</time>
      </trkpt>
      <trkpt lat="48.40145" lon="-4.95819">
        <ele>4.8</ele>
        <time>2013-08-14T11:24:36.000+01:00</time>
      </trkpt>
      <trkpt lat="48.40138" lon="-4.95827">
        <ele>4.6</ele>
        <time>2013-08-14T11:24:44.000+01:00</time>
      </trkpt>
      <trkpt lat="48.40132" lon="-4.95837">
        <ele>4.7</ele>
        <time>2013-08-14T11:24:53.000+01:00</time>
      </trkpt>
      <trkpt lat="48.40124" lon="-4.9585">
        <ele>5</ele>
        <time>2013-08-14T11:25:03.000+01:00</time>
      </trkpt>
      <trkpt lat="48.40118" lon="-4.95861">
        <ele>5</ele>
        <time>2013-08-14T11:25:11.000+01:00</time>
      </trkpt>
      <trkpt lat="48.40112" lon="-4.95871">
        <ele>5</ele>
        <time>2013-08-14T11:25:19.000+01:00</time>
      </trkpt>
      <trkpt lat="48.40107" lon="-4.95884">
        <ele>4.8</ele>
        <time>2013-08-14T11:25:28.000+01:00</time>
      </trkpt>
      <trkpt lat="48.40099" lon="-4.95889">
        <ele>4.8</ele>
        <time>2013-08-14T11:25:36.000+01:00</time>
      </trkpt>
      <trkpt lat="48.40092" lon="-4.95898">
        <ele>4.9</ele>
        <time>2013-08-14T11:25:44.000+01:00</time>
      </trkpt>
      <trkpt lat="48.40084" lon="-4.95906">
        <ele>5</ele>
        <time>2013-08-14T11:25:52.000+01:00</time>
      </trkpt>
      <trkpt lat="48.40077" lon="-4.95914">
        <ele>5.2</ele>
        <time>2013-08-14T11:26:00.000+01:00</time>
      </trkpt>
      <trkpt lat="48.4007" lon="-4.95924">
        <ele>5.1</ele>
        <time>2013-08-14T11:26:11.000+01:00</time>
      </trkpt>
      <trkpt lat="48.40061" lon="-4.9593">
        <ele>5.3</ele>
        <time>2013-08-14T11:26:20.000+01:00</time>
      </trkpt>
      <trkpt lat="48.40052" lon="-4.95932">
        <ele>6.1</ele>
        <time>2013-08-14T11:26:29.000+01:00</time>
      </trkpt>
      <trkpt lat="48.40043" lon="-4.95934">
        <ele>6.6</ele>
        <time>2013-08-14T11:26:37.000+01:00</time>
      </trkpt>
      <trkpt lat="48.40033" lon="-4.95935">
        <ele>7.8</ele>
        <time>2013-08-14T11:26:45.000+01:00</time>
      </trkpt>
      <trkpt lat="48.40024" lon="-4.95941">
        <ele>9.1</ele>
        <time>2013-08-14T11:26:54.000+01:00</time>
      </trkpt>
      <trkpt lat="48.40018" lon="-4.95946">
        <ele>10</ele>
        <time>2013-08-14T11:27:11.000+01:00</time>
      </trkpt>
      <trkpt lat="48.4001" lon="-4.95952">
        <ele>10.9</ele>
        <time>2013-08-14T11:27:21.000+01:00</time>
      </trkpt>
      <trkpt lat="48.40002" lon="-4.9596">
        <ele>12.2</ele>
        <time>2013-08-14T11:27:31.000+01:00</time>
      </trkpt>
      <trkpt lat="48.39995" lon="-4.95971">
        <ele>13.5</ele>
        <time>2013-08-14T11:27:41.000+01:00</time>
      </trkpt>
      <trkpt lat="48.39989" lon="-4.95981">
        <ele>14.8</ele>
        <time>2013-08-14T11:27:51.000+01:00</time>
      </trkpt>
      <trkpt lat="48.39982" lon="-4.95982">
        <ele>16</ele>
        <time>2013-08-14T11:28:44.000+01:00</time>
      </trkpt>
      <trkpt lat="48.39973" lon="-4.95981">
        <ele>15.9</ele>
        <time>2013-08-14T11:28:53.000+01:00</time>
      </trkpt>
      <trkpt lat="48.39963" lon="-4.9598">
        <ele>15.8</ele>
        <time>2013-08-14T11:29:07.000+01:00</time>
      </trkpt>
      <trkpt lat="48.39953" lon="-4.95978">
        <ele>15.7</ele>
        <time>2013-08-14T11:29:16.000+01:00</time>
      </trkpt>
      <trkpt lat="48.39944" lon="-4.95974">
        <ele>15.7</ele>
        <time>2013-08-14T11:29:25.000+01:00</time>
      </trkpt>
      <trkpt lat="48.39935" lon="-4.95972">
        <ele>15.7</ele>
        <time>2013-08-14T11:29:33.000+01:00</time>
      </trkpt>
      <trkpt lat="48.39926" lon="-4.95971">
        <ele>15.7</ele>
        <time>2013-08-14T11:29:41.000+01:00</time>
      </trkpt>
      <trkpt lat="48.39916" lon="-4.95968">
        <ele>16</ele>
        <time>2013-08-14T11:29:50.000+01:00</time>
      </trkpt>
      <trkpt lat="48.39907" lon="-4.95965">
        <ele>16.9</ele>
        <time>2013-08-14T11:29:58.000+01:00</time>
      </trkpt>
      <trkpt lat="48.39898" lon="-4.95959">
        <ele>17.2</ele>
        <time>2013-08-14T11:30:06.000+01:00</time>
      </trkpt>
      <trkpt lat="48.39895" lon="-4.95947">
        <ele>17.3</ele>
        <time>2013-08-14T11:30:14.000+01:00</time>
      </trkpt>
      <trkpt lat="48.39889" lon="-4.95936">
        <ele>17.7</ele>
        <time>2013-08-14T11:30:25.000+01:00</time>
      </trkpt>
      <trkpt lat="48.39884" lon="-4.95924">
        <ele>18</ele>
        <time>2013-08-14T11:30:34.000+01:00</time>
      </trkpt>
      <trkpt lat="48.39881" lon="-4.95911">
        <ele>18</ele>
        <time>2013-08-14T11:30:43.000+01:00</time>
      </trkpt>
      <trkpt lat="48.39876" lon="-4.95899">
        <ele>18.4</ele>
        <time>2013-08-14T11:30:53.000+01:00</time>
      </trkpt>
      <trkpt lat="48.39872" lon="-4.95884">
        <ele>18.9</ele>
        <time>2013-08-14T11:31:01.000+01:00</time>
      </trkpt>
      <trkpt lat="48.39869" lon="-4.9587">
        <ele>19.2</ele>
        <time>2013-08-14T11:31:09.000+01:00</time>
      </trkpt>
      <trkpt lat="48.39867" lon="-4.95857">
        <ele>19.6</ele>
        <time>2013-08-14T11:31:17.000+01:00</time>
      </trkpt>
      <trkpt lat="48.39865" lon="-4.95843">
        <ele>19.8</ele>
        <time>2013-08-14T11:31:25.000+01:00</time>
      </trkpt>
      <trkpt lat="48.39863" lon="-4.9583">
        <ele>20.7</ele>
        <time>2013-08-14T11:31:33.000+01:00</time>
      </trkpt>
      <trkpt lat="48.39859" lon="-4.95818">
        <ele>22.2</ele>
        <time>2013-08-14T11:31:42.000+01:00</time>
      </trkpt>
      <trkpt lat="48.39856" lon="-4.95805">
        <ele>22.9</ele>
        <time>2013-08-14T11:31:53.000+01:00</time>
      </trkpt>
      <trkpt lat="48.39851" lon="-4.95793">
        <ele>23.1</ele>
        <time>2013-08-14T11:32:02.000+01:00</time>
      </trkpt>
      <trkpt lat="48.39846" lon="-4.95782">
        <ele>21.8</ele>
        <time>2013-08-14T11:32:10.000+01:00</time>
      </trkpt>
      <trkpt lat="48.39836" lon="-4.95779">
        <ele>20.6</ele>
        <time>2013-08-14T11:32:20.000+01:00</time>
      </trkpt>
      <trkpt lat="48.39826" lon="-4.95779">
        <ele>20.1</ele>
        <time>2013-08-14T11:32:29.000+01:00</time>
      </trkpt>
      <trkpt lat="48.39818" lon="-4.95773">
        <ele>19.9</ele>
        <time>2013-08-14T11:32:41.000+01:00</time>
      </trkpt>
      <trkpt lat="48.39811" lon="-4.95765">
        <ele>19.6</ele>
        <time>2013-08-14T11:32:50.000+01:00</time>
      </trkpt>
      <trkpt lat="48.39803" lon="-4.95758">
        <ele>18.2</ele>
        <time>2013-08-14T11:32:58.000+01:00</time>
      </trkpt>
      <trkpt lat="48.39794" lon="-4.95752">
        <ele>17.5</ele>
        <time>2013-08-14T11:33:06.000+01:00</time>
      </trkpt>
      <trkpt lat="48.39785" lon="-4.95746">
        <ele>18.7</ele>
        <time>2013-08-14T11:33:15.000+01:00</time>
      </trkpt>
      <trkpt lat="48.39777" lon="-4.95739">
        <ele>17.6</ele>
        <time>2013-08-14T11:33:24.000+01:00</time>
      </trkpt>
      <trkpt lat="48.39769" lon="-4.95731">
        <ele>17.4</ele>
        <time>2013-08-14T11:33:33.000+01:00</time>
      </trkpt>
      <trkpt lat="48.39761" lon="-4.95724">
        <ele>16.6</ele>
        <time>2013-08-14T11:33:41.000+01:00</time>
      </trkpt>
      <trkpt lat="48.39755" lon="-4.95716">
        <ele>15.7</ele>
        <time>2013-08-14T11:33:56.000+01:00</time>
      </trkpt>
      <trkpt lat="48.39753" lon="-4.95702">
        <ele>17.4</ele>
        <time>2013-08-14T11:34:07.000+01:00</time>
      </trkpt>
      <trkpt lat="48.39752" lon="-4.9569">
        <ele>18.5</ele>
        <time>2013-08-14T11:34:23.000+01:00</time>
      </trkpt>
      <trkpt lat="48.39748" lon="-4.95677">
        <ele>19.9</ele>
        <time>2013-08-14T11:34:36.000+01:00</time>
      </trkpt>
      <trkpt lat="48.39742" lon="-4.95665">
        <ele>22.4</ele>
        <time>2013-08-14T11:34:45.000+01:00</time>
      </trkpt>
      <trkpt lat="48.39738" lon="-4.95652">
        <ele>23.1</ele>
        <time>2013-08-14T11:34:55.000+01:00</time>
      </trkpt>
      <trkpt lat="48.39733" lon="-4.95639">
        <ele>22.3</ele>
        <time>2013-08-14T11:35:03.000+01:00</time>
      </trkpt>
      <trkpt lat="48.39726" lon="-4.95631">
        <ele>19.9</ele>
        <time>2013-08-14T11:35:12.000+01:00</time>
      </trkpt>
      <trkpt lat="48.3972" lon="-4.95619">
        <ele>17.7</ele>
        <time>2013-08-14T11:35:24.000+01:00</time>
      </trkpt>
      <trkpt lat="48.39715" lon="-4.95608">
        <ele>17.9</ele>
        <time>2013-08-14T11:35:33.000+01:00</time>
      </trkpt>
      <trkpt lat="48.39708" lon="-4.956">
        <ele>16.7</ele>
        <time>2013-08-14T11:35:41.000+01:00</time>
      </trkpt>
      <trkpt lat="48.39711" lon="-4.95586">
        <ele>17.3</ele>
        <time>2013-08-14T11:35:52.000+01:00</time>
      </trkpt>
      <trkpt lat="48.39711" lon="-4.95574">
        <ele>16.1</ele>
        <time>2013-08-14T11:36:01.000+01:00</time>
      </trkpt>
      <trkpt lat="48.39705" lon="-4.95569">
        <ele>12.4</ele>
        <time>2013-08-14T11:36:24.000+01:00</time>
      </trkpt>
      <trkpt lat="48.39696" lon="-4.95573">
        <ele>10.4</ele>
        <time>2013-08-14T11:36:33.000+01:00</time>
      </trkpt>
      <trkpt lat="48.39686" lon="-4.95573">
        <ele>9.2</ele>
        <time>2013-08-14T11:36:43.000+01:00</time>
      </trkpt>
      <trkpt lat="48.39677" lon="-4.95575">
        <ele>8.2</ele>
        <time>2013-08-14T11:36:52.000+01:00</time>
      </trkpt>
      <trkpt lat="48.39668" lon="-4.95578">
        <ele>8.6</ele>
        <time>2013-08-14T11:37:05.000+01:00</time>
      </trkpt>
      <trkpt lat="48.39659" lon="-4.95578">
        <ele>8.3</ele>
        <time>2013-08-14T11:37:13.000+01:00</time>
      </trkpt>
      <trkpt lat="48.39652" lon="-4.95585">
        <ele>8.2</ele>
        <time>2013-08-14T11:37:23.000+01:00</time>
      </trkpt>
      <trkpt lat="48.39647" lon="-4.95597">
        <ele>9.1</ele>
        <time>2013-08-14T11:37:35.000+01:00</time>
      </trkpt>
      <trkpt lat="48.39644" lon="-4.95611">
        <ele>11.1</ele>
        <time>2013-08-14T11:37:45.000+01:00</time>
      </trkpt>
      <trkpt lat="48.39643" lon="-4.95624">
        <ele>13.1</ele>
        <time>2013-08-14T11:37:58.000+01:00</time>
      </trkpt>
      <trkpt lat="48.39643" lon="-4.95636">
        <ele>12.8</ele>
        <time>2013-08-14T11:38:17.000+01:00</time>
      </trkpt>
      <trkpt lat="48.39643" lon="-4.95648">
        <ele>14</ele>
        <time>2013-08-14T11:38:31.000+01:00</time>
      </trkpt>
      <trkpt lat="48.39641" lon="-4.95662">
        <ele>14.9</ele>
        <time>2013-08-14T11:38:40.000+01:00</time>
      </trkpt>
      <trkpt lat="48.39637" lon="-4.95675">
        <ele>15.8</ele>
        <time>2013-08-14T11:38:50.000+01:00</time>
      </trkpt>
      <trkpt lat="48.39638" lon="-4.95688">
        <ele>16.6</ele>
        <time>2013-08-14T11:39:01.000+01:00</time>
      </trkpt>
      <trkpt lat="48.39635" lon="-4.95701">
        <ele>17.7</ele>
        <time>2013-08-14T11:39:09.000+01:00</time>
      </trkpt>
      <trkpt lat="48.3963" lon="-4.95714">
        <ele>19</ele>
        <time>2013-08-14T11:39:18.000+01:00</time>
      </trkpt>
      <trkpt lat="48.39626" lon="-4.95727">
        <ele>19</ele>
        <time>2013-08-14T11:39:26.000+01:00</time>
      </trkpt>
      <trkpt lat="48.39622" lon="-4.9574">
        <ele>18.8</ele>
        <time>2013-08-14T11:39:34.000+01:00</time>
      </trkpt>
      <trkpt lat="48.39618" lon="-4.95753">
        <ele>19.4</ele>
        <time>2013-08-14T11:39:43.000+01:00</time>
      </trkpt>
      <trkpt lat="48.39614" lon="-4.95766">
        <ele>19</ele>
        <time>2013-08-14T11:39:53.000+01:00</time>
      </trkpt>
      <trkpt lat="48.39612" lon="-4.95778">
        <ele>18.8</ele>
        <time>2013-08-14T11:40:10.000+01:00</time>
      </trkpt>
      <trkpt lat="48.39609" lon="-4.95792">
        <ele>19</ele>
        <time>2013-08-14T11:40:23.000+01:00</time>
      </trkpt>
      <trkpt lat="48.39601" lon="-4.95785">
        <ele>20.7</ele>
        <time>2013-08-14T11:40:34.000+01:00</time>
      </trkpt>
      <trkpt lat="48.39592" lon="-4.95781">
        <ele>20.2</ele>
        <time>2013-08-14T11:40:48.000+01:00</time>
      </trkpt>
      <trkpt lat="48.39587" lon="-4.95793">
        <ele>19.9</ele>
        <time>2013-08-14T11:40:58.000+01:00</time>
      </trkpt>
      <trkpt lat="48.39587" lon="-4.95804">
        <ele>21.8</ele>
        <time>2013-08-14T11:41:09.000+01:00</time>
      </trkpt>
      <trkpt lat="48.39579" lon="-4.95811">
        <ele>20.1</ele>
        <time>2013-08-14T11:41:22.000+01:00</time>
      </trkpt>
      <trkpt lat="48.39581" lon="-4.95823">
        <ele>18.1</ele>
        <time>2013-08-14T11:41:30.000+01:00</time>
      </trkpt>
      <trkpt lat="48.3959" lon="-4.9583">
        <ele>20.2</ele>
        <time>2013-08-14T11:41:39.000+01:00</time>
      </trkpt>
      <trkpt lat="48.39591" lon="-4.95826">
        <ele>19.5</ele>
        <time>2013-08-14T11:42:12.000+01:00</time>
      </trkpt>
      <trkpt lat="48.39587" lon="-4.95832">
        <ele>20.7</ele>
        <time>2013-08-14T11:42:36.000+01:00</time>
      </trkpt>
      <trkpt lat="48.39581" lon="-4.95823">
        <ele>23.7</ele>
        <time>2013-08-14T11:42:45.000+01:00</time>
      </trkpt>
      <trkpt lat="48.39579" lon="-4.95811">
        <ele>23.6</ele>
        <time>2013-08-14T11:43:01.000+01:00</time>
      </trkpt>
      <trkpt lat="48.3958" lon="-4.95814">
        <ele>20.5</ele>
        <time>2013-08-14T11:43:21.000+01:00</time>
      </trkpt>
      <trkpt lat="48.3958" lon="-4.95824">
        <ele>21.9</ele>
        <time>2013-08-14T11:43:37.000+01:00</time>
      </trkpt>
      <trkpt lat="48.39579" lon="-4.95824">
        <ele>20.5</ele>
        <time>2013-08-14T11:44:10.000+01:00</time>
      </trkpt>
      <trkpt lat="48.39588" lon="-4.95829">
        <ele>21.1</ele>
        <time>2013-08-14T11:44:24.000+01:00</time>
      </trkpt>
      <trkpt lat="48.39586" lon="-4.95827">
        <ele>22</ele>
        <time>2013-08-14T11:44:34.000+01:00</time>
      </trkpt>
      <trkpt lat="48.3958" lon="-4.95819">
        <ele>28.2</ele>
        <time>2013-08-14T11:44:43.000+01:00</time>
      </trkpt>
      <trkpt lat="48.39583" lon="-4.95811">
        <ele>28.3</ele>
        <time>2013-08-14T11:44:59.000+01:00</time>
      </trkpt>
      <trkpt lat="48.39577" lon="-4.95808">
        <ele>26.1</ele>
        <time>2013-08-14T11:45:15.000+01:00</time>
      </trkpt>
      <trkpt lat="48.39583" lon="-4.95815">
        <ele>22.4</ele>
        <time>2013-08-14T11:45:26.000+01:00</time>
      </trkpt>
      <trkpt lat="48.39848" lon="-4.96107">
        <ele>-6.4</ele>
        <time>2013-08-14T12:21:06.000+01:00</time>
      </trkpt>
      <trkpt lat="48.39639" lon="-4.95861">
        <ele>4.6</ele>
        <time>2013-08-14T12:21:07.000+01:00</time>
      </trkpt>
      <trkpt lat="48.39617" lon="-4.95848">
        <ele>11.3</ele>
        <time>2013-08-14T12:21:08.000+01:00</time>
      </trkpt>
      <trkpt lat="48.39609" lon="-4.95839">
        <ele>17.2</ele>
        <time>2013-08-14T12:21:10.000+01:00</time>
      </trkpt>
      <trkpt lat="48.39607" lon="-4.95838">
        <ele>23.6</ele>
        <time>2013-08-14T12:21:19.000+01:00</time>
      </trkpt>
      <trkpt lat="48.39609" lon="-4.95836">
        <ele>20</ele>
        <time>2013-08-14T12:21:29.000+01:00</time>
      </trkpt>
      <trkpt lat="48.39603" lon="-4.95833">
        <ele>18</ele>
        <time>2013-08-14T12:21:44.000+01:00</time>
      </trkpt>
      <trkpt lat="48.39594" lon="-4.95825">
        <ele>20.2</ele>
        <time>2013-08-14T12:21:50.000+01:00</time>
      </trkpt>
      <trkpt lat="48.39588" lon="-4.95819">
        <ele>19.3</ele>
        <time>2013-08-14T12:22:00.000+01:00</time>
      </trkpt>
      <trkpt lat="48.39585" lon="-4.95816">
        <ele>17.5</ele>
        <time>2013-08-14T12:22:09.000+01:00</time>
      </trkpt>
      <trkpt lat="48.39582" lon="-4.95812">
        <ele>16.1</ele>
        <time>2013-08-14T12:22:13.000+01:00</time>
      </trkpt>
      <trkpt lat="48.39582" lon="-4.9581">
        <ele>18.7</ele>
        <time>2013-08-14T12:22:25.000+01:00</time>
      </trkpt>
      <trkpt lat="48.39575" lon="-4.958">
        <ele>18.5</ele>
        <time>2013-08-14T12:22:30.000+01:00</time>
      </trkpt>
      <trkpt lat="48.3958" lon="-4.95807">
        <ele>18.6</ele>
        <time>2013-08-14T12:22:39.000+01:00</time>
      </trkpt>
      <trkpt lat="48.39587" lon="-4.95814">
        <ele>14.6</ele>
        <time>2013-08-14T12:22:54.000+01:00</time>
      </trkpt>
      <trkpt lat="48.39599" lon="-4.95824">
        <ele>4.1</ele>
        <time>2013-08-14T12:23:00.000+01:00</time>
      </trkpt>
      <trkpt lat="48.39611" lon="-4.95833">
        <ele>-0.8</ele>
        <time>2013-08-14T12:23:02.000+01:00</time>
      </trkpt>
      <trkpt lat="48.39625" lon="-4.95844">
        <ele>-3.4</ele>
        <time>2013-08-14T12:23:04.000+01:00</time>
      </trkpt>
      <trkpt lat="48.39625" lon="-4.95843">
        <ele>-2</ele>
        <time>2013-08-14T12:23:09.000+01:00</time>
      </trkpt>
      <trkpt lat="48.39619" lon="-4.9584">
        <ele>2.9</ele>
        <time>2013-08-14T12:23:18.000+01:00</time>
      </trkpt>
      <trkpt lat="48.39611" lon="-4.95833">
        <ele>5.4</ele>
        <time>2013-08-14T12:23:22.000+01:00</time>
      </trkpt>
      <trkpt lat="48.39607" lon="-4.9583">
        <ele>7</ele>
        <time>2013-08-14T12:23:30.000+01:00</time>
      </trkpt>
      <trkpt lat="48.39608" lon="-4.95831">
        <ele>9.7</ele>
        <time>2013-08-14T12:23:42.000+01:00</time>
      </trkpt>
      <trkpt lat="48.39601" lon="-4.95828">
        <ele>8.8</ele>
        <time>2013-08-14T12:23:51.000+01:00</time>
      </trkpt>
      <trkpt lat="48.39593" lon="-4.95823">
        <ele>5.7</ele>
        <time>2013-08-14T12:23:57.000+01:00</time>
      </trkpt>
      <trkpt lat="48.39602" lon="-4.95831">
        <ele>4</ele>
        <time>2013-08-14T12:24:00.000+01:00</time>
      </trkpt>
      <trkpt lat="48.39606" lon="-4.95833">
        <ele>2.4</ele>
        <time>2013-08-14T12:24:03.000+01:00</time>
      </trkpt>
      <trkpt lat="48.39615" lon="-4.95838">
        <ele>0.3</ele>
        <time>2013-08-14T12:24:07.000+01:00</time>
      </trkpt>
      <trkpt lat="48.39627" lon="-4.95844">
        <ele>-0.9</ele>
        <time>2013-08-14T12:24:13.000+01:00</time>
      </trkpt>
      <trkpt lat="48.39631" lon="-4.95843">
        <ele>3.7</ele>
        <time>2013-08-14T12:24:17.000+01:00</time>
      </trkpt>
      <trkpt lat="48.39621" lon="-4.95833">
        <ele>8.8</ele>
        <time>2013-08-14T12:24:22.000+01:00</time>
      </trkpt>
      <trkpt lat="48.39612" lon="-4.95831">
        <ele>11.7</ele>
        <time>2013-08-14T12:24:26.000+01:00</time>
      </trkpt>
      <trkpt lat="48.39603" lon="-4.95826">
        <ele>10.2</ele>
        <time>2013-08-14T12:24:32.000+01:00</time>
      </trkpt>
      <trkpt lat="48.39594" lon="-4.95819">
        <ele>10.6</ele>
        <time>2013-08-14T12:24:36.000+01:00</time>
      </trkpt>
      <trkpt lat="48.39591" lon="-4.95816">
        <ele>4.3</ele>
        <time>2013-08-14T12:24:44.000+01:00</time>
      </trkpt>
      <trkpt lat="48.39592" lon="-4.95818">
        <ele>5.8</ele>
        <time>2013-08-14T12:24:49.000+01:00</time>
      </trkpt>
      <trkpt lat="48.39601" lon="-4.95826">
        <ele>6.6</ele>
        <time>2013-08-14T12:24:53.000+01:00</time>
      </trkpt>
      <trkpt lat="48.39591" lon="-4.95817">
        <ele>15.5</ele>
        <time>2013-08-14T12:24:57.000+01:00</time>
      </trkpt>
      <trkpt lat="48.39586" lon="-4.95808">
        <ele>17.7</ele>
        <time>2013-08-14T12:25:01.000+01:00</time>
      </trkpt>
      <trkpt lat="48.39584" lon="-4.95807">
        <ele>19.1</ele>
        <time>2013-08-14T12:25:12.000+01:00</time>
      </trkpt>
      <trkpt lat="48.39589" lon="-4.95806">
        <ele>9.5</ele>
        <time>2013-08-14T12:25:23.000+01:00</time>
      </trkpt>
      <trkpt lat="48.39594" lon="-4.95806">
        <ele>15.9</ele>
        <time>2013-08-14T12:25:32.000+01:00</time>
      </trkpt>
      <trkpt lat="48.39588" lon="-4.95808">
        <ele>33</ele>
        <time>2013-08-14T12:25:41.000+01:00</time>
      </trkpt>
      <trkpt lat="48.39579" lon="-4.95801">
        <ele>46.8</ele>
        <time>2013-08-14T12:25:46.000+01:00</time>
      </trkpt>
      <trkpt lat="48.3959" lon="-4.95795">
        <ele>47.4</ele>
        <time>2013-08-14T12:25:49.000+01:00</time>
      </trkpt>
      <trkpt lat="48.39597" lon="-4.95785">
        <ele>49.5</ele>
        <time>2013-08-14T12:25:55.000+01:00</time>
      </trkpt>
      <trkpt lat="48.3959" lon="-4.95773">
        <ele>45.1</ele>
        <time>2013-08-14T12:25:57.000+01:00</time>
      </trkpt>
      <trkpt lat="48.3958" lon="-4.95765">
        <ele>37.9</ele>
        <time>2013-08-14T12:25:59.000+01:00</time>
      </trkpt>
      <trkpt lat="48.39572" lon="-4.9576">
        <ele>37.1</ele>
        <time>2013-08-14T12:26:01.000+01:00</time>
      </trkpt>
      <trkpt lat="48.39565" lon="-4.9576">
        <ele>38.7</ele>
        <time>2013-08-14T12:26:04.000+01:00</time>
      </trkpt>
      <trkpt lat="48.39571" lon="-4.95774">
        <ele>39.9</ele>
        <time>2013-08-14T12:26:10.000+01:00</time>
      </trkpt>
      <trkpt lat="48.39573" lon="-4.95784">
        <ele>36.6</ele>
        <time>2013-08-14T12:26:13.000+01:00</time>
      </trkpt>
      <trkpt lat="48.39579" lon="-4.95799">
        <ele>34.6</ele>
        <time>2013-08-14T12:26:16.000+01:00</time>
      </trkpt>
      <trkpt lat="48.39587" lon="-4.95807">
        <ele>31.1</ele>
        <time>2013-08-14T12:26:18.000+01:00</time>
      </trkpt>
      <trkpt lat="48.39592" lon="-4.95815">
        <ele>29</ele>
        <time>2013-08-14T12:26:22.000+01:00</time>
      </trkpt>
      <trkpt lat="48.39592" lon="-4.95814">
        <ele>24.1</ele>
        <time>2013-08-14T12:26:33.000+01:00</time>
      </trkpt>
      <trkpt lat="48.39595" lon="-4.95817">
        <ele>29.1</ele>
        <time>2013-08-14T12:26:37.000+01:00</time>
      </trkpt>
      <trkpt lat="48.39601" lon="-4.95825">
        <ele>33.1</ele>
        <time>2013-08-14T12:26:43.000+01:00</time>
      </trkpt>
      <trkpt lat="48.396" lon="-4.95819">
        <ele>21.9</ele>
        <time>2013-08-14T12:26:50.000+01:00</time>
      </trkpt>
      <trkpt lat="48.39599" lon="-4.95818">
        <ele>20.7</ele>
        <time>2013-08-14T12:26:59.000+01:00</time>
      </trkpt>
      <trkpt lat="48.39597" lon="-4.9582">
        <ele>14</ele>
        <time>2013-08-14T12:27:04.000+01:00</time>
      </trkpt>
      <trkpt lat="48.39592" lon="-4.95813">
        <ele>15.5</ele>
        <time>2013-08-14T12:27:12.000+01:00</time>
      </trkpt>
      <trkpt lat="48.39599" lon="-4.95819">
        <ele>26.8</ele>
        <time>2013-08-14T12:27:21.000+01:00</time>
      </trkpt>
      <trkpt lat="48.39596" lon="-4.95812">
        <ele>29.2</ele>
        <time>2013-08-14T12:27:29.000+01:00</time>
      </trkpt>
      <trkpt lat="48.39587" lon="-4.95812">
        <ele>30.6</ele>
        <time>2013-08-14T12:27:36.000+01:00</time>
      </trkpt>
      <trkpt lat="48.39582" lon="-4.95806">
        <ele>35.7</ele>
        <time>2013-08-14T12:27:42.000+01:00</time>
      </trkpt>
      <trkpt lat="48.39581" lon="-4.95807">
        <ele>29.9</ele>
        <time>2013-08-14T12:27:52.000+01:00</time>
      </trkpt>
      <trkpt lat="48.39587" lon="-4.9581">
        <ele>31.4</ele>
        <time>2013-08-14T12:27:57.000+01:00</time>
      </trkpt>
      <trkpt lat="48.39594" lon="-4.95819">
        <ele>34.9</ele>
        <time>2013-08-14T12:28:02.000+01:00</time>
      </trkpt>
      <trkpt lat="48.39593" lon="-4.95821">
        <ele>34.2</ele>
        <time>2013-08-14T12:28:09.000+01:00</time>
      </trkpt>
      <trkpt lat="48.39585" lon="-4.95812">
        <ele>31.4</ele>
        <time>2013-08-14T12:28:15.000+01:00</time>
      </trkpt>
      <trkpt lat="48.39581" lon="-4.95802">
        <ele>29.7</ele>
        <time>2013-08-14T12:28:22.000+01:00</time>
      </trkpt>
      <trkpt lat="48.39586" lon="-4.95805">
        <ele>29.5</ele>
        <time>2013-08-14T12:28:30.000+01:00</time>
      </trkpt>
      <trkpt lat="48.39592" lon="-4.95813">
        <ele>25.1</ele>
        <time>2013-08-14T12:28:36.000+01:00</time>
      </trkpt>
      <trkpt lat="48.39594" lon="-4.95809">
        <ele>9.8</ele>
        <time>2013-08-14T12:28:46.000+01:00</time>
      </trkpt>
      <trkpt lat="48.39589" lon="-4.95812">
        <ele>11</ele>
        <time>2013-08-14T12:28:52.000+01:00</time>
      </trkpt>
      <trkpt lat="48.39592" lon="-4.95809">
        <ele>17</ele>
        <time>2013-08-14T12:28:59.000+01:00</time>
      </trkpt>
      <trkpt lat="48.3958" lon="-4.95808">
        <ele>17.6</ele>
        <time>2013-08-14T12:29:03.000+01:00</time>
      </trkpt>
      <trkpt lat="48.39581" lon="-4.95806">
        <ele>19.4</ele>
        <time>2013-08-14T12:29:07.000+01:00</time>
      </trkpt>
      <trkpt lat="48.39581" lon="-4.95804">
        <ele>21.1</ele>
        <time>2013-08-14T12:29:15.000+01:00</time>
      </trkpt>
      <trkpt lat="48.3959" lon="-4.958">
        <ele>32.9</ele>
        <time>2013-08-14T12:29:23.000+01:00</time>
      </trkpt>
      <trkpt lat="48.39599" lon="-4.958">
        <ele>31</ele>
        <time>2013-08-14T12:29:27.000+01:00</time>
      </trkpt>
      <trkpt lat="48.39596" lon="-4.95802">
        <ele>29.7</ele>
        <time>2013-08-14T12:29:36.000+01:00</time>
      </trkpt>
      <trkpt lat="48.39588" lon="-4.95807">
        <ele>23</ele>
        <time>2013-08-14T12:29:46.000+01:00</time>
      </trkpt>
      <trkpt lat="48.39581" lon="-4.95804">
        <ele>23.1</ele>
        <time>2013-08-14T12:29:56.000+01:00</time>
      </trkpt>
      <trkpt lat="48.3958" lon="-4.95808">
        <ele>22.8</ele>
        <time>2013-08-14T12:30:06.000+01:00</time>
      </trkpt>
      <trkpt lat="48.39581" lon="-4.9581">
        <ele>22.5</ele>
        <time>2013-08-14T12:30:22.000+01:00</time>
      </trkpt>
      <trkpt lat="48.39574" lon="-4.95806">
        <ele>23.5</ele>
        <time>2013-08-14T12:30:33.000+01:00</time>
      </trkpt>
      <trkpt lat="48.39576" lon="-4.95813">
        <ele>21.9</ele>
        <time>2013-08-14T12:30:42.000+01:00</time>
      </trkpt>
      <trkpt lat="48.39581" lon="-4.95825">
        <ele>22.6</ele>
        <time>2013-08-14T12:30:49.000+01:00</time>
      </trkpt>
      <trkpt lat="48.39589" lon="-4.95832">
        <ele>20.7</ele>
        <time>2013-08-14T12:30:58.000+01:00</time>
      </trkpt>
      <trkpt lat="48.39595" lon="-4.95842">
        <ele>23.3</ele>
        <time>2013-08-14T12:31:07.000+01:00</time>
      </trkpt>
      <trkpt lat="48.39594" lon="-4.95855">
        <ele>30.5</ele>
        <time>2013-08-14T12:31:18.000+01:00</time>
      </trkpt>
      <trkpt lat="48.39589" lon="-4.95866">
        <ele>26.5</ele>
        <time>2013-08-14T12:31:24.000+01:00</time>
      </trkpt>
      <trkpt lat="48.39585" lon="-4.95879">
        <ele>27.5</ele>
        <time>2013-08-14T12:31:32.000+01:00</time>
      </trkpt>
      <trkpt lat="48.39579" lon="-4.9589">
        <ele>24</ele>
        <time>2013-08-14T12:31:38.000+01:00</time>
      </trkpt>
      <trkpt lat="48.39574" lon="-4.959">
        <ele>22.9</ele>
        <time>2013-08-14T12:31:53.000+01:00</time>
      </trkpt>
      <trkpt lat="48.39568" lon="-4.95909">
        <ele>24.2</ele>
        <time>2013-08-14T12:32:03.000+01:00</time>
      </trkpt>
      <trkpt lat="48.39558" lon="-4.95914">
        <ele>23.6</ele>
        <time>2013-08-14T12:32:12.000+01:00</time>
      </trkpt>
      <trkpt lat="48.39547" lon="-4.95918">
        <ele>24</ele>
        <time>2013-08-14T12:32:23.000+01:00</time>
      </trkpt>
      <trkpt lat="48.39538" lon="-4.95922">
        <ele>24.4</ele>
        <time>2013-08-14T12:32:31.000+01:00</time>
      </trkpt>
      <trkpt lat="48.39529" lon="-4.95925">
        <ele>24.2</ele>
        <time>2013-08-14T12:32:39.000+01:00</time>
      </trkpt>
      <trkpt lat="48.39521" lon="-4.95928">
        <ele>23.8</ele>
        <time>2013-08-14T12:32:51.000+01:00</time>
      </trkpt>
      <trkpt lat="48.3952" lon="-4.95936">
        <ele>21.9</ele>
        <time>2013-08-14T12:33:19.000+01:00</time>
      </trkpt>
      <trkpt lat="48.39518" lon="-4.95939">
        <ele>23.2</ele>
        <time>2013-08-14T12:34:05.000+01:00</time>
      </trkpt>
      <trkpt lat="48.39511" lon="-4.95948">
        <ele>24.4</ele>
        <time>2013-08-14T12:34:14.000+01:00</time>
      </trkpt>
      <trkpt lat="48.39504" lon="-4.95955">
        <ele>24</ele>
        <time>2013-08-14T12:34:25.000+01:00</time>
      </trkpt>
      <trkpt lat="48.39496" lon="-4.95963">
        <ele>24.6</ele>
        <time>2013-08-14T12:34:37.000+01:00</time>
      </trkpt>
      <trkpt lat="48.39492" lon="-4.95976">
        <ele>26.4</ele>
        <time>2013-08-14T12:34:52.000+01:00</time>
      </trkpt>
      <trkpt lat="48.39487" lon="-4.95987">
        <ele>25.1</ele>
        <time>2013-08-14T12:35:00.000+01:00</time>
      </trkpt>
      <trkpt lat="48.39482" lon="-4.96">
        <ele>25.4</ele>
        <time>2013-08-14T12:35:09.000+01:00</time>
      </trkpt>
      <trkpt lat="48.39478" lon="-4.96014">
        <ele>24.9</ele>
        <time>2013-08-14T12:35:17.000+01:00</time>
      </trkpt>
      <trkpt lat="48.39476" lon="-4.96028">
        <ele>24.3</ele>
        <time>2013-08-14T12:35:26.000+01:00</time>
      </trkpt>
      <trkpt lat="48.39476" lon="-4.96043">
        <ele>23.4</ele>
        <time>2013-08-14T12:35:35.000+01:00</time>
      </trkpt>
      <trkpt lat="48.39477" lon="-4.96058">
        <ele>22.4</ele>
        <time>2013-08-14T12:35:43.000+01:00</time>
      </trkpt>
      <trkpt lat="48.39478" lon="-4.96072">
        <ele>21.7</ele>
        <time>2013-08-14T12:35:51.000+01:00</time>
      </trkpt>
      <trkpt lat="48.39478" lon="-4.96086">
        <ele>22</ele>
        <time>2013-08-14T12:35:59.000+01:00</time>
      </trkpt>
      <trkpt lat="48.39477" lon="-4.961">
        <ele>22.6</ele>
        <time>2013-08-14T12:36:08.000+01:00</time>
      </trkpt>
      <trkpt lat="48.39476" lon="-4.96114">
        <ele>22.3</ele>
        <time>2013-08-14T12:36:16.000+01:00</time>
      </trkpt>
      <trkpt lat="48.39474" lon="-4.96127">
        <ele>22.1</ele>
        <time>2013-08-14T12:36:26.000+01:00</time>
      </trkpt>
      <trkpt lat="48.39473" lon="-4.96142">
        <ele>22.4</ele>
        <time>2013-08-14T12:36:35.000+01:00</time>
      </trkpt>
      <trkpt lat="48.39471" lon="-4.96157">
        <ele>22.5</ele>
        <time>2013-08-14T12:36:44.000+01:00</time>
      </trkpt>
      <trkpt lat="48.3947" lon="-4.96171">
        <ele>22.6</ele>
        <time>2013-08-14T12:36:53.000+01:00</time>
      </trkpt>
      <trkpt lat="48.39467" lon="-4.96186">
        <ele>22.3</ele>
        <time>2013-08-14T12:37:02.000+01:00</time>
      </trkpt>
      <trkpt lat="48.39464" lon="-4.96199">
        <ele>22</ele>
        <time>2013-08-14T12:37:10.000+01:00</time>
      </trkpt>
      <trkpt lat="48.39465" lon="-4.96213">
        <ele>21.5</ele>
        <time>2013-08-14T12:37:18.000+01:00</time>
      </trkpt>
      <trkpt lat="48.39471" lon="-4.96224">
        <ele>21.1</ele>
        <time>2013-08-14T12:37:28.000+01:00</time>
      </trkpt>
      <trkpt lat="48.39478" lon="-4.96234">
        <ele>20.5</ele>
        <time>2013-08-14T12:37:37.000+01:00</time>
      </trkpt>
      <trkpt lat="48.39484" lon="-4.96245">
        <ele>19.7</ele>
        <time>2013-08-14T12:37:46.000+01:00</time>
      </trkpt>
      <trkpt lat="48.39492" lon="-4.96253">
        <ele>19.1</ele>
        <time>2013-08-14T12:37:54.000+01:00</time>
      </trkpt>
      <trkpt lat="48.39496" lon="-4.96265">
        <ele>18.7</ele>
        <time>2013-08-14T12:38:03.000+01:00</time>
      </trkpt>
      <trkpt lat="48.39493" lon="-4.96263">
        <ele>20.1</ele>
        <time>2013-08-14T12:38:27.000+01:00</time>
      </trkpt>
      <trkpt lat="48.39498" lon="-4.96272">
        <ele>18.2</ele>
        <time>2013-08-14T12:38:45.000+01:00</time>
      </trkpt>
      <trkpt lat="48.39504" lon="-4.96283">
        <ele>17.7</ele>
        <time>2013-08-14T12:38:54.000+01:00</time>
      </trkpt>
      <trkpt lat="48.39504" lon="-4.96293">
        <ele>18</ele>
        <time>2013-08-14T12:39:24.000+01:00</time>
      </trkpt>
      <trkpt lat="48.39505" lon="-4.96298">
        <ele>17.9</ele>
        <time>2013-08-14T12:39:36.000+01:00</time>
      </trkpt>
      <trkpt lat="48.39503" lon="-4.96284">
        <ele>17.6</ele>
        <time>2013-08-14T12:39:44.000+01:00</time>
      </trkpt>
      <trkpt lat="48.39498" lon="-4.96274">
        <ele>17.9</ele>
        <time>2013-08-14T12:39:52.000+01:00</time>
      </trkpt>
      <trkpt lat="48.39493" lon="-4.96282">
        <ele>18.4</ele>
        <time>2013-08-14T12:40:01.000+01:00</time>
      </trkpt>
      <trkpt lat="48.39491" lon="-4.96296">
        <ele>18.4</ele>
        <time>2013-08-14T12:40:26.000+01:00</time>
      </trkpt>
      <trkpt lat="48.39488" lon="-4.96309">
        <ele>18.3</ele>
        <time>2013-08-14T12:40:34.000+01:00</time>
      </trkpt>
      <trkpt lat="48.39486" lon="-4.96324">
        <ele>17.4</ele>
        <time>2013-08-14T12:40:43.000+01:00</time>
      </trkpt>
      <trkpt lat="48.39483" lon="-4.96338">
        <ele>17.1</ele>
        <time>2013-08-14T12:40:51.000+01:00</time>
      </trkpt>
      <trkpt lat="48.39482" lon="-4.96352">
        <ele>16.4</ele>
        <time>2013-08-14T12:40:59.000+01:00</time>
      </trkpt>
      <trkpt lat="48.39478" lon="-4.96366">
        <ele>16.2</ele>
        <time>2013-08-14T12:41:07.000+01:00</time>
      </trkpt>
      <trkpt lat="48.3947" lon="-4.96373">
        <ele>16.5</ele>
        <time>2013-08-14T12:41:15.000+01:00</time>
      </trkpt>
      <trkpt lat="48.39461" lon="-4.96378">
        <ele>17</ele>
        <time>2013-08-14T12:41:23.000+01:00</time>
      </trkpt>
      <trkpt lat="48.3946" lon="-4.96388">
        <ele>16.5</ele>
        <time>2013-08-14T12:41:35.000+01:00</time>
      </trkpt>
      <trkpt lat="48.39464" lon="-4.964">
        <ele>15.3</ele>
        <time>2013-08-14T12:41:43.000+01:00</time>
      </trkpt>
      <trkpt lat="48.39471" lon="-4.9641">
        <ele>14</ele>
        <time>2013-08-14T12:41:51.000+01:00</time>
      </trkpt>
      <trkpt lat="48.39477" lon="-4.96421">
        <ele>13.3</ele>
        <time>2013-08-14T12:41:59.000+01:00</time>
      </trkpt>
      <trkpt lat="48.39483" lon="-4.96432">
        <ele>12.6</ele>
        <time>2013-08-14T12:42:07.000+01:00</time>
      </trkpt>
      <trkpt lat="48.39485" lon="-4.96444">
        <ele>11.9</ele>
        <time>2013-08-14T12:42:16.000+01:00</time>
      </trkpt>
      <trkpt lat="48.39476" lon="-4.96446">
        <ele>11</ele>
        <time>2013-08-14T12:42:26.000+01:00</time>
      </trkpt>
      <trkpt lat="48.39473" lon="-4.96446">
        <ele>11</ele>
        <time>2013-08-14T12:43:28.000+01:00</time>
      </trkpt>
      <trkpt lat="48.39464" lon="-4.96443">
        <ele>10.4</ele>
        <time>2013-08-14T12:43:40.000+01:00</time>
      </trkpt>
      <trkpt lat="48.39456" lon="-4.96438">
        <ele>9.8</ele>
        <time>2013-08-14T12:43:48.000+01:00</time>
      </trkpt>
      <trkpt lat="48.39447" lon="-4.96435">
        <ele>9.8</ele>
        <time>2013-08-14T12:43:57.000+01:00</time>
      </trkpt>
      <trkpt lat="48.39438" lon="-4.96432">
        <ele>9.4</ele>
        <time>2013-08-14T12:44:06.000+01:00</time>
      </trkpt>
      <trkpt lat="48.39429" lon="-4.96433">
        <ele>9.1</ele>
        <time>2013-08-14T12:44:21.000+01:00</time>
      </trkpt>
      <trkpt lat="48.39419" lon="-4.96432">
        <ele>9.3</ele>
        <time>2013-08-14T12:44:30.000+01:00</time>
      </trkpt>
      <trkpt lat="48.39409" lon="-4.9643">
        <ele>9</ele>
        <time>2013-08-14T12:44:39.000+01:00</time>
      </trkpt>
      <trkpt lat="48.39401" lon="-4.96426">
        <ele>9.1</ele>
        <time>2013-08-14T12:44:48.000+01:00</time>
      </trkpt>
      <trkpt lat="48.39391" lon="-4.96425">
        <ele>9.9</ele>
        <time>2013-08-14T12:44:59.000+01:00</time>
      </trkpt>
      <trkpt lat="48.39382" lon="-4.96425">
        <ele>9.8</ele>
        <time>2013-08-14T12:45:09.000+01:00</time>
      </trkpt>
      <trkpt lat="48.39373" lon="-4.96425">
        <ele>9.5</ele>
        <time>2013-08-14T12:45:22.000+01:00</time>
      </trkpt>
      <trkpt lat="48.39364" lon="-4.96426">
        <ele>9.5</ele>
        <time>2013-08-14T12:45:32.000+01:00</time>
      </trkpt>
      <trkpt lat="48.39355" lon="-4.96433">
        <ele>9.1</ele>
        <time>2013-08-14T12:45:40.000+01:00</time>
      </trkpt>
      <trkpt lat="48.39348" lon="-4.96442">
        <ele>9.3</ele>
        <time>2013-08-14T12:45:49.000+01:00</time>
      </trkpt>
      <trkpt lat="48.39343" lon="-4.96452">
        <ele>8.3</ele>
        <time>2013-08-14T12:46:02.000+01:00</time>
      </trkpt>
      <trkpt lat="48.39336" lon="-4.96462">
        <ele>7.9</ele>
        <time>2013-08-14T12:46:11.000+01:00</time>
      </trkpt>
      <trkpt lat="48.39326" lon="-4.96467">
        <ele>7.7</ele>
        <time>2013-08-14T12:46:21.000+01:00</time>
      </trkpt>
      <trkpt lat="48.39318" lon="-4.96469">
        <ele>9.5</ele>
        <time>2013-08-14T12:46:30.000+01:00</time>
      </trkpt>
      <trkpt lat="48.39308" lon="-4.96469">
        <ele>9.7</ele>
        <time>2013-08-14T12:46:40.000+01:00</time>
      </trkpt>
      <trkpt lat="48.39298" lon="-4.96469">
        <ele>9.4</ele>
        <time>2013-08-14T12:46:49.000+01:00</time>
      </trkpt>
      <trkpt lat="48.39289" lon="-4.96466">
        <ele>9.8</ele>
        <time>2013-08-14T12:47:03.000+01:00</time>
      </trkpt>
      <trkpt lat="48.3928" lon="-4.96462">
        <ele>9.8</ele>
        <time>2013-08-14T12:47:12.000+01:00</time>
      </trkpt>
      <trkpt lat="48.39272" lon="-4.96457">
        <ele>9.7</ele>
        <time>2013-08-14T12:47:21.000+01:00</time>
      </trkpt>
      <trkpt lat="48.39263" lon="-4.96452">
        <ele>7.9</ele>
        <time>2013-08-14T12:47:33.000+01:00</time>
      </trkpt>
      <trkpt lat="48.39255" lon="-4.96447">
        <ele>6.6</ele>
        <time>2013-08-14T12:47:43.000+01:00</time>
      </trkpt>
      <trkpt lat="48.39249" lon="-4.96436">
        <ele>7.8</ele>
        <time>2013-08-14T12:47:55.000+01:00</time>
      </trkpt>
      <trkpt lat="48.39243" lon="-4.96425">
        <ele>8.3</ele>
        <time>2013-08-14T12:48:05.000+01:00</time>
      </trkpt>
      <trkpt lat="48.39239" lon="-4.96414">
        <ele>7.6</ele>
        <time>2013-08-14T12:48:16.000+01:00</time>
      </trkpt>
      <trkpt lat="48.39232" lon="-4.96404">
        <ele>7.5</ele>
        <time>2013-08-14T12:48:24.000+01:00</time>
      </trkpt>
      <trkpt lat="48.39229" lon="-4.96392">
        <ele>8.5</ele>
        <time>2013-08-14T12:48:33.000+01:00</time>
      </trkpt>
      <trkpt lat="48.39224" lon="-4.9638">
        <ele>8.2</ele>
        <time>2013-08-14T12:48:42.000+01:00</time>
      </trkpt>
      <trkpt lat="48.39221" lon="-4.96369">
        <ele>7.6</ele>
        <time>2013-08-14T12:49:01.000+01:00</time>
      </trkpt>
      <trkpt lat="48.39216" lon="-4.96358">
        <ele>8.5</ele>
        <time>2013-08-14T12:49:14.000+01:00</time>
      </trkpt>
      <trkpt lat="48.39209" lon="-4.96349">
        <ele>7.5</ele>
        <time>2013-08-14T12:49:22.000+01:00</time>
      </trkpt>
      <trkpt lat="48.39202" lon="-4.96342">
        <ele>7</ele>
        <time>2013-08-14T12:49:30.000+01:00</time>
      </trkpt>
      <trkpt lat="48.39196" lon="-4.96331">
        <ele>6.4</ele>
        <time>2013-08-14T12:49:38.000+01:00</time>
      </trkpt>
      <trkpt lat="48.39191" lon="-4.96319">
        <ele>6.3</ele>
        <time>2013-08-14T12:49:46.000+01:00</time>
      </trkpt>
      <trkpt lat="48.39184" lon="-4.9631">
        <ele>5.4</ele>
        <time>2013-08-14T12:50:04.000+01:00</time>
      </trkpt>
      <trkpt lat="48.39186" lon="-4.96299">
        <ele>5.8</ele>
        <time>2013-08-14T12:50:15.000+01:00</time>
      </trkpt>
      <trkpt lat="48.39193" lon="-4.9629">
        <ele>8.7</ele>
        <time>2013-08-14T12:50:24.000+01:00</time>
      </trkpt>
      <trkpt lat="48.39194" lon="-4.96275">
        <ele>9.1</ele>
        <time>2013-08-14T12:50:34.000+01:00</time>
      </trkpt>
      <trkpt lat="48.39198" lon="-4.96264">
        <ele>8.5</ele>
        <time>2013-08-14T12:50:46.000+01:00</time>
      </trkpt>
      <trkpt lat="48.39199" lon="-4.96268">
        <ele>9.9</ele>
        <time>2013-08-14T12:51:20.000+01:00</time>
      </trkpt>
      <trkpt lat="48.39199" lon="-4.96268">
        <ele>8.9</ele>
        <time>2013-08-14T12:52:14.000+01:00</time>
      </trkpt>
      <trkpt lat="48.39194" lon="-4.96279">
        <ele>9.9</ele>
        <time>2013-08-14T12:52:35.000+01:00</time>
      </trkpt>
      <trkpt lat="48.39193" lon="-4.96293">
        <ele>9.7</ele>
        <time>2013-08-14T12:52:44.000+01:00</time>
      </trkpt>
      <trkpt lat="48.39194" lon="-4.96292">
        <ele>11.1</ele>
        <time>2013-08-14T12:53:18.000+01:00</time>
      </trkpt>
      <trkpt lat="48.39186" lon="-4.963">
        <ele>8.9</ele>
        <time>2013-08-14T12:53:27.000+01:00</time>
      </trkpt>
      <trkpt lat="48.39177" lon="-4.96298">
        <ele>8.3</ele>
        <time>2013-08-14T12:53:35.000+01:00</time>
      </trkpt>
      <trkpt lat="48.39169" lon="-4.9629">
        <ele>8.3</ele>
        <time>2013-08-14T12:53:43.000+01:00</time>
      </trkpt>
      <trkpt lat="48.3916" lon="-4.96283">
        <ele>7.2</ele>
        <time>2013-08-14T12:53:51.000+01:00</time>
      </trkpt>
      <trkpt lat="48.39156" lon="-4.96271">
        <ele>7</ele>
        <time>2013-08-14T12:54:04.000+01:00</time>
      </trkpt>
      <trkpt lat="48.39153" lon="-4.96262">
        <ele>6.3</ele>
        <time>2013-08-14T12:54:36.000+01:00</time>
      </trkpt>
      <trkpt lat="48.3915" lon="-4.96251">
        <ele>6.7</ele>
        <time>2013-08-14T12:54:54.000+01:00</time>
      </trkpt>
      <trkpt lat="48.39147" lon="-4.96239">
        <ele>7.5</ele>
        <time>2013-08-14T12:55:09.000+01:00</time>
      </trkpt>
      <trkpt lat="48.39144" lon="-4.96227">
        <ele>7.7</ele>
        <time>2013-08-14T12:55:23.000+01:00</time>
      </trkpt>
      <trkpt lat="48.3914" lon="-4.96217">
        <ele>8.4</ele>
        <time>2013-08-14T12:55:43.000+01:00</time>
      </trkpt>
      <trkpt lat="48.39136" lon="-4.96204">
        <ele>9.1</ele>
        <time>2013-08-14T12:55:53.000+01:00</time>
      </trkpt>
      <trkpt lat="48.39133" lon="-4.96192">
        <ele>9.2</ele>
        <time>2013-08-14T12:56:17.000+01:00</time>
      </trkpt>
      <trkpt lat="48.39129" lon="-4.96181">
        <ele>9.1</ele>
        <time>2013-08-14T12:56:27.000+01:00</time>
      </trkpt>
      <trkpt lat="48.39125" lon="-4.96167">
        <ele>9.9</ele>
        <time>2013-08-14T12:56:38.000+01:00</time>
      </trkpt>
      <trkpt lat="48.39121" lon="-4.96155">
        <ele>10.2</ele>
        <time>2013-08-14T12:56:46.000+01:00</time>
      </trkpt>
      <trkpt lat="48.39117" lon="-4.96141">
        <ele>10.6</ele>
        <time>2013-08-14T12:56:55.000+01:00</time>
      </trkpt>
      <trkpt lat="48.39113" lon="-4.96128">
        <ele>10.4</ele>
        <time>2013-08-14T12:57:06.000+01:00</time>
      </trkpt>
      <trkpt lat="48.3911" lon="-4.96115">
        <ele>10.2</ele>
        <time>2013-08-14T12:57:17.000+01:00</time>
      </trkpt>
      <trkpt lat="48.39107" lon="-4.96103">
        <ele>9.6</ele>
        <time>2013-08-14T12:57:32.000+01:00</time>
      </trkpt>
      <trkpt lat="48.39102" lon="-4.96091">
        <ele>9.2</ele>
        <time>2013-08-14T12:57:40.000+01:00</time>
      </trkpt>
      <trkpt lat="48.39097" lon="-4.96079">
        <ele>8.6</ele>
        <time>2013-08-14T12:57:48.000+01:00</time>
      </trkpt>
      <trkpt lat="48.39093" lon="-4.96066">
        <ele>9</ele>
        <time>2013-08-14T12:57:56.000+01:00</time>
      </trkpt>
      <trkpt lat="48.39087" lon="-4.96054">
        <ele>8.2</ele>
        <time>2013-08-14T12:58:05.000+01:00</time>
      </trkpt>
      <trkpt lat="48.39086" lon="-4.96043">
        <ele>7.8</ele>
        <time>2013-08-14T12:58:17.000+01:00</time>
      </trkpt>
      <trkpt lat="48.39083" lon="-4.96031">
        <ele>8.2</ele>
        <time>2013-08-14T12:58:47.000+01:00</time>
      </trkpt>
      <trkpt lat="48.39081" lon="-4.96017">
        <ele>8.3</ele>
        <time>2013-08-14T12:58:56.000+01:00</time>
      </trkpt>
      <trkpt lat="48.39078" lon="-4.96005">
        <ele>9.1</ele>
        <time>2013-08-14T12:59:06.000+01:00</time>
      </trkpt>
      <trkpt lat="48.39077" lon="-4.95994">
        <ele>8.1</ele>
        <time>2013-08-14T12:59:36.000+01:00</time>
      </trkpt>
      <trkpt lat="48.39075" lon="-4.95981">
        <ele>9.4</ele>
        <time>2013-08-14T12:59:44.000+01:00</time>
      </trkpt>
      <trkpt lat="48.39075" lon="-4.95966">
        <ele>9.5</ele>
        <time>2013-08-14T12:59:53.000+01:00</time>
      </trkpt>
      <trkpt lat="48.3907" lon="-4.95953">
        <ele>8.7</ele>
        <time>2013-08-14T13:00:01.000+01:00</time>
      </trkpt>
      <trkpt lat="48.39067" lon="-4.95939">
        <ele>8.6</ele>
        <time>2013-08-14T13:00:10.000+01:00</time>
      </trkpt>
      <trkpt lat="48.39061" lon="-4.95929">
        <ele>8.7</ele>
        <time>2013-08-14T13:00:18.000+01:00</time>
      </trkpt>
      <trkpt lat="48.39055" lon="-4.95919">
        <ele>8.7</ele>
        <time>2013-08-14T13:00:26.000+01:00</time>
      </trkpt>
      <trkpt lat="48.39051" lon="-4.95912">
        <ele>8.3</ele>
        <time>2013-08-14T13:01:22.000+01:00</time>
      </trkpt>
      <trkpt lat="48.39043" lon="-4.95914">
        <ele>7.5</ele>
        <time>2013-08-14T13:01:34.000+01:00</time>
      </trkpt>
      <trkpt lat="48.39039" lon="-4.95913">
        <ele>6.8</ele>
        <time>2013-08-14T13:01:52.000+01:00</time>
      </trkpt>
      <trkpt lat="48.39046" lon="-4.95901">
        <ele>7.1</ele>
        <time>2013-08-14T13:02:01.000+01:00</time>
      </trkpt>
      <trkpt lat="48.39046" lon="-4.95888">
        <ele>6.8</ele>
        <time>2013-08-14T13:02:17.000+01:00</time>
      </trkpt>
      <trkpt lat="48.39048" lon="-4.95883">
        <ele>6.3</ele>
        <time>2013-08-14T13:02:51.000+01:00</time>
      </trkpt>
      <trkpt lat="48.39052" lon="-4.95872">
        <ele>6.3</ele>
        <time>2013-08-14T13:03:15.000+01:00</time>
      </trkpt>
      <trkpt lat="48.39057" lon="-4.95862">
        <ele>6.9</ele>
        <time>2013-08-14T13:03:31.000+01:00</time>
      </trkpt>
      <trkpt lat="48.39063" lon="-4.95852">
        <ele>7</ele>
        <time>2013-08-14T13:03:40.000+01:00</time>
      </trkpt>
      <trkpt lat="48.39069" lon="-4.95841">
        <ele>7.3</ele>
        <time>2013-08-14T13:03:49.000+01:00</time>
      </trkpt>
      <trkpt lat="48.39076" lon="-4.9583">
        <ele>7.7</ele>
        <time>2013-08-14T13:04:00.000+01:00</time>
      </trkpt>
      <trkpt lat="48.39081" lon="-4.95821">
        <ele>8</ele>
        <time>2013-08-14T13:04:14.000+01:00</time>
      </trkpt>
      <trkpt lat="48.39087" lon="-4.95809">
        <ele>8.1</ele>
        <time>2013-08-14T13:04:22.000+01:00</time>
      </trkpt>
      <trkpt lat="48.39089" lon="-4.95799">
        <ele>8.5</ele>
        <time>2013-08-14T13:04:42.000+01:00</time>
      </trkpt>
      <trkpt lat="48.3909" lon="-4.95786">
        <ele>8.3</ele>
        <time>2013-08-14T13:04:51.000+01:00</time>
      </trkpt>
      <trkpt lat="48.39094" lon="-4.95772">
        <ele>9</ele>
        <time>2013-08-14T13:05:00.000+01:00</time>
      </trkpt>
      <trkpt lat="48.391" lon="-4.95772">
        <ele>8.1</ele>
        <time>2013-08-14T13:05:26.000+01:00</time>
      </trkpt>
      <trkpt lat="48.391" lon="-4.95768">
        <ele>7.2</ele>
        <time>2013-08-14T13:07:12.000+01:00</time>
      </trkpt>
      <trkpt lat="48.39108" lon="-4.95761">
        <ele>7.3</ele>
        <time>2013-08-14T13:07:21.000+01:00</time>
      </trkpt>
      <trkpt lat="48.39118" lon="-4.95758">
        <ele>7.2</ele>
        <time>2013-08-14T13:07:29.000+01:00</time>
      </trkpt>
      <trkpt lat="48.39127" lon="-4.95756">
        <ele>7.1</ele>
        <time>2013-08-14T13:07:39.000+01:00</time>
      </trkpt>
      <trkpt lat="48.39137" lon="-4.95753">
        <ele>7.1</ele>
        <time>2013-08-14T13:07:47.000+01:00</time>
      </trkpt>
      <trkpt lat="48.39146" lon="-4.95748">
        <ele>7</ele>
        <time>2013-08-14T13:07:55.000+01:00</time>
      </trkpt>
      <trkpt lat="48.39155" lon="-4.95744">
        <ele>7</ele>
        <time>2013-08-14T13:08:03.000+01:00</time>
      </trkpt>
      <trkpt lat="48.39163" lon="-4.95737">
        <ele>7</ele>
        <time>2013-08-14T13:08:11.000+01:00</time>
      </trkpt>
      <trkpt lat="48.39171" lon="-4.95729">
        <ele>7.2</ele>
        <time>2013-08-14T13:08:19.000+01:00</time>
      </trkpt>
      <trkpt lat="48.39179" lon="-4.9572">
        <ele>7.2</ele>
        <time>2013-08-14T13:08:27.000+01:00</time>
      </trkpt>
      <trkpt lat="48.39187" lon="-4.95713">
        <ele>7.5</ele>
        <time>2013-08-14T13:08:36.000+01:00</time>
      </trkpt>
      <trkpt lat="48.39195" lon="-4.95721">
        <ele>8.1</ele>
        <time>2013-08-14T13:08:45.000+01:00</time>
      </trkpt>
      <trkpt lat="48.39202" lon="-4.95723">
        <ele>11.4</ele>
        <time>2013-08-14T13:08:58.000+01:00</time>
      </trkpt>
      <trkpt lat="48.39198" lon="-4.9572">
        <ele>10</ele>
        <time>2013-08-14T13:09:40.000+01:00</time>
      </trkpt>
      <trkpt lat="48.392" lon="-4.95715">
        <ele>10</ele>
        <time>2013-08-14T13:09:57.000+01:00</time>
      </trkpt>
      <trkpt lat="48.392" lon="-4.95704">
        <ele>9</ele>
        <time>2013-08-14T13:10:06.000+01:00</time>
      </trkpt>
      <trkpt lat="48.39204" lon="-4.95698">
        <ele>9.4</ele>
        <time>2013-08-14T13:10:16.000+01:00</time>
      </trkpt>
      <trkpt lat="48.39212" lon="-4.95692">
        <ele>9.5</ele>
        <time>2013-08-14T13:10:29.000+01:00</time>
      </trkpt>
      <trkpt lat="48.39218" lon="-4.95681">
        <ele>10</ele>
        <time>2013-08-14T13:10:45.000+01:00</time>
      </trkpt>
      <trkpt lat="48.39225" lon="-4.95671">
        <ele>10.9</ele>
        <time>2013-08-14T13:10:59.000+01:00</time>
      </trkpt>
      <trkpt lat="48.39229" lon="-4.9566">
        <ele>11.3</ele>
        <time>2013-08-14T13:11:07.000+01:00</time>
      </trkpt>
      <trkpt lat="48.39236" lon="-4.9565">
        <ele>11.9</ele>
        <time>2013-08-14T13:11:25.000+01:00</time>
      </trkpt>
      <trkpt lat="48.39242" lon="-4.95639">
        <ele>12.5</ele>
        <time>2013-08-14T13:11:33.000+01:00</time>
      </trkpt>
      <trkpt lat="48.39249" lon="-4.95629">
        <ele>12.9</ele>
        <time>2013-08-14T13:11:42.000+01:00</time>
      </trkpt>
      <trkpt lat="48.39254" lon="-4.95617">
        <ele>13.5</ele>
        <time>2013-08-14T13:11:51.000+01:00</time>
      </trkpt>
      <trkpt lat="48.39261" lon="-4.95608">
        <ele>14</ele>
        <time>2013-08-14T13:12:00.000+01:00</time>
      </trkpt>
      <trkpt lat="48.39272" lon="-4.95603">
        <ele>14.5</ele>
        <time>2013-08-14T13:12:13.000+01:00</time>
      </trkpt>
      <trkpt lat="48.39268" lon="-4.956">
        <ele>13.3</ele>
        <time>2013-08-14T13:12:45.000+01:00</time>
      </trkpt>
      <trkpt lat="48.39261" lon="-4.95595">
        <ele>12</ele>
        <time>2013-08-14T13:12:55.000+01:00</time>
      </trkpt>
      <trkpt lat="48.39262" lon="-4.95596">
        <ele>10.5</ele>
        <time>2013-08-14T13:13:51.000+01:00</time>
      </trkpt>
      <trkpt lat="48.3926" lon="-4.95582">
        <ele>11.4</ele>
        <time>2013-08-14T13:14:03.000+01:00</time>
      </trkpt>
      <trkpt lat="48.39255" lon="-4.9557">
        <ele>11.5</ele>
        <time>2013-08-14T13:14:13.000+01:00</time>
      </trkpt>
      <trkpt lat="48.39251" lon="-4.95557">
        <ele>10.9</ele>
        <time>2013-08-14T13:14:24.000+01:00</time>
      </trkpt>
      <trkpt lat="48.39248" lon="-4.95545">
        <ele>10.8</ele>
        <time>2013-08-14T13:14:33.000+01:00</time>
      </trkpt>
      <trkpt lat="48.39246" lon="-4.95532">
        <ele>10.3</ele>
        <time>2013-08-14T13:14:41.000+01:00</time>
      </trkpt>
      <trkpt lat="48.39245" lon="-4.95518">
        <ele>9.8</ele>
        <time>2013-08-14T13:14:49.000+01:00</time>
      </trkpt>
      <trkpt lat="48.39244" lon="-4.95504">
        <ele>8.9</ele>
        <time>2013-08-14T13:14:59.000+01:00</time>
      </trkpt>
      <trkpt lat="48.39249" lon="-4.95491">
        <ele>8.6</ele>
        <time>2013-08-14T13:15:08.000+01:00</time>
      </trkpt>
      <trkpt lat="48.39256" lon="-4.95481">
        <ele>8.6</ele>
        <time>2013-08-14T13:15:19.000+01:00</time>
      </trkpt>
      <trkpt lat="48.39264" lon="-4.95474">
        <ele>8.7</ele>
        <time>2013-08-14T13:15:29.000+01:00</time>
      </trkpt>
      <trkpt lat="48.39272" lon="-4.95468">
        <ele>8.8</ele>
        <time>2013-08-14T13:15:39.000+01:00</time>
      </trkpt>
      <trkpt lat="48.39281" lon="-4.95462">
        <ele>9.1</ele>
        <time>2013-08-14T13:15:49.000+01:00</time>
      </trkpt>
      <trkpt lat="48.3929" lon="-4.95457">
        <ele>9.2</ele>
        <time>2013-08-14T13:16:00.000+01:00</time>
      </trkpt>
      <trkpt lat="48.39299" lon="-4.95451">
        <ele>8.9</ele>
        <time>2013-08-14T13:16:09.000+01:00</time>
      </trkpt>
      <trkpt lat="48.39307" lon="-4.95443">
        <ele>8.4</ele>
        <time>2013-08-14T13:16:18.000+01:00</time>
      </trkpt>
      <trkpt lat="48.39314" lon="-4.95434">
        <ele>8.2</ele>
        <time>2013-08-14T13:16:26.000+01:00</time>
      </trkpt>
      <trkpt lat="48.3932" lon="-4.95424">
        <ele>8.2</ele>
        <time>2013-08-14T13:16:35.000+01:00</time>
      </trkpt>
      <trkpt lat="48.39326" lon="-4.95413">
        <ele>8.3</ele>
        <time>2013-08-14T13:16:43.000+01:00</time>
      </trkpt>
      <trkpt lat="48.39332" lon="-4.95402">
        <ele>8.5</ele>
        <time>2013-08-14T13:16:53.000+01:00</time>
      </trkpt>
      <trkpt lat="48.39336" lon="-4.95393">
        <ele>8.5</ele>
        <time>2013-08-14T13:17:07.000+01:00</time>
      </trkpt>
      <trkpt lat="48.39334" lon="-4.95392">
        <ele>6.2</ele>
        <time>2013-08-14T13:19:17.000+01:00</time>
      </trkpt>
      <trkpt lat="48.39334" lon="-4.9539">
        <ele>7.4</ele>
        <time>2013-08-14T13:21:04.000+01:00</time>
      </trkpt>
      <trkpt lat="48.3934" lon="-4.954">
        <ele>8.8</ele>
        <time>2013-08-14T13:21:14.000+01:00</time>
      </trkpt>
      <trkpt lat="48.39349" lon="-4.95403">
        <ele>10.1</ele>
        <time>2013-08-14T13:21:24.000+01:00</time>
      </trkpt>
      <trkpt lat="48.39351" lon="-4.95404">
        <ele>7.5</ele>
        <time>2013-08-14T13:21:39.000+01:00</time>
      </trkpt>
      <trkpt lat="48.39351" lon="-4.95409">
        <ele>8.3</ele>
        <time>2013-08-14T13:22:14.000+01:00</time>
      </trkpt>
      <trkpt lat="48.39354" lon="-4.95409">
        <ele>7.7</ele>
        <time>2013-08-14T13:22:35.000+01:00</time>
      </trkpt>
      <trkpt lat="48.39363" lon="-4.95406">
        <ele>9.4</ele>
        <time>2013-08-14T13:22:44.000+01:00</time>
      </trkpt>
      <trkpt lat="48.39372" lon="-4.95406">
        <ele>11.2</ele>
        <time>2013-08-14T13:22:54.000+01:00</time>
      </trkpt>
      <trkpt lat="48.39382" lon="-4.95406">
        <ele>10.9</ele>
        <time>2013-08-14T13:23:05.000+01:00</time>
      </trkpt>
      <trkpt lat="48.39391" lon="-4.95405">
        <ele>11</ele>
        <time>2013-08-14T13:23:14.000+01:00</time>
      </trkpt>
      <trkpt lat="48.39401" lon="-4.95404">
        <ele>12.2</ele>
        <time>2013-08-14T13:23:23.000+01:00</time>
      </trkpt>
      <trkpt lat="48.39411" lon="-4.95402">
        <ele>11.7</ele>
        <time>2013-08-14T13:23:32.000+01:00</time>
      </trkpt>
      <trkpt lat="48.3942" lon="-4.95402">
        <ele>12.1</ele>
        <time>2013-08-14T13:23:41.000+01:00</time>
      </trkpt>
      <trkpt lat="48.3943" lon="-4.95401">
        <ele>12.3</ele>
        <time>2013-08-14T13:23:50.000+01:00</time>
      </trkpt>
      <trkpt lat="48.39439" lon="-4.95399">
        <ele>11.9</ele>
        <time>2013-08-14T13:23:59.000+01:00</time>
      </trkpt>
      <trkpt lat="48.39447" lon="-4.95402">
        <ele>11.6</ele>
        <time>2013-08-14T13:24:11.000+01:00</time>
      </trkpt>
      <trkpt lat="48.39457" lon="-4.95406">
        <ele>10.2</ele>
        <time>2013-08-14T13:24:21.000+01:00</time>
      </trkpt>
      <trkpt lat="48.39466" lon="-4.95406">
        <ele>9.2</ele>
        <time>2013-08-14T13:24:37.000+01:00</time>
      </trkpt>
      <trkpt lat="48.39473" lon="-4.95406">
        <ele>8.4</ele>
        <time>2013-08-14T13:25:10.000+01:00</time>
      </trkpt>
      <trkpt lat="48.39479" lon="-4.95408">
        <ele>9.1</ele>
        <time>2013-08-14T13:25:33.000+01:00</time>
      </trkpt>
      <trkpt lat="48.39489" lon="-4.95409">
        <ele>8.5</ele>
        <time>2013-08-14T13:25:41.000+01:00</time>
      </trkpt>
      <trkpt lat="48.39498" lon="-4.95411">
        <ele>8.2</ele>
        <time>2013-08-14T13:25:49.000+01:00</time>
      </trkpt>
      <trkpt lat="48.39508" lon="-4.95411">
        <ele>8.4</ele>
        <time>2013-08-14T13:25:58.000+01:00</time>
      </trkpt>
      <trkpt lat="48.39518" lon="-4.95411">
        <ele>9.1</ele>
        <time>2013-08-14T13:26:10.000+01:00</time>
      </trkpt>
      <trkpt lat="48.39527" lon="-4.95413">
        <ele>8.8</ele>
        <time>2013-08-14T13:26:19.000+01:00</time>
      </trkpt>
      <trkpt lat="48.39536" lon="-4.95415">
        <ele>8.2</ele>
        <time>2013-08-14T13:26:27.000+01:00</time>
      </trkpt>
      <trkpt lat="48.39545" lon="-4.95418">
        <ele>8.1</ele>
        <time>2013-08-14T13:26:39.000+01:00</time>
      </trkpt>
      <trkpt lat="48.39555" lon="-4.9542">
        <ele>7.8</ele>
        <time>2013-08-14T13:26:47.000+01:00</time>
      </trkpt>
      <trkpt lat="48.39564" lon="-4.95422">
        <ele>8.3</ele>
        <time>2013-08-14T13:26:58.000+01:00</time>
      </trkpt>
      <trkpt lat="48.39574" lon="-4.95424">
        <ele>8.8</ele>
        <time>2013-08-14T13:27:08.000+01:00</time>
      </trkpt>
      <trkpt lat="48.39582" lon="-4.95426">
        <ele>8.5</ele>
        <time>2013-08-14T13:27:25.000+01:00</time>
      </trkpt>
      <trkpt lat="48.39588" lon="-4.95438">
        <ele>8.4</ele>
        <time>2013-08-14T13:27:35.000+01:00</time>
      </trkpt>
      <trkpt lat="48.39586" lon="-4.95452">
        <ele>8.7</ele>
        <time>2013-08-14T13:27:44.000+01:00</time>
      </trkpt>
      <trkpt lat="48.39584" lon="-4.95465">
        <ele>9.9</ele>
        <time>2013-08-14T13:27:53.000+01:00</time>
      </trkpt>
      <trkpt lat="48.39589" lon="-4.95475">
        <ele>8.7</ele>
        <time>2013-08-14T13:28:04.000+01:00</time>
      </trkpt>
      <trkpt lat="48.39597" lon="-4.9547">
        <ele>8.8</ele>
        <time>2013-08-14T13:28:16.000+01:00</time>
      </trkpt>
      <trkpt lat="48.39603" lon="-4.95461">
        <ele>10.1</ele>
        <time>2013-08-14T13:28:34.000+01:00</time>
      </trkpt>
      <trkpt lat="48.39609" lon="-4.95456">
        <ele>7.5</ele>
        <time>2013-08-14T13:29:05.000+01:00</time>
      </trkpt>
      <trkpt lat="48.39602" lon="-4.95463">
        <ele>6.2</ele>
        <time>2013-08-14T13:29:25.000+01:00</time>
      </trkpt>
      <trkpt lat="48.396" lon="-4.95474">
        <ele>10.8</ele>
        <time>2013-08-14T13:29:47.000+01:00</time>
      </trkpt>
      <trkpt lat="48.39605" lon="-4.95486">
        <ele>10.9</ele>
        <time>2013-08-14T13:29:55.000+01:00</time>
      </trkpt>
      <trkpt lat="48.39607" lon="-4.955">
        <ele>15.9</ele>
        <time>2013-08-14T13:30:05.000+01:00</time>
      </trkpt>
      <trkpt lat="48.39612" lon="-4.95512">
        <ele>16.3</ele>
        <time>2013-08-14T13:30:14.000+01:00</time>
      </trkpt>
      <trkpt lat="48.39614" lon="-4.95525">
        <ele>16.9</ele>
        <time>2013-08-14T13:30:25.000+01:00</time>
      </trkpt>
      <trkpt lat="48.39619" lon="-4.95535">
        <ele>13.1</ele>
        <time>2013-08-14T13:30:43.000+01:00</time>
      </trkpt>
      <trkpt lat="48.39622" lon="-4.95544">
        <ele>8.8</ele>
        <time>2013-08-14T13:31:33.000+01:00</time>
      </trkpt>
      <trkpt lat="48.39614" lon="-4.95548">
        <ele>9.5</ele>
        <time>2013-08-14T13:31:47.000+01:00</time>
      </trkpt>
      <trkpt lat="48.39605" lon="-4.95554">
        <ele>10.1</ele>
        <time>2013-08-14T13:31:56.000+01:00</time>
      </trkpt>
      <trkpt lat="48.39596" lon="-4.95559">
        <ele>11.2</ele>
        <time>2013-08-14T13:32:04.000+01:00</time>
      </trkpt>
      <trkpt lat="48.39587" lon="-4.95565">
        <ele>10.2</ele>
        <time>2013-08-14T13:32:12.000+01:00</time>
      </trkpt>
      <trkpt lat="48.39579" lon="-4.9557">
        <ele>10.6</ele>
        <time>2013-08-14T13:32:21.000+01:00</time>
      </trkpt>
      <trkpt lat="48.39571" lon="-4.9557">
        <ele>9.4</ele>
        <time>2013-08-14T13:32:39.000+01:00</time>
      </trkpt>
      <trkpt lat="48.39575" lon="-4.95568">
        <ele>10.2</ele>
        <time>2013-08-14T13:33:02.000+01:00</time>
      </trkpt>
      <trkpt lat="48.39584" lon="-4.95564">
        <ele>14.7</ele>
        <time>2013-08-14T13:33:14.000+01:00</time>
      </trkpt>
      <trkpt lat="48.39593" lon="-4.95563">
        <ele>10.3</ele>
        <time>2013-08-14T13:33:36.000+01:00</time>
      </trkpt>
      <trkpt lat="48.39597" lon="-4.95561">
        <ele>14.2</ele>
        <time>2013-08-14T13:34:03.000+01:00</time>
      </trkpt>
      <trkpt lat="48.39599" lon="-4.95562">
        <ele>8.4</ele>
        <time>2013-08-14T13:34:45.000+01:00</time>
      </trkpt>
      <trkpt lat="48.39603" lon="-4.95566">
        <ele>0.9</ele>
        <time>2013-08-14T13:35:18.000+01:00</time>
      </trkpt>
      <trkpt lat="48.39597" lon="-4.95561">
        <ele>4.4</ele>
        <time>2013-08-14T13:35:35.000+01:00</time>
      </trkpt>
      <trkpt lat="48.39593" lon="-4.95563">
        <ele>6.5</ele>
        <time>2013-08-14T13:36:13.000+01:00</time>
      </trkpt>
      <trkpt lat="48.39583" lon="-4.95566">
        <ele>7.3</ele>
        <time>2013-08-14T13:36:21.000+01:00</time>
      </trkpt>
      <trkpt lat="48.39578" lon="-4.95572">
        <ele>9.2</ele>
        <time>2013-08-14T13:36:39.000+01:00</time>
      </trkpt>
      <trkpt lat="48.39574" lon="-4.95573">
        <ele>8.4</ele>
        <time>2013-08-14T13:36:59.000+01:00</time>
      </trkpt>
      <trkpt lat="48.39569" lon="-4.95568">
        <ele>16.2</ele>
        <time>2013-08-14T13:37:20.000+01:00</time>
      </trkpt>
      <trkpt lat="48.39565" lon="-4.95563">
        <ele>22.6</ele>
        <time>2013-08-14T13:37:39.000+01:00</time>
      </trkpt>
      <trkpt lat="48.39569" lon="-4.95563">
        <ele>17.7</ele>
        <time>2013-08-14T13:38:08.000+01:00</time>
      </trkpt>
      <trkpt lat="48.39569" lon="-4.9557">
        <ele>14.6</ele>
        <time>2013-08-14T13:38:41.000+01:00</time>
      </trkpt>
      <trkpt lat="48.39565" lon="-4.95576">
        <ele>19.1</ele>
        <time>2013-08-14T13:38:57.000+01:00</time>
      </trkpt>
      <trkpt lat="48.39563" lon="-4.95584">
        <ele>19.2</ele>
        <time>2013-08-14T13:39:13.000+01:00</time>
      </trkpt>
      <trkpt lat="48.39559" lon="-4.95598">
        <ele>15.8</ele>
        <time>2013-08-14T13:39:21.000+01:00</time>
      </trkpt>
      <trkpt lat="48.39554" lon="-4.95609">
        <ele>14.6</ele>
        <time>2013-08-14T13:39:29.000+01:00</time>
      </trkpt>
      <trkpt lat="48.39553" lon="-4.95622">
        <ele>13.6</ele>
        <time>2013-08-14T13:39:38.000+01:00</time>
      </trkpt>
      <trkpt lat="48.3955" lon="-4.95632">
        <ele>21.1</ele>
        <time>2013-08-14T13:39:53.000+01:00</time>
      </trkpt>
      <trkpt lat="48.39548" lon="-4.95645">
        <ele>25.2</ele>
        <time>2013-08-14T13:40:04.000+01:00</time>
      </trkpt>
      <trkpt lat="48.39548" lon="-4.95657">
        <ele>19.4</ele>
        <time>2013-08-14T13:40:19.000+01:00</time>
      </trkpt>
      <trkpt lat="48.39547" lon="-4.95667">
        <ele>17.6</ele>
        <time>2013-08-14T13:40:38.000+01:00</time>
      </trkpt>
      <trkpt lat="48.39544" lon="-4.95678">
        <ele>21.2</ele>
        <time>2013-08-14T13:40:53.000+01:00</time>
      </trkpt>
      <trkpt lat="48.39544" lon="-4.9569">
        <ele>24.3</ele>
        <time>2013-08-14T13:41:10.000+01:00</time>
      </trkpt>
      <trkpt lat="48.39545" lon="-4.95705">
        <ele>18.9</ele>
        <time>2013-08-14T13:41:19.000+01:00</time>
      </trkpt>
      <trkpt lat="48.39545" lon="-4.95719">
        <ele>14.8</ele>
        <time>2013-08-14T13:41:29.000+01:00</time>
      </trkpt>
      <trkpt lat="48.39546" lon="-4.95729">
        <ele>12.1</ele>
        <time>2013-08-14T13:41:54.000+01:00</time>
      </trkpt>
      <trkpt lat="48.39548" lon="-4.9572">
        <ele>15.4</ele>
        <time>2013-08-14T13:42:12.000+01:00</time>
      </trkpt>
      <trkpt lat="48.39548" lon="-4.95728">
        <ele>14.6</ele>
        <time>2013-08-14T13:42:30.000+01:00</time>
      </trkpt>
      <trkpt lat="48.39543" lon="-4.95739">
        <ele>17.4</ele>
        <time>2013-08-14T13:42:40.000+01:00</time>
      </trkpt>
      <trkpt lat="48.3954" lon="-4.95752">
        <ele>18.2</ele>
        <time>2013-08-14T13:42:53.000+01:00</time>
      </trkpt>
      <trkpt lat="48.39537" lon="-4.95765">
        <ele>19.1</ele>
        <time>2013-08-14T13:43:02.000+01:00</time>
      </trkpt>
      <trkpt lat="48.39541" lon="-4.95779">
        <ele>17.5</ele>
        <time>2013-08-14T13:43:11.000+01:00</time>
      </trkpt>
      <trkpt lat="48.3954" lon="-4.95791">
        <ele>17.9</ele>
        <time>2013-08-14T13:43:26.000+01:00</time>
      </trkpt>
      <trkpt lat="48.39537" lon="-4.95811">
        <ele>18.8</ele>
        <time>2013-08-14T13:44:18.000+01:00</time>
      </trkpt>
      <trkpt lat="48.39536" lon="-4.95826">
        <ele>19.6</ele>
        <time>2013-08-14T13:44:28.000+01:00</time>
      </trkpt>
      <trkpt lat="48.39536" lon="-4.95839">
        <ele>19.7</ele>
        <time>2013-08-14T13:44:37.000+01:00</time>
      </trkpt>
      <trkpt lat="48.39534" lon="-4.95852">
        <ele>22.2</ele>
        <time>2013-08-14T13:44:49.000+01:00</time>
      </trkpt>
      <trkpt lat="48.39529" lon="-4.95864">
        <ele>22.6</ele>
        <time>2013-08-14T13:44:59.000+01:00</time>
      </trkpt>
      <trkpt lat="48.39524" lon="-4.95871">
        <ele>30.4</ele>
        <time>2013-08-14T13:45:09.000+01:00</time>
      </trkpt>
      <trkpt lat="48.39521" lon="-4.95884">
        <ele>32.7</ele>
        <time>2013-08-14T13:45:19.000+01:00</time>
      </trkpt>
      <trkpt lat="48.39523" lon="-4.95898">
        <ele>30.1</ele>
        <time>2013-08-14T13:45:26.000+01:00</time>
      </trkpt>
      <trkpt lat="48.39523" lon="-4.95911">
        <ele>28.5</ele>
        <time>2013-08-14T13:45:34.000+01:00</time>
      </trkpt>
      <trkpt lat="48.39522" lon="-4.95923">
        <ele>25.7</ele>
        <time>2013-08-14T13:45:48.000+01:00</time>
      </trkpt>
      <trkpt lat="48.39519" lon="-4.95927">
        <ele>21.8</ele>
        <time>2013-08-14T13:46:38.000+01:00</time>
      </trkpt>
      <trkpt lat="48.39515" lon="-4.9593">
        <ele>16.6</ele>
        <time>2013-08-14T13:47:14.000+01:00</time>
      </trkpt>
      <trkpt lat="48.39517" lon="-4.95923">
        <ele>28.3</ele>
        <time>2013-08-14T13:57:19.000+01:00</time>
      </trkpt>
      <trkpt lat="48.3952" lon="-4.95916">
        <ele>14.6</ele>
        <time>2013-08-14T13:57:21.000+01:00</time>
      </trkpt>
      <trkpt lat="48.39518" lon="-4.9592">
        <ele>17.2</ele>
        <time>2013-08-14T13:57:24.000+01:00</time>
      </trkpt>
      <trkpt lat="48.39515" lon="-4.95921">
        <ele>15.5</ele>
        <time>2013-08-14T13:57:31.000+01:00</time>
      </trkpt>
      <trkpt lat="48.3952" lon="-4.95923">
        <ele>26.2</ele>
        <time>2013-08-14T13:58:04.000+01:00</time>
      </trkpt>
      <trkpt lat="48.3952" lon="-4.95921">
        <ele>32.3</ele>
        <time>2013-08-14T13:58:39.000+01:00</time>
      </trkpt>
      <trkpt lat="48.3952" lon="-4.95921">
        <ele>23.6</ele>
        <time>2013-08-14T13:59:21.000+01:00</time>
      </trkpt>
      <trkpt lat="48.39519" lon="-4.95927">
        <ele>22.2</ele>
        <time>2013-08-14T13:59:53.000+01:00</time>
      </trkpt>
      <trkpt lat="48.39514" lon="-4.95934">
        <ele>22.5</ele>
        <time>2013-08-14T14:00:24.000+01:00</time>
      </trkpt>
      <trkpt lat="48.3951" lon="-4.95937">
        <ele>23.8</ele>
        <time>2013-08-14T14:00:52.000+01:00</time>
      </trkpt>
      <trkpt lat="48.39503" lon="-4.95944">
        <ele>24.6</ele>
        <time>2013-08-14T14:01:04.000+01:00</time>
      </trkpt>
      <trkpt lat="48.39495" lon="-4.9595">
        <ele>25.6</ele>
        <time>2013-08-14T14:01:13.000+01:00</time>
      </trkpt>
      <trkpt lat="48.39491" lon="-4.95964">
        <ele>26.6</ele>
        <time>2013-08-14T14:01:22.000+01:00</time>
      </trkpt>
      <trkpt lat="48.39485" lon="-4.95975">
        <ele>26.3</ele>
        <time>2013-08-14T14:01:30.000+01:00</time>
      </trkpt>
      <trkpt lat="48.39481" lon="-4.95987">
        <ele>25.9</ele>
        <time>2013-08-14T14:01:37.000+01:00</time>
      </trkpt>
      <trkpt lat="48.39477" lon="-4.96">
        <ele>25</ele>
        <time>2013-08-14T14:01:45.000+01:00</time>
      </trkpt>
      <trkpt lat="48.39473" lon="-4.96012">
        <ele>25.5</ele>
        <time>2013-08-14T14:01:54.000+01:00</time>
      </trkpt>
      <trkpt lat="48.39471" lon="-4.96026">
        <ele>23</ele>
        <time>2013-08-14T14:02:06.000+01:00</time>
      </trkpt>
      <trkpt lat="48.39471" lon="-4.9604">
        <ele>23.6</ele>
        <time>2013-08-14T14:02:15.000+01:00</time>
      </trkpt>
      <trkpt lat="48.39471" lon="-4.96054">
        <ele>22.4</ele>
        <time>2013-08-14T14:02:25.000+01:00</time>
      </trkpt>
      <trkpt lat="48.39473" lon="-4.96069">
        <ele>22</ele>
        <time>2013-08-14T14:02:34.000+01:00</time>
      </trkpt>
      <trkpt lat="48.39474" lon="-4.96069">
        <ele>20.6</ele>
        <time>2013-08-14T14:03:10.000+01:00</time>
      </trkpt>
      <trkpt lat="48.39474" lon="-4.96084">
        <ele>20.5</ele>
        <time>2013-08-14T14:03:21.000+01:00</time>
      </trkpt>
      <trkpt lat="48.39474" lon="-4.96096">
        <ele>21</ele>
        <time>2013-08-14T14:03:36.000+01:00</time>
      </trkpt>
      <trkpt lat="48.39473" lon="-4.96109">
        <ele>20.7</ele>
        <time>2013-08-14T14:03:50.000+01:00</time>
      </trkpt>
      <trkpt lat="48.39472" lon="-4.96124">
        <ele>20.7</ele>
        <time>2013-08-14T14:03:59.000+01:00</time>
      </trkpt>
      <trkpt lat="48.39469" lon="-4.96138">
        <ele>20.9</ele>
        <time>2013-08-14T14:04:08.000+01:00</time>
      </trkpt>
      <trkpt lat="48.39467" lon="-4.96152">
        <ele>19.3</ele>
        <time>2013-08-14T14:04:17.000+01:00</time>
      </trkpt>
      <trkpt lat="48.39467" lon="-4.96166">
        <ele>19.2</ele>
        <time>2013-08-14T14:04:25.000+01:00</time>
      </trkpt>
      <trkpt lat="48.39465" lon="-4.96178">
        <ele>19.9</ele>
        <time>2013-08-14T14:04:37.000+01:00</time>
      </trkpt>
      <trkpt lat="48.39462" lon="-4.96191">
        <ele>22.7</ele>
        <time>2013-08-14T14:04:46.000+01:00</time>
      </trkpt>
      <trkpt lat="48.39459" lon="-4.96205">
        <ele>21.7</ele>
        <time>2013-08-14T14:04:54.000+01:00</time>
      </trkpt>
      <trkpt lat="48.39463" lon="-4.96219">
        <ele>20.5</ele>
        <time>2013-08-14T14:05:02.000+01:00</time>
      </trkpt>
      <trkpt lat="48.3947" lon="-4.96226">
        <ele>21</ele>
        <time>2013-08-14T14:05:14.000+01:00</time>
      </trkpt>
      <trkpt lat="48.39476" lon="-4.96237">
        <ele>20.1</ele>
        <time>2013-08-14T14:05:22.000+01:00</time>
      </trkpt>
      <trkpt lat="48.39481" lon="-4.96247">
        <ele>19.6</ele>
        <time>2013-08-14T14:05:31.000+01:00</time>
      </trkpt>
      <trkpt lat="48.39484" lon="-4.9625">
        <ele>20.6</ele>
        <time>2013-08-14T14:06:28.000+01:00</time>
      </trkpt>
      <trkpt lat="48.39488" lon="-4.96251">
        <ele>18.9</ele>
        <time>2013-08-14T14:07:14.000+01:00</time>
      </trkpt>
      <trkpt lat="48.39494" lon="-4.96262">
        <ele>19.8</ele>
        <time>2013-08-14T14:07:23.000+01:00</time>
      </trkpt>
      <trkpt lat="48.39493" lon="-4.96275">
        <ele>18.2</ele>
        <time>2013-08-14T14:07:32.000+01:00</time>
      </trkpt>
      <trkpt lat="48.3949" lon="-4.9629">
        <ele>16.8</ele>
        <time>2013-08-14T14:07:43.000+01:00</time>
      </trkpt>
      <trkpt lat="48.39489" lon="-4.96305">
        <ele>16.8</ele>
        <time>2013-08-14T14:07:53.000+01:00</time>
      </trkpt>
      <trkpt lat="48.39486" lon="-4.96318">
        <ele>16.2</ele>
        <time>2013-08-14T14:08:01.000+01:00</time>
      </trkpt>
      <trkpt lat="48.39483" lon="-4.96333">
        <ele>15</ele>
        <time>2013-08-14T14:08:09.000+01:00</time>
      </trkpt>
      <trkpt lat="48.39481" lon="-4.96347">
        <ele>14.8</ele>
        <time>2013-08-14T14:08:17.000+01:00</time>
      </trkpt>
      <trkpt lat="48.39482" lon="-4.9636">
        <ele>15.1</ele>
        <time>2013-08-14T14:08:24.000+01:00</time>
      </trkpt>
      <trkpt lat="48.39487" lon="-4.96371">
        <ele>13.9</ele>
        <time>2013-08-14T14:08:34.000+01:00</time>
      </trkpt>
      <trkpt lat="48.39495" lon="-4.96375">
        <ele>13.3</ele>
        <time>2013-08-14T14:08:50.000+01:00</time>
      </trkpt>
      <trkpt lat="48.39505" lon="-4.96377">
        <ele>13.4</ele>
        <time>2013-08-14T14:08:59.000+01:00</time>
      </trkpt>
      <trkpt lat="48.39514" lon="-4.96381">
        <ele>13.1</ele>
        <time>2013-08-14T14:09:08.000+01:00</time>
      </trkpt>
      <trkpt lat="48.39522" lon="-4.96385">
        <ele>12.6</ele>
        <time>2013-08-14T14:09:18.000+01:00</time>
      </trkpt>
      <trkpt lat="48.3953" lon="-4.96388">
        <ele>13.7</ele>
        <time>2013-08-14T14:09:28.000+01:00</time>
      </trkpt>
      <trkpt lat="48.39539" lon="-4.96391">
        <ele>14.2</ele>
        <time>2013-08-14T14:09:36.000+01:00</time>
      </trkpt>
      <trkpt lat="48.39548" lon="-4.96396">
        <ele>14.3</ele>
        <time>2013-08-14T14:09:44.000+01:00</time>
      </trkpt>
      <trkpt lat="48.39555" lon="-4.96403">
        <ele>14.7</ele>
        <time>2013-08-14T14:09:52.000+01:00</time>
      </trkpt>
      <trkpt lat="48.39563" lon="-4.96411">
        <ele>14.4</ele>
        <time>2013-08-14T14:10:00.000+01:00</time>
      </trkpt>
      <trkpt lat="48.39571" lon="-4.96416">
        <ele>14.5</ele>
        <time>2013-08-14T14:10:08.000+01:00</time>
      </trkpt>
      <trkpt lat="48.39578" lon="-4.96425">
        <ele>13.6</ele>
        <time>2013-08-14T14:10:19.000+01:00</time>
      </trkpt>
      <trkpt lat="48.39587" lon="-4.96424">
        <ele>14.9</ele>
        <time>2013-08-14T14:10:27.000+01:00</time>
      </trkpt>
      <trkpt lat="48.39593" lon="-4.96421">
        <ele>13.3</ele>
        <time>2013-08-14T14:10:56.000+01:00</time>
      </trkpt>
      <trkpt lat="48.39598" lon="-4.96408">
        <ele>15</ele>
        <time>2013-08-14T14:11:05.000+01:00</time>
      </trkpt>
      <trkpt lat="48.39604" lon="-4.96397">
        <ele>15.1</ele>
        <time>2013-08-14T14:11:14.000+01:00</time>
      </trkpt>
      <trkpt lat="48.39609" lon="-4.96394">
        <ele>14.8</ele>
        <time>2013-08-14T14:11:40.000+01:00</time>
      </trkpt>
      <trkpt lat="48.39617" lon="-4.96387">
        <ele>14.2</ele>
        <time>2013-08-14T14:11:48.000+01:00</time>
      </trkpt>
      <trkpt lat="48.39626" lon="-4.96389">
        <ele>13.7</ele>
        <time>2013-08-14T14:11:58.000+01:00</time>
      </trkpt>
      <trkpt lat="48.39635" lon="-4.96389">
        <ele>13.2</ele>
        <time>2013-08-14T14:12:09.000+01:00</time>
      </trkpt>
      <trkpt lat="48.39641" lon="-4.96386">
        <ele>11.5</ele>
        <time>2013-08-14T14:12:19.000+01:00</time>
      </trkpt>
      <trkpt lat="48.39642" lon="-4.96383">
        <ele>9.6</ele>
        <time>2013-08-14T14:13:03.000+01:00</time>
      </trkpt>
      <trkpt lat="48.39651" lon="-4.9638">
        <ele>9.6</ele>
        <time>2013-08-14T14:13:17.000+01:00</time>
      </trkpt>
      <trkpt lat="48.39658" lon="-4.9638">
        <ele>12.2</ele>
        <time>2013-08-14T14:13:39.000+01:00</time>
      </trkpt>
      <trkpt lat="48.39667" lon="-4.96377">
        <ele>11.9</ele>
        <time>2013-08-14T14:13:51.000+01:00</time>
      </trkpt>
      <trkpt lat="48.39676" lon="-4.96372">
        <ele>13.4</ele>
        <time>2013-08-14T14:14:02.000+01:00</time>
      </trkpt>
      <trkpt lat="48.39684" lon="-4.96367">
        <ele>14.8</ele>
        <time>2013-08-14T14:14:10.000+01:00</time>
      </trkpt>
      <trkpt lat="48.39693" lon="-4.9636">
        <ele>16.7</ele>
        <time>2013-08-14T14:14:18.000+01:00</time>
      </trkpt>
      <trkpt lat="48.39702" lon="-4.96355">
        <ele>17.6</ele>
        <time>2013-08-14T14:14:26.000+01:00</time>
      </trkpt>
      <trkpt lat="48.39711" lon="-4.96358">
        <ele>17.7</ele>
        <time>2013-08-14T14:14:35.000+01:00</time>
      </trkpt>
      <trkpt lat="48.3972" lon="-4.96356">
        <ele>17.9</ele>
        <time>2013-08-14T14:14:43.000+01:00</time>
      </trkpt>
      <trkpt lat="48.39728" lon="-4.96347">
        <ele>17.9</ele>
        <time>2013-08-14T14:14:51.000+01:00</time>
      </trkpt>
      <trkpt lat="48.39734" lon="-4.96337">
        <ele>17</ele>
        <time>2013-08-14T14:14:59.000+01:00</time>
      </trkpt>
      <trkpt lat="48.39742" lon="-4.96328">
        <ele>17.4</ele>
        <time>2013-08-14T14:15:07.000+01:00</time>
      </trkpt>
      <trkpt lat="48.39744" lon="-4.96332">
        <ele>13.5</ele>
        <time>2013-08-14T14:15:33.000+01:00</time>
      </trkpt>
      <trkpt lat="48.39747" lon="-4.96335">
        <ele>12.6</ele>
        <time>2013-08-14T14:16:17.000+01:00</time>
      </trkpt>
      <trkpt lat="48.39751" lon="-4.96345">
        <ele>12.6</ele>
        <time>2013-08-14T14:16:39.000+01:00</time>
      </trkpt>
      <trkpt lat="48.39757" lon="-4.96358">
        <ele>12.2</ele>
        <time>2013-08-14T14:16:48.000+01:00</time>
      </trkpt>
      <trkpt lat="48.39762" lon="-4.9637">
        <ele>13.3</ele>
        <time>2013-08-14T14:16:57.000+01:00</time>
      </trkpt>
      <trkpt lat="48.39767" lon="-4.96382">
        <ele>13.8</ele>
        <time>2013-08-14T14:17:13.000+01:00</time>
      </trkpt>
      <trkpt lat="48.39772" lon="-4.96394">
        <ele>13</ele>
        <time>2013-08-14T14:17:21.000+01:00</time>
      </trkpt>
      <trkpt lat="48.39776" lon="-4.96406">
        <ele>11.7</ele>
        <time>2013-08-14T14:17:34.000+01:00</time>
      </trkpt>
      <trkpt lat="48.39778" lon="-4.9642">
        <ele>10.6</ele>
        <time>2013-08-14T14:17:42.000+01:00</time>
      </trkpt>
      <trkpt lat="48.39781" lon="-4.96433">
        <ele>10.8</ele>
        <time>2013-08-14T14:17:49.000+01:00</time>
      </trkpt>
      <trkpt lat="48.39784" lon="-4.96448">
        <ele>9.2</ele>
        <time>2013-08-14T14:17:57.000+01:00</time>
      </trkpt>
      <trkpt lat="48.39787" lon="-4.96462">
        <ele>11.1</ele>
        <time>2013-08-14T14:18:05.000+01:00</time>
      </trkpt>
      <trkpt lat="48.39791" lon="-4.96475">
        <ele>11.7</ele>
        <time>2013-08-14T14:18:12.000+01:00</time>
      </trkpt>
      <trkpt lat="48.39793" lon="-4.96488">
        <ele>11.8</ele>
        <time>2013-08-14T14:18:20.000+01:00</time>
      </trkpt>
      <trkpt lat="48.39793" lon="-4.96503">
        <ele>11.1</ele>
        <time>2013-08-14T14:18:28.000+01:00</time>
      </trkpt>
      <trkpt lat="48.39795" lon="-4.96518">
        <ele>11.8</ele>
        <time>2013-08-14T14:18:36.000+01:00</time>
      </trkpt>
      <trkpt lat="48.39798" lon="-4.96532">
        <ele>11.8</ele>
        <time>2013-08-14T14:18:44.000+01:00</time>
      </trkpt>
      <trkpt lat="48.39802" lon="-4.96543">
        <ele>11.5</ele>
        <time>2013-08-14T14:18:55.000+01:00</time>
      </trkpt>
      <trkpt lat="48.39809" lon="-4.96552">
        <ele>13.6</ele>
        <time>2013-08-14T14:19:04.000+01:00</time>
      </trkpt>
      <trkpt lat="48.39815" lon="-4.96565">
        <ele>14.8</ele>
        <time>2013-08-14T14:19:12.000+01:00</time>
      </trkpt>
      <trkpt lat="48.39822" lon="-4.96575">
        <ele>15.3</ele>
        <time>2013-08-14T14:19:20.000+01:00</time>
      </trkpt>
      <trkpt lat="48.39829" lon="-4.96583">
        <ele>15.5</ele>
        <time>2013-08-14T14:19:28.000+01:00</time>
      </trkpt>
      <trkpt lat="48.39837" lon="-4.96587">
        <ele>13.3</ele>
        <time>2013-08-14T14:19:42.000+01:00</time>
      </trkpt>
      <trkpt lat="48.39846" lon="-4.96586">
        <ele>12</ele>
        <time>2013-08-14T14:19:51.000+01:00</time>
      </trkpt>
      <trkpt lat="48.39852" lon="-4.96591">
        <ele>10</ele>
        <time>2013-08-14T14:20:01.000+01:00</time>
      </trkpt>
      <trkpt lat="48.39855" lon="-4.96603">
        <ele>9.5</ele>
        <time>2013-08-14T14:20:15.000+01:00</time>
      </trkpt>
      <trkpt lat="48.39863" lon="-4.96596">
        <ele>11.6</ele>
        <time>2013-08-14T14:20:26.000+01:00</time>
      </trkpt>
      <trkpt lat="48.39872" lon="-4.96593">
        <ele>11.1</ele>
        <time>2013-08-14T14:20:38.000+01:00</time>
      </trkpt>
      <trkpt lat="48.39881" lon="-4.96589">
        <ele>10.4</ele>
        <time>2013-08-14T14:20:47.000+01:00</time>
      </trkpt>
      <trkpt lat="48.3989" lon="-4.96582">
        <ele>10.5</ele>
        <time>2013-08-14T14:20:56.000+01:00</time>
      </trkpt>
      <trkpt lat="48.39898" lon="-4.96575">
        <ele>10.3</ele>
        <time>2013-08-14T14:21:06.000+01:00</time>
      </trkpt>
      <trkpt lat="48.39905" lon="-4.96566">
        <ele>10.2</ele>
        <time>2013-08-14T14:21:14.000+01:00</time>
      </trkpt>
      <trkpt lat="48.39912" lon="-4.96556">
        <ele>10.5</ele>
        <time>2013-08-14T14:21:23.000+01:00</time>
      </trkpt>
      <trkpt lat="48.39917" lon="-4.96567">
        <ele>9.5</ele>
        <time>2013-08-14T14:21:33.000+01:00</time>
      </trkpt>
      <trkpt lat="48.39927" lon="-4.96568">
        <ele>8.1</ele>
        <time>2013-08-14T14:21:42.000+01:00</time>
      </trkpt>
      <trkpt lat="48.39936" lon="-4.96568">
        <ele>8.1</ele>
        <time>2013-08-14T14:21:50.000+01:00</time>
      </trkpt>
      <trkpt lat="48.39946" lon="-4.96568">
        <ele>7.4</ele>
        <time>2013-08-14T14:21:58.000+01:00</time>
      </trkpt>
      <trkpt lat="48.39955" lon="-4.96568">
        <ele>7.3</ele>
        <time>2013-08-14T14:22:06.000+01:00</time>
      </trkpt>
      <trkpt lat="48.39963" lon="-4.96561">
        <ele>7.9</ele>
        <time>2013-08-14T14:22:15.000+01:00</time>
      </trkpt>
      <trkpt lat="48.39966" lon="-4.96549">
        <ele>8.7</ele>
        <time>2013-08-14T14:22:39.000+01:00</time>
      </trkpt>
      <trkpt lat="48.39967" lon="-4.96541">
        <ele>7.9</ele>
        <time>2013-08-14T14:23:32.000+01:00</time>
      </trkpt>
      <trkpt lat="48.39966" lon="-4.96528">
        <ele>8.2</ele>
        <time>2013-08-14T14:23:47.000+01:00</time>
      </trkpt>
      <trkpt lat="48.39961" lon="-4.96515">
        <ele>8.7</ele>
        <time>2013-08-14T14:23:57.000+01:00</time>
      </trkpt>
      <trkpt lat="48.39958" lon="-4.96501">
        <ele>8.4</ele>
        <time>2013-08-14T14:24:06.000+01:00</time>
      </trkpt>
      <trkpt lat="48.39954" lon="-4.9649">
        <ele>7.4</ele>
        <time>2013-08-14T14:24:14.000+01:00</time>
      </trkpt>
      <trkpt lat="48.39952" lon="-4.96476">
        <ele>8.1</ele>
        <time>2013-08-14T14:24:24.000+01:00</time>
      </trkpt>
      <trkpt lat="48.39953" lon="-4.96462">
        <ele>8.4</ele>
        <time>2013-08-14T14:24:33.000+01:00</time>
      </trkpt>
      <trkpt lat="48.39951" lon="-4.96448">
        <ele>10.1</ele>
        <time>2013-08-14T14:24:42.000+01:00</time>
      </trkpt>
      <trkpt lat="48.39949" lon="-4.96435">
        <ele>11.2</ele>
        <time>2013-08-14T14:24:53.000+01:00</time>
      </trkpt>
      <trkpt lat="48.39946" lon="-4.96421">
        <ele>11.7</ele>
        <time>2013-08-14T14:25:02.000+01:00</time>
      </trkpt>
      <trkpt lat="48.39946" lon="-4.96406">
        <ele>12.2</ele>
        <time>2013-08-14T14:25:10.000+01:00</time>
      </trkpt>
      <trkpt lat="48.39947" lon="-4.96392">
        <ele>10.7</ele>
        <time>2013-08-14T14:25:20.000+01:00</time>
      </trkpt>
      <trkpt lat="48.39951" lon="-4.96379">
        <ele>10.6</ele>
        <time>2013-08-14T14:25:29.000+01:00</time>
      </trkpt>
      <trkpt lat="48.39955" lon="-4.96366">
        <ele>11</ele>
        <time>2013-08-14T14:25:37.000+01:00</time>
      </trkpt>
      <trkpt lat="48.39959" lon="-4.96354">
        <ele>11</ele>
        <time>2013-08-14T14:25:45.000+01:00</time>
      </trkpt>
      <trkpt lat="48.39964" lon="-4.96343">
        <ele>11.1</ele>
        <time>2013-08-14T14:25:53.000+01:00</time>
      </trkpt>
      <trkpt lat="48.3997" lon="-4.96331">
        <ele>10.5</ele>
        <time>2013-08-14T14:26:02.000+01:00</time>
      </trkpt>
      <trkpt lat="48.39977" lon="-4.96324">
        <ele>9.7</ele>
        <time>2013-08-14T14:26:14.000+01:00</time>
      </trkpt>
      <trkpt lat="48.39984" lon="-4.96315">
        <ele>8.3</ele>
        <time>2013-08-14T14:26:24.000+01:00</time>
      </trkpt>
      <trkpt lat="48.3999" lon="-4.96305">
        <ele>7.1</ele>
        <time>2013-08-14T14:26:39.000+01:00</time>
      </trkpt>
      <trkpt lat="48.39997" lon="-4.963">
        <ele>6.9</ele>
        <time>2013-08-14T14:27:27.000+01:00</time>
      </trkpt>
      <trkpt lat="48.40004" lon="-4.96293">
        <ele>7.1</ele>
        <time>2013-08-14T14:27:42.000+01:00</time>
      </trkpt>
      <trkpt lat="48.40011" lon="-4.96285">
        <ele>7.4</ele>
        <time>2013-08-14T14:27:50.000+01:00</time>
      </trkpt>
      <trkpt lat="48.40019" lon="-4.96278">
        <ele>7.7</ele>
        <time>2013-08-14T14:27:58.000+01:00</time>
      </trkpt>
      <trkpt lat="48.40026" lon="-4.96269">
        <ele>7.9</ele>
        <time>2013-08-14T14:28:06.000+01:00</time>
      </trkpt>
      <trkpt lat="48.40035" lon="-4.96263">
        <ele>7.6</ele>
        <time>2013-08-14T14:28:14.000+01:00</time>
      </trkpt>
      <trkpt lat="48.40044" lon="-4.96261">
        <ele>7.5</ele>
        <time>2013-08-14T14:28:22.000+01:00</time>
      </trkpt>
      <trkpt lat="48.4005" lon="-4.96255">
        <ele>6.7</ele>
        <time>2013-08-14T14:28:42.000+01:00</time>
      </trkpt>
      <trkpt lat="48.40056" lon="-4.96251">
        <ele>3.4</ele>
        <time>2013-08-14T14:29:22.000+01:00</time>
      </trkpt>
      <trkpt lat="48.40064" lon="-4.96244">
        <ele>3</ele>
        <time>2013-08-14T14:29:30.000+01:00</time>
      </trkpt>
      <trkpt lat="48.40073" lon="-4.9624">
        <ele>2.9</ele>
        <time>2013-08-14T14:29:40.000+01:00</time>
      </trkpt>
      <trkpt lat="48.40082" lon="-4.96236">
        <ele>3.9</ele>
        <time>2013-08-14T14:29:49.000+01:00</time>
      </trkpt>
      <trkpt lat="48.40091" lon="-4.96231">
        <ele>4.7</ele>
        <time>2013-08-14T14:29:58.000+01:00</time>
      </trkpt>
      <trkpt lat="48.401" lon="-4.96226">
        <ele>4.8</ele>
        <time>2013-08-14T14:30:07.000+01:00</time>
      </trkpt>
      <trkpt lat="48.40109" lon="-4.96221">
        <ele>5</ele>
        <time>2013-08-14T14:30:15.000+01:00</time>
      </trkpt>
      <trkpt lat="48.40111" lon="-4.96217">
        <ele>4.5</ele>
        <time>2013-08-14T14:30:35.000+01:00</time>
      </trkpt>
      <trkpt lat="48.40114" lon="-4.96216">
        <ele>5.6</ele>
        <time>2013-08-14T14:31:14.000+01:00</time>
      </trkpt>
      <trkpt lat="48.40114" lon="-4.96203">
        <ele>6.4</ele>
        <time>2013-08-14T14:31:27.000+01:00</time>
      </trkpt>
      <trkpt lat="48.40115" lon="-4.9619">
        <ele>6.6</ele>
        <time>2013-08-14T14:31:42.000+01:00</time>
      </trkpt>
      <trkpt lat="48.40116" lon="-4.96176">
        <ele>7.3</ele>
        <time>2013-08-14T14:31:51.000+01:00</time>
      </trkpt>
      <trkpt lat="48.40116" lon="-4.9616">
        <ele>7.5</ele>
        <time>2013-08-14T14:32:00.000+01:00</time>
      </trkpt>
      <trkpt lat="48.40118" lon="-4.96146">
        <ele>7.5</ele>
        <time>2013-08-14T14:32:08.000+01:00</time>
      </trkpt>
      <trkpt lat="48.40118" lon="-4.96133">
        <ele>7.3</ele>
        <time>2013-08-14T14:32:20.000+01:00</time>
      </trkpt>
      <trkpt lat="48.40117" lon="-4.96118">
        <ele>8.5</ele>
        <time>2013-08-14T14:32:29.000+01:00</time>
      </trkpt>
      <trkpt lat="48.40116" lon="-4.96105">
        <ele>9</ele>
        <time>2013-08-14T14:32:39.000+01:00</time>
      </trkpt>
      <trkpt lat="48.40114" lon="-4.96096">
        <ele>9.1</ele>
        <time>2013-08-14T14:33:14.000+01:00</time>
      </trkpt>
      <trkpt lat="48.40111" lon="-4.96083">
        <ele>12.2</ele>
        <time>2013-08-14T14:33:23.000+01:00</time>
      </trkpt>
      <trkpt lat="48.40109" lon="-4.96069">
        <ele>13.5</ele>
        <time>2013-08-14T14:33:32.000+01:00</time>
      </trkpt>
      <trkpt lat="48.40111" lon="-4.96055">
        <ele>15</ele>
        <time>2013-08-14T14:33:43.000+01:00</time>
      </trkpt>
      <trkpt lat="48.40114" lon="-4.96041">
        <ele>16.3</ele>
        <time>2013-08-14T14:33:53.000+01:00</time>
      </trkpt>
      <trkpt lat="48.40117" lon="-4.9603">
        <ele>15.3</ele>
        <time>2013-08-14T14:34:06.000+01:00</time>
      </trkpt>
      <trkpt lat="48.40125" lon="-4.96036">
        <ele>11.7</ele>
        <time>2013-08-14T14:34:18.000+01:00</time>
      </trkpt>
      <trkpt lat="48.40125" lon="-4.96034">
        <ele>10.4</ele>
        <time>2013-08-14T14:35:18.000+01:00</time>
      </trkpt>
      <trkpt lat="48.40125" lon="-4.96033">
        <ele>9.6</ele>
        <time>2013-08-14T14:39:11.000+01:00</time>
      </trkpt>
      <trkpt lat="48.40117" lon="-4.96026">
        <ele>9.3</ele>
        <time>2013-08-14T14:39:19.000+01:00</time>
      </trkpt>
      <trkpt lat="48.40109" lon="-4.9602">
        <ele>9.3</ele>
        <time>2013-08-14T14:39:27.000+01:00</time>
      </trkpt>
      <trkpt lat="48.40101" lon="-4.96012">
        <ele>9.1</ele>
        <time>2013-08-14T14:39:35.000+01:00</time>
      </trkpt>
      <trkpt lat="48.40093" lon="-4.96004">
        <ele>8.7</ele>
        <time>2013-08-14T14:39:43.000+01:00</time>
      </trkpt>
      <trkpt lat="48.40085" lon="-4.95997">
        <ele>9.5</ele>
        <time>2013-08-14T14:39:55.000+01:00</time>
      </trkpt>
      <trkpt lat="48.4008" lon="-4.95986">
        <ele>11.1</ele>
        <time>2013-08-14T14:40:04.000+01:00</time>
      </trkpt>
      <trkpt lat="48.40073" lon="-4.95975">
        <ele>12.3</ele>
        <time>2013-08-14T14:40:13.000+01:00</time>
      </trkpt>
      <trkpt lat="48.40065" lon="-4.95973">
        <ele>12.3</ele>
        <time>2013-08-14T14:40:22.000+01:00</time>
      </trkpt>
      <trkpt lat="48.40061" lon="-4.95981">
        <ele>9.9</ele>
        <time>2013-08-14T14:40:45.000+01:00</time>
      </trkpt>
      <trkpt lat="48.40063" lon="-4.95985">
        <ele>10.5</ele>
        <time>2013-08-14T14:41:33.000+01:00</time>
      </trkpt>
      <trkpt lat="48.40064" lon="-4.95984">
        <ele>13.1</ele>
        <time>2013-08-14T14:43:11.000+01:00</time>
      </trkpt>
      <trkpt lat="48.4006" lon="-4.95987">
        <ele>13.2</ele>
        <time>2013-08-14T14:43:56.000+01:00</time>
      </trkpt>
      <trkpt lat="48.40052" lon="-4.95979">
        <ele>12.6</ele>
        <time>2013-08-14T14:44:04.000+01:00</time>
      </trkpt>
      <trkpt lat="48.40042" lon="-4.95976">
        <ele>13</ele>
        <time>2013-08-14T14:44:13.000+01:00</time>
      </trkpt>
      <trkpt lat="48.40033" lon="-4.95972">
        <ele>13.3</ele>
        <time>2013-08-14T14:44:21.000+01:00</time>
      </trkpt>
      <trkpt lat="48.40024" lon="-4.95969">
        <ele>12.5</ele>
        <time>2013-08-14T14:44:29.000+01:00</time>
      </trkpt>
      <trkpt lat="48.40014" lon="-4.95968">
        <ele>11.6</ele>
        <time>2013-08-14T14:44:37.000+01:00</time>
      </trkpt>
      <trkpt lat="48.40005" lon="-4.95969">
        <ele>10.6</ele>
        <time>2013-08-14T14:44:50.000+01:00</time>
      </trkpt>
      <trkpt lat="48.40001" lon="-4.9596">
        <ele>7.7</ele>
        <time>2013-08-14T14:45:04.000+01:00</time>
      </trkpt>
      <trkpt lat="48.40002" lon="-4.95958">
        <ele>8.4</ele>
        <time>2013-08-14T14:45:19.000+01:00</time>
      </trkpt>
      <trkpt lat="48.39996" lon="-4.95968">
        <ele>10.1</ele>
        <time>2013-08-14T14:45:26.000+01:00</time>
      </trkpt>
      <trkpt lat="48.39989" lon="-4.95977">
        <ele>11.4</ele>
        <time>2013-08-14T14:45:33.000+01:00</time>
      </trkpt>
      <trkpt lat="48.39981" lon="-4.95982">
        <ele>12.6</ele>
        <time>2013-08-14T14:45:43.000+01:00</time>
      </trkpt>
      <trkpt lat="48.39972" lon="-4.95979">
        <ele>12</ele>
        <time>2013-08-14T14:45:56.000+01:00</time>
      </trkpt>
      <trkpt lat="48.39963" lon="-4.95976">
        <ele>11.9</ele>
        <time>2013-08-14T14:46:06.000+01:00</time>
      </trkpt>
      <trkpt lat="48.39953" lon="-4.95977">
        <ele>12.3</ele>
        <time>2013-08-14T14:46:14.000+01:00</time>
      </trkpt>
      <trkpt lat="48.39946" lon="-4.95973">
        <ele>13.4</ele>
        <time>2013-08-14T14:46:30.000+01:00</time>
      </trkpt>
      <trkpt lat="48.39936" lon="-4.95972">
        <ele>14.3</ele>
        <time>2013-08-14T14:46:40.000+01:00</time>
      </trkpt>
      <trkpt lat="48.39927" lon="-4.95969">
        <ele>14.5</ele>
        <time>2013-08-14T14:46:49.000+01:00</time>
      </trkpt>
      <trkpt lat="48.39917" lon="-4.95967">
        <ele>14.6</ele>
        <time>2013-08-14T14:46:57.000+01:00</time>
      </trkpt>
      <trkpt lat="48.39909" lon="-4.95965">
        <ele>15.4</ele>
        <time>2013-08-14T14:47:15.000+01:00</time>
      </trkpt>
      <trkpt lat="48.39901" lon="-4.95957">
        <ele>15.4</ele>
        <time>2013-08-14T14:47:25.000+01:00</time>
      </trkpt>
      <trkpt lat="48.39895" lon="-4.95946">
        <ele>14.7</ele>
        <time>2013-08-14T14:47:34.000+01:00</time>
      </trkpt>
      <trkpt lat="48.39892" lon="-4.95932">
        <ele>14.3</ele>
        <time>2013-08-14T14:47:44.000+01:00</time>
      </trkpt>
      <trkpt lat="48.39887" lon="-4.9592">
        <ele>13.4</ele>
        <time>2013-08-14T14:47:54.000+01:00</time>
      </trkpt>
      <trkpt lat="48.39882" lon="-4.95909">
        <ele>13.2</ele>
        <time>2013-08-14T14:48:07.000+01:00</time>
      </trkpt>
      <trkpt lat="48.39878" lon="-4.95896">
        <ele>12.5</ele>
        <time>2013-08-14T14:48:24.000+01:00</time>
      </trkpt>
      <trkpt lat="48.39874" lon="-4.95882">
        <ele>12.2</ele>
        <time>2013-08-14T14:48:31.000+01:00</time>
      </trkpt>
      <trkpt lat="48.39872" lon="-4.95868">
        <ele>14.1</ele>
        <time>2013-08-14T14:48:39.000+01:00</time>
      </trkpt>
      <trkpt lat="48.3987" lon="-4.95854">
        <ele>16.8</ele>
        <time>2013-08-14T14:48:47.000+01:00</time>
      </trkpt>
      <trkpt lat="48.39867" lon="-4.9584">
        <ele>18.2</ele>
        <time>2013-08-14T14:48:55.000+01:00</time>
      </trkpt>
      <trkpt lat="48.39864" lon="-4.95827">
        <ele>18.5</ele>
        <time>2013-08-14T14:49:02.000+01:00</time>
      </trkpt>
      <trkpt lat="48.39862" lon="-4.95813">
        <ele>19.2</ele>
        <time>2013-08-14T14:49:10.000+01:00</time>
      </trkpt>
      <trkpt lat="48.39857" lon="-4.95798">
        <ele>18.4</ele>
        <time>2013-08-14T14:49:18.000+01:00</time>
      </trkpt>
      <trkpt lat="48.39853" lon="-4.95786">
        <ele>18.4</ele>
        <time>2013-08-14T14:49:25.000+01:00</time>
      </trkpt>
      <trkpt lat="48.39846" lon="-4.95778">
        <ele>16.6</ele>
        <time>2013-08-14T14:49:32.000+01:00</time>
      </trkpt>
      <trkpt lat="48.39836" lon="-4.95781">
        <ele>14.8</ele>
        <time>2013-08-14T14:49:39.000+01:00</time>
      </trkpt>
      <trkpt lat="48.39828" lon="-4.95777">
        <ele>13.2</ele>
        <time>2013-08-14T14:49:52.000+01:00</time>
      </trkpt>
      <trkpt lat="48.3982" lon="-4.9577">
        <ele>15.2</ele>
        <time>2013-08-14T14:50:00.000+01:00</time>
      </trkpt>
      <trkpt lat="48.39812" lon="-4.95765">
        <ele>15.1</ele>
        <time>2013-08-14T14:50:17.000+01:00</time>
      </trkpt>
      <trkpt lat="48.39805" lon="-4.95756">
        <ele>13</ele>
        <time>2013-08-14T14:50:24.000+01:00</time>
      </trkpt>
      <trkpt lat="48.39797" lon="-4.95749">
        <ele>12.7</ele>
        <time>2013-08-14T14:50:32.000+01:00</time>
      </trkpt>
      <trkpt lat="48.39788" lon="-4.95742">
        <ele>14.6</ele>
        <time>2013-08-14T14:50:39.000+01:00</time>
      </trkpt>
      <trkpt lat="48.39779" lon="-4.95735">
        <ele>15.6</ele>
        <time>2013-08-14T14:50:46.000+01:00</time>
      </trkpt>
      <trkpt lat="48.39771" lon="-4.95729">
        <ele>15.4</ele>
        <time>2013-08-14T14:50:54.000+01:00</time>
      </trkpt>
      <trkpt lat="48.39763" lon="-4.9572">
        <ele>12.2</ele>
        <time>2013-08-14T14:51:01.000+01:00</time>
      </trkpt>
      <trkpt lat="48.39755" lon="-4.95709">
        <ele>11.5</ele>
        <time>2013-08-14T14:51:09.000+01:00</time>
      </trkpt>
      <trkpt lat="48.39753" lon="-4.95709">
        <ele>8.8</ele>
        <time>2013-08-14T14:51:25.000+01:00</time>
      </trkpt>
      <trkpt lat="48.39753" lon="-4.95707">
        <ele>9.1</ele>
        <time>2013-08-14T14:51:51.000+01:00</time>
      </trkpt>
      <trkpt lat="48.39752" lon="-4.95709">
        <ele>7.9</ele>
        <time>2013-08-14T14:52:19.000+01:00</time>
      </trkpt>
      <trkpt lat="48.39753" lon="-4.95709">
        <ele>7.6</ele>
        <time>2013-08-14T14:53:06.000+01:00</time>
      </trkpt>
      <trkpt lat="48.39755" lon="-4.95719">
        <ele>7.4</ele>
        <time>2013-08-14T14:53:25.000+01:00</time>
      </trkpt>
      <trkpt lat="48.39755" lon="-4.95713">
        <ele>10.7</ele>
        <time>2013-08-14T14:54:03.000+01:00</time>
      </trkpt>
      <trkpt lat="48.39748" lon="-4.95708">
        <ele>10.8</ele>
        <time>2013-08-14T14:54:35.000+01:00</time>
      </trkpt>
      <trkpt lat="48.39748" lon="-4.95708">
        <ele>9.1</ele>
        <time>2013-08-14T14:55:18.000+01:00</time>
      </trkpt>
      <trkpt lat="48.39751" lon="-4.95709">
        <ele>9.1</ele>
        <time>2013-08-14T14:56:23.000+01:00</time>
      </trkpt>
      <trkpt lat="48.39754" lon="-4.95714">
        <ele>9.8</ele>
        <time>2013-08-14T14:56:37.000+01:00</time>
      </trkpt>
      <trkpt lat="48.39761" lon="-4.95724">
        <ele>9.9</ele>
        <time>2013-08-14T14:56:48.000+01:00</time>
      </trkpt>
      <trkpt lat="48.39768" lon="-4.95732">
        <ele>11.2</ele>
        <time>2013-08-14T14:56:57.000+01:00</time>
      </trkpt>
      <trkpt lat="48.39775" lon="-4.9574">
        <ele>14.3</ele>
        <time>2013-08-14T14:57:06.000+01:00</time>
      </trkpt>
      <trkpt lat="48.39785" lon="-4.95746">
        <ele>12.6</ele>
        <time>2013-08-14T14:57:14.000+01:00</time>
      </trkpt>
      <trkpt lat="48.39793" lon="-4.95751">
        <ele>12.4</ele>
        <time>2013-08-14T14:57:23.000+01:00</time>
      </trkpt>
      <trkpt lat="48.39801" lon="-4.95757">
        <ele>12.7</ele>
        <time>2013-08-14T14:57:33.000+01:00</time>
      </trkpt>
      <trkpt lat="48.39811" lon="-4.95763">
        <ele>13.7</ele>
        <time>2013-08-14T14:57:43.000+01:00</time>
      </trkpt>
      <trkpt lat="48.39818" lon="-4.95771">
        <ele>13.1</ele>
        <time>2013-08-14T14:57:51.000+01:00</time>
      </trkpt>
      <trkpt lat="48.39825" lon="-4.9578">
        <ele>13.6</ele>
        <time>2013-08-14T14:58:02.000+01:00</time>
      </trkpt>
      <trkpt lat="48.39834" lon="-4.95783">
        <ele>15.2</ele>
        <time>2013-08-14T14:58:11.000+01:00</time>
      </trkpt>
      <trkpt lat="48.39844" lon="-4.95785">
        <ele>14.3</ele>
        <time>2013-08-14T14:58:20.000+01:00</time>
      </trkpt>
      <trkpt lat="48.39849" lon="-4.95796">
        <ele>14.8</ele>
        <time>2013-08-14T14:58:28.000+01:00</time>
      </trkpt>
      <trkpt lat="48.39855" lon="-4.95808">
        <ele>15.2</ele>
        <time>2013-08-14T14:58:37.000+01:00</time>
      </trkpt>
      <trkpt lat="48.39858" lon="-4.9582">
        <ele>14.2</ele>
        <time>2013-08-14T14:58:45.000+01:00</time>
      </trkpt>
      <trkpt lat="48.39861" lon="-4.95834">
        <ele>16.2</ele>
        <time>2013-08-14T14:58:53.000+01:00</time>
      </trkpt>
      <trkpt lat="48.39864" lon="-4.95847">
        <ele>16.2</ele>
        <time>2013-08-14T14:59:01.000+01:00</time>
      </trkpt>
      <trkpt lat="48.39866" lon="-4.95861">
        <ele>15.3</ele>
        <time>2013-08-14T14:59:09.000+01:00</time>
      </trkpt>
      <trkpt lat="48.39869" lon="-4.95874">
        <ele>15</ele>
        <time>2013-08-14T14:59:17.000+01:00</time>
      </trkpt>
      <trkpt lat="48.39872" lon="-4.95888">
        <ele>15.5</ele>
        <time>2013-08-14T14:59:25.000+01:00</time>
      </trkpt>
      <trkpt lat="48.39876" lon="-4.95902">
        <ele>15.4</ele>
        <time>2013-08-14T14:59:34.000+01:00</time>
      </trkpt>
      <trkpt lat="48.3988" lon="-4.95916">
        <ele>16</ele>
        <time>2013-08-14T14:59:42.000+01:00</time>
      </trkpt>
      <trkpt lat="48.39885" lon="-4.95928">
        <ele>15.3</ele>
        <time>2013-08-14T14:59:50.000+01:00</time>
      </trkpt>
      <trkpt lat="48.39891" lon="-4.9594">
        <ele>15.9</ele>
        <time>2013-08-14T14:59:58.000+01:00</time>
      </trkpt>
      <trkpt lat="48.39896" lon="-4.95952">
        <ele>17.3</ele>
        <time>2013-08-14T15:00:07.000+01:00</time>
      </trkpt>
      <trkpt lat="48.39901" lon="-4.95963">
        <ele>17.4</ele>
        <time>2013-08-14T15:00:15.000+01:00</time>
      </trkpt>
      <trkpt lat="48.39909" lon="-4.9597">
        <ele>17.2</ele>
        <time>2013-08-14T15:00:24.000+01:00</time>
      </trkpt>
      <trkpt lat="48.39919" lon="-4.95975">
        <ele>17.1</ele>
        <time>2013-08-14T15:00:33.000+01:00</time>
      </trkpt>
      <trkpt lat="48.39928" lon="-4.95976">
        <ele>15.9</ele>
        <time>2013-08-14T15:00:42.000+01:00</time>
      </trkpt>
      <trkpt lat="48.39937" lon="-4.95978">
        <ele>16</ele>
        <time>2013-08-14T15:00:53.000+01:00</time>
      </trkpt>
      <trkpt lat="48.39946" lon="-4.95982">
        <ele>17.2</ele>
        <time>2013-08-14T15:01:03.000+01:00</time>
      </trkpt>
      <trkpt lat="48.39956" lon="-4.95986">
        <ele>17.1</ele>
        <time>2013-08-14T15:01:12.000+01:00</time>
      </trkpt>
      <trkpt lat="48.39965" lon="-4.95987">
        <ele>17.2</ele>
        <time>2013-08-14T15:01:20.000+01:00</time>
      </trkpt>
      <trkpt lat="48.39974" lon="-4.95989">
        <ele>16.4</ele>
        <time>2013-08-14T15:01:31.000+01:00</time>
      </trkpt>
      <trkpt lat="48.39983" lon="-4.95988">
        <ele>16.3</ele>
        <time>2013-08-14T15:01:41.000+01:00</time>
      </trkpt>
      <trkpt lat="48.39991" lon="-4.9598">
        <ele>16.1</ele>
        <time>2013-08-14T15:01:50.000+01:00</time>
      </trkpt>
      <trkpt lat="48.39997" lon="-4.95969">
        <ele>14.7</ele>
        <time>2013-08-14T15:01:59.000+01:00</time>
      </trkpt>
      <trkpt lat="48.39999" lon="-4.95956">
        <ele>10.7</ele>
        <time>2013-08-14T15:02:07.000+01:00</time>
      </trkpt>
      <trkpt lat="48.39994" lon="-4.95951">
        <ele>8.7</ele>
        <time>2013-08-14T15:02:26.000+01:00</time>
      </trkpt>
      <trkpt lat="48.39991" lon="-4.95951">
        <ele>8.3</ele>
        <time>2013-08-14T15:02:57.000+01:00</time>
      </trkpt>
      <trkpt lat="48.39994" lon="-4.95952">
        <ele>6.7</ele>
        <time>2013-08-14T15:03:57.000+01:00</time>
      </trkpt>
      <trkpt lat="48.40002" lon="-4.95956">
        <ele>7.1</ele>
        <time>2013-08-14T15:04:12.000+01:00</time>
      </trkpt>
      <trkpt lat="48.40011" lon="-4.95952">
        <ele>7.5</ele>
        <time>2013-08-14T15:04:26.000+01:00</time>
      </trkpt>
      <trkpt lat="48.40019" lon="-4.95946">
        <ele>6.2</ele>
        <time>2013-08-14T15:04:38.000+01:00</time>
      </trkpt>
      <trkpt lat="48.40028" lon="-4.9594">
        <ele>5.4</ele>
        <time>2013-08-14T15:04:49.000+01:00</time>
      </trkpt>
      <trkpt lat="48.40036" lon="-4.95941">
        <ele>4.1</ele>
        <time>2013-08-14T15:05:02.000+01:00</time>
      </trkpt>
      <trkpt lat="48.40045" lon="-4.95939">
        <ele>8.1</ele>
        <time>2013-08-14T15:05:15.000+01:00</time>
      </trkpt>
      <trkpt lat="48.40053" lon="-4.95933">
        <ele>9.5</ele>
        <time>2013-08-14T15:05:26.000+01:00</time>
      </trkpt>
      <trkpt lat="48.40062" lon="-4.95928">
        <ele>11.7</ele>
        <time>2013-08-14T15:05:37.000+01:00</time>
      </trkpt>
      <trkpt lat="48.40071" lon="-4.95922">
        <ele>9.3</ele>
        <time>2013-08-14T15:05:46.000+01:00</time>
      </trkpt>
      <trkpt lat="48.40076" lon="-4.95911">
        <ele>11.5</ele>
        <time>2013-08-14T15:05:56.000+01:00</time>
      </trkpt>
      <trkpt lat="48.40082" lon="-4.95901">
        <ele>12.1</ele>
        <time>2013-08-14T15:06:07.000+01:00</time>
      </trkpt>
      <trkpt lat="48.40091" lon="-4.95896">
        <ele>6.4</ele>
        <time>2013-08-14T15:06:24.000+01:00</time>
      </trkpt>
      <trkpt lat="48.40099" lon="-4.95889">
        <ele>6.2</ele>
        <time>2013-08-14T15:06:33.000+01:00</time>
      </trkpt>
      <trkpt lat="48.40107" lon="-4.95881">
        <ele>6.1</ele>
        <time>2013-08-14T15:06:42.000+01:00</time>
      </trkpt>
      <trkpt lat="48.40114" lon="-4.95871">
        <ele>5.8</ele>
        <time>2013-08-14T15:06:53.000+01:00</time>
      </trkpt>
      <trkpt lat="48.40121" lon="-4.95864">
        <ele>5.2</ele>
        <time>2013-08-14T15:07:07.000+01:00</time>
      </trkpt>
      <trkpt lat="48.40124" lon="-4.95853">
        <ele>3</ele>
        <time>2013-08-14T15:07:27.000+01:00</time>
      </trkpt>
      <trkpt lat="48.40129" lon="-4.95843">
        <ele>3.3</ele>
        <time>2013-08-14T15:07:38.000+01:00</time>
      </trkpt>
      <trkpt lat="48.40137" lon="-4.95835">
        <ele>3</ele>
        <time>2013-08-14T15:07:58.000+01:00</time>
      </trkpt>
      <trkpt lat="48.4014" lon="-4.9583">
        <ele>2.5</ele>
        <time>2013-08-14T15:08:26.000+01:00</time>
      </trkpt>
      <trkpt lat="48.40146" lon="-4.9582">
        <ele>3</ele>
        <time>2013-08-14T15:08:37.000+01:00</time>
      </trkpt>
      <trkpt lat="48.40152" lon="-4.9581">
        <ele>2.7</ele>
        <time>2013-08-14T15:08:47.000+01:00</time>
      </trkpt>
      <trkpt lat="48.40158" lon="-4.958">
        <ele>2.4</ele>
        <time>2013-08-14T15:08:57.000+01:00</time>
      </trkpt>
      <trkpt lat="48.40163" lon="-4.95788">
        <ele>2.3</ele>
        <time>2013-08-14T15:09:09.000+01:00</time>
      </trkpt>
      <trkpt lat="48.40168" lon="-4.95777">
        <ele>2.8</ele>
        <time>2013-08-14T15:09:20.000+01:00</time>
      </trkpt>
      <trkpt lat="48.40174" lon="-4.95766">
        <ele>2.7</ele>
        <time>2013-08-14T15:09:30.000+01:00</time>
      </trkpt>
      <trkpt lat="48.40179" lon="-4.95755">
        <ele>2</ele>
        <time>2013-08-14T15:09:40.000+01:00</time>
      </trkpt>
      <trkpt lat="48.40184" lon="-4.95743">
        <ele>2</ele>
        <time>2013-08-14T15:09:50.000+01:00</time>
      </trkpt>
      <trkpt lat="48.40189" lon="-4.95732">
        <ele>2.5</ele>
        <time>2013-08-14T15:09:59.000+01:00</time>
      </trkpt>
      <trkpt lat="48.40196" lon="-4.95721">
        <ele>3</ele>
        <time>2013-08-14T15:10:11.000+01:00</time>
      </trkpt>
      <trkpt lat="48.40201" lon="-4.9571">
        <ele>3.3</ele>
        <time>2013-08-14T15:10:20.000+01:00</time>
      </trkpt>
      <trkpt lat="48.40208" lon="-4.957">
        <ele>3.5</ele>
        <time>2013-08-14T15:10:30.000+01:00</time>
      </trkpt>
      <trkpt lat="48.40213" lon="-4.9569">
        <ele>2.8</ele>
        <time>2013-08-14T15:10:43.000+01:00</time>
      </trkpt>
      <trkpt lat="48.40219" lon="-4.95678">
        <ele>3</ele>
        <time>2013-08-14T15:10:54.000+01:00</time>
      </trkpt>
      <trkpt lat="48.40225" lon="-4.95667">
        <ele>3.8</ele>
        <time>2013-08-14T15:11:05.000+01:00</time>
      </trkpt>
      <trkpt lat="48.40229" lon="-4.95657">
        <ele>2.6</ele>
        <time>2013-08-14T15:11:23.000+01:00</time>
      </trkpt>
      <trkpt lat="48.40235" lon="-4.95646">
        <ele>3</ele>
        <time>2013-08-14T15:11:33.000+01:00</time>
      </trkpt>
      <trkpt lat="48.40242" lon="-4.95645">
        <ele>3.2</ele>
        <time>2013-08-14T15:11:59.000+01:00</time>
      </trkpt>
      <trkpt lat="48.40225" lon="-4.95627">
        <ele>2.1</ele>
        <time>2013-08-14T15:31:09.000+01:00</time>
      </trkpt>
      <trkpt lat="48.40237" lon="-4.95638">
        <ele>2.1</ele>
        <time>2013-08-14T15:31:10.000+01:00</time>
      </trkpt>
      <trkpt lat="48.40229" lon="-4.9565">
        <ele>2.1</ele>
        <time>2013-08-14T15:31:12.000+01:00</time>
      </trkpt>
      <trkpt lat="48.40223" lon="-4.95628">
        <ele>12.6</ele>
        <time>2013-08-14T15:31:19.000+01:00</time>
      </trkpt>
      <trkpt lat="48.40223" lon="-4.95629">
        <ele>-3.7</ele>
        <time>2013-08-14T15:31:25.000+01:00</time>
      </trkpt>
      <trkpt lat="48.40226" lon="-4.95634">
        <ele>-7.1</ele>
        <time>2013-08-14T15:31:28.000+01:00</time>
      </trkpt>
      <trkpt lat="48.40231" lon="-4.95642">
        <ele>-11.9</ele>
        <time>2013-08-14T15:31:34.000+01:00</time>
      </trkpt>
      <trkpt lat="48.40233" lon="-4.95637">
        <ele>5.6</ele>
        <time>2013-08-14T15:31:48.000+01:00</time>
      </trkpt>
      <trkpt lat="48.40231" lon="-4.95634">
        <ele>3.5</ele>
        <time>2013-08-14T15:32:02.000+01:00</time>
      </trkpt>
      <trkpt lat="48.40232" lon="-4.95637">
        <ele>-1.1</ele>
        <time>2013-08-14T15:32:14.000+01:00</time>
      </trkpt>
      <trkpt lat="48.40227" lon="-4.95637">
        <ele>2.6</ele>
        <time>2013-08-14T15:32:23.000+01:00</time>
      </trkpt>
      <trkpt lat="48.40225" lon="-4.95647">
        <ele>8</ele>
        <time>2013-08-14T15:32:34.000+01:00</time>
      </trkpt>
      <trkpt lat="48.40223" lon="-4.95644">
        <ele>8.8</ele>
        <time>2013-08-14T15:32:45.000+01:00</time>
      </trkpt>
      <trkpt lat="48.40225" lon="-4.95647">
        <ele>7.4</ele>
        <time>2013-08-14T15:32:57.000+01:00</time>
      </trkpt>
      <trkpt lat="48.40226" lon="-4.95641">
        <ele>3.6</ele>
        <time>2013-08-14T15:33:10.000+01:00</time>
      </trkpt>
      <trkpt lat="48.4022" lon="-4.95629">
        <ele>11.5</ele>
        <time>2013-08-14T15:33:22.000+01:00</time>
      </trkpt>
      <trkpt lat="48.40212" lon="-4.95629">
        <ele>21.8</ele>
        <time>2013-08-14T15:33:33.000+01:00</time>
      </trkpt>
      <trkpt lat="48.40214" lon="-4.95622">
        <ele>20.1</ele>
        <time>2013-08-14T15:33:43.000+01:00</time>
      </trkpt>
      <trkpt lat="48.40213" lon="-4.95616">
        <ele>17.1</ele>
        <time>2013-08-14T15:33:51.000+01:00</time>
      </trkpt>
      <trkpt lat="48.40222" lon="-4.95618">
        <ele>12.5</ele>
        <time>2013-08-14T15:33:59.000+01:00</time>
      </trkpt>
      <trkpt lat="48.40547" lon="-4.95341">
        <ele>5.1</ele>
        <time>2013-08-14T15:37:35.000+01:00</time>
      </trkpt>
      <trkpt lat="48.40558" lon="-4.95335">
        <ele>8.2</ele>
        <time>2013-08-14T15:37:37.000+01:00</time>
      </trkpt>
      <trkpt lat="48.40568" lon="-4.95331">
        <ele>3.9</ele>
        <time>2013-08-14T15:37:40.000+01:00</time>
      </trkpt>
      <trkpt lat="48.40578" lon="-4.95326">
        <ele>0.2</ele>
        <time>2013-08-14T15:37:42.000+01:00</time>
      </trkpt>
      <trkpt lat="48.40588" lon="-4.95321">
        <ele>-0.9</ele>
        <time>2013-08-14T15:37:44.000+01:00</time>
      </trkpt>
      <trkpt lat="48.40598" lon="-4.95315">
        <ele>-1.9</ele>
        <time>2013-08-14T15:37:46.000+01:00</time>
      </trkpt>
      <trkpt lat="48.40608" lon="-4.95309">
        <ele>-1.2</ele>
        <time>2013-08-14T15:37:48.000+01:00</time>
      </trkpt>
      <trkpt lat="48.40619" lon="-4.95303">
        <ele>-1</ele>
        <time>2013-08-14T15:37:50.000+01:00</time>
      </trkpt>
      <trkpt lat="48.40628" lon="-4.95298">
        <time>2013-08-14T15:37:52.000+01:00</time>
      </trkpt>
      <trkpt lat="48.40637" lon="-4.95292">
        <ele>0.6</ele>
        <time>2013-08-14T15:37:54.000+01:00</time>
      </trkpt>
      <trkpt lat="48.40648" lon="-4.95287">
        <ele>0.7</ele>
        <time>2013-08-14T15:37:56.000+01:00</time>
      </trkpt>
      <trkpt lat="48.40658" lon="-4.95282">
        <time>2013-08-14T15:37:58.000+01:00</time>
      </trkpt>
      <trkpt lat="48.40668" lon="-4.95277">
        <ele>0.1</ele>
        <time>2013-08-14T15:38:00.000+01:00</time>
      </trkpt>
      <trkpt lat="48.40677" lon="-4.95273">
        <ele>-0.7</ele>
        <time>2013-08-14T15:38:02.000+01:00</time>
      </trkpt>
      <trkpt lat="48.40687" lon="-4.95268">
        <ele>-0.9</ele>
        <time>2013-08-14T15:38:04.000+01:00</time>
      </trkpt>
      <trkpt lat="48.40697" lon="-4.95262">
        <ele>-0.1</ele>
        <time>2013-08-14T15:38:06.000+01:00</time>
      </trkpt>
      <trkpt lat="48.40707" lon="-4.95257">
        <ele>0.2</ele>
        <time>2013-08-14T15:38:08.000+01:00</time>
      </trkpt>
      <trkpt lat="48.40716" lon="-4.95251">
        <ele>0.3</ele>
        <time>2013-08-14T15:38:10.000+01:00</time>
      </trkpt>
      <trkpt lat="48.40725" lon="-4.95245">
        <ele>0.9</ele>
        <time>2013-08-14T15:38:12.000+01:00</time>
      </trkpt>
      <trkpt lat="48.40736" lon="-4.95239">
        <ele>1.1</ele>
        <time>2013-08-14T15:38:14.000+01:00</time>
      </trkpt>
      <trkpt lat="48.40746" lon="-4.95233">
        <ele>1.7</ele>
        <time>2013-08-14T15:38:16.000+01:00</time>
      </trkpt>
      <trkpt lat="48.40756" lon="-4.95227">
        <ele>2</ele>
        <time>2013-08-14T15:38:18.000+01:00</time>
      </trkpt>
      <trkpt lat="48.40767" lon="-4.95221">
        <ele>2.7</ele>
        <time>2013-08-14T15:38:20.000+01:00</time>
      </trkpt>
      <trkpt lat="48.40778" lon="-4.95215">
        <ele>2.5</ele>
        <time>2013-08-14T15:38:22.000+01:00</time>
      </trkpt>
      <trkpt lat="48.4079" lon="-4.95209">
        <ele>1.6</ele>
        <time>2013-08-14T15:38:24.000+01:00</time>
      </trkpt>
      <trkpt lat="48.408" lon="-4.95204">
        <ele>1.6</ele>
        <time>2013-08-14T15:38:26.000+01:00</time>
      </trkpt>
      <trkpt lat="48.40811" lon="-4.95198">
        <ele>1.1</ele>
        <time>2013-08-14T15:38:28.000+01:00</time>
      </trkpt>
      <trkpt lat="48.40821" lon="-4.95192">
        <ele>0.4</ele>
        <time>2013-08-14T15:38:30.000+01:00</time>
      </trkpt>
      <trkpt lat="48.40832" lon="-4.95186">
        <ele>-0.2</ele>
        <time>2013-08-14T15:38:32.000+01:00</time>
      </trkpt>
      <trkpt lat="48.40843" lon="-4.9518">
        <ele>1.7</ele>
        <time>2013-08-14T15:38:34.000+01:00</time>
      </trkpt>
      <trkpt lat="48.40853" lon="-4.95174">
        <ele>2.6</ele>
        <time>2013-08-14T15:38:36.000+01:00</time>
      </trkpt>
      <trkpt lat="48.40866" lon="-4.95167">
        <ele>2.8</ele>
        <time>2013-08-14T15:38:38.000+01:00</time>
      </trkpt>
      <trkpt lat="48.40877" lon="-4.9516">
        <ele>2.5</ele>
        <time>2013-08-14T15:38:40.000+01:00</time>
      </trkpt>
      <trkpt lat="48.40889" lon="-4.95153">
        <ele>1.3</ele>
        <time>2013-08-14T15:38:42.000+01:00</time>
      </trkpt>
      <trkpt lat="48.409" lon="-4.95147">
        <ele>1.5</ele>
        <time>2013-08-14T15:38:44.000+01:00</time>
      </trkpt>
      <trkpt lat="48.40911" lon="-4.95141">
        <ele>0.1</ele>
        <time>2013-08-14T15:38:46.000+01:00</time>
      </trkpt>
      <trkpt lat="48.40923" lon="-4.95135">
        <ele>-1</ele>
        <time>2013-08-14T15:38:48.000+01:00</time>
      </trkpt>
      <trkpt lat="48.40935" lon="-4.95129">
        <ele>-3.2</ele>
        <time>2013-08-14T15:38:50.000+01:00</time>
      </trkpt>
      <trkpt lat="48.40946" lon="-4.95122">
        <ele>-4.3</ele>
        <time>2013-08-14T15:38:52.000+01:00</time>
      </trkpt>
      <trkpt lat="48.40958" lon="-4.95115">
        <ele>-0.8</ele>
        <time>2013-08-14T15:38:54.000+01:00</time>
      </trkpt>
      <trkpt lat="48.40972" lon="-4.95108">
        <ele>0.6</ele>
        <time>2013-08-14T15:38:56.000+01:00</time>
      </trkpt>
      <trkpt lat="48.40985" lon="-4.951">
        <ele>1.4</ele>
        <time>2013-08-14T15:38:58.000+01:00</time>
      </trkpt>
      <trkpt lat="48.40994" lon="-4.95095">
        <ele>1.5</ele>
        <time>2013-08-14T15:38:59.000+01:00</time>
      </trkpt>
      <trkpt lat="48.41003" lon="-4.9509">
        <ele>2</ele>
        <time>2013-08-14T15:39:00.000+01:00</time>
      </trkpt>
      <trkpt lat="48.41019" lon="-4.95081">
        <ele>2.8</ele>
        <time>2013-08-14T15:39:02.000+01:00</time>
      </trkpt>
      <trkpt lat="48.41034" lon="-4.95072">
        <ele>4.1</ele>
        <time>2013-08-14T15:39:04.000+01:00</time>
      </trkpt>
      <trkpt lat="48.41049" lon="-4.95064">
        <ele>5.2</ele>
        <time>2013-08-14T15:39:06.000+01:00</time>
      </trkpt>
      <trkpt lat="48.41065" lon="-4.95054">
        <ele>4.7</ele>
        <time>2013-08-14T15:39:08.000+01:00</time>
      </trkpt>
      <trkpt lat="48.4108" lon="-4.95045">
        <ele>3.4</ele>
        <time>2013-08-14T15:39:10.000+01:00</time>
      </trkpt>
      <trkpt lat="48.41095" lon="-4.95037">
        <ele>3.5</ele>
        <time>2013-08-14T15:39:12.000+01:00</time>
      </trkpt>
      <trkpt lat="48.41111" lon="-4.95027">
        <ele>3.6</ele>
        <time>2013-08-14T15:39:14.000+01:00</time>
      </trkpt>
      <trkpt lat="48.41125" lon="-4.95019">
        <ele>5.2</ele>
        <time>2013-08-14T15:39:16.000+01:00</time>
      </trkpt>
      <trkpt lat="48.4114" lon="-4.9501">
        <ele>6.1</ele>
        <time>2013-08-14T15:39:18.000+01:00</time>
      </trkpt>
      <trkpt lat="48.41154" lon="-4.95002">
        <ele>5.5</ele>
        <time>2013-08-14T15:39:20.000+01:00</time>
      </trkpt>
      <trkpt lat="48.41169" lon="-4.94993">
        <ele>5</ele>
        <time>2013-08-14T15:39:22.000+01:00</time>
      </trkpt>
      <trkpt lat="48.41184" lon="-4.94985">
        <ele>4.7</ele>
        <time>2013-08-14T15:39:24.000+01:00</time>
      </trkpt>
      <trkpt lat="48.41199" lon="-4.94976">
        <ele>3.8</ele>
        <time>2013-08-14T15:39:26.000+01:00</time>
      </trkpt>
      <trkpt lat="48.41214" lon="-4.94967">
        <ele>3.3</ele>
        <time>2013-08-14T15:39:28.000+01:00</time>
      </trkpt>
      <trkpt lat="48.41228" lon="-4.94959">
        <ele>2.6</ele>
        <time>2013-08-14T15:39:30.000+01:00</time>
      </trkpt>
      <trkpt lat="48.41243" lon="-4.9495">
        <ele>3.2</ele>
        <time>2013-08-14T15:39:32.000+01:00</time>
      </trkpt>
      <trkpt lat="48.41258" lon="-4.94941">
        <ele>4.6</ele>
        <time>2013-08-14T15:39:34.000+01:00</time>
      </trkpt>
      <trkpt lat="48.41273" lon="-4.94933">
        <ele>3.9</ele>
        <time>2013-08-14T15:39:36.000+01:00</time>
      </trkpt>
      <trkpt lat="48.41287" lon="-4.94925">
        <ele>4.6</ele>
        <time>2013-08-14T15:39:38.000+01:00</time>
      </trkpt>
      <trkpt lat="48.41302" lon="-4.94916">
        <ele>4.6</ele>
        <time>2013-08-14T15:39:40.000+01:00</time>
      </trkpt>
      <trkpt lat="48.41318" lon="-4.94907">
        <ele>6</ele>
        <time>2013-08-14T15:39:42.000+01:00</time>
      </trkpt>
      <trkpt lat="48.41334" lon="-4.94899">
        <ele>7</ele>
        <time>2013-08-14T15:39:44.000+01:00</time>
      </trkpt>
      <trkpt lat="48.41342" lon="-4.94894">
        <ele>7.2</ele>
        <time>2013-08-14T15:39:45.000+01:00</time>
      </trkpt>
      <trkpt lat="48.41358" lon="-4.94885">
        <ele>7.7</ele>
        <time>2013-08-14T15:39:47.000+01:00</time>
      </trkpt>
      <trkpt lat="48.41374" lon="-4.94876">
        <ele>7.9</ele>
        <time>2013-08-14T15:39:49.000+01:00</time>
      </trkpt>
      <trkpt lat="48.4139" lon="-4.94867">
        <ele>8</ele>
        <time>2013-08-14T15:39:51.000+01:00</time>
      </trkpt>
      <trkpt lat="48.41406" lon="-4.94858">
        <ele>6.8</ele>
        <time>2013-08-14T15:39:53.000+01:00</time>
      </trkpt>
      <trkpt lat="48.41422" lon="-4.94848">
        <ele>6</ele>
        <time>2013-08-14T15:39:55.000+01:00</time>
      </trkpt>
      <trkpt lat="48.41438" lon="-4.94834">
        <ele>5.9</ele>
        <time>2013-08-14T15:39:57.000+01:00</time>
      </trkpt>
      <trkpt lat="48.4145" lon="-4.94819">
        <ele>7.1</ele>
        <time>2013-08-14T15:39:59.000+01:00</time>
      </trkpt>
      <trkpt lat="48.41462" lon="-4.94804">
        <ele>7.4</ele>
        <time>2013-08-14T15:40:01.000+01:00</time>
      </trkpt>
      <trkpt lat="48.41472" lon="-4.94785">
        <ele>6.8</ele>
        <time>2013-08-14T15:40:03.000+01:00</time>
      </trkpt>
      <trkpt lat="48.41483" lon="-4.94766">
        <ele>6.1</ele>
        <time>2013-08-14T15:40:05.000+01:00</time>
      </trkpt>
      <trkpt lat="48.41491" lon="-4.94746">
        <ele>4.7</ele>
        <time>2013-08-14T15:40:07.000+01:00</time>
      </trkpt>
      <trkpt lat="48.41497" lon="-4.94726">
        <ele>2.9</ele>
        <time>2013-08-14T15:40:09.000+01:00</time>
      </trkpt>
      <trkpt lat="48.41501" lon="-4.94714">
        <ele>1.3</ele>
        <time>2013-08-14T15:40:10.000+01:00</time>
      </trkpt>
      <trkpt lat="48.41508" lon="-4.94691">
        <ele>-1.1</ele>
        <time>2013-08-14T15:40:12.000+01:00</time>
      </trkpt>
      <trkpt lat="48.41513" lon="-4.94668">
        <ele>-4.2</ele>
        <time>2013-08-14T15:40:14.000+01:00</time>
      </trkpt>
      <trkpt lat="48.41515" lon="-4.94645">
        <ele>-3.8</ele>
        <time>2013-08-14T15:40:16.000+01:00</time>
      </trkpt>
      <trkpt lat="48.41516" lon="-4.94621">
        <ele>-4.4</ele>
        <time>2013-08-14T15:40:18.000+01:00</time>
      </trkpt>
      <trkpt lat="48.41515" lon="-4.94598">
        <ele>-4.7</ele>
        <time>2013-08-14T15:40:20.000+01:00</time>
      </trkpt>
      <trkpt lat="48.41514" lon="-4.94574">
        <ele>-3.1</ele>
        <time>2013-08-14T15:40:22.000+01:00</time>
      </trkpt>
      <trkpt lat="48.41512" lon="-4.9455">
        <ele>-2.3</ele>
        <time>2013-08-14T15:40:24.000+01:00</time>
      </trkpt>
      <trkpt lat="48.41511" lon="-4.94525">
        <ele>-1.6</ele>
        <time>2013-08-14T15:40:26.000+01:00</time>
      </trkpt>
      <trkpt lat="48.4151" lon="-4.945">
        <ele>-1.6</ele>
        <time>2013-08-14T15:40:28.000+01:00</time>
      </trkpt>
      <trkpt lat="48.41508" lon="-4.94476">
        <ele>-1.2</ele>
        <time>2013-08-14T15:40:30.000+01:00</time>
      </trkpt>
      <trkpt lat="48.41506" lon="-4.9445">
        <ele>-3.2</ele>
        <time>2013-08-14T15:40:32.000+01:00</time>
      </trkpt>
      <trkpt lat="48.41506" lon="-4.94425">
        <ele>-3.5</ele>
        <time>2013-08-14T15:40:34.000+01:00</time>
      </trkpt>
      <trkpt lat="48.41506" lon="-4.94402">
        <ele>-5.7</ele>
        <time>2013-08-14T15:40:36.000+01:00</time>
      </trkpt>
      <trkpt lat="48.41505" lon="-4.94379">
        <ele>-3.8</ele>
        <time>2013-08-14T15:40:38.000+01:00</time>
      </trkpt>
      <trkpt lat="48.41503" lon="-4.94355">
        <ele>-2.4</ele>
        <time>2013-08-14T15:40:40.000+01:00</time>
      </trkpt>
      <trkpt lat="48.41501" lon="-4.94341">
        <ele>-2</ele>
        <time>2013-08-14T15:40:41.000+01:00</time>
      </trkpt>
      <trkpt lat="48.41499" lon="-4.94317">
        <ele>-0.4</ele>
        <time>2013-08-14T15:40:43.000+01:00</time>
      </trkpt>
      <trkpt lat="48.41498" lon="-4.94291">
        <time>2013-08-14T15:40:45.000+01:00</time>
      </trkpt>
      <trkpt lat="48.41498" lon="-4.94266">
        <time>2013-08-14T15:40:47.000+01:00</time>
      </trkpt>
      <trkpt lat="48.41498" lon="-4.94242">
        <ele>-2.2</ele>
        <time>2013-08-14T15:40:49.000+01:00</time>
      </trkpt>
      <trkpt lat="48.41497" lon="-4.94217">
        <ele>-3.2</ele>
        <time>2013-08-14T15:40:51.000+01:00</time>
      </trkpt>
      <trkpt lat="48.41496" lon="-4.94193">
        <ele>-3.8</ele>
        <time>2013-08-14T15:40:53.000+01:00</time>
      </trkpt>
      <trkpt lat="48.41496" lon="-4.9417">
        <ele>-4.6</ele>
        <time>2013-08-14T15:40:55.000+01:00</time>
      </trkpt>
      <trkpt lat="48.41494" lon="-4.94146">
        <ele>-1.9</ele>
        <time>2013-08-14T15:40:57.000+01:00</time>
      </trkpt>
      <trkpt lat="48.4149" lon="-4.94123">
        <ele>-2</ele>
        <time>2013-08-14T15:40:59.000+01:00</time>
      </trkpt>
      <trkpt lat="48.41486" lon="-4.94102">
        <ele>-3.2</ele>
        <time>2013-08-14T15:41:01.000+01:00</time>
      </trkpt>
      <trkpt lat="48.41481" lon="-4.94079">
        <ele>-3.4</ele>
        <time>2013-08-14T15:41:03.000+01:00</time>
      </trkpt>
      <trkpt lat="48.41474" lon="-4.94058">
        <ele>-2.9</ele>
        <time>2013-08-14T15:41:05.000+01:00</time>
      </trkpt>
      <trkpt lat="48.41468" lon="-4.94039">
        <ele>-3.3</ele>
        <time>2013-08-14T15:41:07.000+01:00</time>
      </trkpt>
      <trkpt lat="48.4146" lon="-4.94019">
        <ele>-3.1</ele>
        <time>2013-08-14T15:41:09.000+01:00</time>
      </trkpt>
      <trkpt lat="48.41453" lon="-4.93998">
        <ele>-3.1</ele>
        <time>2013-08-14T15:41:11.000+01:00</time>
      </trkpt>
      <trkpt lat="48.41446" lon="-4.93978">
        <ele>-2.5</ele>
        <time>2013-08-14T15:41:13.000+01:00</time>
      </trkpt>
      <trkpt lat="48.41439" lon="-4.93957">
        <ele>-1.7</ele>
        <time>2013-08-14T15:41:15.000+01:00</time>
      </trkpt>
      <trkpt lat="48.41432" lon="-4.93938">
        <ele>-0.8</ele>
        <time>2013-08-14T15:41:17.000+01:00</time>
      </trkpt>
      <trkpt lat="48.41423" lon="-4.93917">
        <ele>0.9</ele>
        <time>2013-08-14T15:41:19.000+01:00</time>
      </trkpt>
      <trkpt lat="48.41415" lon="-4.93896">
        <ele>2.7</ele>
        <time>2013-08-14T15:41:21.000+01:00</time>
      </trkpt>
      <trkpt lat="48.41407" lon="-4.93876">
        <ele>4.3</ele>
        <time>2013-08-14T15:41:23.000+01:00</time>
      </trkpt>
      <trkpt lat="48.41399" lon="-4.93856">
        <ele>4</ele>
        <time>2013-08-14T15:41:25.000+01:00</time>
      </trkpt>
      <trkpt lat="48.41392" lon="-4.93835">
        <ele>1.3</ele>
        <time>2013-08-14T15:41:27.000+01:00</time>
      </trkpt>
      <trkpt lat="48.41384" lon="-4.93814">
        <ele>2.8</ele>
        <time>2013-08-14T15:41:29.000+01:00</time>
      </trkpt>
      <trkpt lat="48.41377" lon="-4.93793">
        <ele>1.4</ele>
        <time>2013-08-14T15:41:31.000+01:00</time>
      </trkpt>
      <trkpt lat="48.41368" lon="-4.93774">
        <ele>-2.6</ele>
        <time>2013-08-14T15:41:33.000+01:00</time>
      </trkpt>
      <trkpt lat="48.41359" lon="-4.93755">
        <ele>-3.6</ele>
        <time>2013-08-14T15:41:35.000+01:00</time>
      </trkpt>
      <trkpt lat="48.4135" lon="-4.93734">
        <ele>-5.5</ele>
        <time>2013-08-14T15:41:37.000+01:00</time>
      </trkpt>
      <trkpt lat="48.41341" lon="-4.93715">
        <ele>-8.9</ele>
        <time>2013-08-14T15:41:39.000+01:00</time>
      </trkpt>
      <trkpt lat="48.41332" lon="-4.93695">
        <ele>-10.6</ele>
        <time>2013-08-14T15:41:41.000+01:00</time>
      </trkpt>
      <trkpt lat="48.41322" lon="-4.93676">
        <ele>-8.3</ele>
        <time>2013-08-14T15:41:43.000+01:00</time>
      </trkpt>
      <trkpt lat="48.41315" lon="-4.93666">
        <ele>-5.6</ele>
        <time>2013-08-14T15:41:44.000+01:00</time>
      </trkpt>
      <trkpt lat="48.41304" lon="-4.93647">
        <ele>-4</ele>
        <time>2013-08-14T15:41:46.000+01:00</time>
      </trkpt>
      <trkpt lat="48.41294" lon="-4.93628">
        <ele>-2.7</ele>
        <time>2013-08-14T15:41:48.000+01:00</time>
      </trkpt>
      <trkpt lat="48.41284" lon="-4.93609">
        <ele>-3.5</ele>
        <time>2013-08-14T15:41:50.000+01:00</time>
      </trkpt>
      <trkpt lat="48.41275" lon="-4.93591">
        <ele>-2.5</ele>
        <time>2013-08-14T15:41:52.000+01:00</time>
      </trkpt>
      <trkpt lat="48.41264" lon="-4.93573">
        <ele>-4.5</ele>
        <time>2013-08-14T15:41:54.000+01:00</time>
      </trkpt>
      <trkpt lat="48.41255" lon="-4.93553">
        <ele>-5.8</ele>
        <time>2013-08-14T15:41:56.000+01:00</time>
      </trkpt>
      <trkpt lat="48.41245" lon="-4.93534">
        <ele>-7</ele>
        <time>2013-08-14T15:41:58.000+01:00</time>
      </trkpt>
      <trkpt lat="48.41235" lon="-4.93515">
        <ele>-7.2</ele>
        <time>2013-08-14T15:42:00.000+01:00</time>
      </trkpt>
      <trkpt lat="48.41224" lon="-4.93495">
        <ele>-7.4</ele>
        <time>2013-08-14T15:42:02.000+01:00</time>
      </trkpt>
      <trkpt lat="48.41215" lon="-4.93476">
        <ele>-8.8</ele>
        <time>2013-08-14T15:42:04.000+01:00</time>
      </trkpt>
      <trkpt lat="48.41205" lon="-4.93457">
        <ele>-10</ele>
        <time>2013-08-14T15:42:06.000+01:00</time>
      </trkpt>
      <trkpt lat="48.41195" lon="-4.93436">
        <ele>-8.5</ele>
        <time>2013-08-14T15:42:08.000+01:00</time>
      </trkpt>
      <trkpt lat="48.41185" lon="-4.93418">
        <ele>-6.5</ele>
        <time>2013-08-14T15:42:10.000+01:00</time>
      </trkpt>
      <trkpt lat="48.41175" lon="-4.934">
        <ele>-5.1</ele>
        <time>2013-08-14T15:42:12.000+01:00</time>
      </trkpt>
      <trkpt lat="48.41164" lon="-4.93382">
        <ele>-4.3</ele>
        <time>2013-08-14T15:42:14.000+01:00</time>
      </trkpt>
      <trkpt lat="48.41152" lon="-4.93363">
        <ele>-4.6</ele>
        <time>2013-08-14T15:42:16.000+01:00</time>
      </trkpt>
      <trkpt lat="48.41142" lon="-4.93344">
        <ele>-4.6</ele>
        <time>2013-08-14T15:42:18.000+01:00</time>
      </trkpt>
      <trkpt lat="48.41132" lon="-4.93325">
        <ele>-3.6</ele>
        <time>2013-08-14T15:42:20.000+01:00</time>
      </trkpt>
      <trkpt lat="48.41123" lon="-4.93305">
        <ele>-4</ele>
        <time>2013-08-14T15:42:22.000+01:00</time>
      </trkpt>
      <trkpt lat="48.41114" lon="-4.93285">
        <ele>-5.4</ele>
        <time>2013-08-14T15:42:24.000+01:00</time>
      </trkpt>
      <trkpt lat="48.41103" lon="-4.93267">
        <ele>-4.8</ele>
        <time>2013-08-14T15:42:26.000+01:00</time>
      </trkpt>
      <trkpt lat="48.41096" lon="-4.93257">
        <ele>-4.7</ele>
        <time>2013-08-14T15:42:27.000+01:00</time>
      </trkpt>
      <trkpt lat="48.41088" lon="-4.93238">
        <ele>-5.9</ele>
        <time>2013-08-14T15:42:29.000+01:00</time>
      </trkpt>
      <trkpt lat="48.41083" lon="-4.93222">
        <ele>-8.7</ele>
        <time>2013-08-14T15:42:31.000+01:00</time>
      </trkpt>
      <trkpt lat="48.41075" lon="-4.93204">
        <ele>-10</ele>
        <time>2013-08-14T15:42:33.000+01:00</time>
      </trkpt>
      <trkpt lat="48.41065" lon="-4.93188">
        <ele>-9.5</ele>
        <time>2013-08-14T15:42:35.000+01:00</time>
      </trkpt>
      <trkpt lat="48.41053" lon="-4.9317">
        <ele>-9.2</ele>
        <time>2013-08-14T15:42:37.000+01:00</time>
      </trkpt>
      <trkpt lat="48.41041" lon="-4.93154">
        <ele>-8.6</ele>
        <time>2013-08-14T15:42:39.000+01:00</time>
      </trkpt>
      <trkpt lat="48.4103" lon="-4.93136">
        <ele>-8.1</ele>
        <time>2013-08-14T15:42:41.000+01:00</time>
      </trkpt>
      <trkpt lat="48.41019" lon="-4.9312">
        <ele>-6.4</ele>
        <time>2013-08-14T15:42:43.000+01:00</time>
      </trkpt>
      <trkpt lat="48.41009" lon="-4.93103">
        <ele>-7.1</ele>
        <time>2013-08-14T15:42:45.000+01:00</time>
      </trkpt>
      <trkpt lat="48.40999" lon="-4.93087">
        <ele>-6.5</ele>
        <time>2013-08-14T15:42:47.000+01:00</time>
      </trkpt>
      <trkpt lat="48.40989" lon="-4.9307">
        <ele>-6.5</ele>
        <time>2013-08-14T15:42:49.000+01:00</time>
      </trkpt>
      <trkpt lat="48.4098" lon="-4.93051">
        <ele>-7.3</ele>
        <time>2013-08-14T15:42:51.000+01:00</time>
      </trkpt>
      <trkpt lat="48.40971" lon="-4.93032">
        <ele>-9.6</ele>
        <time>2013-08-14T15:42:53.000+01:00</time>
      </trkpt>
      <trkpt lat="48.40961" lon="-4.93014">
        <ele>-8.8</ele>
        <time>2013-08-14T15:42:55.000+01:00</time>
      </trkpt>
      <trkpt lat="48.4095" lon="-4.92995">
        <ele>-9.8</ele>
        <time>2013-08-14T15:42:57.000+01:00</time>
      </trkpt>
      <trkpt lat="48.40941" lon="-4.92976">
        <ele>-11.7</ele>
        <time>2013-08-14T15:42:59.000+01:00</time>
      </trkpt>
      <trkpt lat="48.40933" lon="-4.92955">
        <ele>-12.7</ele>
        <time>2013-08-14T15:43:01.000+01:00</time>
      </trkpt>
      <trkpt lat="48.40924" lon="-4.92935">
        <ele>-15.9</ele>
        <time>2013-08-14T15:43:03.000+01:00</time>
      </trkpt>
      <trkpt lat="48.40914" lon="-4.92917">
        <ele>-15.7</ele>
        <time>2013-08-14T15:43:05.000+01:00</time>
      </trkpt>
      <trkpt lat="48.40903" lon="-4.929">
        <ele>-14.3</ele>
        <time>2013-08-14T15:43:07.000+01:00</time>
      </trkpt>
      <trkpt lat="48.40894" lon="-4.92884">
        <ele>-12.7</ele>
        <time>2013-08-14T15:43:09.000+01:00</time>
      </trkpt>
      <trkpt lat="48.40882" lon="-4.92864">
        <ele>-9.1</ele>
        <time>2013-08-14T15:43:11.000+01:00</time>
      </trkpt>
      <trkpt lat="48.40871" lon="-4.92845">
        <ele>-6.6</ele>
        <time>2013-08-14T15:43:13.000+01:00</time>
      </trkpt>
      <trkpt lat="48.4086" lon="-4.92827">
        <ele>-4.9</ele>
        <time>2013-08-14T15:43:15.000+01:00</time>
      </trkpt>
      <trkpt lat="48.4085" lon="-4.92809">
        <ele>-4.6</ele>
        <time>2013-08-14T15:43:17.000+01:00</time>
      </trkpt>
      <trkpt lat="48.40841" lon="-4.92792">
        <ele>-4</ele>
        <time>2013-08-14T15:43:19.000+01:00</time>
      </trkpt>
      <trkpt lat="48.40832" lon="-4.92776">
        <ele>-1.7</ele>
        <time>2013-08-14T15:43:21.000+01:00</time>
      </trkpt>
      <trkpt lat="48.40821" lon="-4.92758">
        <ele>-1.8</ele>
        <time>2013-08-14T15:43:23.000+01:00</time>
      </trkpt>
      <trkpt lat="48.40811" lon="-4.92739">
        <ele>-2.3</ele>
        <time>2013-08-14T15:43:25.000+01:00</time>
      </trkpt>
      <trkpt lat="48.408" lon="-4.92722">
        <ele>-2.2</ele>
        <time>2013-08-14T15:43:27.000+01:00</time>
      </trkpt>
      <trkpt lat="48.40789" lon="-4.92703">
        <ele>-2.1</ele>
        <time>2013-08-14T15:43:29.000+01:00</time>
      </trkpt>
      <trkpt lat="48.40778" lon="-4.92683">
        <ele>-2.6</ele>
        <time>2013-08-14T15:43:31.000+01:00</time>
      </trkpt>
      <trkpt lat="48.40768" lon="-4.92662">
        <ele>-3.8</ele>
        <time>2013-08-14T15:43:33.000+01:00</time>
      </trkpt>
      <trkpt lat="48.40758" lon="-4.92642">
        <ele>-4.7</ele>
        <time>2013-08-14T15:43:35.000+01:00</time>
      </trkpt>
      <trkpt lat="48.40747" lon="-4.9262">
        <ele>-5.1</ele>
        <time>2013-08-14T15:43:37.000+01:00</time>
      </trkpt>
      <trkpt lat="48.4074" lon="-4.92609">
        <ele>-4.4</ele>
        <time>2013-08-14T15:43:38.000+01:00</time>
      </trkpt>
      <trkpt lat="48.40734" lon="-4.92598">
        <ele>-3.9</ele>
        <time>2013-08-14T15:43:39.000+01:00</time>
      </trkpt>
      <trkpt lat="48.40728" lon="-4.92587">
        <ele>-4.3</ele>
        <time>2013-08-14T15:43:40.000+01:00</time>
      </trkpt>
      <trkpt lat="48.40722" lon="-4.92577">
        <ele>-5</ele>
        <time>2013-08-14T15:43:41.000+01:00</time>
      </trkpt>
      <trkpt lat="48.40716" lon="-4.92567">
        <ele>-5.6</ele>
        <time>2013-08-14T15:43:42.000+01:00</time>
      </trkpt>
      <trkpt lat="48.40706" lon="-4.92546">
        <ele>-5.1</ele>
        <time>2013-08-14T15:43:44.000+01:00</time>
      </trkpt>
      <trkpt lat="48.40696" lon="-4.92526">
        <ele>-4.4</ele>
        <time>2013-08-14T15:43:46.000+01:00</time>
      </trkpt>
      <trkpt lat="48.40686" lon="-4.92508">
        <ele>-4.3</ele>
        <time>2013-08-14T15:43:48.000+01:00</time>
      </trkpt>
      <trkpt lat="48.40675" lon="-4.9249">
        <ele>-4.4</ele>
        <time>2013-08-14T15:43:50.000+01:00</time>
      </trkpt>
      <trkpt lat="48.40666" lon="-4.92471">
        <ele>-5.9</ele>
        <time>2013-08-14T15:43:52.000+01:00</time>
      </trkpt>
      <trkpt lat="48.40656" lon="-4.92454">
        <ele>-8.7</ele>
        <time>2013-08-14T15:43:54.000+01:00</time>
      </trkpt>
      <trkpt lat="48.40647" lon="-4.92437">
        <ele>-10.6</ele>
        <time>2013-08-14T15:43:56.000+01:00</time>
      </trkpt>
      <trkpt lat="48.40638" lon="-4.92419">
        <ele>-11.3</ele>
        <time>2013-08-14T15:43:58.000+01:00</time>
      </trkpt>
      <trkpt lat="48.40628" lon="-4.92401">
        <ele>-12.1</ele>
        <time>2013-08-14T15:44:00.000+01:00</time>
      </trkpt>
      <trkpt lat="48.40619" lon="-4.92384">
        <ele>-12.2</ele>
        <time>2013-08-14T15:44:02.000+01:00</time>
      </trkpt>
      <trkpt lat="48.40609" lon="-4.92365">
        <ele>-12</ele>
        <time>2013-08-14T15:44:04.000+01:00</time>
      </trkpt>
      <trkpt lat="48.40599" lon="-4.92348">
        <ele>-11.5</ele>
        <time>2013-08-14T15:44:06.000+01:00</time>
      </trkpt>
      <trkpt lat="48.40589" lon="-4.9233">
        <ele>-10.2</ele>
        <time>2013-08-14T15:44:08.000+01:00</time>
      </trkpt>
      <trkpt lat="48.40579" lon="-4.92312">
        <ele>-10.1</ele>
        <time>2013-08-14T15:44:10.000+01:00</time>
      </trkpt>
      <trkpt lat="48.40568" lon="-4.92293">
        <ele>-9.6</ele>
        <time>2013-08-14T15:44:12.000+01:00</time>
      </trkpt>
      <trkpt lat="48.40557" lon="-4.92275">
        <ele>-11</ele>
        <time>2013-08-14T15:44:14.000+01:00</time>
      </trkpt>
      <trkpt lat="48.40546" lon="-4.92255">
        <ele>-9.9</ele>
        <time>2013-08-14T15:44:16.000+01:00</time>
      </trkpt>
      <trkpt lat="48.40536" lon="-4.92234">
        <ele>-9.8</ele>
        <time>2013-08-14T15:44:18.000+01:00</time>
      </trkpt>
      <trkpt lat="48.40526" lon="-4.92214">
        <ele>-8.1</ele>
        <time>2013-08-14T15:44:20.000+01:00</time>
      </trkpt>
      <trkpt lat="48.40516" lon="-4.92193">
        <ele>-5.5</ele>
        <time>2013-08-14T15:44:22.000+01:00</time>
      </trkpt>
      <trkpt lat="48.40505" lon="-4.92173">
        <ele>-4.2</ele>
        <time>2013-08-14T15:44:24.000+01:00</time>
      </trkpt>
      <trkpt lat="48.40494" lon="-4.92155">
        <ele>-3.3</ele>
        <time>2013-08-14T15:44:26.000+01:00</time>
      </trkpt>
      <trkpt lat="48.40482" lon="-4.92138">
        <ele>-3.4</ele>
        <time>2013-08-14T15:44:28.000+01:00</time>
      </trkpt>
      <trkpt lat="48.40473" lon="-4.92119">
        <ele>-2.9</ele>
        <time>2013-08-14T15:44:30.000+01:00</time>
      </trkpt>
      <trkpt lat="48.40463" lon="-4.92101">
        <ele>-1.9</ele>
        <time>2013-08-14T15:44:32.000+01:00</time>
      </trkpt>
      <trkpt lat="48.40454" lon="-4.92084">
        <ele>-0.9</ele>
        <time>2013-08-14T15:44:34.000+01:00</time>
      </trkpt>
      <trkpt lat="48.40445" lon="-4.92065">
        <ele>2.3</ele>
        <time>2013-08-14T15:44:36.000+01:00</time>
      </trkpt>
      <trkpt lat="48.40435" lon="-4.92047">
        <ele>2.4</ele>
        <time>2013-08-14T15:44:38.000+01:00</time>
      </trkpt>
      <trkpt lat="48.40426" lon="-4.92028">
        <ele>2.3</ele>
        <time>2013-08-14T15:44:40.000+01:00</time>
      </trkpt>
      <trkpt lat="48.40415" lon="-4.92009">
        <ele>4.6</ele>
        <time>2013-08-14T15:44:42.000+01:00</time>
      </trkpt>
      <trkpt lat="48.40404" lon="-4.9199">
        <ele>4.9</ele>
        <time>2013-08-14T15:44:44.000+01:00</time>
      </trkpt>
      <trkpt lat="48.40394" lon="-4.91972">
        <ele>2.8</ele>
        <time>2013-08-14T15:44:46.000+01:00</time>
      </trkpt>
      <trkpt lat="48.40386" lon="-4.91955">
        <ele>-1.4</ele>
        <time>2013-08-14T15:44:48.000+01:00</time>
      </trkpt>
      <trkpt lat="48.40377" lon="-4.9194">
        <ele>-3.4</ele>
        <time>2013-08-14T15:44:50.000+01:00</time>
      </trkpt>
      <trkpt lat="48.40367" lon="-4.91922">
        <ele>-3.4</ele>
        <time>2013-08-14T15:44:52.000+01:00</time>
      </trkpt>
      <trkpt lat="48.40359" lon="-4.91904">
        <ele>-5.2</ele>
        <time>2013-08-14T15:44:54.000+01:00</time>
      </trkpt>
      <trkpt lat="48.40351" lon="-4.91883">
        <ele>-7.4</ele>
        <time>2013-08-14T15:44:56.000+01:00</time>
      </trkpt>
      <trkpt lat="48.40344" lon="-4.91861">
        <ele>-10.2</ele>
        <time>2013-08-14T15:44:58.000+01:00</time>
      </trkpt>
      <trkpt lat="48.40336" lon="-4.91838">
        <ele>-10.1</ele>
        <time>2013-08-14T15:45:00.000+01:00</time>
      </trkpt>
      <trkpt lat="48.40328" lon="-4.91817">
        <ele>-11.7</ele>
        <time>2013-08-14T15:45:02.000+01:00</time>
      </trkpt>
      <trkpt lat="48.40321" lon="-4.91799">
        <ele>-12</ele>
        <time>2013-08-14T15:45:04.000+01:00</time>
      </trkpt>
      <trkpt lat="48.40313" lon="-4.91778">
        <ele>-12.2</ele>
        <time>2013-08-14T15:45:06.000+01:00</time>
      </trkpt>
      <trkpt lat="48.40306" lon="-4.91758">
        <ele>-11.5</ele>
        <time>2013-08-14T15:45:08.000+01:00</time>
      </trkpt>
      <trkpt lat="48.403" lon="-4.91737">
        <ele>-10.4</ele>
        <time>2013-08-14T15:45:10.000+01:00</time>
      </trkpt>
      <trkpt lat="48.40293" lon="-4.91717">
        <ele>-12.1</ele>
        <time>2013-08-14T15:45:12.000+01:00</time>
      </trkpt>
      <trkpt lat="48.40288" lon="-4.91695">
        <ele>-11.3</ele>
        <time>2013-08-14T15:45:14.000+01:00</time>
      </trkpt>
      <trkpt lat="48.40282" lon="-4.91673">
        <ele>-9.4</ele>
        <time>2013-08-14T15:45:16.000+01:00</time>
      </trkpt>
      <trkpt lat="48.40277" lon="-4.91652">
        <ele>-9.8</ele>
        <time>2013-08-14T15:45:18.000+01:00</time>
      </trkpt>
      <trkpt lat="48.40273" lon="-4.9163">
        <ele>-12.4</ele>
        <time>2013-08-14T15:45:20.000+01:00</time>
      </trkpt>
      <trkpt lat="48.40268" lon="-4.91608">
        <ele>-12.5</ele>
        <time>2013-08-14T15:45:22.000+01:00</time>
      </trkpt>
      <trkpt lat="48.40263" lon="-4.91584">
        <ele>-12.1</ele>
        <time>2013-08-14T15:45:24.000+01:00</time>
      </trkpt>
      <trkpt lat="48.40259" lon="-4.91561">
        <ele>-11.7</ele>
        <time>2013-08-14T15:45:26.000+01:00</time>
      </trkpt>
      <trkpt lat="48.40255" lon="-4.91538">
        <ele>-11.9</ele>
        <time>2013-08-14T15:45:28.000+01:00</time>
      </trkpt>
      <trkpt lat="48.4025" lon="-4.91516">
        <ele>-10.4</ele>
        <time>2013-08-14T15:45:30.000+01:00</time>
      </trkpt>
      <trkpt lat="48.40247" lon="-4.91493">
        <ele>-7.1</ele>
        <time>2013-08-14T15:45:32.000+01:00</time>
      </trkpt>
      <trkpt lat="48.40244" lon="-4.91469">
        <ele>-6.4</ele>
        <time>2013-08-14T15:45:34.000+01:00</time>
      </trkpt>
      <trkpt lat="48.40241" lon="-4.91447">
        <ele>-5.4</ele>
        <time>2013-08-14T15:45:36.000+01:00</time>
      </trkpt>
      <trkpt lat="48.40239" lon="-4.91426">
        <ele>-3.9</ele>
        <time>2013-08-14T15:45:38.000+01:00</time>
      </trkpt>
      <trkpt lat="48.40236" lon="-4.91404">
        <ele>-2.3</ele>
        <time>2013-08-14T15:45:40.000+01:00</time>
      </trkpt>
      <trkpt lat="48.40233" lon="-4.9138">
        <ele>-1.3</ele>
        <time>2013-08-14T15:45:42.000+01:00</time>
      </trkpt>
      <trkpt lat="48.4023" lon="-4.91357">
        <ele>-1.7</ele>
        <time>2013-08-14T15:45:44.000+01:00</time>
      </trkpt>
      <trkpt lat="48.40228" lon="-4.91333">
        <ele>-0.2</ele>
        <time>2013-08-14T15:45:46.000+01:00</time>
      </trkpt>
      <trkpt lat="48.40226" lon="-4.91308">
        <ele>-1.4</ele>
        <time>2013-08-14T15:45:48.000+01:00</time>
      </trkpt>
      <trkpt lat="48.40224" lon="-4.91285">
        <ele>-2.4</ele>
        <time>2013-08-14T15:45:50.000+01:00</time>
      </trkpt>
      <trkpt lat="48.40223" lon="-4.91262">
        <ele>-3.9</ele>
        <time>2013-08-14T15:45:52.000+01:00</time>
      </trkpt>
      <trkpt lat="48.40221" lon="-4.91239">
        <ele>-3.8</ele>
        <time>2013-08-14T15:45:54.000+01:00</time>
      </trkpt>
      <trkpt lat="48.40218" lon="-4.91215">
        <ele>-3.4</ele>
        <time>2013-08-14T15:45:56.000+01:00</time>
      </trkpt>
      <trkpt lat="48.40217" lon="-4.91192">
        <ele>-3.5</ele>
        <time>2013-08-14T15:45:58.000+01:00</time>
      </trkpt>
      <trkpt lat="48.40216" lon="-4.91169">
        <ele>-4.2</ele>
        <time>2013-08-14T15:46:00.000+01:00</time>
      </trkpt>
      <trkpt lat="48.40218" lon="-4.91146">
        <ele>-4.4</ele>
        <time>2013-08-14T15:46:02.000+01:00</time>
      </trkpt>
      <trkpt lat="48.40217" lon="-4.91123">
        <ele>-3.2</ele>
        <time>2013-08-14T15:46:04.000+01:00</time>
      </trkpt>
      <trkpt lat="48.40215" lon="-4.911">
        <ele>-0.7</ele>
        <time>2013-08-14T15:46:06.000+01:00</time>
      </trkpt>
      <trkpt lat="48.40215" lon="-4.91075">
        <ele>0.4</ele>
        <time>2013-08-14T15:46:08.000+01:00</time>
      </trkpt>
      <trkpt lat="48.40215" lon="-4.91052">
        <ele>-0.7</ele>
        <time>2013-08-14T15:46:10.000+01:00</time>
      </trkpt>
      <trkpt lat="48.40217" lon="-4.9103">
        <ele>-1.9</ele>
        <time>2013-08-14T15:46:12.000+01:00</time>
      </trkpt>
      <trkpt lat="48.40218" lon="-4.91006">
        <ele>-1.3</ele>
        <time>2013-08-14T15:46:14.000+01:00</time>
      </trkpt>
      <trkpt lat="48.40219" lon="-4.90983">
        <ele>0.3</ele>
        <time>2013-08-14T15:46:16.000+01:00</time>
      </trkpt>
      <trkpt lat="48.40221" lon="-4.90961">
        <ele>-0.9</ele>
        <time>2013-08-14T15:46:18.000+01:00</time>
      </trkpt>
      <trkpt lat="48.40225" lon="-4.90939">
        <ele>0.6</ele>
        <time>2013-08-14T15:46:20.000+01:00</time>
      </trkpt>
      <trkpt lat="48.40226" lon="-4.90916">
        <ele>1.4</ele>
        <time>2013-08-14T15:46:22.000+01:00</time>
      </trkpt>
      <trkpt lat="48.40227" lon="-4.90894">
        <ele>2.9</ele>
        <time>2013-08-14T15:46:24.000+01:00</time>
      </trkpt>
      <trkpt lat="48.4023" lon="-4.90871">
        <ele>3.5</ele>
        <time>2013-08-14T15:46:26.000+01:00</time>
      </trkpt>
      <trkpt lat="48.40232" lon="-4.90849">
        <ele>3.6</ele>
        <time>2013-08-14T15:46:28.000+01:00</time>
      </trkpt>
      <trkpt lat="48.40233" lon="-4.90826">
        <ele>3.5</ele>
        <time>2013-08-14T15:46:30.000+01:00</time>
      </trkpt>
      <trkpt lat="48.40239" lon="-4.90763">
        <ele>1.2</ele>
        <time>2013-08-14T15:46:36.000+01:00</time>
      </trkpt>
      <trkpt lat="48.40241" lon="-4.9074">
        <ele>-1.6</ele>
        <time>2013-08-14T15:46:38.000+01:00</time>
      </trkpt>
      <trkpt lat="48.40243" lon="-4.90718">
        <ele>-1</ele>
        <time>2013-08-14T15:46:40.000+01:00</time>
      </trkpt>
      <trkpt lat="48.40243" lon="-4.90694">
        <ele>-3.1</ele>
        <time>2013-08-14T15:46:42.000+01:00</time>
      </trkpt>
      <trkpt lat="48.40244" lon="-4.90671">
        <ele>-1.9</ele>
        <time>2013-08-14T15:46:44.000+01:00</time>
      </trkpt>
      <trkpt lat="48.40245" lon="-4.90646">
        <ele>0.7</ele>
        <time>2013-08-14T15:46:46.000+01:00</time>
      </trkpt>
      <trkpt lat="48.40245" lon="-4.90624">
        <ele>0.1</ele>
        <time>2013-08-14T15:46:48.000+01:00</time>
      </trkpt>
      <trkpt lat="48.40245" lon="-4.90604">
        <ele>1.3</ele>
        <time>2013-08-14T15:46:50.000+01:00</time>
      </trkpt>
      <trkpt lat="48.40245" lon="-4.90584">
        <ele>1</ele>
        <time>2013-08-14T15:46:52.000+01:00</time>
      </trkpt>
      <trkpt lat="48.40248" lon="-4.90563">
        <ele>-0.1</ele>
        <time>2013-08-14T15:46:54.000+01:00</time>
      </trkpt>
      <trkpt lat="48.40252" lon="-4.90542">
        <ele>-1.9</ele>
        <time>2013-08-14T15:46:56.000+01:00</time>
      </trkpt>
      <trkpt lat="48.40255" lon="-4.9052">
        <ele>-2.3</ele>
        <time>2013-08-14T15:46:58.000+01:00</time>
      </trkpt>
      <trkpt lat="48.40257" lon="-4.90499">
        <ele>-1.3</ele>
        <time>2013-08-14T15:47:00.000+01:00</time>
      </trkpt>
      <trkpt lat="48.40259" lon="-4.90476">
        <ele>-3</ele>
        <time>2013-08-14T15:47:02.000+01:00</time>
      </trkpt>
      <trkpt lat="48.40262" lon="-4.90455">
        <ele>-3.6</ele>
        <time>2013-08-14T15:47:04.000+01:00</time>
      </trkpt>
      <trkpt lat="48.40264" lon="-4.90434">
        <ele>-3.7</ele>
        <time>2013-08-14T15:47:06.000+01:00</time>
      </trkpt>
      <trkpt lat="48.40264" lon="-4.9041">
        <ele>-3.7</ele>
        <time>2013-08-14T15:47:08.000+01:00</time>
      </trkpt>
      <trkpt lat="48.40266" lon="-4.90388">
        <ele>-4.8</ele>
        <time>2013-08-14T15:47:10.000+01:00</time>
      </trkpt>
      <trkpt lat="48.40269" lon="-4.90368">
        <ele>-5.3</ele>
        <time>2013-08-14T15:47:12.000+01:00</time>
      </trkpt>
      <trkpt lat="48.40272" lon="-4.90346">
        <ele>-6.2</ele>
        <time>2013-08-14T15:47:14.000+01:00</time>
      </trkpt>
      <trkpt lat="48.40274" lon="-4.90323">
        <ele>-6.6</ele>
        <time>2013-08-14T15:47:16.000+01:00</time>
      </trkpt>
      <trkpt lat="48.40275" lon="-4.903">
        <ele>-5.5</ele>
        <time>2013-08-14T15:47:18.000+01:00</time>
      </trkpt>
      <trkpt lat="48.40276" lon="-4.90277">
        <ele>-3.2</ele>
        <time>2013-08-14T15:47:20.000+01:00</time>
      </trkpt>
      <trkpt lat="48.40277" lon="-4.90256">
        <ele>-0.2</ele>
        <time>2013-08-14T15:47:22.000+01:00</time>
      </trkpt>
      <trkpt lat="48.4028" lon="-4.90232">
        <ele>-2.6</ele>
        <time>2013-08-14T15:47:24.000+01:00</time>
      </trkpt>
      <trkpt lat="48.40283" lon="-4.90209">
        <ele>-2.8</ele>
        <time>2013-08-14T15:47:26.000+01:00</time>
      </trkpt>
      <trkpt lat="48.40286" lon="-4.90186">
        <ele>-4.3</ele>
        <time>2013-08-14T15:47:28.000+01:00</time>
      </trkpt>
      <trkpt lat="48.40289" lon="-4.90162">
        <ele>-7</ele>
        <time>2013-08-14T15:47:30.000+01:00</time>
      </trkpt>
      <trkpt lat="48.40292" lon="-4.90139">
        <ele>-7.7</ele>
        <time>2013-08-14T15:47:32.000+01:00</time>
      </trkpt>
      <trkpt lat="48.40294" lon="-4.90118">
        <ele>-7.3</ele>
        <time>2013-08-14T15:47:34.000+01:00</time>
      </trkpt>
      <trkpt lat="48.40296" lon="-4.90095">
        <ele>-9.8</ele>
        <time>2013-08-14T15:47:36.000+01:00</time>
      </trkpt>
      <trkpt lat="48.40298" lon="-4.90071">
        <ele>-9.5</ele>
        <time>2013-08-14T15:47:38.000+01:00</time>
      </trkpt>
      <trkpt lat="48.403" lon="-4.9005">
        <ele>-12.1</ele>
        <time>2013-08-14T15:47:40.000+01:00</time>
      </trkpt>
      <trkpt lat="48.40302" lon="-4.90027">
        <ele>-11.2</ele>
        <time>2013-08-14T15:47:42.000+01:00</time>
      </trkpt>
      <trkpt lat="48.40305" lon="-4.90004">
        <ele>-8.7</ele>
        <time>2013-08-14T15:47:44.000+01:00</time>
      </trkpt>
      <trkpt lat="48.40307" lon="-4.8998">
        <ele>-7.5</ele>
        <time>2013-08-14T15:47:46.000+01:00</time>
      </trkpt>
      <trkpt lat="48.40307" lon="-4.89956">
        <ele>-7.3</ele>
        <time>2013-08-14T15:47:48.000+01:00</time>
      </trkpt>
      <trkpt lat="48.40309" lon="-4.89934">
        <ele>-9.5</ele>
        <time>2013-08-14T15:47:50.000+01:00</time>
      </trkpt>
      <trkpt lat="48.4031" lon="-4.89911">
        <ele>-10</ele>
        <time>2013-08-14T15:47:52.000+01:00</time>
      </trkpt>
      <trkpt lat="48.40311" lon="-4.89888">
        <ele>-11.1</ele>
        <time>2013-08-14T15:47:54.000+01:00</time>
      </trkpt>
      <trkpt lat="48.40313" lon="-4.89868">
        <ele>-10.9</ele>
        <time>2013-08-14T15:47:56.000+01:00</time>
      </trkpt>
      <trkpt lat="48.40314" lon="-4.89846">
        <ele>-13.9</ele>
        <time>2013-08-14T15:47:58.000+01:00</time>
      </trkpt>
      <trkpt lat="48.40315" lon="-4.89825">
        <ele>-9.4</ele>
        <time>2013-08-14T15:48:00.000+01:00</time>
      </trkpt>
      <trkpt lat="48.40316" lon="-4.89803">
        <ele>-12.3</ele>
        <time>2013-08-14T15:48:02.000+01:00</time>
      </trkpt>
      <trkpt lat="48.40318" lon="-4.89781">
        <ele>-12.8</ele>
        <time>2013-08-14T15:48:04.000+01:00</time>
      </trkpt>
      <trkpt lat="48.40318" lon="-4.8976">
        <ele>-11.4</ele>
        <time>2013-08-14T15:48:06.000+01:00</time>
      </trkpt>
      <trkpt lat="48.40317" lon="-4.89738">
        <ele>-8.1</ele>
        <time>2013-08-14T15:48:08.000+01:00</time>
      </trkpt>
      <trkpt lat="48.40318" lon="-4.89716">
        <ele>-6.9</ele>
        <time>2013-08-14T15:48:10.000+01:00</time>
      </trkpt>
      <trkpt lat="48.40318" lon="-4.89692">
        <ele>-3.5</ele>
        <time>2013-08-14T15:48:12.000+01:00</time>
      </trkpt>
      <trkpt lat="48.40318" lon="-4.89671">
        <ele>-3.8</ele>
        <time>2013-08-14T15:48:14.000+01:00</time>
      </trkpt>
      <trkpt lat="48.40318" lon="-4.89647">
        <ele>-3.5</ele>
        <time>2013-08-14T15:48:16.000+01:00</time>
      </trkpt>
      <trkpt lat="48.40319" lon="-4.89624">
        <ele>-4.3</ele>
        <time>2013-08-14T15:48:18.000+01:00</time>
      </trkpt>
      <trkpt lat="48.4032" lon="-4.89602">
        <ele>-5.9</ele>
        <time>2013-08-14T15:48:20.000+01:00</time>
      </trkpt>
      <trkpt lat="48.40321" lon="-4.8958">
        <ele>-6.8</ele>
        <time>2013-08-14T15:48:22.000+01:00</time>
      </trkpt>
      <trkpt lat="48.40322" lon="-4.89559">
        <ele>-9.1</ele>
        <time>2013-08-14T15:48:24.000+01:00</time>
      </trkpt>
      <trkpt lat="48.40323" lon="-4.89538">
        <ele>-9.4</ele>
        <time>2013-08-14T15:48:26.000+01:00</time>
      </trkpt>
      <trkpt lat="48.40326" lon="-4.89515">
        <ele>-12.3</ele>
        <time>2013-08-14T15:48:28.000+01:00</time>
      </trkpt>
      <trkpt lat="48.40327" lon="-4.89493">
        <ele>-13.4</ele>
        <time>2013-08-14T15:48:30.000+01:00</time>
      </trkpt>
      <trkpt lat="48.40326" lon="-4.89471">
        <ele>-10.2</ele>
        <time>2013-08-14T15:48:32.000+01:00</time>
      </trkpt>
      <trkpt lat="48.40325" lon="-4.89448">
        <ele>-8.3</ele>
        <time>2013-08-14T15:48:34.000+01:00</time>
      </trkpt>
      <trkpt lat="48.40326" lon="-4.89426">
        <ele>-7.6</ele>
        <time>2013-08-14T15:48:36.000+01:00</time>
      </trkpt>
      <trkpt lat="48.40326" lon="-4.89404">
        <ele>-5.4</ele>
        <time>2013-08-14T15:48:38.000+01:00</time>
      </trkpt>
      <trkpt lat="48.40326" lon="-4.8938">
        <ele>-4</ele>
        <time>2013-08-14T15:48:40.000+01:00</time>
      </trkpt>
      <trkpt lat="48.40327" lon="-4.89358">
        <ele>-3.7</ele>
        <time>2013-08-14T15:48:42.000+01:00</time>
      </trkpt>
      <trkpt lat="48.40327" lon="-4.89336">
        <ele>-4.4</ele>
        <time>2013-08-14T15:48:44.000+01:00</time>
      </trkpt>
      <trkpt lat="48.40327" lon="-4.89314">
        <ele>-4.1</ele>
        <time>2013-08-14T15:48:46.000+01:00</time>
      </trkpt>
      <trkpt lat="48.40328" lon="-4.89291">
        <ele>-4.5</ele>
        <time>2013-08-14T15:48:48.000+01:00</time>
      </trkpt>
      <trkpt lat="48.40329" lon="-4.89269">
        <ele>-3.8</ele>
        <time>2013-08-14T15:48:50.000+01:00</time>
      </trkpt>
      <trkpt lat="48.4033" lon="-4.89245">
        <ele>-3</ele>
        <time>2013-08-14T15:48:52.000+01:00</time>
      </trkpt>
      <trkpt lat="48.40331" lon="-4.89222">
        <ele>-4</ele>
        <time>2013-08-14T15:48:54.000+01:00</time>
      </trkpt>
      <trkpt lat="48.40333" lon="-4.89199">
        <ele>-3.3</ele>
        <time>2013-08-14T15:48:56.000+01:00</time>
      </trkpt>
      <trkpt lat="48.40333" lon="-4.89175">
        <ele>-3</ele>
        <time>2013-08-14T15:48:58.000+01:00</time>
      </trkpt>
      <trkpt lat="48.40333" lon="-4.89152">
        <ele>-2.8</ele>
        <time>2013-08-14T15:49:00.000+01:00</time>
      </trkpt>
      <trkpt lat="48.40334" lon="-4.8913">
        <ele>-3.8</ele>
        <time>2013-08-14T15:49:02.000+01:00</time>
      </trkpt>
      <trkpt lat="48.40334" lon="-4.89108">
        <ele>-4.9</ele>
        <time>2013-08-14T15:49:04.000+01:00</time>
      </trkpt>
      <trkpt lat="48.40334" lon="-4.89085">
        <ele>-5.1</ele>
        <time>2013-08-14T15:49:06.000+01:00</time>
      </trkpt>
      <trkpt lat="48.40335" lon="-4.89061">
        <ele>-4.7</ele>
        <time>2013-08-14T15:49:08.000+01:00</time>
      </trkpt>
      <trkpt lat="48.40336" lon="-4.89037">
        <ele>-5.5</ele>
        <time>2013-08-14T15:49:10.000+01:00</time>
      </trkpt>
      <trkpt lat="48.40336" lon="-4.89013">
        <ele>-3.9</ele>
        <time>2013-08-14T15:49:12.000+01:00</time>
      </trkpt>
      <trkpt lat="48.40337" lon="-4.88991">
        <ele>-3.8</ele>
        <time>2013-08-14T15:49:14.000+01:00</time>
      </trkpt>
      <trkpt lat="48.40338" lon="-4.88968">
        <ele>-3.5</ele>
        <time>2013-08-14T15:49:16.000+01:00</time>
      </trkpt>
      <trkpt lat="48.40339" lon="-4.88943">
        <ele>-1.3</ele>
        <time>2013-08-14T15:49:18.000+01:00</time>
      </trkpt>
      <trkpt lat="48.4034" lon="-4.88921">
        <ele>-2</ele>
        <time>2013-08-14T15:49:20.000+01:00</time>
      </trkpt>
      <trkpt lat="48.40342" lon="-4.88899">
        <ele>-3.5</ele>
        <time>2013-08-14T15:49:22.000+01:00</time>
      </trkpt>
      <trkpt lat="48.40343" lon="-4.88878">
        <ele>-2.9</ele>
        <time>2013-08-14T15:49:24.000+01:00</time>
      </trkpt>
      <trkpt lat="48.40344" lon="-4.88857">
        <ele>-3.3</ele>
        <time>2013-08-14T15:49:26.000+01:00</time>
      </trkpt>
      <trkpt lat="48.40345" lon="-4.88835">
        <ele>-3.7</ele>
        <time>2013-08-14T15:49:28.000+01:00</time>
      </trkpt>
      <trkpt lat="48.40346" lon="-4.88809">
        <ele>-6</ele>
        <time>2013-08-14T15:49:30.000+01:00</time>
      </trkpt>
      <trkpt lat="48.40347" lon="-4.88786">
        <ele>-4</ele>
        <time>2013-08-14T15:49:32.000+01:00</time>
      </trkpt>
      <trkpt lat="48.4035" lon="-4.8876">
        <ele>-3.9</ele>
        <time>2013-08-14T15:49:34.000+01:00</time>
      </trkpt>
      <trkpt lat="48.40352" lon="-4.88736">
        <ele>-4</ele>
        <time>2013-08-14T15:49:36.000+01:00</time>
      </trkpt>
      <trkpt lat="48.40353" lon="-4.88712">
        <ele>-4</ele>
        <time>2013-08-14T15:49:38.000+01:00</time>
      </trkpt>
      <trkpt lat="48.40356" lon="-4.88689">
        <ele>-2.3</ele>
        <time>2013-08-14T15:49:40.000+01:00</time>
      </trkpt>
      <trkpt lat="48.40358" lon="-4.88666">
        <ele>-3.9</ele>
        <time>2013-08-14T15:49:42.000+01:00</time>
      </trkpt>
      <trkpt lat="48.4036" lon="-4.88643">
        <ele>-4</ele>
        <time>2013-08-14T15:49:44.000+01:00</time>
      </trkpt>
      <trkpt lat="48.40362" lon="-4.88621">
        <ele>-3.5</ele>
        <time>2013-08-14T15:49:46.000+01:00</time>
      </trkpt>
      <trkpt lat="48.40363" lon="-4.88598">
        <ele>-3.1</ele>
        <time>2013-08-14T15:49:48.000+01:00</time>
      </trkpt>
      <trkpt lat="48.40364" lon="-4.88574">
        <ele>-3.1</ele>
        <time>2013-08-14T15:49:50.000+01:00</time>
      </trkpt>
      <trkpt lat="48.40366" lon="-4.88551">
        <ele>-3.6</ele>
        <time>2013-08-14T15:49:52.000+01:00</time>
      </trkpt>
      <trkpt lat="48.40366" lon="-4.88526">
        <ele>-2.9</ele>
        <time>2013-08-14T15:49:54.000+01:00</time>
      </trkpt>
      <trkpt lat="48.40367" lon="-4.88503">
        <ele>-2.8</ele>
        <time>2013-08-14T15:49:56.000+01:00</time>
      </trkpt>
      <trkpt lat="48.40368" lon="-4.8848">
        <ele>-2</ele>
        <time>2013-08-14T15:49:58.000+01:00</time>
      </trkpt>
      <trkpt lat="48.40369" lon="-4.88457">
        <ele>-0.6</ele>
        <time>2013-08-14T15:50:00.000+01:00</time>
      </trkpt>
      <trkpt lat="48.4037" lon="-4.88434">
        <ele>0.1</ele>
        <time>2013-08-14T15:50:02.000+01:00</time>
      </trkpt>
      <trkpt lat="48.40371" lon="-4.88411">
        <ele>0.1</ele>
        <time>2013-08-14T15:50:04.000+01:00</time>
      </trkpt>
      <trkpt lat="48.40374" lon="-4.88386">
        <ele>-0.9</ele>
        <time>2013-08-14T15:50:06.000+01:00</time>
      </trkpt>
      <trkpt lat="48.40376" lon="-4.88362">
        <ele>-1.4</ele>
        <time>2013-08-14T15:50:08.000+01:00</time>
      </trkpt>
      <trkpt lat="48.40378" lon="-4.88338">
        <ele>-2.4</ele>
        <time>2013-08-14T15:50:10.000+01:00</time>
      </trkpt>
      <trkpt lat="48.40381" lon="-4.88314">
        <ele>-3.5</ele>
        <time>2013-08-14T15:50:12.000+01:00</time>
      </trkpt>
      <trkpt lat="48.40382" lon="-4.88292">
        <ele>-4.3</ele>
        <time>2013-08-14T15:50:14.000+01:00</time>
      </trkpt>
      <trkpt lat="48.40384" lon="-4.88268">
        <ele>-5.6</ele>
        <time>2013-08-14T15:50:16.000+01:00</time>
      </trkpt>
      <trkpt lat="48.40385" lon="-4.88243">
        <ele>-7.1</ele>
        <time>2013-08-14T15:50:18.000+01:00</time>
      </trkpt>
      <trkpt lat="48.40387" lon="-4.8822">
        <ele>-6.2</ele>
        <time>2013-08-14T15:50:20.000+01:00</time>
      </trkpt>
      <trkpt lat="48.40388" lon="-4.88197">
        <ele>-6.5</ele>
        <time>2013-08-14T15:50:22.000+01:00</time>
      </trkpt>
      <trkpt lat="48.40389" lon="-4.88175">
        <ele>-5.9</ele>
        <time>2013-08-14T15:50:24.000+01:00</time>
      </trkpt>
      <trkpt lat="48.40391" lon="-4.88151">
        <ele>-6.2</ele>
        <time>2013-08-14T15:50:26.000+01:00</time>
      </trkpt>
      <trkpt lat="48.40392" lon="-4.88128">
        <ele>-5.5</ele>
        <time>2013-08-14T15:50:28.000+01:00</time>
      </trkpt>
      <trkpt lat="48.40393" lon="-4.88104">
        <ele>-6.1</ele>
        <time>2013-08-14T15:50:30.000+01:00</time>
      </trkpt>
      <trkpt lat="48.40393" lon="-4.88081">
        <ele>-7.4</ele>
        <time>2013-08-14T15:50:32.000+01:00</time>
      </trkpt>
      <trkpt lat="48.40394" lon="-4.88057">
        <ele>-8.5</ele>
        <time>2013-08-14T15:50:34.000+01:00</time>
      </trkpt>
      <trkpt lat="48.40394" lon="-4.88033">
        <ele>-9.5</ele>
        <time>2013-08-14T15:50:36.000+01:00</time>
      </trkpt>
      <trkpt lat="48.40394" lon="-4.88009">
        <ele>-10</ele>
        <time>2013-08-14T15:50:38.000+01:00</time>
      </trkpt>
      <trkpt lat="48.40395" lon="-4.87986">
        <ele>-10.2</ele>
        <time>2013-08-14T15:50:40.000+01:00</time>
      </trkpt>
      <trkpt lat="48.40395" lon="-4.87962">
        <ele>-10.6</ele>
        <time>2013-08-14T15:50:42.000+01:00</time>
      </trkpt>
      <trkpt lat="48.40395" lon="-4.87937">
        <ele>-11.2</ele>
        <time>2013-08-14T15:50:44.000+01:00</time>
      </trkpt>
      <trkpt lat="48.40396" lon="-4.87912">
        <ele>-11.9</ele>
        <time>2013-08-14T15:50:46.000+01:00</time>
      </trkpt>
      <trkpt lat="48.40396" lon="-4.87888">
        <ele>-11.6</ele>
        <time>2013-08-14T15:50:48.000+01:00</time>
      </trkpt>
      <trkpt lat="48.40396" lon="-4.87864">
        <ele>-11.8</ele>
        <time>2013-08-14T15:50:50.000+01:00</time>
      </trkpt>
      <trkpt lat="48.40397" lon="-4.8784">
        <ele>-10.5</ele>
        <time>2013-08-14T15:50:52.000+01:00</time>
      </trkpt>
      <trkpt lat="48.40397" lon="-4.87817">
        <ele>-9.8</ele>
        <time>2013-08-14T15:50:54.000+01:00</time>
      </trkpt>
      <trkpt lat="48.40398" lon="-4.87792">
        <ele>-9.2</ele>
        <time>2013-08-14T15:50:56.000+01:00</time>
      </trkpt>
      <trkpt lat="48.40399" lon="-4.87767">
        <ele>-9.3</ele>
        <time>2013-08-14T15:50:58.000+01:00</time>
      </trkpt>
      <trkpt lat="48.404" lon="-4.87743">
        <ele>-9</ele>
        <time>2013-08-14T15:51:00.000+01:00</time>
      </trkpt>
      <trkpt lat="48.404" lon="-4.87719">
        <ele>-9.4</ele>
        <time>2013-08-14T15:51:02.000+01:00</time>
      </trkpt>
      <trkpt lat="48.404" lon="-4.87695">
        <ele>-10</ele>
        <time>2013-08-14T15:51:04.000+01:00</time>
      </trkpt>
      <trkpt lat="48.404" lon="-4.87671">
        <ele>-10.4</ele>
        <time>2013-08-14T15:51:06.000+01:00</time>
      </trkpt>
      <trkpt lat="48.404" lon="-4.87648">
        <ele>-10.8</ele>
        <time>2013-08-14T15:51:08.000+01:00</time>
      </trkpt>
      <trkpt lat="48.404" lon="-4.87624">
        <ele>-10.8</ele>
        <time>2013-08-14T15:51:10.000+01:00</time>
      </trkpt>
      <trkpt lat="48.40399" lon="-4.87601">
        <ele>-12.5</ele>
        <time>2013-08-14T15:51:12.000+01:00</time>
      </trkpt>
      <trkpt lat="48.40399" lon="-4.87578">
        <ele>-13.3</ele>
        <time>2013-08-14T15:51:14.000+01:00</time>
      </trkpt>
      <trkpt lat="48.40398" lon="-4.87554">
        <ele>-13.8</ele>
        <time>2013-08-14T15:51:16.000+01:00</time>
      </trkpt>
      <trkpt lat="48.40398" lon="-4.8753">
        <ele>-14.5</ele>
        <time>2013-08-14T15:51:18.000+01:00</time>
      </trkpt>
      <trkpt lat="48.40397" lon="-4.87507">
        <ele>-13.4</ele>
        <time>2013-08-14T15:51:20.000+01:00</time>
      </trkpt>
      <trkpt lat="48.40396" lon="-4.87484">
        <ele>-12.5</ele>
        <time>2013-08-14T15:51:22.000+01:00</time>
      </trkpt>
      <trkpt lat="48.40396" lon="-4.87458">
        <ele>-12.8</ele>
        <time>2013-08-14T15:51:24.000+01:00</time>
      </trkpt>
      <trkpt lat="48.40396" lon="-4.87435">
        <ele>-13.7</ele>
        <time>2013-08-14T15:51:26.000+01:00</time>
      </trkpt>
      <trkpt lat="48.40396" lon="-4.87411">
        <ele>-14.6</ele>
        <time>2013-08-14T15:51:28.000+01:00</time>
      </trkpt>
      <trkpt lat="48.40396" lon="-4.87387">
        <ele>-15.5</ele>
        <time>2013-08-14T15:51:30.000+01:00</time>
      </trkpt>
      <trkpt lat="48.40397" lon="-4.87363">
        <ele>-16.9</ele>
        <time>2013-08-14T15:51:32.000+01:00</time>
      </trkpt>
      <trkpt lat="48.40398" lon="-4.87339">
        <ele>-17.3</ele>
        <time>2013-08-14T15:51:34.000+01:00</time>
      </trkpt>
      <trkpt lat="48.40398" lon="-4.87315">
        <ele>-17.5</ele>
        <time>2013-08-14T15:51:36.000+01:00</time>
      </trkpt>
      <trkpt lat="48.40398" lon="-4.87292">
        <ele>-17.4</ele>
        <time>2013-08-14T15:51:38.000+01:00</time>
      </trkpt>
      <trkpt lat="48.40398" lon="-4.87268">
        <ele>-16</ele>
        <time>2013-08-14T15:51:40.000+01:00</time>
      </trkpt>
      <trkpt lat="48.40398" lon="-4.87254">
        <ele>-15.7</ele>
        <time>2013-08-14T15:51:41.000+01:00</time>
      </trkpt>
      <trkpt lat="48.40398" lon="-4.8723">
        <ele>-15</ele>
        <time>2013-08-14T15:51:43.000+01:00</time>
      </trkpt>
      <trkpt lat="48.40398" lon="-4.87205">
        <ele>-13.2</ele>
        <time>2013-08-14T15:51:45.000+01:00</time>
      </trkpt>
      <trkpt lat="48.40397" lon="-4.8718">
        <ele>-11.6</ele>
        <time>2013-08-14T15:51:47.000+01:00</time>
      </trkpt>
      <trkpt lat="48.40397" lon="-4.87155">
        <ele>-10.5</ele>
        <time>2013-08-14T15:51:49.000+01:00</time>
      </trkpt>
      <trkpt lat="48.40397" lon="-4.8713">
        <ele>-9.1</ele>
        <time>2013-08-14T15:51:51.000+01:00</time>
      </trkpt>
      <trkpt lat="48.40397" lon="-4.87104">
        <ele>-9.5</ele>
        <time>2013-08-14T15:51:53.000+01:00</time>
      </trkpt>
      <trkpt lat="48.40397" lon="-4.87079">
        <ele>-9</ele>
        <time>2013-08-14T15:51:55.000+01:00</time>
      </trkpt>
      <trkpt lat="48.40396" lon="-4.87057">
        <ele>-8.5</ele>
        <time>2013-08-14T15:51:57.000+01:00</time>
      </trkpt>
      <trkpt lat="48.40395" lon="-4.87033">
        <ele>-8.5</ele>
        <time>2013-08-14T15:51:59.000+01:00</time>
      </trkpt>
      <trkpt lat="48.40395" lon="-4.87011">
        <ele>-8.2</ele>
        <time>2013-08-14T15:52:01.000+01:00</time>
      </trkpt>
      <trkpt lat="48.40395" lon="-4.86988">
        <ele>-9.2</ele>
        <time>2013-08-14T15:52:03.000+01:00</time>
      </trkpt>
      <trkpt lat="48.40395" lon="-4.86964">
        <ele>-8.9</ele>
        <time>2013-08-14T15:52:05.000+01:00</time>
      </trkpt>
      <trkpt lat="48.40394" lon="-4.86941">
        <ele>-8.6</ele>
        <time>2013-08-14T15:52:07.000+01:00</time>
      </trkpt>
      <trkpt lat="48.40393" lon="-4.86918">
        <ele>-9.8</ele>
        <time>2013-08-14T15:52:09.000+01:00</time>
      </trkpt>
      <trkpt lat="48.40393" lon="-4.86895">
        <ele>-9.2</ele>
        <time>2013-08-14T15:52:11.000+01:00</time>
      </trkpt>
      <trkpt lat="48.40392" lon="-4.86872">
        <ele>-9</ele>
        <time>2013-08-14T15:52:13.000+01:00</time>
      </trkpt>
      <trkpt lat="48.40391" lon="-4.86848">
        <ele>-9.7</ele>
        <time>2013-08-14T15:52:15.000+01:00</time>
      </trkpt>
      <trkpt lat="48.40391" lon="-4.86824">
        <ele>-9.8</ele>
        <time>2013-08-14T15:52:17.000+01:00</time>
      </trkpt>
      <trkpt lat="48.40391" lon="-4.868">
        <ele>-8.4</ele>
        <time>2013-08-14T15:52:19.000+01:00</time>
      </trkpt>
      <trkpt lat="48.40392" lon="-4.86775">
        <ele>-8.8</ele>
        <time>2013-08-14T15:52:21.000+01:00</time>
      </trkpt>
      <trkpt lat="48.40392" lon="-4.86751">
        <ele>-8.8</ele>
        <time>2013-08-14T15:52:23.000+01:00</time>
      </trkpt>
      <trkpt lat="48.40392" lon="-4.86726">
        <ele>-9.1</ele>
        <time>2013-08-14T15:52:25.000+01:00</time>
      </trkpt>
      <trkpt lat="48.40393" lon="-4.86704">
        <ele>-9.5</ele>
        <time>2013-08-14T15:52:27.000+01:00</time>
      </trkpt>
      <trkpt lat="48.40393" lon="-4.8668">
        <ele>-9.9</ele>
        <time>2013-08-14T15:52:29.000+01:00</time>
      </trkpt>
      <trkpt lat="48.40393" lon="-4.86655">
        <ele>-10.4</ele>
        <time>2013-08-14T15:52:31.000+01:00</time>
      </trkpt>
      <trkpt lat="48.40393" lon="-4.8663">
        <ele>-9.9</ele>
        <time>2013-08-14T15:52:33.000+01:00</time>
      </trkpt>
      <trkpt lat="48.40392" lon="-4.86609">
        <ele>-11</ele>
        <time>2013-08-14T15:52:35.000+01:00</time>
      </trkpt>
      <trkpt lat="48.40392" lon="-4.86587">
        <ele>-10.3</ele>
        <time>2013-08-14T15:52:37.000+01:00</time>
      </trkpt>
      <trkpt lat="48.40391" lon="-4.86563">
        <ele>-10.4</ele>
        <time>2013-08-14T15:52:39.000+01:00</time>
      </trkpt>
      <trkpt lat="48.40389" lon="-4.86539">
        <ele>-9.9</ele>
        <time>2013-08-14T15:52:41.000+01:00</time>
      </trkpt>
      <trkpt lat="48.40387" lon="-4.86516">
        <ele>-9</ele>
        <time>2013-08-14T15:52:43.000+01:00</time>
      </trkpt>
      <trkpt lat="48.40386" lon="-4.86492">
        <ele>-9.5</ele>
        <time>2013-08-14T15:52:45.000+01:00</time>
      </trkpt>
      <trkpt lat="48.40383" lon="-4.86469">
        <ele>-11.4</ele>
        <time>2013-08-14T15:52:47.000+01:00</time>
      </trkpt>
      <trkpt lat="48.40382" lon="-4.86446">
        <ele>-12</ele>
        <time>2013-08-14T15:52:49.000+01:00</time>
      </trkpt>
      <trkpt lat="48.4038" lon="-4.86423">
        <ele>-12.4</ele>
        <time>2013-08-14T15:52:51.000+01:00</time>
      </trkpt>
      <trkpt lat="48.40378" lon="-4.86401">
        <ele>-12.3</ele>
        <time>2013-08-14T15:52:53.000+01:00</time>
      </trkpt>
      <trkpt lat="48.40376" lon="-4.86376">
        <ele>-11.9</ele>
        <time>2013-08-14T15:52:55.000+01:00</time>
      </trkpt>
      <trkpt lat="48.40374" lon="-4.8635">
        <ele>-10.2</ele>
        <time>2013-08-14T15:52:57.000+01:00</time>
      </trkpt>
      <trkpt lat="48.40373" lon="-4.86336">
        <ele>-9.2</ele>
        <time>2013-08-14T15:52:58.000+01:00</time>
      </trkpt>
      <trkpt lat="48.40371" lon="-4.86313">
        <ele>-7.8</ele>
        <time>2013-08-14T15:53:00.000+01:00</time>
      </trkpt>
      <trkpt lat="48.4037" lon="-4.86289">
        <ele>-6</ele>
        <time>2013-08-14T15:53:02.000+01:00</time>
      </trkpt>
      <trkpt lat="48.40369" lon="-4.86264">
        <ele>-5.2</ele>
        <time>2013-08-14T15:53:04.000+01:00</time>
      </trkpt>
      <trkpt lat="48.40368" lon="-4.86238">
        <ele>-5.3</ele>
        <time>2013-08-14T15:53:06.000+01:00</time>
      </trkpt>
      <trkpt lat="48.40368" lon="-4.86213">
        <ele>-6.3</ele>
        <time>2013-08-14T15:53:08.000+01:00</time>
      </trkpt>
      <trkpt lat="48.40367" lon="-4.86188">
        <ele>-8.8</ele>
        <time>2013-08-14T15:53:10.000+01:00</time>
      </trkpt>
      <trkpt lat="48.40367" lon="-4.86165">
        <ele>-9.2</ele>
        <time>2013-08-14T15:53:12.000+01:00</time>
      </trkpt>
      <trkpt lat="48.40366" lon="-4.8614">
        <ele>-10</ele>
        <time>2013-08-14T15:53:14.000+01:00</time>
      </trkpt>
      <trkpt lat="48.40364" lon="-4.86115">
        <ele>-10.5</ele>
        <time>2013-08-14T15:53:16.000+01:00</time>
      </trkpt>
      <trkpt lat="48.40363" lon="-4.86089">
        <ele>-11.1</ele>
        <time>2013-08-14T15:53:18.000+01:00</time>
      </trkpt>
      <trkpt lat="48.40362" lon="-4.86065">
        <ele>-12.6</ele>
        <time>2013-08-14T15:53:20.000+01:00</time>
      </trkpt>
      <trkpt lat="48.40362" lon="-4.86039">
        <ele>-12.6</ele>
        <time>2013-08-14T15:53:22.000+01:00</time>
      </trkpt>
      <trkpt lat="48.40362" lon="-4.86013">
        <ele>-12.2</ele>
        <time>2013-08-14T15:53:24.000+01:00</time>
      </trkpt>
      <trkpt lat="48.40362" lon="-4.8599">
        <ele>-11.8</ele>
        <time>2013-08-14T15:53:26.000+01:00</time>
      </trkpt>
      <trkpt lat="48.40361" lon="-4.85966">
        <ele>-10.9</ele>
        <time>2013-08-14T15:53:28.000+01:00</time>
      </trkpt>
      <trkpt lat="48.40361" lon="-4.85942">
        <ele>-11.2</ele>
        <time>2013-08-14T15:53:30.000+01:00</time>
      </trkpt>
      <trkpt lat="48.4036" lon="-4.85917">
        <ele>-11.3</ele>
        <time>2013-08-14T15:53:32.000+01:00</time>
      </trkpt>
      <trkpt lat="48.4036" lon="-4.85891">
        <ele>-10.8</ele>
        <time>2013-08-14T15:53:34.000+01:00</time>
      </trkpt>
      <trkpt lat="48.40358" lon="-4.85867">
        <ele>-10.2</ele>
        <time>2013-08-14T15:53:36.000+01:00</time>
      </trkpt>
      <trkpt lat="48.40358" lon="-4.85841">
        <ele>-7.8</ele>
        <time>2013-08-14T15:53:38.000+01:00</time>
      </trkpt>
      <trkpt lat="48.40356" lon="-4.85816">
        <ele>-7.5</ele>
        <time>2013-08-14T15:53:40.000+01:00</time>
      </trkpt>
      <trkpt lat="48.40353" lon="-4.85792">
        <ele>-6.2</ele>
        <time>2013-08-14T15:53:42.000+01:00</time>
      </trkpt>
      <trkpt lat="48.4035" lon="-4.85768">
        <ele>-5.6</ele>
        <time>2013-08-14T15:53:44.000+01:00</time>
      </trkpt>
      <trkpt lat="48.40346" lon="-4.85744">
        <ele>-5.4</ele>
        <time>2013-08-14T15:53:46.000+01:00</time>
      </trkpt>
      <trkpt lat="48.40341" lon="-4.85721">
        <ele>-4.6</ele>
        <time>2013-08-14T15:53:48.000+01:00</time>
      </trkpt>
      <trkpt lat="48.40336" lon="-4.85698">
        <ele>-4.1</ele>
        <time>2013-08-14T15:53:50.000+01:00</time>
      </trkpt>
      <trkpt lat="48.4033" lon="-4.85674">
        <ele>-3.8</ele>
        <time>2013-08-14T15:53:52.000+01:00</time>
      </trkpt>
      <trkpt lat="48.40323" lon="-4.85653">
        <ele>-3.6</ele>
        <time>2013-08-14T15:53:54.000+01:00</time>
      </trkpt>
      <trkpt lat="48.40316" lon="-4.8563">
        <ele>-3.9</ele>
        <time>2013-08-14T15:53:56.000+01:00</time>
      </trkpt>
      <trkpt lat="48.4031" lon="-4.85607">
        <ele>-4.6</ele>
        <time>2013-08-14T15:53:58.000+01:00</time>
      </trkpt>
      <trkpt lat="48.40304" lon="-4.85585">
        <ele>-4.5</ele>
        <time>2013-08-14T15:54:00.000+01:00</time>
      </trkpt>
      <trkpt lat="48.40297" lon="-4.85562">
        <ele>-5.3</ele>
        <time>2013-08-14T15:54:02.000+01:00</time>
      </trkpt>
      <trkpt lat="48.4029" lon="-4.8554">
        <ele>-6.2</ele>
        <time>2013-08-14T15:54:04.000+01:00</time>
      </trkpt>
      <trkpt lat="48.40282" lon="-4.85518">
        <ele>-5.3</ele>
        <time>2013-08-14T15:54:06.000+01:00</time>
      </trkpt>
      <trkpt lat="48.40274" lon="-4.85496">
        <ele>-6.1</ele>
        <time>2013-08-14T15:54:08.000+01:00</time>
      </trkpt>
      <trkpt lat="48.40264" lon="-4.85475">
        <ele>-5.7</ele>
        <time>2013-08-14T15:54:10.000+01:00</time>
      </trkpt>
      <trkpt lat="48.40255" lon="-4.85454">
        <ele>-5.9</ele>
        <time>2013-08-14T15:54:12.000+01:00</time>
      </trkpt>
      <trkpt lat="48.40245" lon="-4.85436">
        <ele>-5.4</ele>
        <time>2013-08-14T15:54:14.000+01:00</time>
      </trkpt>
      <trkpt lat="48.40236" lon="-4.85417">
        <ele>-7.1</ele>
        <time>2013-08-14T15:54:16.000+01:00</time>
      </trkpt>
      <trkpt lat="48.40225" lon="-4.85399">
        <ele>-6.3</ele>
        <time>2013-08-14T15:54:18.000+01:00</time>
      </trkpt>
      <trkpt lat="48.40215" lon="-4.8538">
        <ele>-5.3</ele>
        <time>2013-08-14T15:54:20.000+01:00</time>
      </trkpt>
      <trkpt lat="48.40205" lon="-4.85362">
        <ele>-6.7</ele>
        <time>2013-08-14T15:54:22.000+01:00</time>
      </trkpt>
      <trkpt lat="48.40194" lon="-4.85346">
        <ele>-8.5</ele>
        <time>2013-08-14T15:54:24.000+01:00</time>
      </trkpt>
      <trkpt lat="48.40183" lon="-4.85329">
        <ele>-8.2</ele>
        <time>2013-08-14T15:54:26.000+01:00</time>
      </trkpt>
      <trkpt lat="48.40171" lon="-4.85311">
        <ele>-7</ele>
        <time>2013-08-14T15:54:28.000+01:00</time>
      </trkpt>
      <trkpt lat="48.4016" lon="-4.85295">
        <ele>-6.2</ele>
        <time>2013-08-14T15:54:30.000+01:00</time>
      </trkpt>
      <trkpt lat="48.40149" lon="-4.85278">
        <ele>-4.3</ele>
        <time>2013-08-14T15:54:32.000+01:00</time>
      </trkpt>
      <trkpt lat="48.4014" lon="-4.85262">
        <ele>-4.6</ele>
        <time>2013-08-14T15:54:34.000+01:00</time>
      </trkpt>
      <trkpt lat="48.40129" lon="-4.85243">
        <ele>-4.3</ele>
        <time>2013-08-14T15:54:36.000+01:00</time>
      </trkpt>
      <trkpt lat="48.40117" lon="-4.85226">
        <ele>-4.2</ele>
        <time>2013-08-14T15:54:38.000+01:00</time>
      </trkpt>
      <trkpt lat="48.40105" lon="-4.8521">
        <ele>-5.4</ele>
        <time>2013-08-14T15:54:40.000+01:00</time>
      </trkpt>
      <trkpt lat="48.40093" lon="-4.85193">
        <ele>-5.8</ele>
        <time>2013-08-14T15:54:42.000+01:00</time>
      </trkpt>
      <trkpt lat="48.40082" lon="-4.85176">
        <ele>-5.5</ele>
        <time>2013-08-14T15:54:44.000+01:00</time>
      </trkpt>
      <trkpt lat="48.40072" lon="-4.85158">
        <ele>-3.8</ele>
        <time>2013-08-14T15:54:46.000+01:00</time>
      </trkpt>
      <trkpt lat="48.40061" lon="-4.8514">
        <ele>-4</ele>
        <time>2013-08-14T15:54:48.000+01:00</time>
      </trkpt>
      <trkpt lat="48.40049" lon="-4.85121">
        <ele>-5</ele>
        <time>2013-08-14T15:54:50.000+01:00</time>
      </trkpt>
      <trkpt lat="48.40042" lon="-4.85112">
        <ele>-6</ele>
        <time>2013-08-14T15:54:51.000+01:00</time>
      </trkpt>
      <trkpt lat="48.40029" lon="-4.85094">
        <ele>-6.9</ele>
        <time>2013-08-14T15:54:53.000+01:00</time>
      </trkpt>
      <trkpt lat="48.40019" lon="-4.85074">
        <ele>-5.1</ele>
        <time>2013-08-14T15:54:55.000+01:00</time>
      </trkpt>
      <trkpt lat="48.40008" lon="-4.85056">
        <ele>-4.2</ele>
        <time>2013-08-14T15:54:57.000+01:00</time>
      </trkpt>
      <trkpt lat="48.39998" lon="-4.85038">
        <ele>-3.7</ele>
        <time>2013-08-14T15:54:59.000+01:00</time>
      </trkpt>
      <trkpt lat="48.39986" lon="-4.85022">
        <ele>-5.7</ele>
        <time>2013-08-14T15:55:01.000+01:00</time>
      </trkpt>
      <trkpt lat="48.39975" lon="-4.85005">
        <ele>-6.6</ele>
        <time>2013-08-14T15:55:03.000+01:00</time>
      </trkpt>
      <trkpt lat="48.39963" lon="-4.84987">
        <ele>-7.3</ele>
        <time>2013-08-14T15:55:05.000+01:00</time>
      </trkpt>
      <trkpt lat="48.39952" lon="-4.84969">
        <ele>-7.6</ele>
        <time>2013-08-14T15:55:07.000+01:00</time>
      </trkpt>
      <trkpt lat="48.39939" lon="-4.84952">
        <ele>-9.2</ele>
        <time>2013-08-14T15:55:09.000+01:00</time>
      </trkpt>
      <trkpt lat="48.39928" lon="-4.84934">
        <ele>-9</ele>
        <time>2013-08-14T15:55:11.000+01:00</time>
      </trkpt>
      <trkpt lat="48.39917" lon="-4.84915">
        <ele>-8.4</ele>
        <time>2013-08-14T15:55:13.000+01:00</time>
      </trkpt>
      <trkpt lat="48.39907" lon="-4.84897">
        <ele>-6.9</ele>
        <time>2013-08-14T15:55:15.000+01:00</time>
      </trkpt>
      <trkpt lat="48.39896" lon="-4.84879">
        <ele>-6.4</ele>
        <time>2013-08-14T15:55:17.000+01:00</time>
      </trkpt>
      <trkpt lat="48.39885" lon="-4.84863">
        <ele>-6.4</ele>
        <time>2013-08-14T15:55:19.000+01:00</time>
      </trkpt>
      <trkpt lat="48.39876" lon="-4.84845">
        <ele>-5.5</ele>
        <time>2013-08-14T15:55:21.000+01:00</time>
      </trkpt>
      <trkpt lat="48.39868" lon="-4.84825">
        <ele>-5.4</ele>
        <time>2013-08-14T15:55:23.000+01:00</time>
      </trkpt>
      <trkpt lat="48.39858" lon="-4.84807">
        <ele>-5.5</ele>
        <time>2013-08-14T15:55:25.000+01:00</time>
      </trkpt>
      <trkpt lat="48.39847" lon="-4.84788">
        <ele>-5.6</ele>
        <time>2013-08-14T15:55:27.000+01:00</time>
      </trkpt>
      <trkpt lat="48.39838" lon="-4.8477">
        <ele>-4.3</ele>
        <time>2013-08-14T15:55:29.000+01:00</time>
      </trkpt>
      <trkpt lat="48.39831" lon="-4.8475">
        <ele>-3.6</ele>
        <time>2013-08-14T15:55:31.000+01:00</time>
      </trkpt>
      <trkpt lat="48.39822" lon="-4.84732">
        <ele>-3.6</ele>
        <time>2013-08-14T15:55:33.000+01:00</time>
      </trkpt>
      <trkpt lat="48.39812" lon="-4.84714">
        <ele>-4.2</ele>
        <time>2013-08-14T15:55:35.000+01:00</time>
      </trkpt>
      <trkpt lat="48.39802" lon="-4.84696">
        <ele>-4.3</ele>
        <time>2013-08-14T15:55:37.000+01:00</time>
      </trkpt>
      <trkpt lat="48.39791" lon="-4.84679">
        <ele>-4.5</ele>
        <time>2013-08-14T15:55:39.000+01:00</time>
      </trkpt>
      <trkpt lat="48.39779" lon="-4.84661">
        <ele>-3.8</ele>
        <time>2013-08-14T15:55:41.000+01:00</time>
      </trkpt>
      <trkpt lat="48.39768" lon="-4.84642">
        <ele>-4.8</ele>
        <time>2013-08-14T15:55:43.000+01:00</time>
      </trkpt>
      <trkpt lat="48.39757" lon="-4.84623">
        <ele>-7.2</ele>
        <time>2013-08-14T15:55:45.000+01:00</time>
      </trkpt>
      <trkpt lat="48.39745" lon="-4.84605">
        <ele>-7.3</ele>
        <time>2013-08-14T15:55:47.000+01:00</time>
      </trkpt>
      <trkpt lat="48.39735" lon="-4.84587">
        <ele>-7.1</ele>
        <time>2013-08-14T15:55:49.000+01:00</time>
      </trkpt>
      <trkpt lat="48.39725" lon="-4.84569">
        <ele>-7.1</ele>
        <time>2013-08-14T15:55:51.000+01:00</time>
      </trkpt>
      <trkpt lat="48.39714" lon="-4.84552">
        <ele>-7.6</ele>
        <time>2013-08-14T15:55:53.000+01:00</time>
      </trkpt>
      <trkpt lat="48.39704" lon="-4.84534">
        <ele>-8.4</ele>
        <time>2013-08-14T15:55:55.000+01:00</time>
      </trkpt>
      <trkpt lat="48.39694" lon="-4.84515">
        <ele>-7.2</ele>
        <time>2013-08-14T15:55:57.000+01:00</time>
      </trkpt>
      <trkpt lat="48.39684" lon="-4.84497">
        <ele>-7.2</ele>
        <time>2013-08-14T15:55:59.000+01:00</time>
      </trkpt>
      <trkpt lat="48.39674" lon="-4.84478">
        <ele>-7.4</ele>
        <time>2013-08-14T15:56:01.000+01:00</time>
      </trkpt>
      <trkpt lat="48.39662" lon="-4.8446">
        <ele>-7.9</ele>
        <time>2013-08-14T15:56:03.000+01:00</time>
      </trkpt>
      <trkpt lat="48.3965" lon="-4.84442">
        <ele>-9.6</ele>
        <time>2013-08-14T15:56:05.000+01:00</time>
      </trkpt>
      <trkpt lat="48.39639" lon="-4.84425">
        <ele>-9.2</ele>
        <time>2013-08-14T15:56:07.000+01:00</time>
      </trkpt>
      <trkpt lat="48.39629" lon="-4.84407">
        <ele>-8.6</ele>
        <time>2013-08-14T15:56:09.000+01:00</time>
      </trkpt>
      <trkpt lat="48.3962" lon="-4.84389">
        <ele>-8.5</ele>
        <time>2013-08-14T15:56:11.000+01:00</time>
      </trkpt>
      <trkpt lat="48.3961" lon="-4.84369">
        <ele>-8.8</ele>
        <time>2013-08-14T15:56:13.000+01:00</time>
      </trkpt>
      <trkpt lat="48.396" lon="-4.8435">
        <ele>-8.7</ele>
        <time>2013-08-14T15:56:15.000+01:00</time>
      </trkpt>
      <trkpt lat="48.3959" lon="-4.8433">
        <ele>-9.4</ele>
        <time>2013-08-14T15:56:17.000+01:00</time>
      </trkpt>
      <trkpt lat="48.39579" lon="-4.84311">
        <ele>-9.9</ele>
        <time>2013-08-14T15:56:19.000+01:00</time>
      </trkpt>
      <trkpt lat="48.39569" lon="-4.84292">
        <ele>-9.7</ele>
        <time>2013-08-14T15:56:21.000+01:00</time>
      </trkpt>
      <trkpt lat="48.39558" lon="-4.84273">
        <ele>-8.6</ele>
        <time>2013-08-14T15:56:23.000+01:00</time>
      </trkpt>
      <trkpt lat="48.39547" lon="-4.84254">
        <ele>-9.9</ele>
        <time>2013-08-14T15:56:25.000+01:00</time>
      </trkpt>
      <trkpt lat="48.39536" lon="-4.84234">
        <ele>-11</ele>
        <time>2013-08-14T15:56:27.000+01:00</time>
      </trkpt>
      <trkpt lat="48.39526" lon="-4.84215">
        <ele>-10.8</ele>
        <time>2013-08-14T15:56:29.000+01:00</time>
      </trkpt>
      <trkpt lat="48.39516" lon="-4.84194">
        <ele>-11.4</ele>
        <time>2013-08-14T15:56:31.000+01:00</time>
      </trkpt>
      <trkpt lat="48.39506" lon="-4.84173">
        <ele>-12</ele>
        <time>2013-08-14T15:56:33.000+01:00</time>
      </trkpt>
      <trkpt lat="48.39498" lon="-4.84152">
        <ele>-11.9</ele>
        <time>2013-08-14T15:56:35.000+01:00</time>
      </trkpt>
      <trkpt lat="48.39489" lon="-4.84131">
        <ele>-11.5</ele>
        <time>2013-08-14T15:56:37.000+01:00</time>
      </trkpt>
      <trkpt lat="48.39478" lon="-4.84111">
        <ele>-13.1</ele>
        <time>2013-08-14T15:56:39.000+01:00</time>
      </trkpt>
      <trkpt lat="48.39467" lon="-4.84093">
        <ele>-14.6</ele>
        <time>2013-08-14T15:56:41.000+01:00</time>
      </trkpt>
      <trkpt lat="48.39456" lon="-4.84073">
        <ele>-15.4</ele>
        <time>2013-08-14T15:56:43.000+01:00</time>
      </trkpt>
      <trkpt lat="48.39445" lon="-4.84056">
        <ele>-14.3</ele>
        <time>2013-08-14T15:56:45.000+01:00</time>
      </trkpt>
      <trkpt lat="48.39435" lon="-4.84038">
        <ele>-12.1</ele>
        <time>2013-08-14T15:56:47.000+01:00</time>
      </trkpt>
      <trkpt lat="48.39425" lon="-4.8402">
        <ele>-11</ele>
        <time>2013-08-14T15:56:49.000+01:00</time>
      </trkpt>
      <trkpt lat="48.39414" lon="-4.84002">
        <ele>-10.1</ele>
        <time>2013-08-14T15:56:51.000+01:00</time>
      </trkpt>
      <trkpt lat="48.39404" lon="-4.83983">
        <ele>-8.4</ele>
        <time>2013-08-14T15:56:53.000+01:00</time>
      </trkpt>
      <trkpt lat="48.39394" lon="-4.83963">
        <ele>-6.4</ele>
        <time>2013-08-14T15:56:55.000+01:00</time>
      </trkpt>
      <trkpt lat="48.39383" lon="-4.83944">
        <ele>-6.3</ele>
        <time>2013-08-14T15:56:57.000+01:00</time>
      </trkpt>
      <trkpt lat="48.39371" lon="-4.83926">
        <ele>-5.8</ele>
        <time>2013-08-14T15:56:59.000+01:00</time>
      </trkpt>
      <trkpt lat="48.39361" lon="-4.83906">
        <ele>-5.5</ele>
        <time>2013-08-14T15:57:01.000+01:00</time>
      </trkpt>
      <trkpt lat="48.3935" lon="-4.83887">
        <ele>-6.8</ele>
        <time>2013-08-14T15:57:03.000+01:00</time>
      </trkpt>
      <trkpt lat="48.39339" lon="-4.83871">
        <ele>-8.2</ele>
        <time>2013-08-14T15:57:05.000+01:00</time>
      </trkpt>
      <trkpt lat="48.39327" lon="-4.83853">
        <ele>-7.8</ele>
        <time>2013-08-14T15:57:07.000+01:00</time>
      </trkpt>
      <trkpt lat="48.39317" lon="-4.83833">
        <ele>-8.1</ele>
        <time>2013-08-14T15:57:09.000+01:00</time>
      </trkpt>
      <trkpt lat="48.39306" lon="-4.83814">
        <ele>-8.3</ele>
        <time>2013-08-14T15:57:11.000+01:00</time>
      </trkpt>
      <trkpt lat="48.39296" lon="-4.83793">
        <ele>-9.4</ele>
        <time>2013-08-14T15:57:13.000+01:00</time>
      </trkpt>
      <trkpt lat="48.39285" lon="-4.83774">
        <ele>-8.8</ele>
        <time>2013-08-14T15:57:15.000+01:00</time>
      </trkpt>
      <trkpt lat="48.39273" lon="-4.83755">
        <ele>-8.3</ele>
        <time>2013-08-14T15:57:17.000+01:00</time>
      </trkpt>
      <trkpt lat="48.39262" lon="-4.83737">
        <ele>-7.4</ele>
        <time>2013-08-14T15:57:19.000+01:00</time>
      </trkpt>
      <trkpt lat="48.39251" lon="-4.8372">
        <ele>-6.3</ele>
        <time>2013-08-14T15:57:21.000+01:00</time>
      </trkpt>
      <trkpt lat="48.3924" lon="-4.83702">
        <ele>-4.1</ele>
        <time>2013-08-14T15:57:23.000+01:00</time>
      </trkpt>
      <trkpt lat="48.39228" lon="-4.83686">
        <ele>-4.7</ele>
        <time>2013-08-14T15:57:25.000+01:00</time>
      </trkpt>
      <trkpt lat="48.39216" lon="-4.83669">
        <ele>-4.7</ele>
        <time>2013-08-14T15:57:27.000+01:00</time>
      </trkpt>
      <trkpt lat="48.39205" lon="-4.83652">
        <ele>-3.9</ele>
        <time>2013-08-14T15:57:29.000+01:00</time>
      </trkpt>
      <trkpt lat="48.39194" lon="-4.83634">
        <ele>-4.2</ele>
        <time>2013-08-14T15:57:31.000+01:00</time>
      </trkpt>
      <trkpt lat="48.39182" lon="-4.83616">
        <ele>-6.6</ele>
        <time>2013-08-14T15:57:33.000+01:00</time>
      </trkpt>
      <trkpt lat="48.3917" lon="-4.83599">
        <ele>-6.3</ele>
        <time>2013-08-14T15:57:35.000+01:00</time>
      </trkpt>
      <trkpt lat="48.3916" lon="-4.83581">
        <ele>-6.3</ele>
        <time>2013-08-14T15:57:37.000+01:00</time>
      </trkpt>
      <trkpt lat="48.39149" lon="-4.83562">
        <ele>-5.5</ele>
        <time>2013-08-14T15:57:39.000+01:00</time>
      </trkpt>
      <trkpt lat="48.39138" lon="-4.83544">
        <ele>-4.9</ele>
        <time>2013-08-14T15:57:41.000+01:00</time>
      </trkpt>
      <trkpt lat="48.39125" lon="-4.83528">
        <ele>-7.1</ele>
        <time>2013-08-14T15:57:43.000+01:00</time>
      </trkpt>
      <trkpt lat="48.39113" lon="-4.8351">
        <ele>-8.1</ele>
        <time>2013-08-14T15:57:45.000+01:00</time>
      </trkpt>
      <trkpt lat="48.39103" lon="-4.83493">
        <ele>-8.8</ele>
        <time>2013-08-14T15:57:47.000+01:00</time>
      </trkpt>
      <trkpt lat="48.39093" lon="-4.83474">
        <ele>-8</ele>
        <time>2013-08-14T15:57:49.000+01:00</time>
      </trkpt>
      <trkpt lat="48.39082" lon="-4.83456">
        <ele>-7.4</ele>
        <time>2013-08-14T15:57:51.000+01:00</time>
      </trkpt>
      <trkpt lat="48.39071" lon="-4.83437">
        <ele>-7.9</ele>
        <time>2013-08-14T15:57:53.000+01:00</time>
      </trkpt>
      <trkpt lat="48.39061" lon="-4.83418">
        <ele>-8.9</ele>
        <time>2013-08-14T15:57:55.000+01:00</time>
      </trkpt>
      <trkpt lat="48.39049" lon="-4.83401">
        <ele>-8.6</ele>
        <time>2013-08-14T15:57:57.000+01:00</time>
      </trkpt>
      <trkpt lat="48.39037" lon="-4.83384">
        <ele>-8.6</ele>
        <time>2013-08-14T15:57:59.000+01:00</time>
      </trkpt>
      <trkpt lat="48.39025" lon="-4.83365">
        <ele>-9.6</ele>
        <time>2013-08-14T15:58:01.000+01:00</time>
      </trkpt>
      <trkpt lat="48.39012" lon="-4.83348">
        <ele>-9.6</ele>
        <time>2013-08-14T15:58:03.000+01:00</time>
      </trkpt>
      <trkpt lat="48.39002" lon="-4.8333">
        <ele>-8.1</ele>
        <time>2013-08-14T15:58:05.000+01:00</time>
      </trkpt>
      <trkpt lat="48.3899" lon="-4.83312">
        <ele>-6.6</ele>
        <time>2013-08-14T15:58:07.000+01:00</time>
      </trkpt>
      <trkpt lat="48.38979" lon="-4.83295">
        <ele>-5.7</ele>
        <time>2013-08-14T15:58:09.000+01:00</time>
      </trkpt>
      <trkpt lat="48.38969" lon="-4.83277">
        <ele>-7.5</ele>
        <time>2013-08-14T15:58:11.000+01:00</time>
      </trkpt>
      <trkpt lat="48.38958" lon="-4.8326">
        <ele>-8.2</ele>
        <time>2013-08-14T15:58:13.000+01:00</time>
      </trkpt>
      <trkpt lat="48.38946" lon="-4.83244">
        <ele>-8.8</ele>
        <time>2013-08-14T15:58:15.000+01:00</time>
      </trkpt>
      <trkpt lat="48.38934" lon="-4.83226">
        <ele>-8.2</ele>
        <time>2013-08-14T15:58:17.000+01:00</time>
      </trkpt>
      <trkpt lat="48.38924" lon="-4.83209">
        <ele>-6.8</ele>
        <time>2013-08-14T15:58:19.000+01:00</time>
      </trkpt>
      <trkpt lat="48.38914" lon="-4.83192">
        <ele>-4.9</ele>
        <time>2013-08-14T15:58:21.000+01:00</time>
      </trkpt>
      <trkpt lat="48.38904" lon="-4.83176">
        <ele>-5.4</ele>
        <time>2013-08-14T15:58:23.000+01:00</time>
      </trkpt>
      <trkpt lat="48.38893" lon="-4.8316">
        <ele>-3.8</ele>
        <time>2013-08-14T15:58:25.000+01:00</time>
      </trkpt>
      <trkpt lat="48.38882" lon="-4.83144">
        <ele>-5.9</ele>
        <time>2013-08-14T15:58:27.000+01:00</time>
      </trkpt>
      <trkpt lat="48.38871" lon="-4.83129">
        <ele>-6.9</ele>
        <time>2013-08-14T15:58:29.000+01:00</time>
      </trkpt>
      <trkpt lat="48.38859" lon="-4.83112">
        <ele>-8.1</ele>
        <time>2013-08-14T15:58:31.000+01:00</time>
      </trkpt>
      <trkpt lat="48.38848" lon="-4.83094">
        <ele>-6.9</ele>
        <time>2013-08-14T15:58:33.000+01:00</time>
      </trkpt>
      <trkpt lat="48.38838" lon="-4.83074">
        <ele>-6.6</ele>
        <time>2013-08-14T15:58:35.000+01:00</time>
      </trkpt>
      <trkpt lat="48.38827" lon="-4.83054">
        <ele>-6.2</ele>
        <time>2013-08-14T15:58:37.000+01:00</time>
      </trkpt>
      <trkpt lat="48.38816" lon="-4.83034">
        <ele>-6.4</ele>
        <time>2013-08-14T15:58:39.000+01:00</time>
      </trkpt>
      <trkpt lat="48.38805" lon="-4.83017">
        <ele>-8.2</ele>
        <time>2013-08-14T15:58:41.000+01:00</time>
      </trkpt>
      <trkpt lat="48.38793" lon="-4.83">
        <ele>-9.4</ele>
        <time>2013-08-14T15:58:43.000+01:00</time>
      </trkpt>
      <trkpt lat="48.3878" lon="-4.82983">
        <ele>-10.2</ele>
        <time>2013-08-14T15:58:45.000+01:00</time>
      </trkpt>
      <trkpt lat="48.38769" lon="-4.82965">
        <ele>-10.4</ele>
        <time>2013-08-14T15:58:47.000+01:00</time>
      </trkpt>
      <trkpt lat="48.38758" lon="-4.82948">
        <ele>-9.5</ele>
        <time>2013-08-14T15:58:49.000+01:00</time>
      </trkpt>
      <trkpt lat="48.38747" lon="-4.82932">
        <ele>-9.3</ele>
        <time>2013-08-14T15:58:51.000+01:00</time>
      </trkpt>
      <trkpt lat="48.38735" lon="-4.82916">
        <ele>-10.5</ele>
        <time>2013-08-14T15:58:53.000+01:00</time>
      </trkpt>
      <trkpt lat="48.38724" lon="-4.82901">
        <ele>-12</ele>
        <time>2013-08-14T15:58:55.000+01:00</time>
      </trkpt>
      <trkpt lat="48.38712" lon="-4.82888">
        <ele>-11.5</ele>
        <time>2013-08-14T15:58:57.000+01:00</time>
      </trkpt>
      <trkpt lat="48.38703" lon="-4.82869">
        <ele>-11</ele>
        <time>2013-08-14T15:58:59.000+01:00</time>
      </trkpt>
      <trkpt lat="48.38691" lon="-4.82852">
        <ele>-7.2</ele>
        <time>2013-08-14T15:59:01.000+01:00</time>
      </trkpt>
      <trkpt lat="48.3868" lon="-4.82834">
        <ele>-6.1</ele>
        <time>2013-08-14T15:59:03.000+01:00</time>
      </trkpt>
      <trkpt lat="48.38669" lon="-4.82818">
        <ele>-7.1</ele>
        <time>2013-08-14T15:59:05.000+01:00</time>
      </trkpt>
      <trkpt lat="48.38658" lon="-4.82801">
        <ele>-6.3</ele>
        <time>2013-08-14T15:59:07.000+01:00</time>
      </trkpt>
      <trkpt lat="48.38647" lon="-4.82786">
        <ele>-7.6</ele>
        <time>2013-08-14T15:59:09.000+01:00</time>
      </trkpt>
      <trkpt lat="48.38635" lon="-4.82771">
        <ele>-6.4</ele>
        <time>2013-08-14T15:59:11.000+01:00</time>
      </trkpt>
      <trkpt lat="48.38622" lon="-4.82754">
        <ele>-6.2</ele>
        <time>2013-08-14T15:59:13.000+01:00</time>
      </trkpt>
      <trkpt lat="48.38615" lon="-4.82745">
        <ele>-7</ele>
        <time>2013-08-14T15:59:14.000+01:00</time>
      </trkpt>
      <trkpt lat="48.38605" lon="-4.82726">
        <ele>-6.6</ele>
        <time>2013-08-14T15:59:16.000+01:00</time>
      </trkpt>
      <trkpt lat="48.38593" lon="-4.82709">
        <ele>-4.9</ele>
        <time>2013-08-14T15:59:18.000+01:00</time>
      </trkpt>
      <trkpt lat="48.38583" lon="-4.8269">
        <ele>-3</ele>
        <time>2013-08-14T15:59:20.000+01:00</time>
      </trkpt>
      <trkpt lat="48.38574" lon="-4.82672">
        <ele>-3.1</ele>
        <time>2013-08-14T15:59:22.000+01:00</time>
      </trkpt>
      <trkpt lat="48.38562" lon="-4.82654">
        <ele>-2.5</ele>
        <time>2013-08-14T15:59:24.000+01:00</time>
      </trkpt>
      <trkpt lat="48.38551" lon="-4.82636">
        <ele>-2.5</ele>
        <time>2013-08-14T15:59:26.000+01:00</time>
      </trkpt>
      <trkpt lat="48.38539" lon="-4.8262">
        <ele>-0.9</ele>
        <time>2013-08-14T15:59:28.000+01:00</time>
      </trkpt>
      <trkpt lat="48.38526" lon="-4.82603">
        <ele>0.5</ele>
        <time>2013-08-14T15:59:30.000+01:00</time>
      </trkpt>
      <trkpt lat="48.38514" lon="-4.82585">
        <ele>-0.8</ele>
        <time>2013-08-14T15:59:32.000+01:00</time>
      </trkpt>
      <trkpt lat="48.38504" lon="-4.82567">
        <ele>-0.6</ele>
        <time>2013-08-14T15:59:34.000+01:00</time>
      </trkpt>
      <trkpt lat="48.38492" lon="-4.82549">
        <ele>-1.5</ele>
        <time>2013-08-14T15:59:36.000+01:00</time>
      </trkpt>
      <trkpt lat="48.38481" lon="-4.82531">
        <ele>-1.3</ele>
        <time>2013-08-14T15:59:38.000+01:00</time>
      </trkpt>
      <trkpt lat="48.38469" lon="-4.82514">
        <ele>-1.3</ele>
        <time>2013-08-14T15:59:40.000+01:00</time>
      </trkpt>
      <trkpt lat="48.38459" lon="-4.82494">
        <ele>-2.4</ele>
        <time>2013-08-14T15:59:42.000+01:00</time>
      </trkpt>
      <trkpt lat="48.38448" lon="-4.82475">
        <ele>-3.9</ele>
        <time>2013-08-14T15:59:44.000+01:00</time>
      </trkpt>
      <trkpt lat="48.38438" lon="-4.82456">
        <ele>-4.5</ele>
        <time>2013-08-14T15:59:46.000+01:00</time>
      </trkpt>
      <trkpt lat="48.38428" lon="-4.82435">
        <ele>-4.7</ele>
        <time>2013-08-14T15:59:48.000+01:00</time>
      </trkpt>
      <trkpt lat="48.38416" lon="-4.82416">
        <ele>-4.6</ele>
        <time>2013-08-14T15:59:50.000+01:00</time>
      </trkpt>
      <trkpt lat="48.38404" lon="-4.82398">
        <ele>-3.1</ele>
        <time>2013-08-14T15:59:52.000+01:00</time>
      </trkpt>
      <trkpt lat="48.38393" lon="-4.82378">
        <ele>-2.3</ele>
        <time>2013-08-14T15:59:54.000+01:00</time>
      </trkpt>
      <trkpt lat="48.38382" lon="-4.82359">
        <ele>-2.5</ele>
        <time>2013-08-14T15:59:56.000+01:00</time>
      </trkpt>
      <trkpt lat="48.38372" lon="-4.82341">
        <ele>-2.8</ele>
        <time>2013-08-14T15:59:58.000+01:00</time>
      </trkpt>
      <trkpt lat="48.38361" lon="-4.82322">
        <ele>-2.8</ele>
        <time>2013-08-14T16:00:00.000+01:00</time>
      </trkpt>
      <trkpt lat="48.3835" lon="-4.82305">
        <ele>-0.7</ele>
        <time>2013-08-14T16:00:02.000+01:00</time>
      </trkpt>
      <trkpt lat="48.38338" lon="-4.82287">
        <ele>-1.9</ele>
        <time>2013-08-14T16:00:04.000+01:00</time>
      </trkpt>
      <trkpt lat="48.38327" lon="-4.82269">
        <ele>-3.6</ele>
        <time>2013-08-14T16:00:06.000+01:00</time>
      </trkpt>
      <trkpt lat="48.38315" lon="-4.82251">
        <ele>-3.2</ele>
        <time>2013-08-14T16:00:08.000+01:00</time>
      </trkpt>
      <trkpt lat="48.38305" lon="-4.82233">
        <ele>-3.9</ele>
        <time>2013-08-14T16:00:10.000+01:00</time>
      </trkpt>
      <trkpt lat="48.38293" lon="-4.82216">
        <ele>-4.2</ele>
        <time>2013-08-14T16:00:12.000+01:00</time>
      </trkpt>
      <trkpt lat="48.38282" lon="-4.82201">
        <ele>-5.2</ele>
        <time>2013-08-14T16:00:14.000+01:00</time>
      </trkpt>
      <trkpt lat="48.38273" lon="-4.82183">
        <ele>-4.5</ele>
        <time>2013-08-14T16:00:16.000+01:00</time>
      </trkpt>
      <trkpt lat="48.38263" lon="-4.82167">
        <ele>-1.8</ele>
        <time>2013-08-14T16:00:18.000+01:00</time>
      </trkpt>
      <trkpt lat="48.38251" lon="-4.82151">
        <ele>-3.5</ele>
        <time>2013-08-14T16:00:20.000+01:00</time>
      </trkpt>
      <trkpt lat="48.3824" lon="-4.82134">
        <ele>-3.5</ele>
        <time>2013-08-14T16:00:22.000+01:00</time>
      </trkpt>
      <trkpt lat="48.38231" lon="-4.82118">
        <ele>-4.8</ele>
        <time>2013-08-14T16:00:24.000+01:00</time>
      </trkpt>
      <trkpt lat="48.38219" lon="-4.82103">
        <ele>-5.6</ele>
        <time>2013-08-14T16:00:26.000+01:00</time>
      </trkpt>
      <trkpt lat="48.38208" lon="-4.82086">
        <ele>-8.6</ele>
        <time>2013-08-14T16:00:28.000+01:00</time>
      </trkpt>
      <trkpt lat="48.38196" lon="-4.82069">
        <ele>-7.8</ele>
        <time>2013-08-14T16:00:30.000+01:00</time>
      </trkpt>
      <trkpt lat="48.38183" lon="-4.82053">
        <ele>-5.3</ele>
        <time>2013-08-14T16:00:32.000+01:00</time>
      </trkpt>
      <trkpt lat="48.38171" lon="-4.82034">
        <ele>-3.6</ele>
        <time>2013-08-14T16:00:34.000+01:00</time>
      </trkpt>
      <trkpt lat="48.38161" lon="-4.82014">
        <ele>-2.1</ele>
        <time>2013-08-14T16:00:36.000+01:00</time>
      </trkpt>
      <trkpt lat="48.38151" lon="-4.81997">
        <ele>-0.5</ele>
        <time>2013-08-14T16:00:38.000+01:00</time>
      </trkpt>
      <trkpt lat="48.38139" lon="-4.81979">
        <time>2013-08-14T16:00:40.000+01:00</time>
      </trkpt>
      <trkpt lat="48.38127" lon="-4.81961">
        <ele>-1.6</ele>
        <time>2013-08-14T16:00:42.000+01:00</time>
      </trkpt>
      <trkpt lat="48.38115" lon="-4.81944">
        <ele>-3.3</ele>
        <time>2013-08-14T16:00:44.000+01:00</time>
      </trkpt>
      <trkpt lat="48.38102" lon="-4.8193">
        <ele>-5.3</ele>
        <time>2013-08-14T16:00:46.000+01:00</time>
      </trkpt>
      <trkpt lat="48.3809" lon="-4.81915">
        <ele>-7.5</ele>
        <time>2013-08-14T16:00:48.000+01:00</time>
      </trkpt>
      <trkpt lat="48.38077" lon="-4.81901">
        <ele>-9.7</ele>
        <time>2013-08-14T16:00:50.000+01:00</time>
      </trkpt>
      <trkpt lat="48.38066" lon="-4.81884">
        <ele>-11.7</ele>
        <time>2013-08-14T16:00:52.000+01:00</time>
      </trkpt>
      <trkpt lat="48.38055" lon="-4.81866">
        <ele>-12.6</ele>
        <time>2013-08-14T16:00:54.000+01:00</time>
      </trkpt>
      <trkpt lat="48.38044" lon="-4.8185">
        <ele>-11.3</ele>
        <time>2013-08-14T16:00:56.000+01:00</time>
      </trkpt>
      <trkpt lat="48.38033" lon="-4.81833">
        <ele>-11.5</ele>
        <time>2013-08-14T16:00:58.000+01:00</time>
      </trkpt>
      <trkpt lat="48.38023" lon="-4.81815">
        <ele>-13.3</ele>
        <time>2013-08-14T16:01:00.000+01:00</time>
      </trkpt>
      <trkpt lat="48.38014" lon="-4.81797">
        <ele>-14</ele>
        <time>2013-08-14T16:01:02.000+01:00</time>
      </trkpt>
      <trkpt lat="48.38003" lon="-4.81783">
        <ele>-14.3</ele>
        <time>2013-08-14T16:01:04.000+01:00</time>
      </trkpt>
      <trkpt lat="48.37992" lon="-4.81767">
        <ele>-15.3</ele>
        <time>2013-08-14T16:01:06.000+01:00</time>
      </trkpt>
      <trkpt lat="48.3798" lon="-4.81752">
        <ele>-16.5</ele>
        <time>2013-08-14T16:01:08.000+01:00</time>
      </trkpt>
      <trkpt lat="48.37967" lon="-4.81737">
        <ele>-16.5</ele>
        <time>2013-08-14T16:01:10.000+01:00</time>
      </trkpt>
      <trkpt lat="48.37954" lon="-4.81722">
        <ele>-16.6</ele>
        <time>2013-08-14T16:01:12.000+01:00</time>
      </trkpt>
      <trkpt lat="48.37945" lon="-4.81716">
        <ele>-17.3</ele>
        <time>2013-08-14T16:01:13.000+01:00</time>
      </trkpt>
      <trkpt lat="48.3793" lon="-4.81702">
        <ele>-19.4</ele>
        <time>2013-08-14T16:01:15.000+01:00</time>
      </trkpt>
      <trkpt lat="48.37916" lon="-4.81687">
        <ele>-20.3</ele>
        <time>2013-08-14T16:01:17.000+01:00</time>
      </trkpt>
      <trkpt lat="48.37902" lon="-4.81673">
        <ele>-20</ele>
        <time>2013-08-14T16:01:19.000+01:00</time>
      </trkpt>
      <trkpt lat="48.37888" lon="-4.8166">
        <ele>-17.9</ele>
        <time>2013-08-14T16:01:21.000+01:00</time>
      </trkpt>
      <trkpt lat="48.37875" lon="-4.81643">
        <ele>-16.6</ele>
        <time>2013-08-14T16:01:23.000+01:00</time>
      </trkpt>
      <trkpt lat="48.37862" lon="-4.81628">
        <ele>-16.8</ele>
        <time>2013-08-14T16:01:25.000+01:00</time>
      </trkpt>
      <trkpt lat="48.37849" lon="-4.81613">
        <ele>-17.7</ele>
        <time>2013-08-14T16:01:27.000+01:00</time>
      </trkpt>
      <trkpt lat="48.37838" lon="-4.81598">
        <ele>-20</ele>
        <time>2013-08-14T16:01:29.000+01:00</time>
      </trkpt>
      <trkpt lat="48.37826" lon="-4.81585">
        <ele>-21.2</ele>
        <time>2013-08-14T16:01:31.000+01:00</time>
      </trkpt>
      <trkpt lat="48.37814" lon="-4.81572">
        <ele>-21.1</ele>
        <time>2013-08-14T16:01:33.000+01:00</time>
      </trkpt>
      <trkpt lat="48.37801" lon="-4.81559">
        <ele>-20.9</ele>
        <time>2013-08-14T16:01:35.000+01:00</time>
      </trkpt>
      <trkpt lat="48.37788" lon="-4.81545">
        <ele>-20.7</ele>
        <time>2013-08-14T16:01:37.000+01:00</time>
      </trkpt>
      <trkpt lat="48.37774" lon="-4.81532">
        <ele>-21.6</ele>
        <time>2013-08-14T16:01:39.000+01:00</time>
      </trkpt>
      <trkpt lat="48.3776" lon="-4.81521">
        <ele>-21</ele>
        <time>2013-08-14T16:01:41.000+01:00</time>
      </trkpt>
      <trkpt lat="48.37749" lon="-4.81507">
        <ele>-20.9</ele>
        <time>2013-08-14T16:01:43.000+01:00</time>
      </trkpt>
      <trkpt lat="48.37737" lon="-4.81493">
        <ele>-22.6</ele>
        <time>2013-08-14T16:01:45.000+01:00</time>
      </trkpt>
      <trkpt lat="48.37727" lon="-4.8148">
        <ele>-23.3</ele>
        <time>2013-08-14T16:01:47.000+01:00</time>
      </trkpt>
      <trkpt lat="48.37715" lon="-4.81467">
        <ele>-25</ele>
        <time>2013-08-14T16:01:49.000+01:00</time>
      </trkpt>
      <trkpt lat="48.37702" lon="-4.81454">
        <ele>-25.1</ele>
        <time>2013-08-14T16:01:51.000+01:00</time>
      </trkpt>
      <trkpt lat="48.37689" lon="-4.81441">
        <ele>-25.6</ele>
        <time>2013-08-14T16:01:53.000+01:00</time>
      </trkpt>
      <trkpt lat="48.37676" lon="-4.81428">
        <ele>-24.6</ele>
        <time>2013-08-14T16:01:55.000+01:00</time>
      </trkpt>
      <trkpt lat="48.37662" lon="-4.81414">
        <ele>-25</ele>
        <time>2013-08-14T16:01:57.000+01:00</time>
      </trkpt>
      <trkpt lat="48.3765" lon="-4.81401">
        <ele>-25</ele>
        <time>2013-08-14T16:01:59.000+01:00</time>
      </trkpt>
      <trkpt lat="48.37636" lon="-4.81388">
        <ele>-25.6</ele>
        <time>2013-08-14T16:02:01.000+01:00</time>
      </trkpt>
      <trkpt lat="48.37622" lon="-4.81374">
        <ele>-25.1</ele>
        <time>2013-08-14T16:02:03.000+01:00</time>
      </trkpt>
      <trkpt lat="48.37607" lon="-4.8136">
        <ele>-27.7</ele>
        <time>2013-08-14T16:02:05.000+01:00</time>
      </trkpt>
      <trkpt lat="48.37592" lon="-4.81348">
        <ele>-29.9</ele>
        <time>2013-08-14T16:02:07.000+01:00</time>
      </trkpt>
      <trkpt lat="48.37584" lon="-4.81342">
        <ele>-30.9</ele>
        <time>2013-08-14T16:02:08.000+01:00</time>
      </trkpt>
      <trkpt lat="48.3757" lon="-4.81329">
        <ele>-32.2</ele>
        <time>2013-08-14T16:02:10.000+01:00</time>
      </trkpt>
      <trkpt lat="48.37557" lon="-4.81316">
        <ele>-34.1</ele>
        <time>2013-08-14T16:02:12.000+01:00</time>
      </trkpt>
      <trkpt lat="48.37545" lon="-4.81302">
        <ele>-35.4</ele>
        <time>2013-08-14T16:02:14.000+01:00</time>
      </trkpt>
      <trkpt lat="48.37533" lon="-4.81288">
        <ele>-34.6</ele>
        <time>2013-08-14T16:02:16.000+01:00</time>
      </trkpt>
      <trkpt lat="48.37519" lon="-4.81276">
        <ele>-33.9</ele>
        <time>2013-08-14T16:02:18.000+01:00</time>
      </trkpt>
      <trkpt lat="48.3751" lon="-4.8127">
        <ele>-34</ele>
        <time>2013-08-14T16:02:19.000+01:00</time>
      </trkpt>
      <trkpt lat="48.37496" lon="-4.81259">
        <ele>-33.9</ele>
        <time>2013-08-14T16:02:21.000+01:00</time>
      </trkpt>
      <trkpt lat="48.37482" lon="-4.81247">
        <ele>-31.7</ele>
        <time>2013-08-14T16:02:23.000+01:00</time>
      </trkpt>
      <trkpt lat="48.3747" lon="-4.81234">
        <ele>-28.7</ele>
        <time>2013-08-14T16:02:25.000+01:00</time>
      </trkpt>
      <trkpt lat="48.37456" lon="-4.8122">
        <ele>-26.8</ele>
        <time>2013-08-14T16:02:27.000+01:00</time>
      </trkpt>
      <trkpt lat="48.37442" lon="-4.81207">
        <ele>-27.6</ele>
        <time>2013-08-14T16:02:29.000+01:00</time>
      </trkpt>
      <trkpt lat="48.37429" lon="-4.81192">
        <ele>-28</ele>
        <time>2013-08-14T16:02:31.000+01:00</time>
      </trkpt>
      <trkpt lat="48.37418" lon="-4.81176">
        <ele>-27.7</ele>
        <time>2013-08-14T16:02:33.000+01:00</time>
      </trkpt>
      <trkpt lat="48.37406" lon="-4.81162">
        <ele>-26.7</ele>
        <time>2013-08-14T16:02:35.000+01:00</time>
      </trkpt>
      <trkpt lat="48.37393" lon="-4.81148">
        <ele>-26</ele>
        <time>2013-08-14T16:02:37.000+01:00</time>
      </trkpt>
      <trkpt lat="48.37379" lon="-4.81134">
        <ele>-25.5</ele>
        <time>2013-08-14T16:02:39.000+01:00</time>
      </trkpt>
      <trkpt lat="48.37367" lon="-4.81121">
        <ele>-25.3</ele>
        <time>2013-08-14T16:02:41.000+01:00</time>
      </trkpt>
      <trkpt lat="48.37355" lon="-4.81107">
        <ele>-26.2</ele>
        <time>2013-08-14T16:02:43.000+01:00</time>
      </trkpt>
      <trkpt lat="48.37341" lon="-4.81092">
        <ele>-22.4</ele>
        <time>2013-08-14T16:02:45.000+01:00</time>
      </trkpt>
      <trkpt lat="48.37327" lon="-4.81078">
        <ele>-21.2</ele>
        <time>2013-08-14T16:02:47.000+01:00</time>
      </trkpt>
      <trkpt lat="48.37315" lon="-4.81063">
        <ele>-19.6</ele>
        <time>2013-08-14T16:02:49.000+01:00</time>
      </trkpt>
      <trkpt lat="48.37307" lon="-4.81054">
        <ele>-18.7</ele>
        <time>2013-08-14T16:02:50.000+01:00</time>
      </trkpt>
      <trkpt lat="48.37295" lon="-4.81041">
        <ele>-21.3</ele>
        <time>2013-08-14T16:02:52.000+01:00</time>
      </trkpt>
      <trkpt lat="48.37284" lon="-4.81025">
        <ele>-22.2</ele>
        <time>2013-08-14T16:02:54.000+01:00</time>
      </trkpt>
      <trkpt lat="48.37273" lon="-4.81011">
        <ele>-23.9</ele>
        <time>2013-08-14T16:02:56.000+01:00</time>
      </trkpt>
      <trkpt lat="48.37261" lon="-4.80994">
        <ele>-27.1</ele>
        <time>2013-08-14T16:02:58.000+01:00</time>
      </trkpt>
      <trkpt lat="48.37249" lon="-4.80978">
        <ele>-28.1</ele>
        <time>2013-08-14T16:03:00.000+01:00</time>
      </trkpt>
      <trkpt lat="48.37239" lon="-4.80961">
        <ele>-29.7</ele>
        <time>2013-08-14T16:03:02.000+01:00</time>
      </trkpt>
      <trkpt lat="48.37229" lon="-4.80944">
        <ele>-31.9</ele>
        <time>2013-08-14T16:03:04.000+01:00</time>
      </trkpt>
      <trkpt lat="48.37217" lon="-4.80928">
        <ele>-29.6</ele>
        <time>2013-08-14T16:03:06.000+01:00</time>
      </trkpt>
      <trkpt lat="48.37203" lon="-4.80914">
        <ele>-27.4</ele>
        <time>2013-08-14T16:03:08.000+01:00</time>
      </trkpt>
      <trkpt lat="48.37189" lon="-4.80899">
        <ele>-28.7</ele>
        <time>2013-08-14T16:03:10.000+01:00</time>
      </trkpt>
      <trkpt lat="48.37182" lon="-4.80892">
        <ele>-27.1</ele>
        <time>2013-08-14T16:03:11.000+01:00</time>
      </trkpt>
      <trkpt lat="48.3717" lon="-4.80877">
        <ele>-25.5</ele>
        <time>2013-08-14T16:03:13.000+01:00</time>
      </trkpt>
      <trkpt lat="48.37157" lon="-4.80863">
        <ele>-21.1</ele>
        <time>2013-08-14T16:03:15.000+01:00</time>
      </trkpt>
      <trkpt lat="48.37143" lon="-4.80847">
        <ele>-19.6</ele>
        <time>2013-08-14T16:03:17.000+01:00</time>
      </trkpt>
      <trkpt lat="48.3713" lon="-4.80831">
        <ele>-16.7</ele>
        <time>2013-08-14T16:03:19.000+01:00</time>
      </trkpt>
      <trkpt lat="48.37117" lon="-4.80816">
        <ele>-13.6</ele>
        <time>2013-08-14T16:03:21.000+01:00</time>
      </trkpt>
      <trkpt lat="48.37105" lon="-4.80801">
        <ele>-12.7</ele>
        <time>2013-08-14T16:03:23.000+01:00</time>
      </trkpt>
      <trkpt lat="48.37094" lon="-4.80787">
        <ele>-11.3</ele>
        <time>2013-08-14T16:03:25.000+01:00</time>
      </trkpt>
      <trkpt lat="48.37083" lon="-4.80772">
        <ele>-12.1</ele>
        <time>2013-08-14T16:03:27.000+01:00</time>
      </trkpt>
      <trkpt lat="48.37071" lon="-4.80757">
        <ele>-10.8</ele>
        <time>2013-08-14T16:03:29.000+01:00</time>
      </trkpt>
      <trkpt lat="48.37058" lon="-4.80742">
        <ele>-10.3</ele>
        <time>2013-08-14T16:03:31.000+01:00</time>
      </trkpt>
      <trkpt lat="48.37046" lon="-4.80727">
        <ele>-9.8</ele>
        <time>2013-08-14T16:03:33.000+01:00</time>
      </trkpt>
      <trkpt lat="48.37033" lon="-4.80712">
        <ele>-10.2</ele>
        <time>2013-08-14T16:03:35.000+01:00</time>
      </trkpt>
      <trkpt lat="48.3702" lon="-4.80697">
        <ele>-8.8</ele>
        <time>2013-08-14T16:03:37.000+01:00</time>
      </trkpt>
      <trkpt lat="48.37008" lon="-4.80681">
        <ele>-8.2</ele>
        <time>2013-08-14T16:03:39.000+01:00</time>
      </trkpt>
      <trkpt lat="48.36996" lon="-4.80665">
        <ele>-11.1</ele>
        <time>2013-08-14T16:03:41.000+01:00</time>
      </trkpt>
      <trkpt lat="48.36983" lon="-4.8065">
        <ele>-10.8</ele>
        <time>2013-08-14T16:03:43.000+01:00</time>
      </trkpt>
      <trkpt lat="48.36971" lon="-4.80635">
        <ele>-12.3</ele>
        <time>2013-08-14T16:03:45.000+01:00</time>
      </trkpt>
      <trkpt lat="48.36958" lon="-4.8062">
        <ele>-12.2</ele>
        <time>2013-08-14T16:03:47.000+01:00</time>
      </trkpt>
      <trkpt lat="48.36945" lon="-4.80605">
        <ele>-11.3</ele>
        <time>2013-08-14T16:03:49.000+01:00</time>
      </trkpt>
      <trkpt lat="48.36932" lon="-4.8059">
        <ele>-9.6</ele>
        <time>2013-08-14T16:03:51.000+01:00</time>
      </trkpt>
      <trkpt lat="48.36919" lon="-4.80575">
        <ele>-8.7</ele>
        <time>2013-08-14T16:03:53.000+01:00</time>
      </trkpt>
      <trkpt lat="48.36907" lon="-4.80562">
        <ele>-6.9</ele>
        <time>2013-08-14T16:03:55.000+01:00</time>
      </trkpt>
      <trkpt lat="48.36895" lon="-4.80549">
        <ele>-5.1</ele>
        <time>2013-08-14T16:03:57.000+01:00</time>
      </trkpt>
      <trkpt lat="48.36883" lon="-4.80532">
        <ele>-5.5</ele>
        <time>2013-08-14T16:03:59.000+01:00</time>
      </trkpt>
      <trkpt lat="48.36871" lon="-4.80516">
        <ele>-6.6</ele>
        <time>2013-08-14T16:04:01.000+01:00</time>
      </trkpt>
      <trkpt lat="48.36859" lon="-4.80501">
        <ele>-8.7</ele>
        <time>2013-08-14T16:04:03.000+01:00</time>
      </trkpt>
      <trkpt lat="48.36847" lon="-4.80486">
        <ele>-7.9</ele>
        <time>2013-08-14T16:04:05.000+01:00</time>
      </trkpt>
      <trkpt lat="48.36835" lon="-4.80473">
        <ele>-8.3</ele>
        <time>2013-08-14T16:04:07.000+01:00</time>
      </trkpt>
      <trkpt lat="48.36822" lon="-4.80459">
        <ele>-8.6</ele>
        <time>2013-08-14T16:04:09.000+01:00</time>
      </trkpt>
      <trkpt lat="48.36809" lon="-4.80444">
        <ele>-8.8</ele>
        <time>2013-08-14T16:04:11.000+01:00</time>
      </trkpt>
      <trkpt lat="48.36798" lon="-4.80427">
        <ele>-9.3</ele>
        <time>2013-08-14T16:04:13.000+01:00</time>
      </trkpt>
      <trkpt lat="48.36786" lon="-4.80411">
        <ele>-9.8</ele>
        <time>2013-08-14T16:04:15.000+01:00</time>
      </trkpt>
      <trkpt lat="48.36774" lon="-4.80396">
        <ele>-12.2</ele>
        <time>2013-08-14T16:04:17.000+01:00</time>
      </trkpt>
      <trkpt lat="48.36763" lon="-4.80381">
        <ele>-12.1</ele>
        <time>2013-08-14T16:04:19.000+01:00</time>
      </trkpt>
      <trkpt lat="48.36752" lon="-4.80368">
        <ele>-10.5</ele>
        <time>2013-08-14T16:04:21.000+01:00</time>
      </trkpt>
      <trkpt lat="48.36742" lon="-4.80353">
        <ele>-8.7</ele>
        <time>2013-08-14T16:04:23.000+01:00</time>
      </trkpt>
      <trkpt lat="48.36731" lon="-4.8034">
        <ele>-6.9</ele>
        <time>2013-08-14T16:04:25.000+01:00</time>
      </trkpt>
      <trkpt lat="48.36719" lon="-4.80327">
        <ele>-4.4</ele>
        <time>2013-08-14T16:04:27.000+01:00</time>
      </trkpt>
      <trkpt lat="48.36709" lon="-4.80313">
        <ele>-6.7</ele>
        <time>2013-08-14T16:04:29.000+01:00</time>
      </trkpt>
      <trkpt lat="48.36698" lon="-4.803">
        <ele>-7.3</ele>
        <time>2013-08-14T16:04:31.000+01:00</time>
      </trkpt>
      <trkpt lat="48.36686" lon="-4.80287">
        <ele>-5.5</ele>
        <time>2013-08-14T16:04:33.000+01:00</time>
      </trkpt>
      <trkpt lat="48.36673" lon="-4.80273">
        <ele>-6.1</ele>
        <time>2013-08-14T16:04:35.000+01:00</time>
      </trkpt>
      <trkpt lat="48.3666" lon="-4.80258">
        <ele>-6.2</ele>
        <time>2013-08-14T16:04:37.000+01:00</time>
      </trkpt>
      <trkpt lat="48.36648" lon="-4.80245">
        <ele>-7.1</ele>
        <time>2013-08-14T16:04:39.000+01:00</time>
      </trkpt>
      <trkpt lat="48.36635" lon="-4.80231">
        <ele>-8.5</ele>
        <time>2013-08-14T16:04:41.000+01:00</time>
      </trkpt>
      <trkpt lat="48.36622" lon="-4.80218">
        <ele>-10.7</ele>
        <time>2013-08-14T16:04:43.000+01:00</time>
      </trkpt>
      <trkpt lat="48.36611" lon="-4.80204">
        <ele>-12.1</ele>
        <time>2013-08-14T16:04:45.000+01:00</time>
      </trkpt>
      <trkpt lat="48.36599" lon="-4.8019">
        <ele>-13.2</ele>
        <time>2013-08-14T16:04:47.000+01:00</time>
      </trkpt>
      <trkpt lat="48.36584" lon="-4.80179">
        <ele>-12.7</ele>
        <time>2013-08-14T16:04:49.000+01:00</time>
      </trkpt>
      <trkpt lat="48.36572" lon="-4.80165">
        <ele>-10.8</ele>
        <time>2013-08-14T16:04:51.000+01:00</time>
      </trkpt>
      <trkpt lat="48.36558" lon="-4.80152">
        <ele>-9.1</ele>
        <time>2013-08-14T16:04:53.000+01:00</time>
      </trkpt>
      <trkpt lat="48.36545" lon="-4.8014">
        <ele>-6.5</ele>
        <time>2013-08-14T16:04:55.000+01:00</time>
      </trkpt>
      <trkpt lat="48.36534" lon="-4.80126">
        <ele>-8.4</ele>
        <time>2013-08-14T16:04:57.000+01:00</time>
      </trkpt>
      <trkpt lat="48.36521" lon="-4.80114">
        <ele>-9.1</ele>
        <time>2013-08-14T16:04:59.000+01:00</time>
      </trkpt>
      <trkpt lat="48.36508" lon="-4.80101">
        <ele>-8.4</ele>
        <time>2013-08-14T16:05:01.000+01:00</time>
      </trkpt>
      <trkpt lat="48.36494" lon="-4.80088">
        <ele>-8.6</ele>
        <time>2013-08-14T16:05:03.000+01:00</time>
      </trkpt>
      <trkpt lat="48.36481" lon="-4.80074">
        <ele>-8.1</ele>
        <time>2013-08-14T16:05:05.000+01:00</time>
      </trkpt>
      <trkpt lat="48.3647" lon="-4.80059">
        <ele>-9.6</ele>
        <time>2013-08-14T16:05:07.000+01:00</time>
      </trkpt>
      <trkpt lat="48.36459" lon="-4.80045">
        <ele>-8.1</ele>
        <time>2013-08-14T16:05:09.000+01:00</time>
      </trkpt>
      <trkpt lat="48.36445" lon="-4.80032">
        <ele>-11.7</ele>
        <time>2013-08-14T16:05:11.000+01:00</time>
      </trkpt>
      <trkpt lat="48.36431" lon="-4.80019">
        <ele>-11.3</ele>
        <time>2013-08-14T16:05:13.000+01:00</time>
      </trkpt>
      <trkpt lat="48.36419" lon="-4.80005">
        <ele>-11.9</ele>
        <time>2013-08-14T16:05:15.000+01:00</time>
      </trkpt>
      <trkpt lat="48.36407" lon="-4.79992">
        <ele>-10.9</ele>
        <time>2013-08-14T16:05:17.000+01:00</time>
      </trkpt>
      <trkpt lat="48.36396" lon="-4.79976">
        <ele>-12</ele>
        <time>2013-08-14T16:05:19.000+01:00</time>
      </trkpt>
      <trkpt lat="48.36386" lon="-4.79959">
        <ele>-11.1</ele>
        <time>2013-08-14T16:05:21.000+01:00</time>
      </trkpt>
      <trkpt lat="48.36374" lon="-4.79944">
        <ele>-11.4</ele>
        <time>2013-08-14T16:05:23.000+01:00</time>
      </trkpt>
      <trkpt lat="48.36362" lon="-4.7993">
        <ele>-11.1</ele>
        <time>2013-08-14T16:05:25.000+01:00</time>
      </trkpt>
      <trkpt lat="48.36351" lon="-4.79913">
        <ele>-10.3</ele>
        <time>2013-08-14T16:05:27.000+01:00</time>
      </trkpt>
      <trkpt lat="48.36339" lon="-4.799">
        <ele>-9.2</ele>
        <time>2013-08-14T16:05:29.000+01:00</time>
      </trkpt>
      <trkpt lat="48.36328" lon="-4.79887">
        <ele>-10.1</ele>
        <time>2013-08-14T16:05:31.000+01:00</time>
      </trkpt>
      <trkpt lat="48.36318" lon="-4.79872">
        <ele>-10.3</ele>
        <time>2013-08-14T16:05:33.000+01:00</time>
      </trkpt>
      <trkpt lat="48.36308" lon="-4.79858">
        <ele>-7.6</ele>
        <time>2013-08-14T16:05:35.000+01:00</time>
      </trkpt>
      <trkpt lat="48.36297" lon="-4.79844">
        <ele>-7</ele>
        <time>2013-08-14T16:05:37.000+01:00</time>
      </trkpt>
      <trkpt lat="48.36287" lon="-4.7983">
        <ele>-7.4</ele>
        <time>2013-08-14T16:05:39.000+01:00</time>
      </trkpt>
      <trkpt lat="48.36276" lon="-4.79815">
        <ele>-7.3</ele>
        <time>2013-08-14T16:05:41.000+01:00</time>
      </trkpt>
      <trkpt lat="48.36266" lon="-4.79802">
        <ele>-6</ele>
        <time>2013-08-14T16:05:43.000+01:00</time>
      </trkpt>
      <trkpt lat="48.36257" lon="-4.79788">
        <ele>-7.4</ele>
        <time>2013-08-14T16:05:45.000+01:00</time>
      </trkpt>
      <trkpt lat="48.36245" lon="-4.79775">
        <ele>-9.3</ele>
        <time>2013-08-14T16:05:47.000+01:00</time>
      </trkpt>
      <trkpt lat="48.36234" lon="-4.7976">
        <ele>-9.8</ele>
        <time>2013-08-14T16:05:49.000+01:00</time>
      </trkpt>
      <trkpt lat="48.36223" lon="-4.79746">
        <ele>-9.1</ele>
        <time>2013-08-14T16:05:51.000+01:00</time>
      </trkpt>
      <trkpt lat="48.36212" lon="-4.79732">
        <ele>-10.4</ele>
        <time>2013-08-14T16:05:53.000+01:00</time>
      </trkpt>
      <trkpt lat="48.36201" lon="-4.79717">
        <ele>-11</ele>
        <time>2013-08-14T16:05:55.000+01:00</time>
      </trkpt>
      <trkpt lat="48.3619" lon="-4.79702">
        <ele>-11.5</ele>
        <time>2013-08-14T16:05:57.000+01:00</time>
      </trkpt>
      <trkpt lat="48.36179" lon="-4.79689">
        <ele>-10.3</ele>
        <time>2013-08-14T16:05:59.000+01:00</time>
      </trkpt>
      <trkpt lat="48.36169" lon="-4.79674">
        <ele>-8.3</ele>
        <time>2013-08-14T16:06:01.000+01:00</time>
      </trkpt>
      <trkpt lat="48.36158" lon="-4.79659">
        <ele>-8.9</ele>
        <time>2013-08-14T16:06:03.000+01:00</time>
      </trkpt>
      <trkpt lat="48.36148" lon="-4.79645">
        <ele>-8.5</ele>
        <time>2013-08-14T16:06:05.000+01:00</time>
      </trkpt>
      <trkpt lat="48.36136" lon="-4.79632">
        <ele>-8</ele>
        <time>2013-08-14T16:06:07.000+01:00</time>
      </trkpt>
      <trkpt lat="48.36127" lon="-4.79617">
        <ele>-8.7</ele>
        <time>2013-08-14T16:06:09.000+01:00</time>
      </trkpt>
      <trkpt lat="48.36116" lon="-4.79603">
        <ele>-10.3</ele>
        <time>2013-08-14T16:06:11.000+01:00</time>
      </trkpt>
      <trkpt lat="48.36106" lon="-4.79587">
        <ele>-11.9</ele>
        <time>2013-08-14T16:06:13.000+01:00</time>
      </trkpt>
      <trkpt lat="48.36094" lon="-4.7957">
        <ele>-12.3</ele>
        <time>2013-08-14T16:06:15.000+01:00</time>
      </trkpt>
      <trkpt lat="48.36084" lon="-4.79552">
        <ele>-12</ele>
        <time>2013-08-14T16:06:17.000+01:00</time>
      </trkpt>
      <trkpt lat="48.36074" lon="-4.79535">
        <ele>-10.7</ele>
        <time>2013-08-14T16:06:19.000+01:00</time>
      </trkpt>
      <trkpt lat="48.36064" lon="-4.79521">
        <ele>-13.9</ele>
        <time>2013-08-14T16:06:21.000+01:00</time>
      </trkpt>
      <trkpt lat="48.36056" lon="-4.79503">
        <ele>-15.9</ele>
        <time>2013-08-14T16:06:23.000+01:00</time>
      </trkpt>
      <trkpt lat="48.36048" lon="-4.79486">
        <ele>-16.7</ele>
        <time>2013-08-14T16:06:25.000+01:00</time>
      </trkpt>
      <trkpt lat="48.36041" lon="-4.79469">
        <ele>-16.2</ele>
        <time>2013-08-14T16:06:27.000+01:00</time>
      </trkpt>
      <trkpt lat="48.36033" lon="-4.79454">
        <ele>-16.4</ele>
        <time>2013-08-14T16:06:29.000+01:00</time>
      </trkpt>
      <trkpt lat="48.36025" lon="-4.79435">
        <ele>-14.3</ele>
        <time>2013-08-14T16:06:31.000+01:00</time>
      </trkpt>
      <trkpt lat="48.36019" lon="-4.79418">
        <ele>-15.6</ele>
        <time>2013-08-14T16:06:33.000+01:00</time>
      </trkpt>
      <trkpt lat="48.36011" lon="-4.79399">
        <ele>-15.5</ele>
        <time>2013-08-14T16:06:35.000+01:00</time>
      </trkpt>
      <trkpt lat="48.36003" lon="-4.79385">
        <ele>-14.5</ele>
        <time>2013-08-14T16:06:37.000+01:00</time>
      </trkpt>
      <trkpt lat="48.35996" lon="-4.79368">
        <ele>-12.7</ele>
        <time>2013-08-14T16:06:39.000+01:00</time>
      </trkpt>
      <trkpt lat="48.35989" lon="-4.79349">
        <ele>-9.4</ele>
        <time>2013-08-14T16:06:41.000+01:00</time>
      </trkpt>
      <trkpt lat="48.35982" lon="-4.79326">
        <ele>-8.1</ele>
        <time>2013-08-14T16:06:43.000+01:00</time>
      </trkpt>
      <trkpt lat="48.35975" lon="-4.79306">
        <ele>-6.4</ele>
        <time>2013-08-14T16:06:45.000+01:00</time>
      </trkpt>
      <trkpt lat="48.35967" lon="-4.79288">
        <ele>-3.6</ele>
        <time>2013-08-14T16:06:47.000+01:00</time>
      </trkpt>
      <trkpt lat="48.35961" lon="-4.79269">
        <ele>-4.1</ele>
        <time>2013-08-14T16:06:49.000+01:00</time>
      </trkpt>
      <trkpt lat="48.35954" lon="-4.79248">
        <ele>-3.5</ele>
        <time>2013-08-14T16:06:51.000+01:00</time>
      </trkpt>
      <trkpt lat="48.35946" lon="-4.79229">
        <ele>-3</ele>
        <time>2013-08-14T16:06:53.000+01:00</time>
      </trkpt>
      <trkpt lat="48.35938" lon="-4.79212">
        <ele>-4.3</ele>
        <time>2013-08-14T16:06:55.000+01:00</time>
      </trkpt>
      <trkpt lat="48.35931" lon="-4.79195">
        <ele>-4.8</ele>
        <time>2013-08-14T16:06:57.000+01:00</time>
      </trkpt>
      <trkpt lat="48.35922" lon="-4.79178">
        <ele>-6.7</ele>
        <time>2013-08-14T16:06:59.000+01:00</time>
      </trkpt>
      <trkpt lat="48.35915" lon="-4.7916">
        <ele>-7.5</ele>
        <time>2013-08-14T16:07:01.000+01:00</time>
      </trkpt>
      <trkpt lat="48.35909" lon="-4.7914">
        <ele>-7.7</ele>
        <time>2013-08-14T16:07:03.000+01:00</time>
      </trkpt>
      <trkpt lat="48.35898" lon="-4.79124">
        <ele>-10.8</ele>
        <time>2013-08-14T16:07:05.000+01:00</time>
      </trkpt>
      <trkpt lat="48.35889" lon="-4.79105">
        <ele>-13.9</ele>
        <time>2013-08-14T16:07:07.000+01:00</time>
      </trkpt>
      <trkpt lat="48.35883" lon="-4.79085">
        <ele>-13.8</ele>
        <time>2013-08-14T16:07:09.000+01:00</time>
      </trkpt>
      <trkpt lat="48.35878" lon="-4.79065">
        <ele>-13.1</ele>
        <time>2013-08-14T16:07:11.000+01:00</time>
      </trkpt>
      <trkpt lat="48.35871" lon="-4.79045">
        <ele>-12.7</ele>
        <time>2013-08-14T16:07:13.000+01:00</time>
      </trkpt>
      <trkpt lat="48.35864" lon="-4.79026">
        <ele>-13.1</ele>
        <time>2013-08-14T16:07:15.000+01:00</time>
      </trkpt>
      <trkpt lat="48.35857" lon="-4.79008">
        <ele>-14.7</ele>
        <time>2013-08-14T16:07:17.000+01:00</time>
      </trkpt>
      <trkpt lat="48.35853" lon="-4.78987">
        <ele>-14.8</ele>
        <time>2013-08-14T16:07:19.000+01:00</time>
      </trkpt>
      <trkpt lat="48.35851" lon="-4.78964">
        <ele>-14.7</ele>
        <time>2013-08-14T16:07:21.000+01:00</time>
      </trkpt>
      <trkpt lat="48.35848" lon="-4.78942">
        <ele>-13.2</ele>
        <time>2013-08-14T16:07:23.000+01:00</time>
      </trkpt>
      <trkpt lat="48.35847" lon="-4.7892">
        <ele>-11.2</ele>
        <time>2013-08-14T16:07:25.000+01:00</time>
      </trkpt>
      <trkpt lat="48.35845" lon="-4.78897">
        <ele>-10.5</ele>
        <time>2013-08-14T16:07:27.000+01:00</time>
      </trkpt>
      <trkpt lat="48.35843" lon="-4.78877">
        <ele>-8.9</ele>
        <time>2013-08-14T16:07:29.000+01:00</time>
      </trkpt>
      <trkpt lat="48.3584" lon="-4.78856">
        <ele>-9.4</ele>
        <time>2013-08-14T16:07:31.000+01:00</time>
      </trkpt>
      <trkpt lat="48.35838" lon="-4.78835">
        <ele>-9.3</ele>
        <time>2013-08-14T16:07:33.000+01:00</time>
      </trkpt>
      <trkpt lat="48.35834" lon="-4.78814">
        <ele>-8.2</ele>
        <time>2013-08-14T16:07:35.000+01:00</time>
      </trkpt>
      <trkpt lat="48.35831" lon="-4.78794">
        <ele>-7.7</ele>
        <time>2013-08-14T16:07:37.000+01:00</time>
      </trkpt>
      <trkpt lat="48.35828" lon="-4.78774">
        <ele>-9.4</ele>
        <time>2013-08-14T16:07:39.000+01:00</time>
      </trkpt>
      <trkpt lat="48.35827" lon="-4.78754">
        <ele>-10.7</ele>
        <time>2013-08-14T16:07:41.000+01:00</time>
      </trkpt>
      <trkpt lat="48.35828" lon="-4.78733">
        <ele>-11</ele>
        <time>2013-08-14T16:07:43.000+01:00</time>
      </trkpt>
      <trkpt lat="48.3583" lon="-4.78712">
        <ele>-10.4</ele>
        <time>2013-08-14T16:07:45.000+01:00</time>
      </trkpt>
      <trkpt lat="48.35831" lon="-4.78692">
        <ele>-7.9</ele>
        <time>2013-08-14T16:07:47.000+01:00</time>
      </trkpt>
      <trkpt lat="48.35834" lon="-4.78671">
        <ele>-5</ele>
        <time>2013-08-14T16:07:49.000+01:00</time>
      </trkpt>
      <trkpt lat="48.35838" lon="-4.7865">
        <ele>-4</ele>
        <time>2013-08-14T16:07:51.000+01:00</time>
      </trkpt>
      <trkpt lat="48.35844" lon="-4.78629">
        <ele>-3.2</ele>
        <time>2013-08-14T16:07:53.000+01:00</time>
      </trkpt>
      <trkpt lat="48.3585" lon="-4.78611">
        <ele>-2.6</ele>
        <time>2013-08-14T16:07:55.000+01:00</time>
      </trkpt>
      <trkpt lat="48.35858" lon="-4.78593">
        <ele>-2.3</ele>
        <time>2013-08-14T16:07:57.000+01:00</time>
      </trkpt>
      <trkpt lat="48.35865" lon="-4.78576">
        <ele>-1.5</ele>
        <time>2013-08-14T16:07:59.000+01:00</time>
      </trkpt>
      <trkpt lat="48.35872" lon="-4.7856">
        <ele>-0.9</ele>
        <time>2013-08-14T16:08:01.000+01:00</time>
      </trkpt>
      <trkpt lat="48.3588" lon="-4.78544">
        <ele>-0.3</ele>
        <time>2013-08-14T16:08:03.000+01:00</time>
      </trkpt>
      <trkpt lat="48.35886" lon="-4.78531">
        <ele>-0.1</ele>
        <time>2013-08-14T16:08:05.000+01:00</time>
      </trkpt>
      <trkpt lat="48.35894" lon="-4.78516">
        <ele>0.1</ele>
        <time>2013-08-14T16:08:08.000+01:00</time>
      </trkpt>
      <trkpt lat="48.35903" lon="-4.78501">
        <ele>0.8</ele>
        <time>2013-08-14T16:08:11.000+01:00</time>
      </trkpt>
      <trkpt lat="48.35912" lon="-4.78487">
        <ele>1.7</ele>
        <time>2013-08-14T16:08:14.000+01:00</time>
      </trkpt>
      <trkpt lat="48.35919" lon="-4.78475">
        <ele>2.2</ele>
        <time>2013-08-14T16:08:17.000+01:00</time>
      </trkpt>
      <trkpt lat="48.35927" lon="-4.78464">
        <ele>4.9</ele>
        <time>2013-08-14T16:08:20.000+01:00</time>
      </trkpt>
      <trkpt lat="48.35936" lon="-4.78452">
        <ele>7.6</ele>
        <time>2013-08-14T16:08:24.000+01:00</time>
      </trkpt>
      <trkpt lat="48.35943" lon="-4.78441">
        <ele>7.5</ele>
        <time>2013-08-14T16:08:28.000+01:00</time>
      </trkpt>
      <trkpt lat="48.3595" lon="-4.7843">
        <ele>6</ele>
        <time>2013-08-14T16:08:32.000+01:00</time>
      </trkpt>
      <trkpt lat="48.35956" lon="-4.78419">
        <ele>4.9</ele>
        <time>2013-08-14T16:08:36.000+01:00</time>
      </trkpt>
      <trkpt lat="48.35962" lon="-4.78406">
        <ele>2.4</ele>
        <time>2013-08-14T16:08:41.000+01:00</time>
      </trkpt>
      <trkpt lat="48.35968" lon="-4.78393">
        <ele>0.9</ele>
        <time>2013-08-14T16:08:46.000+01:00</time>
      </trkpt>
      <trkpt lat="48.35975" lon="-4.78378">
        <ele>0.8</ele>
        <time>2013-08-14T16:08:51.000+01:00</time>
      </trkpt>
      <trkpt lat="48.35982" lon="-4.78366">
        <ele>3.1</ele>
        <time>2013-08-14T16:08:55.000+01:00</time>
      </trkpt>
      <trkpt lat="48.35986" lon="-4.78354">
        <ele>6</ele>
        <time>2013-08-14T16:09:00.000+01:00</time>
      </trkpt>
      <trkpt lat="48.3599" lon="-4.78339">
        <ele>7.1</ele>
        <time>2013-08-14T16:09:05.000+01:00</time>
      </trkpt>
      <trkpt lat="48.35995" lon="-4.78324">
        <ele>7.2</ele>
        <time>2013-08-14T16:09:10.000+01:00</time>
      </trkpt>
      <trkpt lat="48.35996" lon="-4.7831">
        <ele>6.5</ele>
        <time>2013-08-14T16:09:15.000+01:00</time>
      </trkpt>
      <trkpt lat="48.35997" lon="-4.78296">
        <ele>3.9</ele>
        <time>2013-08-14T16:09:20.000+01:00</time>
      </trkpt>
      <trkpt lat="48.36" lon="-4.78283">
        <ele>1.9</ele>
        <time>2013-08-14T16:09:25.000+01:00</time>
      </trkpt>
      <trkpt lat="48.35997" lon="-4.7827">
        <ele>-3</ele>
        <time>2013-08-14T16:09:31.000+01:00</time>
      </trkpt>
      <trkpt lat="48.35995" lon="-4.7826">
        <ele>-7</ele>
        <time>2013-08-14T16:09:38.000+01:00</time>
      </trkpt>
      <trkpt lat="48.35993" lon="-4.78248">
        <ele>-12</ele>
        <time>2013-08-14T16:09:47.000+01:00</time>
      </trkpt>
      <trkpt lat="48.35983" lon="-4.78249">
        <ele>-17.2</ele>
        <time>2013-08-14T16:09:56.000+01:00</time>
      </trkpt>
      <trkpt lat="48.35973" lon="-4.78251">
        <ele>-18</ele>
        <time>2013-08-14T16:10:03.000+01:00</time>
      </trkpt>
      <trkpt lat="48.35963" lon="-4.78253">
        <ele>-12.1</ele>
        <time>2013-08-14T16:10:08.000+01:00</time>
      </trkpt>
      <trkpt lat="48.35953" lon="-4.78251">
        <ele>-4</ele>
        <time>2013-08-14T16:10:16.000+01:00</time>
      </trkpt>
      <trkpt lat="48.35959" lon="-4.7824">
        <ele>-10.2</ele>
        <time>2013-08-14T16:10:44.000+01:00</time>
      </trkpt>
      <trkpt lat="48.3595" lon="-4.78243">
        <ele>-10.2</ele>
        <time>2013-08-14T16:10:51.000+01:00</time>
      </trkpt>
      <trkpt lat="48.35952" lon="-4.78244">
        <ele>-18.1</ele>
        <time>2013-08-14T16:11:04.000+01:00</time>
      </trkpt>
      <trkpt lat="48.35954" lon="-4.78248">
        <ele>-18.1</ele>
        <time>2013-08-14T16:11:14.000+01:00</time>
      </trkpt>
      <trkpt lat="48.35947" lon="-4.78244">
        <ele>-3.1</ele>
        <time>2013-08-14T16:11:22.000+01:00</time>
      </trkpt>
      <trkpt lat="48.35946" lon="-4.78243">
        <ele>-2.1</ele>
        <time>2013-08-14T16:11:31.000+01:00</time>
      </trkpt>
      <trkpt lat="48.35949" lon="-4.78236">
        <ele>-0.2</ele>
        <time>2013-08-14T16:11:40.000+01:00</time>
      </trkpt>
      <trkpt lat="48.35946" lon="-4.78231">
        <ele>14.1</ele>
        <time>2013-08-14T16:11:50.000+01:00</time>
      </trkpt>
      <trkpt lat="48.35944" lon="-4.7823">
        <ele>16.5</ele>
        <time>2013-08-14T16:12:06.000+01:00</time>
      </trkpt>
      <trkpt lat="48.35941" lon="-4.78234">
        <ele>3</ele>
        <time>2013-08-14T16:12:22.000+01:00</time>
      </trkpt>
      <trkpt lat="48.35946" lon="-4.78234">
        <ele>13.1</ele>
        <time>2013-08-14T16:12:41.000+01:00</time>
      </trkpt>
      <trkpt lat="48.35947" lon="-4.78235">
        <ele>16.2</ele>
        <time>2013-08-14T16:13:01.000+01:00</time>
      </trkpt>
      <trkpt lat="48.35949" lon="-4.7823">
        <ele>18.6</ele>
        <time>2013-08-14T16:13:17.000+01:00</time>
      </trkpt>
      <trkpt lat="48.3595" lon="-4.78223">
        <ele>22.2</ele>
        <time>2013-08-14T16:13:35.000+01:00</time>
      </trkpt>
      <trkpt lat="48.35952" lon="-4.78221">
        <ele>17.4</ele>
        <time>2013-08-14T16:13:52.000+01:00</time>
      </trkpt>
      <trkpt lat="48.35949" lon="-4.78216">
        <ele>21.2</ele>
        <time>2013-08-14T16:14:10.000+01:00</time>
      </trkpt>
      <trkpt lat="48.35944" lon="-4.78217">
        <ele>24.3</ele>
        <time>2013-08-14T16:14:23.000+01:00</time>
      </trkpt>
      <trkpt lat="48.35942" lon="-4.7822">
        <ele>17.1</ele>
        <time>2013-08-14T16:14:38.000+01:00</time>
      </trkpt>
      <trkpt lat="48.35943" lon="-4.78215">
        <ele>6.1</ele>
        <time>2013-08-14T16:14:57.000+01:00</time>
      </trkpt>
      <trkpt lat="48.35941" lon="-4.78215">
        <ele>-3.5</ele>
        <time>2013-08-14T16:15:13.000+01:00</time>
      </trkpt>
      <trkpt lat="48.35946" lon="-4.78218">
        <ele>-11.6</ele>
        <time>2013-08-14T16:15:35.000+01:00</time>
      </trkpt>
      <trkpt lat="48.35944" lon="-4.78229">
        <ele>-6.9</ele>
        <time>2013-08-14T16:15:48.000+01:00</time>
      </trkpt>
      <trkpt lat="48.3594" lon="-4.78237">
        <ele>1.6</ele>
        <time>2013-08-14T16:15:56.000+01:00</time>
      </trkpt>
      <trkpt lat="48.35942" lon="-4.78244">
        <ele>7.9</ele>
        <time>2013-08-14T16:16:07.000+01:00</time>
      </trkpt>
      <trkpt lat="48.35947" lon="-4.78251">
        <ele>1.7</ele>
        <time>2013-08-14T16:16:20.000+01:00</time>
      </trkpt>
      <trkpt lat="48.35951" lon="-4.78252">
        <ele>-5.8</ele>
        <time>2013-08-14T16:16:31.000+01:00</time>
      </trkpt>
      <trkpt lat="48.3595" lon="-4.78254">
        <ele>-5.7</ele>
        <time>2013-08-14T16:16:53.000+01:00</time>
      </trkpt>
      <trkpt lat="48.35953" lon="-4.78259">
        <ele>0.8</ele>
        <time>2013-08-14T16:17:19.000+01:00</time>
      </trkpt>
      <trkpt lat="48.35948" lon="-4.78259">
        <ele>9.8</ele>
        <time>2013-08-14T16:17:34.000+01:00</time>
      </trkpt>
      <trkpt lat="48.3594" lon="-4.78258">
        <ele>10.2</ele>
        <time>2013-08-14T16:17:53.000+01:00</time>
      </trkpt>
      <trkpt lat="48.35935" lon="-4.78266">
        <ele>9</ele>
        <time>2013-08-14T16:18:07.000+01:00</time>
      </trkpt>
      <trkpt lat="48.35927" lon="-4.78267">
        <ele>7.2</ele>
        <time>2013-08-14T16:18:20.000+01:00</time>
      </trkpt>
      <trkpt lat="48.35919" lon="-4.7826">
        <ele>6.4</ele>
        <time>2013-08-14T16:18:30.000+01:00</time>
      </trkpt>
      <trkpt lat="48.35916" lon="-4.78259">
        <ele>6.5</ele>
        <time>2013-08-14T16:18:42.000+01:00</time>
      </trkpt>
      <trkpt lat="48.35914" lon="-4.78252">
        <ele>7.4</ele>
        <time>2013-08-14T16:19:17.000+01:00</time>
      </trkpt>
      <trkpt lat="48.35911" lon="-4.78238">
        <ele>7.1</ele>
        <time>2013-08-14T16:19:26.000+01:00</time>
      </trkpt>
      <trkpt lat="48.35907" lon="-4.78226">
        <ele>6.7</ele>
        <time>2013-08-14T16:19:35.000+01:00</time>
      </trkpt>
      <trkpt lat="48.35902" lon="-4.78213">
        <ele>6.3</ele>
        <time>2013-08-14T16:19:44.000+01:00</time>
      </trkpt>
      <trkpt lat="48.35898" lon="-4.78201">
        <ele>6.2</ele>
        <time>2013-08-14T16:19:53.000+01:00</time>
      </trkpt>
      <trkpt lat="48.35893" lon="-4.78189">
        <ele>6.2</ele>
        <time>2013-08-14T16:20:03.000+01:00</time>
      </trkpt>
      <trkpt lat="48.35889" lon="-4.78176">
        <ele>5.9</ele>
        <time>2013-08-14T16:20:13.000+01:00</time>
      </trkpt>
      <trkpt lat="48.35884" lon="-4.78162">
        <ele>6.3</ele>
        <time>2013-08-14T16:20:22.000+01:00</time>
      </trkpt>
      <trkpt lat="48.3588" lon="-4.78151">
        <ele>7</ele>
        <time>2013-08-14T16:20:34.000+01:00</time>
      </trkpt>
      <trkpt lat="48.35876" lon="-4.78138">
        <ele>7</ele>
        <time>2013-08-14T16:20:43.000+01:00</time>
      </trkpt>
      <trkpt lat="48.35878" lon="-4.78124">
        <ele>7.6</ele>
        <time>2013-08-14T16:20:54.000+01:00</time>
      </trkpt>
      <trkpt lat="48.35877" lon="-4.78111">
        <ele>6.8</ele>
        <time>2013-08-14T16:21:07.000+01:00</time>
      </trkpt>
      <trkpt lat="48.35881" lon="-4.78097">
        <ele>6</ele>
        <time>2013-08-14T16:21:16.000+01:00</time>
      </trkpt>
      <trkpt lat="48.35885" lon="-4.78085">
        <ele>6.3</ele>
        <time>2013-08-14T16:21:25.000+01:00</time>
      </trkpt>
      <trkpt lat="48.35889" lon="-4.78071">
        <ele>7.2</ele>
        <time>2013-08-14T16:21:35.000+01:00</time>
      </trkpt>
      <trkpt lat="48.35894" lon="-4.7806">
        <ele>9.8</ele>
        <time>2013-08-14T16:21:44.000+01:00</time>
      </trkpt>
      <trkpt lat="48.35898" lon="-4.78048">
        <ele>8.4</ele>
        <time>2013-08-14T16:21:53.000+01:00</time>
      </trkpt>
      <trkpt lat="48.35902" lon="-4.78036">
        <ele>7.9</ele>
        <time>2013-08-14T16:22:02.000+01:00</time>
      </trkpt>
      <trkpt lat="48.35904" lon="-4.78024">
        <ele>8.4</ele>
        <time>2013-08-14T16:22:13.000+01:00</time>
      </trkpt>
      <trkpt lat="48.35902" lon="-4.78014">
        <ele>9.2</ele>
        <time>2013-08-14T16:22:32.000+01:00</time>
      </trkpt>
      <trkpt lat="48.35901" lon="-4.78">
        <ele>10.9</ele>
        <time>2013-08-14T16:22:46.000+01:00</time>
      </trkpt>
      <trkpt lat="48.35902" lon="-4.77987">
        <ele>13.1</ele>
        <time>2013-08-14T16:22:55.000+01:00</time>
      </trkpt>
      <trkpt lat="48.35905" lon="-4.77974">
        <ele>14.8</ele>
        <time>2013-08-14T16:23:08.000+01:00</time>
      </trkpt>
      <trkpt lat="48.35908" lon="-4.77961">
        <ele>16.2</ele>
        <time>2013-08-14T16:23:17.000+01:00</time>
      </trkpt>
      <trkpt lat="48.35909" lon="-4.77947">
        <ele>17.4</ele>
        <time>2013-08-14T16:23:26.000+01:00</time>
      </trkpt>
      <trkpt lat="48.3591" lon="-4.77933">
        <ele>19</ele>
        <time>2013-08-14T16:23:36.000+01:00</time>
      </trkpt>
      <trkpt lat="48.35906" lon="-4.77933">
        <ele>22.3</ele>
        <time>2013-08-14T16:23:54.000+01:00</time>
      </trkpt>
      <trkpt lat="48.35902" lon="-4.77945">
        <ele>24.5</ele>
        <time>2013-08-14T16:24:05.000+01:00</time>
      </trkpt>
      <trkpt lat="48.35899" lon="-4.77959">
        <ele>25.8</ele>
        <time>2013-08-14T16:24:16.000+01:00</time>
      </trkpt>
      <trkpt lat="48.35895" lon="-4.77968">
        <ele>23.9</ele>
        <time>2013-08-14T16:24:34.000+01:00</time>
      </trkpt>
      <trkpt lat="48.35887" lon="-4.77977">
        <ele>23</ele>
        <time>2013-08-14T16:24:44.000+01:00</time>
      </trkpt>
      <trkpt lat="48.3588" lon="-4.77984">
        <ele>22.1</ele>
        <time>2013-08-14T16:24:53.000+01:00</time>
      </trkpt>
      <trkpt lat="48.3587" lon="-4.77981">
        <ele>22</ele>
        <time>2013-08-14T16:25:03.000+01:00</time>
      </trkpt>
      <trkpt lat="48.35862" lon="-4.77975">
        <ele>23</ele>
        <time>2013-08-14T16:25:13.000+01:00</time>
      </trkpt>
      <trkpt lat="48.35852" lon="-4.77971">
        <ele>22.3</ele>
        <time>2013-08-14T16:25:23.000+01:00</time>
      </trkpt>
      <trkpt lat="48.35843" lon="-4.77967">
        <ele>21.8</ele>
        <time>2013-08-14T16:25:32.000+01:00</time>
      </trkpt>
      <trkpt lat="48.35834" lon="-4.77963">
        <ele>21.3</ele>
        <time>2013-08-14T16:25:41.000+01:00</time>
      </trkpt>
      <trkpt lat="48.35825" lon="-4.77957">
        <ele>21</ele>
        <time>2013-08-14T16:25:50.000+01:00</time>
      </trkpt>
      <trkpt lat="48.35818" lon="-4.77949">
        <ele>20.8</ele>
        <time>2013-08-14T16:25:59.000+01:00</time>
      </trkpt>
      <trkpt lat="48.35809" lon="-4.77944">
        <ele>20.7</ele>
        <time>2013-08-14T16:26:08.000+01:00</time>
      </trkpt>
      <trkpt lat="48.35801" lon="-4.77937">
        <ele>19.1</ele>
        <time>2013-08-14T16:26:19.000+01:00</time>
      </trkpt>
      <trkpt lat="48.35793" lon="-4.77931">
        <ele>18.7</ele>
        <time>2013-08-14T16:26:28.000+01:00</time>
      </trkpt>
      <trkpt lat="48.35785" lon="-4.77925">
        <ele>17.8</ele>
        <time>2013-08-14T16:26:36.000+01:00</time>
      </trkpt>
      <trkpt lat="48.35777" lon="-4.77918">
        <ele>16.8</ele>
        <time>2013-08-14T16:26:44.000+01:00</time>
      </trkpt>
      <trkpt lat="48.3577" lon="-4.7791">
        <ele>16.7</ele>
        <time>2013-08-14T16:26:55.000+01:00</time>
      </trkpt>
      <trkpt lat="48.35762" lon="-4.77903">
        <ele>16.5</ele>
        <time>2013-08-14T16:27:04.000+01:00</time>
      </trkpt>
      <trkpt lat="48.35756" lon="-4.77891">
        <ele>16.1</ele>
        <time>2013-08-14T16:27:14.000+01:00</time>
      </trkpt>
      <trkpt lat="48.35751" lon="-4.7788">
        <ele>16</ele>
        <time>2013-08-14T16:27:22.000+01:00</time>
      </trkpt>
      <trkpt lat="48.35744" lon="-4.77871">
        <ele>16.2</ele>
        <time>2013-08-14T16:27:33.000+01:00</time>
      </trkpt>
      <trkpt lat="48.35738" lon="-4.77859">
        <ele>15.5</ele>
        <time>2013-08-14T16:27:42.000+01:00</time>
      </trkpt>
      <trkpt lat="48.35732" lon="-4.77849">
        <ele>15.8</ele>
        <time>2013-08-14T16:27:51.000+01:00</time>
      </trkpt>
      <trkpt lat="48.35725" lon="-4.7784">
        <ele>16.1</ele>
        <time>2013-08-14T16:27:59.000+01:00</time>
      </trkpt>
      <trkpt lat="48.35718" lon="-4.77831">
        <ele>15.5</ele>
        <time>2013-08-14T16:28:07.000+01:00</time>
      </trkpt>
      <trkpt lat="48.3571" lon="-4.77824">
        <ele>16.8</ele>
        <time>2013-08-14T16:28:16.000+01:00</time>
      </trkpt>
      <trkpt lat="48.35704" lon="-4.77815">
        <ele>17.1</ele>
        <time>2013-08-14T16:28:25.000+01:00</time>
      </trkpt>
      <trkpt lat="48.35696" lon="-4.77809">
        <ele>16.6</ele>
        <time>2013-08-14T16:28:42.000+01:00</time>
      </trkpt>
      <trkpt lat="48.35691" lon="-4.77797">
        <ele>17.5</ele>
        <time>2013-08-14T16:28:51.000+01:00</time>
      </trkpt>
      <trkpt lat="48.35687" lon="-4.77785">
        <ele>17</ele>
        <time>2013-08-14T16:28:59.000+01:00</time>
      </trkpt>
      <trkpt lat="48.35688" lon="-4.77772">
        <ele>15.9</ele>
        <time>2013-08-14T16:29:10.000+01:00</time>
      </trkpt>
      <trkpt lat="48.35686" lon="-4.77758">
        <ele>16</ele>
        <time>2013-08-14T16:29:20.000+01:00</time>
      </trkpt>
      <trkpt lat="48.35682" lon="-4.77746">
        <ele>16.1</ele>
        <time>2013-08-14T16:29:29.000+01:00</time>
      </trkpt>
      <trkpt lat="48.35675" lon="-4.7775">
        <ele>17.9</ele>
        <time>2013-08-14T16:29:38.000+01:00</time>
      </trkpt>
      <trkpt lat="48.3567" lon="-4.77762">
        <ele>19</ele>
        <time>2013-08-14T16:29:46.000+01:00</time>
      </trkpt>
      <trkpt lat="48.35666" lon="-4.77774">
        <ele>18.3</ele>
        <time>2013-08-14T16:29:54.000+01:00</time>
      </trkpt>
      <trkpt lat="48.3566" lon="-4.77784">
        <ele>17.8</ele>
        <time>2013-08-14T16:30:03.000+01:00</time>
      </trkpt>
      <trkpt lat="48.35652" lon="-4.77792">
        <ele>18.1</ele>
        <time>2013-08-14T16:30:12.000+01:00</time>
      </trkpt>
      <trkpt lat="48.35643" lon="-4.77794">
        <ele>17.7</ele>
        <time>2013-08-14T16:30:22.000+01:00</time>
      </trkpt>
      <trkpt lat="48.35634" lon="-4.77799">
        <ele>17.3</ele>
        <time>2013-08-14T16:30:31.000+01:00</time>
      </trkpt>
      <trkpt lat="48.35625" lon="-4.77802">
        <ele>17.1</ele>
        <time>2013-08-14T16:30:40.000+01:00</time>
      </trkpt>
      <trkpt lat="48.35616" lon="-4.77807">
        <ele>17.5</ele>
        <time>2013-08-14T16:30:49.000+01:00</time>
      </trkpt>
      <trkpt lat="48.35607" lon="-4.77812">
        <ele>15.8</ele>
        <time>2013-08-14T16:30:58.000+01:00</time>
      </trkpt>
      <trkpt lat="48.35599" lon="-4.77818">
        <ele>16.9</ele>
        <time>2013-08-14T16:31:07.000+01:00</time>
      </trkpt>
      <trkpt lat="48.35592" lon="-4.77826">
        <ele>17.7</ele>
        <time>2013-08-14T16:31:15.000+01:00</time>
      </trkpt>
      <trkpt lat="48.35582" lon="-4.77831">
        <ele>17.6</ele>
        <time>2013-08-14T16:31:23.000+01:00</time>
      </trkpt>
      <trkpt lat="48.35574" lon="-4.77838">
        <ele>19.5</ele>
        <time>2013-08-14T16:31:30.000+01:00</time>
      </trkpt>
      <trkpt lat="48.35567" lon="-4.77843">
        <ele>20</ele>
        <time>2013-08-14T16:31:47.000+01:00</time>
      </trkpt>
      <trkpt lat="48.35559" lon="-4.77848">
        <ele>22.2</ele>
        <time>2013-08-14T16:32:07.000+01:00</time>
      </trkpt>
      <trkpt lat="48.35551" lon="-4.77853">
        <ele>22.6</ele>
        <time>2013-08-14T16:32:18.000+01:00</time>
      </trkpt>
      <trkpt lat="48.35542" lon="-4.7786">
        <ele>22.8</ele>
        <time>2013-08-14T16:32:28.000+01:00</time>
      </trkpt>
      <trkpt lat="48.35534" lon="-4.77866">
        <ele>23.7</ele>
        <time>2013-08-14T16:32:39.000+01:00</time>
      </trkpt>
      <trkpt lat="48.35526" lon="-4.77874">
        <ele>24.5</ele>
        <time>2013-08-14T16:32:51.000+01:00</time>
      </trkpt>
      <trkpt lat="48.35518" lon="-4.77883">
        <ele>25.8</ele>
        <time>2013-08-14T16:33:02.000+01:00</time>
      </trkpt>
      <trkpt lat="48.35511" lon="-4.7789">
        <ele>26.6</ele>
        <time>2013-08-14T16:33:13.000+01:00</time>
      </trkpt>
      <trkpt lat="48.35504" lon="-4.77899">
        <ele>28.3</ele>
        <time>2013-08-14T16:33:24.000+01:00</time>
      </trkpt>
      <trkpt lat="48.35497" lon="-4.77905">
        <ele>25.6</ele>
        <time>2013-08-14T16:33:45.000+01:00</time>
      </trkpt>
      <trkpt lat="48.35489" lon="-4.77913">
        <ele>27.1</ele>
        <time>2013-08-14T16:33:56.000+01:00</time>
      </trkpt>
      <trkpt lat="48.35481" lon="-4.77922">
        <ele>28.3</ele>
        <time>2013-08-14T16:34:08.000+01:00</time>
      </trkpt>
      <trkpt lat="48.35474" lon="-4.7793">
        <ele>29.4</ele>
        <time>2013-08-14T16:34:18.000+01:00</time>
      </trkpt>
      <trkpt lat="48.35466" lon="-4.77938">
        <ele>30.2</ele>
        <time>2013-08-14T16:34:27.000+01:00</time>
      </trkpt>
      <trkpt lat="48.35457" lon="-4.77946">
        <ele>33.4</ele>
        <time>2013-08-14T16:34:36.000+01:00</time>
      </trkpt>
      <trkpt lat="48.35449" lon="-4.77953">
        <ele>33.4</ele>
        <time>2013-08-14T16:34:44.000+01:00</time>
      </trkpt>
      <trkpt lat="48.35444" lon="-4.77963">
        <ele>33.5</ele>
        <time>2013-08-14T16:34:58.000+01:00</time>
      </trkpt>
      <trkpt lat="48.35436" lon="-4.77971">
        <ele>34</ele>
        <time>2013-08-14T16:35:10.000+01:00</time>
      </trkpt>
      <trkpt lat="48.35427" lon="-4.77975">
        <ele>33.6</ele>
        <time>2013-08-14T16:35:19.000+01:00</time>
      </trkpt>
      <trkpt lat="48.35418" lon="-4.77977">
        <ele>34.5</ele>
        <time>2013-08-14T16:35:28.000+01:00</time>
      </trkpt>
      <trkpt lat="48.35409" lon="-4.77974">
        <ele>34</ele>
        <time>2013-08-14T16:35:37.000+01:00</time>
      </trkpt>
      <trkpt lat="48.35399" lon="-4.77974">
        <ele>33.8</ele>
        <time>2013-08-14T16:35:45.000+01:00</time>
      </trkpt>
      <trkpt lat="48.35392" lon="-4.77973">
        <ele>32.1</ele>
        <time>2013-08-14T16:36:01.000+01:00</time>
      </trkpt>
      <trkpt lat="48.35383" lon="-4.77971">
        <ele>31</ele>
        <time>2013-08-14T16:36:08.000+01:00</time>
      </trkpt>
      <trkpt lat="48.35375" lon="-4.77962">
        <ele>30.1</ele>
        <time>2013-08-14T16:36:16.000+01:00</time>
      </trkpt>
      <trkpt lat="48.35369" lon="-4.77952">
        <ele>29.8</ele>
        <time>2013-08-14T16:36:24.000+01:00</time>
      </trkpt>
      <trkpt lat="48.35363" lon="-4.77942">
        <ele>29.9</ele>
        <time>2013-08-14T16:36:32.000+01:00</time>
      </trkpt>
      <trkpt lat="48.35357" lon="-4.77933">
        <ele>28.6</ele>
        <time>2013-08-14T16:36:44.000+01:00</time>
      </trkpt>
      <trkpt lat="48.35353" lon="-4.77919">
        <ele>27.7</ele>
        <time>2013-08-14T16:36:53.000+01:00</time>
      </trkpt>
      <trkpt lat="48.3535" lon="-4.77905">
        <ele>27.3</ele>
        <time>2013-08-14T16:37:05.000+01:00</time>
      </trkpt>
      <trkpt lat="48.35347" lon="-4.77892">
        <ele>26.8</ele>
        <time>2013-08-14T16:37:14.000+01:00</time>
      </trkpt>
      <trkpt lat="48.35345" lon="-4.77879">
        <ele>26.6</ele>
        <time>2013-08-14T16:37:22.000+01:00</time>
      </trkpt>
      <trkpt lat="48.35342" lon="-4.77866">
        <ele>26.7</ele>
        <time>2013-08-14T16:37:35.000+01:00</time>
      </trkpt>
      <trkpt lat="48.35338" lon="-4.77854">
        <ele>27.3</ele>
        <time>2013-08-14T16:37:44.000+01:00</time>
      </trkpt>
      <trkpt lat="48.35331" lon="-4.77843">
        <ele>27.7</ele>
        <time>2013-08-14T16:37:53.000+01:00</time>
      </trkpt>
      <trkpt lat="48.35324" lon="-4.77833">
        <ele>28</ele>
        <time>2013-08-14T16:38:01.000+01:00</time>
      </trkpt>
      <trkpt lat="48.35317" lon="-4.77825">
        <ele>28.3</ele>
        <time>2013-08-14T16:38:10.000+01:00</time>
      </trkpt>
      <trkpt lat="48.3531" lon="-4.77815">
        <ele>28.5</ele>
        <time>2013-08-14T16:38:18.000+01:00</time>
      </trkpt>
      <trkpt lat="48.35302" lon="-4.77804">
        <ele>28.6</ele>
        <time>2013-08-14T16:38:26.000+01:00</time>
      </trkpt>
      <trkpt lat="48.35295" lon="-4.77794">
        <ele>29.2</ele>
        <time>2013-08-14T16:38:34.000+01:00</time>
      </trkpt>
      <trkpt lat="48.35287" lon="-4.77785">
        <ele>29.7</ele>
        <time>2013-08-14T16:38:42.000+01:00</time>
      </trkpt>
      <trkpt lat="48.35286" lon="-4.77773">
        <ele>31</ele>
        <time>2013-08-14T16:38:50.000+01:00</time>
      </trkpt>
      <trkpt lat="48.35291" lon="-4.77761">
        <ele>31.8</ele>
        <time>2013-08-14T16:38:58.000+01:00</time>
      </trkpt>
      <trkpt lat="48.35297" lon="-4.7775">
        <ele>32.5</ele>
        <time>2013-08-14T16:39:12.000+01:00</time>
      </trkpt>
      <trkpt lat="48.35306" lon="-4.7775">
        <ele>33</ele>
        <time>2013-08-14T16:39:21.000+01:00</time>
      </trkpt>
      <trkpt lat="48.35315" lon="-4.77751">
        <ele>33.1</ele>
        <time>2013-08-14T16:39:30.000+01:00</time>
      </trkpt>
      <trkpt lat="48.35325" lon="-4.7775">
        <ele>33.2</ele>
        <time>2013-08-14T16:39:38.000+01:00</time>
      </trkpt>
      <trkpt lat="48.35335" lon="-4.77747">
        <ele>33.5</ele>
        <time>2013-08-14T16:39:46.000+01:00</time>
      </trkpt>
      <trkpt lat="48.35345" lon="-4.77741">
        <ele>34.2</ele>
        <time>2013-08-14T16:39:54.000+01:00</time>
      </trkpt>
      <trkpt lat="48.35352" lon="-4.77733">
        <ele>34.5</ele>
        <time>2013-08-14T16:40:01.000+01:00</time>
      </trkpt>
      <trkpt lat="48.35349" lon="-4.7772">
        <ele>34.4</ele>
        <time>2013-08-14T16:40:08.000+01:00</time>
      </trkpt>
      <trkpt lat="48.35346" lon="-4.77712">
        <ele>35.8</ele>
        <time>2013-08-14T16:40:18.000+01:00</time>
      </trkpt>
      <trkpt lat="48.35346" lon="-4.77708">
        <ele>33.4</ele>
        <time>2013-08-14T16:40:52.000+01:00</time>
      </trkpt>
      <trkpt lat="48.35351" lon="-4.77714">
        <ele>38.4</ele>
        <time>2013-08-14T16:41:14.000+01:00</time>
      </trkpt>
      <trkpt lat="48.3535" lon="-4.77711">
        <ele>39.6</ele>
        <time>2013-08-14T16:41:48.000+01:00</time>
      </trkpt>
    </trkseg>
  </trk>
</gpx>